<?xml version="1.0" encoding="UTF-8" standalone="no" ?>
<gpx xmlns="http://www.topografix.com/GPX/1/1" xmlns:xsi="http://www.w3.org/2001/XMLSchema-instance" xsi:schemaLocation="http://www.topografix.com/GPX/1/1 http://www.topografix.com/GPX/1/1/gpx.xsd" version="1.1" creator="VisuGPX - https://www.visugpx.com">
  <metadata>
    <name>28 Août 2012</name>
    <desc><![CDATA[Belle promenade.
Route: Campagne, forêt.
Chemin de halage.
Voie verte.]]></desc>
  </metadata>
  <trk>
    <name><![CDATA[28-AOU-12 15:31:02]]></name>
    <trkseg>
      <trkpt lat="48.08613" lon="-2.27493">
        <ele>66.95</ele>
        <time>2012-08-28T07:44:00Z</time>
      </trkpt>
      <trkpt lat="48.08614" lon="-2.27493">
        <ele>66.95</ele>
        <time>2012-08-28T07:44:19Z</time>
      </trkpt>
      <trkpt lat="48.08614" lon="-2.27493">
        <ele>67.43</ele>
        <time>2012-08-28T07:44:37Z</time>
      </trkpt>
      <trkpt lat="48.08614" lon="-2.27494">
        <ele>67.91</ele>
        <time>2012-08-28T07:44:55Z</time>
      </trkpt>
      <trkpt lat="48.08614" lon="-2.27495">
        <ele>68.39</ele>
        <time>2012-08-28T07:45:10Z</time>
      </trkpt>
      <trkpt lat="48.08614" lon="-2.27496">
        <ele>69.35</ele>
        <time>2012-08-28T07:45:28Z</time>
      </trkpt>
      <trkpt lat="48.08614" lon="-2.27496">
        <ele>69.83</ele>
        <time>2012-08-28T07:45:36Z</time>
      </trkpt>
      <trkpt lat="48.08614" lon="-2.27496">
        <ele>70.79</ele>
        <time>2012-08-28T07:45:48Z</time>
      </trkpt>
      <trkpt lat="48.08614" lon="-2.27497">
        <ele>71.27</ele>
        <time>2012-08-28T07:45:49Z</time>
      </trkpt>
      <trkpt lat="48.08616" lon="-2.275">
        <ele>71.76</ele>
        <time>2012-08-28T07:45:52Z</time>
      </trkpt>
      <trkpt lat="48.08615" lon="-2.27503">
        <ele>72.72</ele>
        <time>2012-08-28T07:45:54Z</time>
      </trkpt>
      <trkpt lat="48.08611" lon="-2.27511">
        <ele>76.08</ele>
        <time>2012-08-28T07:46:02Z</time>
      </trkpt>
      <trkpt lat="48.08611" lon="-2.27511">
        <ele>76.08</ele>
        <time>2012-08-28T07:46:03Z</time>
      </trkpt>
      <trkpt lat="48.08598" lon="-2.27508">
        <ele>76.08</ele>
        <time>2012-08-28T07:46:11Z</time>
      </trkpt>
      <trkpt lat="48.08581" lon="-2.27499">
        <ele>76.08</ele>
        <time>2012-08-28T07:46:18Z</time>
      </trkpt>
      <trkpt lat="48.08563" lon="-2.27491">
        <ele>76.08</ele>
        <time>2012-08-28T07:46:24Z</time>
      </trkpt>
      <trkpt lat="48.08557" lon="-2.27491">
        <ele>76.08</ele>
        <time>2012-08-28T07:46:26Z</time>
      </trkpt>
      <trkpt lat="48.08545" lon="-2.27515">
        <ele>76.56</ele>
        <time>2012-08-28T07:46:33Z</time>
      </trkpt>
      <trkpt lat="48.08534" lon="-2.27551">
        <ele>76.08</ele>
        <time>2012-08-28T07:46:42Z</time>
      </trkpt>
      <trkpt lat="48.08521" lon="-2.27591">
        <ele>76.08</ele>
        <time>2012-08-28T07:46:50Z</time>
      </trkpt>
      <trkpt lat="48.08507" lon="-2.27597">
        <ele>75.12</ele>
        <time>2012-08-28T07:46:54Z</time>
      </trkpt>
      <trkpt lat="48.08503" lon="-2.27595">
        <ele>74.64</ele>
        <time>2012-08-28T07:46:55Z</time>
      </trkpt>
      <trkpt lat="48.08499" lon="-2.27593">
        <ele>74.64</ele>
        <time>2012-08-28T07:46:56Z</time>
      </trkpt>
      <trkpt lat="48.08466" lon="-2.27577">
        <ele>72.72</ele>
        <time>2012-08-28T07:47:03Z</time>
      </trkpt>
      <trkpt lat="48.08461" lon="-2.27575">
        <ele>72.24</ele>
        <time>2012-08-28T07:47:04Z</time>
      </trkpt>
      <trkpt lat="48.08455" lon="-2.2757">
        <ele>71.76</ele>
        <time>2012-08-28T07:47:08Z</time>
      </trkpt>
      <trkpt lat="48.08454" lon="-2.2757">
        <ele>71.76</ele>
        <time>2012-08-28T07:47:09Z</time>
      </trkpt>
      <trkpt lat="48.08453" lon="-2.27569">
        <ele>71.27</ele>
        <time>2012-08-28T07:47:10Z</time>
      </trkpt>
      <trkpt lat="48.08453" lon="-2.27563">
        <ele>70.31</ele>
        <time>2012-08-28T07:47:12Z</time>
      </trkpt>
      <trkpt lat="48.0846" lon="-2.27533">
        <ele>68.87</ele>
        <time>2012-08-28T07:47:19Z</time>
      </trkpt>
      <trkpt lat="48.08453" lon="-2.27519">
        <ele>67.91</ele>
        <time>2012-08-28T07:47:23Z</time>
      </trkpt>
      <trkpt lat="48.08423" lon="-2.275">
        <ele>68.39</ele>
        <time>2012-08-28T07:47:32Z</time>
      </trkpt>
      <trkpt lat="48.0838" lon="-2.27476">
        <ele>68.39</ele>
        <time>2012-08-28T07:47:42Z</time>
      </trkpt>
      <trkpt lat="48.08342" lon="-2.27458">
        <ele>67.43</ele>
        <time>2012-08-28T07:47:49Z</time>
      </trkpt>
      <trkpt lat="48.08311" lon="-2.27444">
        <ele>66.47</ele>
        <time>2012-08-28T07:47:54Z</time>
      </trkpt>
      <trkpt lat="48.08304" lon="-2.27447">
        <ele>66.47</ele>
        <time>2012-08-28T07:47:55Z</time>
      </trkpt>
      <trkpt lat="48.08299" lon="-2.27453">
        <ele>66.47</ele>
        <time>2012-08-28T07:47:56Z</time>
      </trkpt>
      <trkpt lat="48.08274" lon="-2.27488">
        <ele>66.47</ele>
        <time>2012-08-28T07:48:02Z</time>
      </trkpt>
      <trkpt lat="48.08261" lon="-2.27508">
        <ele>65.99</ele>
        <time>2012-08-28T07:48:06Z</time>
      </trkpt>
      <trkpt lat="48.08258" lon="-2.27512">
        <ele>65.99</ele>
        <time>2012-08-28T07:48:07Z</time>
      </trkpt>
      <trkpt lat="48.08254" lon="-2.27515">
        <ele>66.47</ele>
        <time>2012-08-28T07:48:08Z</time>
      </trkpt>
      <trkpt lat="48.08252" lon="-2.2752">
        <ele>66.47</ele>
        <time>2012-08-28T07:48:09Z</time>
      </trkpt>
      <trkpt lat="48.08249" lon="-2.27523">
        <ele>66.47</ele>
        <time>2012-08-28T07:48:10Z</time>
      </trkpt>
      <trkpt lat="48.08247" lon="-2.27525">
        <ele>66.47</ele>
        <time>2012-08-28T07:48:11Z</time>
      </trkpt>
      <trkpt lat="48.08243" lon="-2.27526">
        <ele>66.47</ele>
        <time>2012-08-28T07:48:12Z</time>
      </trkpt>
      <trkpt lat="48.0824" lon="-2.27524">
        <ele>66.47</ele>
        <time>2012-08-28T07:48:13Z</time>
      </trkpt>
      <trkpt lat="48.08238" lon="-2.27519">
        <ele>65.99</ele>
        <time>2012-08-28T07:48:14Z</time>
      </trkpt>
      <trkpt lat="48.08235" lon="-2.27514">
        <ele>65.51</ele>
        <time>2012-08-28T07:48:15Z</time>
      </trkpt>
      <trkpt lat="48.08229" lon="-2.27503">
        <ele>65.03</ele>
        <time>2012-08-28T07:48:17Z</time>
      </trkpt>
      <trkpt lat="48.08219" lon="-2.27478">
        <ele>64.07</ele>
        <time>2012-08-28T07:48:21Z</time>
      </trkpt>
      <trkpt lat="48.08209" lon="-2.27461">
        <ele>64.07</ele>
        <time>2012-08-28T07:48:24Z</time>
      </trkpt>
      <trkpt lat="48.08201" lon="-2.2745">
        <ele>63.1</ele>
        <time>2012-08-28T07:48:26Z</time>
      </trkpt>
      <trkpt lat="48.08171" lon="-2.27428">
        <ele>61.66</ele>
        <time>2012-08-28T07:48:31Z</time>
      </trkpt>
      <trkpt lat="48.08125" lon="-2.27434">
        <ele>59.74</ele>
        <time>2012-08-28T07:48:38Z</time>
      </trkpt>
      <trkpt lat="48.0808" lon="-2.27444">
        <ele>58.3</ele>
        <time>2012-08-28T07:48:46Z</time>
      </trkpt>
      <trkpt lat="48.08039" lon="-2.27465">
        <ele>56.37</ele>
        <time>2012-08-28T07:48:54Z</time>
      </trkpt>
      <trkpt lat="48.08012" lon="-2.27491">
        <ele>55.89</ele>
        <time>2012-08-28T07:49:00Z</time>
      </trkpt>
      <trkpt lat="48.07977" lon="-2.27525">
        <ele>54.45</ele>
        <time>2012-08-28T07:49:08Z</time>
      </trkpt>
      <trkpt lat="48.07932" lon="-2.27544">
        <ele>54.93</ele>
        <time>2012-08-28T07:49:17Z</time>
      </trkpt>
      <trkpt lat="48.07879" lon="-2.27548">
        <ele>56.86</ele>
        <time>2012-08-28T07:49:28Z</time>
      </trkpt>
      <trkpt lat="48.07847" lon="-2.2755">
        <ele>58.3</ele>
        <time>2012-08-28T07:49:35Z</time>
      </trkpt>
      <trkpt lat="48.07803" lon="-2.27534">
        <ele>58.78</ele>
        <time>2012-08-28T07:49:45Z</time>
      </trkpt>
      <trkpt lat="48.07773" lon="-2.27516">
        <ele>58.78</ele>
        <time>2012-08-28T07:49:52Z</time>
      </trkpt>
      <trkpt lat="48.07733" lon="-2.27494">
        <ele>59.74</ele>
        <time>2012-08-28T07:50:01Z</time>
      </trkpt>
      <trkpt lat="48.07698" lon="-2.27473">
        <ele>61.18</ele>
        <time>2012-08-28T07:50:09Z</time>
      </trkpt>
      <trkpt lat="48.07667" lon="-2.27455">
        <ele>62.14</ele>
        <time>2012-08-28T07:50:16Z</time>
      </trkpt>
      <trkpt lat="48.07615" lon="-2.27424">
        <ele>63.58</ele>
        <time>2012-08-28T07:50:28Z</time>
      </trkpt>
      <trkpt lat="48.07597" lon="-2.27414">
        <ele>63.1</ele>
        <time>2012-08-28T07:50:32Z</time>
      </trkpt>
      <trkpt lat="48.07574" lon="-2.27424">
        <ele>62.62</ele>
        <time>2012-08-28T07:50:37Z</time>
      </trkpt>
      <trkpt lat="48.07537" lon="-2.27477">
        <ele>62.14</ele>
        <time>2012-08-28T07:50:47Z</time>
      </trkpt>
      <trkpt lat="48.07496" lon="-2.27541">
        <ele>61.18</ele>
        <time>2012-08-28T07:50:58Z</time>
      </trkpt>
      <trkpt lat="48.07453" lon="-2.27615">
        <ele>60.7</ele>
        <time>2012-08-28T07:51:10Z</time>
      </trkpt>
      <trkpt lat="48.07414" lon="-2.2769">
        <ele>60.22</ele>
        <time>2012-08-28T07:51:22Z</time>
      </trkpt>
      <trkpt lat="48.07383" lon="-2.27758">
        <ele>59.74</ele>
        <time>2012-08-28T07:51:33Z</time>
      </trkpt>
      <trkpt lat="48.07356" lon="-2.27822">
        <ele>61.18</ele>
        <time>2012-08-28T07:51:43Z</time>
      </trkpt>
      <trkpt lat="48.0733" lon="-2.27883">
        <ele>62.62</ele>
        <time>2012-08-28T07:51:54Z</time>
      </trkpt>
      <trkpt lat="48.0731" lon="-2.27936">
        <ele>63.58</ele>
        <time>2012-08-28T07:52:04Z</time>
      </trkpt>
      <trkpt lat="48.0729" lon="-2.27994">
        <ele>65.03</ele>
        <time>2012-08-28T07:52:15Z</time>
      </trkpt>
      <trkpt lat="48.0727" lon="-2.28049">
        <ele>65.99</ele>
        <time>2012-08-28T07:52:26Z</time>
      </trkpt>
      <trkpt lat="48.07262" lon="-2.28091">
        <ele>67.43</ele>
        <time>2012-08-28T07:52:34Z</time>
      </trkpt>
      <trkpt lat="48.07246" lon="-2.28103">
        <ele>67.43</ele>
        <time>2012-08-28T07:52:39Z</time>
      </trkpt>
      <trkpt lat="48.07229" lon="-2.28093">
        <ele>67.43</ele>
        <time>2012-08-28T07:52:44Z</time>
      </trkpt>
      <trkpt lat="48.07225" lon="-2.28091">
        <ele>67.43</ele>
        <time>2012-08-28T07:52:45Z</time>
      </trkpt>
      <trkpt lat="48.07203" lon="-2.28097">
        <ele>67.43</ele>
        <time>2012-08-28T07:52:51Z</time>
      </trkpt>
      <trkpt lat="48.072" lon="-2.281">
        <ele>67.43</ele>
        <time>2012-08-28T07:52:52Z</time>
      </trkpt>
      <trkpt lat="48.07178" lon="-2.28133">
        <ele>68.39</ele>
        <time>2012-08-28T07:53:02Z</time>
      </trkpt>
      <trkpt lat="48.07166" lon="-2.28169">
        <ele>68.87</ele>
        <time>2012-08-28T07:53:11Z</time>
      </trkpt>
      <trkpt lat="48.07149" lon="-2.28216">
        <ele>70.31</ele>
        <time>2012-08-28T07:53:22Z</time>
      </trkpt>
      <trkpt lat="48.07139" lon="-2.28247">
        <ele>70.79</ele>
        <time>2012-08-28T07:53:30Z</time>
      </trkpt>
      <trkpt lat="48.07126" lon="-2.28289">
        <ele>71.76</ele>
        <time>2012-08-28T07:53:40Z</time>
      </trkpt>
      <trkpt lat="48.0711" lon="-2.28336">
        <ele>72.24</ele>
        <time>2012-08-28T07:53:50Z</time>
      </trkpt>
      <trkpt lat="48.07108" lon="-2.28341">
        <ele>72.24</ele>
        <time>2012-08-28T07:53:51Z</time>
      </trkpt>
      <trkpt lat="48.07089" lon="-2.28401">
        <ele>71.27</ele>
        <time>2012-08-28T07:54:02Z</time>
      </trkpt>
      <trkpt lat="48.07074" lon="-2.28447">
        <ele>71.76</ele>
        <time>2012-08-28T07:54:12Z</time>
      </trkpt>
      <trkpt lat="48.07057" lon="-2.28494">
        <ele>74.16</ele>
        <time>2012-08-28T07:54:24Z</time>
      </trkpt>
      <trkpt lat="48.07041" lon="-2.28522">
        <ele>75.6</ele>
        <time>2012-08-28T07:54:33Z</time>
      </trkpt>
      <trkpt lat="48.07024" lon="-2.28534">
        <ele>76.56</ele>
        <time>2012-08-28T07:54:40Z</time>
      </trkpt>
      <trkpt lat="48.07002" lon="-2.28532">
        <ele>78</ele>
        <time>2012-08-28T07:54:48Z</time>
      </trkpt>
      <trkpt lat="48.0697" lon="-2.28521">
        <ele>80.41</ele>
        <time>2012-08-28T07:55:01Z</time>
      </trkpt>
      <trkpt lat="48.06947" lon="-2.28512">
        <ele>81.37</ele>
        <time>2012-08-28T07:55:11Z</time>
      </trkpt>
      <trkpt lat="48.0692" lon="-2.28501">
        <ele>82.33</ele>
        <time>2012-08-28T07:55:23Z</time>
      </trkpt>
      <trkpt lat="48.06895" lon="-2.28492">
        <ele>83.77</ele>
        <time>2012-08-28T07:55:34Z</time>
      </trkpt>
      <trkpt lat="48.06869" lon="-2.28482">
        <ele>85.69</ele>
        <time>2012-08-28T07:55:46Z</time>
      </trkpt>
      <trkpt lat="48.06846" lon="-2.28474">
        <ele>86.18</ele>
        <time>2012-08-28T07:55:56Z</time>
      </trkpt>
      <trkpt lat="48.06821" lon="-2.28465">
        <ele>87.62</ele>
        <time>2012-08-28T07:56:07Z</time>
      </trkpt>
      <trkpt lat="48.06799" lon="-2.28456">
        <ele>88.1</ele>
        <time>2012-08-28T07:56:16Z</time>
      </trkpt>
      <trkpt lat="48.06777" lon="-2.28443">
        <ele>88.1</ele>
        <time>2012-08-28T07:56:24Z</time>
      </trkpt>
      <trkpt lat="48.06759" lon="-2.28426">
        <ele>88.1</ele>
        <time>2012-08-28T07:56:31Z</time>
      </trkpt>
      <trkpt lat="48.06732" lon="-2.284">
        <ele>87.62</ele>
        <time>2012-08-28T07:56:41Z</time>
      </trkpt>
      <trkpt lat="48.06707" lon="-2.28383">
        <ele>87.62</ele>
        <time>2012-08-28T07:56:49Z</time>
      </trkpt>
      <trkpt lat="48.06697" lon="-2.28378">
        <ele>87.62</ele>
        <time>2012-08-28T07:56:52Z</time>
      </trkpt>
      <trkpt lat="48.06656" lon="-2.28365">
        <ele>88.58</ele>
        <time>2012-08-28T07:57:01Z</time>
      </trkpt>
      <trkpt lat="48.06602" lon="-2.28347">
        <ele>87.62</ele>
        <time>2012-08-28T07:57:11Z</time>
      </trkpt>
      <trkpt lat="48.06596" lon="-2.28343">
        <ele>87.14</ele>
        <time>2012-08-28T07:57:12Z</time>
      </trkpt>
      <trkpt lat="48.06547" lon="-2.28295">
        <ele>83.77</ele>
        <time>2012-08-28T07:57:20Z</time>
      </trkpt>
      <trkpt lat="48.06505" lon="-2.28246">
        <ele>81.85</ele>
        <time>2012-08-28T07:57:28Z</time>
      </trkpt>
      <trkpt lat="48.06485" lon="-2.28224">
        <ele>81.85</ele>
        <time>2012-08-28T07:57:33Z</time>
      </trkpt>
      <trkpt lat="48.06445" lon="-2.28185">
        <ele>82.33</ele>
        <time>2012-08-28T07:57:42Z</time>
      </trkpt>
      <trkpt lat="48.0639" lon="-2.28137">
        <ele>80.41</ele>
        <time>2012-08-28T07:57:53Z</time>
      </trkpt>
      <trkpt lat="48.06337" lon="-2.28092">
        <ele>77.52</ele>
        <time>2012-08-28T07:58:02Z</time>
      </trkpt>
      <trkpt lat="48.06271" lon="-2.2804">
        <ele>73.2</ele>
        <time>2012-08-28T07:58:11Z</time>
      </trkpt>
      <trkpt lat="48.06203" lon="-2.28012">
        <ele>70.31</ele>
        <time>2012-08-28T07:58:19Z</time>
      </trkpt>
      <trkpt lat="48.06142" lon="-2.27989">
        <ele>68.39</ele>
        <time>2012-08-28T07:58:27Z</time>
      </trkpt>
      <trkpt lat="48.06093" lon="-2.27973">
        <ele>66.95</ele>
        <time>2012-08-28T07:58:35Z</time>
      </trkpt>
      <trkpt lat="48.06053" lon="-2.27959">
        <ele>66.95</ele>
        <time>2012-08-28T07:58:43Z</time>
      </trkpt>
      <trkpt lat="48.06009" lon="-2.27936">
        <ele>68.39</ele>
        <time>2012-08-28T07:58:53Z</time>
      </trkpt>
      <trkpt lat="48.05975" lon="-2.27901">
        <ele>69.83</ele>
        <time>2012-08-28T07:59:03Z</time>
      </trkpt>
      <trkpt lat="48.05939" lon="-2.27857">
        <ele>72.24</ele>
        <time>2012-08-28T07:59:15Z</time>
      </trkpt>
      <trkpt lat="48.05919" lon="-2.27833">
        <ele>73.2</ele>
        <time>2012-08-28T07:59:23Z</time>
      </trkpt>
      <trkpt lat="48.05899" lon="-2.27811">
        <ele>75.6</ele>
        <time>2012-08-28T07:59:32Z</time>
      </trkpt>
      <trkpt lat="48.05879" lon="-2.27791">
        <ele>77.52</ele>
        <time>2012-08-28T07:59:41Z</time>
      </trkpt>
      <trkpt lat="48.05855" lon="-2.27774">
        <ele>79.93</ele>
        <time>2012-08-28T07:59:52Z</time>
      </trkpt>
      <trkpt lat="48.05833" lon="-2.27759">
        <ele>81.85</ele>
        <time>2012-08-28T08:00:02Z</time>
      </trkpt>
      <trkpt lat="48.05816" lon="-2.27747">
        <ele>82.81</ele>
        <time>2012-08-28T08:00:10Z</time>
      </trkpt>
      <trkpt lat="48.05796" lon="-2.27733">
        <ele>83.77</ele>
        <time>2012-08-28T08:00:19Z</time>
      </trkpt>
      <trkpt lat="48.05775" lon="-2.27718">
        <ele>84.73</ele>
        <time>2012-08-28T08:00:29Z</time>
      </trkpt>
      <trkpt lat="48.05758" lon="-2.27705">
        <ele>84.73</ele>
        <time>2012-08-28T08:00:37Z</time>
      </trkpt>
      <trkpt lat="48.05736" lon="-2.27683">
        <ele>85.69</ele>
        <time>2012-08-28T08:00:48Z</time>
      </trkpt>
      <trkpt lat="48.05721" lon="-2.27662">
        <ele>86.18</ele>
        <time>2012-08-28T08:00:56Z</time>
      </trkpt>
      <trkpt lat="48.05707" lon="-2.27636">
        <ele>86.66</ele>
        <time>2012-08-28T08:01:05Z</time>
      </trkpt>
      <trkpt lat="48.05694" lon="-2.27604">
        <ele>87.62</ele>
        <time>2012-08-28T08:01:15Z</time>
      </trkpt>
      <trkpt lat="48.05679" lon="-2.27567">
        <ele>89.06</ele>
        <time>2012-08-28T08:01:25Z</time>
      </trkpt>
      <trkpt lat="48.05666" lon="-2.27534">
        <ele>89.06</ele>
        <time>2012-08-28T08:01:34Z</time>
      </trkpt>
      <trkpt lat="48.05649" lon="-2.27493">
        <ele>90.5</ele>
        <time>2012-08-28T08:01:45Z</time>
      </trkpt>
      <trkpt lat="48.05635" lon="-2.27461">
        <ele>91.94</ele>
        <time>2012-08-28T08:01:54Z</time>
      </trkpt>
      <trkpt lat="48.05615" lon="-2.27427">
        <ele>93.39</ele>
        <time>2012-08-28T08:02:05Z</time>
      </trkpt>
      <trkpt lat="48.05593" lon="-2.27404">
        <ele>94.35</ele>
        <time>2012-08-28T08:02:14Z</time>
      </trkpt>
      <trkpt lat="48.05571" lon="-2.27384">
        <ele>94.35</ele>
        <time>2012-08-28T08:02:22Z</time>
      </trkpt>
      <trkpt lat="48.05543" lon="-2.27358">
        <ele>93.87</ele>
        <time>2012-08-28T08:02:31Z</time>
      </trkpt>
      <trkpt lat="48.05512" lon="-2.2733">
        <ele>92.9</ele>
        <time>2012-08-28T08:02:40Z</time>
      </trkpt>
      <trkpt lat="48.05476" lon="-2.273">
        <ele>92.9</ele>
        <time>2012-08-28T08:02:50Z</time>
      </trkpt>
      <trkpt lat="48.05431" lon="-2.2727">
        <ele>93.87</ele>
        <time>2012-08-28T08:03:02Z</time>
      </trkpt>
      <trkpt lat="48.05401" lon="-2.27253">
        <ele>94.83</ele>
        <time>2012-08-28T08:03:10Z</time>
      </trkpt>
      <trkpt lat="48.05356" lon="-2.27225">
        <ele>94.83</ele>
        <time>2012-08-28T08:03:21Z</time>
      </trkpt>
      <trkpt lat="48.05313" lon="-2.272">
        <ele>94.83</ele>
        <time>2012-08-28T08:03:31Z</time>
      </trkpt>
      <trkpt lat="48.05264" lon="-2.27173">
        <ele>94.83</ele>
        <time>2012-08-28T08:03:42Z</time>
      </trkpt>
      <trkpt lat="48.05221" lon="-2.2715">
        <ele>93.87</ele>
        <time>2012-08-28T08:03:51Z</time>
      </trkpt>
      <trkpt lat="48.05199" lon="-2.27138">
        <ele>93.39</ele>
        <time>2012-08-28T08:03:55Z</time>
      </trkpt>
      <trkpt lat="48.05141" lon="-2.27096">
        <ele>90.5</ele>
        <time>2012-08-28T08:04:06Z</time>
      </trkpt>
      <trkpt lat="48.05079" lon="-2.27041">
        <ele>89.06</ele>
        <time>2012-08-28T08:04:17Z</time>
      </trkpt>
      <trkpt lat="48.05024" lon="-2.26991">
        <ele>89.54</ele>
        <time>2012-08-28T08:04:28Z</time>
      </trkpt>
      <trkpt lat="48.04958" lon="-2.26942">
        <ele>90.5</ele>
        <time>2012-08-28T08:04:41Z</time>
      </trkpt>
      <trkpt lat="48.04913" lon="-2.26936">
        <ele>90.98</ele>
        <time>2012-08-28T08:04:49Z</time>
      </trkpt>
      <trkpt lat="48.04858" lon="-2.26936">
        <ele>91.94</ele>
        <time>2012-08-28T08:04:59Z</time>
      </trkpt>
      <trkpt lat="48.04848" lon="-2.26936">
        <ele>92.42</ele>
        <time>2012-08-28T08:05:01Z</time>
      </trkpt>
      <trkpt lat="48.04801" lon="-2.26934">
        <ele>93.39</ele>
        <time>2012-08-28T08:05:12Z</time>
      </trkpt>
      <trkpt lat="48.04765" lon="-2.26933">
        <ele>93.39</ele>
        <time>2012-08-28T08:05:22Z</time>
      </trkpt>
      <trkpt lat="48.04724" lon="-2.26932">
        <ele>93.87</ele>
        <time>2012-08-28T08:05:34Z</time>
      </trkpt>
      <trkpt lat="48.04696" lon="-2.26931">
        <ele>94.35</ele>
        <time>2012-08-28T08:05:43Z</time>
      </trkpt>
      <trkpt lat="48.04668" lon="-2.2693">
        <ele>96.27</ele>
        <time>2012-08-28T08:05:52Z</time>
      </trkpt>
      <trkpt lat="48.04638" lon="-2.2693">
        <ele>97.71</ele>
        <time>2012-08-28T08:06:02Z</time>
      </trkpt>
      <trkpt lat="48.04601" lon="-2.26932">
        <ele>99.63</ele>
        <time>2012-08-28T08:06:15Z</time>
      </trkpt>
      <trkpt lat="48.0457" lon="-2.26933">
        <ele>101.08</ele>
        <time>2012-08-28T08:06:26Z</time>
      </trkpt>
      <trkpt lat="48.04544" lon="-2.26932">
        <ele>101.56</ele>
        <time>2012-08-28T08:06:36Z</time>
      </trkpt>
      <trkpt lat="48.04524" lon="-2.26931">
        <ele>103</ele>
        <time>2012-08-28T08:06:44Z</time>
      </trkpt>
      <trkpt lat="48.04505" lon="-2.26925">
        <ele>104.44</ele>
        <time>2012-08-28T08:06:52Z</time>
      </trkpt>
      <trkpt lat="48.04485" lon="-2.26917">
        <ele>106.36</ele>
        <time>2012-08-28T08:07:01Z</time>
      </trkpt>
      <trkpt lat="48.04468" lon="-2.26906">
        <ele>107.81</ele>
        <time>2012-08-28T08:07:09Z</time>
      </trkpt>
      <trkpt lat="48.04446" lon="-2.26892">
        <ele>109.25</ele>
        <time>2012-08-28T08:07:19Z</time>
      </trkpt>
      <trkpt lat="48.04428" lon="-2.2688">
        <ele>111.17</ele>
        <time>2012-08-28T08:07:27Z</time>
      </trkpt>
      <trkpt lat="48.04415" lon="-2.2687">
        <ele>112.13</ele>
        <time>2012-08-28T08:07:34Z</time>
      </trkpt>
      <trkpt lat="48.04401" lon="-2.26859">
        <ele>112.61</ele>
        <time>2012-08-28T08:07:41Z</time>
      </trkpt>
      <trkpt lat="48.04376" lon="-2.2684">
        <ele>112.61</ele>
        <time>2012-08-28T08:07:49Z</time>
      </trkpt>
      <trkpt lat="48.04344" lon="-2.26818">
        <ele>112.61</ele>
        <time>2012-08-28T08:08:00Z</time>
      </trkpt>
      <trkpt lat="48.04321" lon="-2.26801">
        <ele>112.61</ele>
        <time>2012-08-28T08:08:08Z</time>
      </trkpt>
      <trkpt lat="48.04288" lon="-2.26777">
        <ele>113.09</ele>
        <time>2012-08-28T08:08:18Z</time>
      </trkpt>
      <trkpt lat="48.04259" lon="-2.26759">
        <ele>113.09</ele>
        <time>2012-08-28T08:08:27Z</time>
      </trkpt>
      <trkpt lat="48.0423" lon="-2.2675">
        <ele>114.05</ele>
        <time>2012-08-28T08:08:37Z</time>
      </trkpt>
      <trkpt lat="48.04198" lon="-2.26743">
        <ele>114.53</ele>
        <time>2012-08-28T08:08:48Z</time>
      </trkpt>
      <trkpt lat="48.0417" lon="-2.26738">
        <ele>115.98</ele>
        <time>2012-08-28T08:08:59Z</time>
      </trkpt>
      <trkpt lat="48.04148" lon="-2.26734">
        <ele>117.42</ele>
        <time>2012-08-28T08:09:08Z</time>
      </trkpt>
      <trkpt lat="48.04128" lon="-2.2673">
        <ele>119.34</ele>
        <time>2012-08-28T08:09:16Z</time>
      </trkpt>
      <trkpt lat="48.04101" lon="-2.26725">
        <ele>120.78</ele>
        <time>2012-08-28T08:09:27Z</time>
      </trkpt>
      <trkpt lat="48.04075" lon="-2.26721">
        <ele>122.71</ele>
        <time>2012-08-28T08:09:37Z</time>
      </trkpt>
      <trkpt lat="48.04046" lon="-2.26717">
        <ele>125.59</ele>
        <time>2012-08-28T08:09:48Z</time>
      </trkpt>
      <trkpt lat="48.04017" lon="-2.26712">
        <ele>126.07</ele>
        <time>2012-08-28T08:09:58Z</time>
      </trkpt>
      <trkpt lat="48.0399" lon="-2.26706">
        <ele>125.59</ele>
        <time>2012-08-28T08:10:05Z</time>
      </trkpt>
      <trkpt lat="48.03946" lon="-2.26698">
        <ele>124.63</ele>
        <time>2012-08-28T08:10:15Z</time>
      </trkpt>
      <trkpt lat="48.03907" lon="-2.26689">
        <ele>125.59</ele>
        <time>2012-08-28T08:10:24Z</time>
      </trkpt>
      <trkpt lat="48.0388" lon="-2.26682">
        <ele>126.07</ele>
        <time>2012-08-28T08:10:30Z</time>
      </trkpt>
      <trkpt lat="48.03846" lon="-2.26676">
        <ele>126.07</ele>
        <time>2012-08-28T08:10:38Z</time>
      </trkpt>
      <trkpt lat="48.03813" lon="-2.26672">
        <ele>124.63</ele>
        <time>2012-08-28T08:10:45Z</time>
      </trkpt>
      <trkpt lat="48.03767" lon="-2.26663">
        <ele>124.15</ele>
        <time>2012-08-28T08:10:55Z</time>
      </trkpt>
      <trkpt lat="48.0374" lon="-2.26658">
        <ele>123.67</ele>
        <time>2012-08-28T08:11:01Z</time>
      </trkpt>
      <trkpt lat="48.03696" lon="-2.26663">
        <ele>122.22</ele>
        <time>2012-08-28T08:11:10Z</time>
      </trkpt>
      <trkpt lat="48.03676" lon="-2.26673">
        <ele>122.22</ele>
        <time>2012-08-28T08:11:14Z</time>
      </trkpt>
      <trkpt lat="48.0364" lon="-2.26694">
        <ele>122.22</ele>
        <time>2012-08-28T08:11:22Z</time>
      </trkpt>
      <trkpt lat="48.036" lon="-2.2672">
        <ele>122.71</ele>
        <time>2012-08-28T08:11:31Z</time>
      </trkpt>
      <trkpt lat="48.03568" lon="-2.26753">
        <ele>123.19</ele>
        <time>2012-08-28T08:11:39Z</time>
      </trkpt>
      <trkpt lat="48.03543" lon="-2.268">
        <ele>123.67</ele>
        <time>2012-08-28T08:11:48Z</time>
      </trkpt>
      <trkpt lat="48.03522" lon="-2.26848">
        <ele>124.63</ele>
        <time>2012-08-28T08:11:57Z</time>
      </trkpt>
      <trkpt lat="48.03506" lon="-2.26884">
        <ele>124.63</ele>
        <time>2012-08-28T08:12:04Z</time>
      </trkpt>
      <trkpt lat="48.03486" lon="-2.2693">
        <ele>125.11</ele>
        <time>2012-08-28T08:12:13Z</time>
      </trkpt>
      <trkpt lat="48.03458" lon="-2.2697">
        <ele>127.03</ele>
        <time>2012-08-28T08:12:23Z</time>
      </trkpt>
      <trkpt lat="48.03436" lon="-2.26996">
        <ele>128.95</ele>
        <time>2012-08-28T08:12:30Z</time>
      </trkpt>
      <trkpt lat="48.03405" lon="-2.27027">
        <ele>129.92</ele>
        <time>2012-08-28T08:12:39Z</time>
      </trkpt>
      <trkpt lat="48.03367" lon="-2.27065">
        <ele>130.4</ele>
        <time>2012-08-28T08:12:50Z</time>
      </trkpt>
      <trkpt lat="48.03332" lon="-2.27099">
        <ele>130.88</ele>
        <time>2012-08-28T08:13:00Z</time>
      </trkpt>
      <trkpt lat="48.03297" lon="-2.27132">
        <ele>131.36</ele>
        <time>2012-08-28T08:13:10Z</time>
      </trkpt>
      <trkpt lat="48.0327" lon="-2.27159">
        <ele>131.36</ele>
        <time>2012-08-28T08:13:18Z</time>
      </trkpt>
      <trkpt lat="48.03264" lon="-2.27166">
        <ele>131.36</ele>
        <time>2012-08-28T08:13:20Z</time>
      </trkpt>
      <trkpt lat="48.03249" lon="-2.27177">
        <ele>131.36</ele>
        <time>2012-08-28T08:13:24Z</time>
      </trkpt>
      <trkpt lat="48.03214" lon="-2.27207">
        <ele>131.84</ele>
        <time>2012-08-28T08:13:33Z</time>
      </trkpt>
      <trkpt lat="48.03176" lon="-2.27239">
        <ele>131.84</ele>
        <time>2012-08-28T08:13:42Z</time>
      </trkpt>
      <trkpt lat="48.03131" lon="-2.27283">
        <ele>132.8</ele>
        <time>2012-08-28T08:13:53Z</time>
      </trkpt>
      <trkpt lat="48.03102" lon="-2.27319">
        <ele>133.76</ele>
        <time>2012-08-28T08:14:01Z</time>
      </trkpt>
      <trkpt lat="48.0307" lon="-2.27364">
        <ele>134.72</ele>
        <time>2012-08-28T08:14:11Z</time>
      </trkpt>
      <trkpt lat="48.03041" lon="-2.27405">
        <ele>134.72</ele>
        <time>2012-08-28T08:14:21Z</time>
      </trkpt>
      <trkpt lat="48.03008" lon="-2.2745">
        <ele>133.76</ele>
        <time>2012-08-28T08:14:32Z</time>
      </trkpt>
      <trkpt lat="48.02983" lon="-2.27484">
        <ele>134.72</ele>
        <time>2012-08-28T08:14:41Z</time>
      </trkpt>
      <trkpt lat="48.02954" lon="-2.27523">
        <ele>135.68</ele>
        <time>2012-08-28T08:14:51Z</time>
      </trkpt>
      <trkpt lat="48.02925" lon="-2.27561">
        <ele>135.68</ele>
        <time>2012-08-28T08:15:01Z</time>
      </trkpt>
      <trkpt lat="48.02897" lon="-2.276">
        <ele>135.2</ele>
        <time>2012-08-28T08:15:11Z</time>
      </trkpt>
      <trkpt lat="48.02859" lon="-2.27651">
        <ele>134.72</ele>
        <time>2012-08-28T08:15:23Z</time>
      </trkpt>
      <trkpt lat="48.02829" lon="-2.27691">
        <ele>134.24</ele>
        <time>2012-08-28T08:15:33Z</time>
      </trkpt>
      <trkpt lat="48.02804" lon="-2.27725">
        <ele>133.76</ele>
        <time>2012-08-28T08:15:41Z</time>
      </trkpt>
      <trkpt lat="48.02763" lon="-2.2778">
        <ele>135.2</ele>
        <time>2012-08-28T08:15:55Z</time>
      </trkpt>
      <trkpt lat="48.02732" lon="-2.27823">
        <ele>136.16</ele>
        <time>2012-08-28T08:16:06Z</time>
      </trkpt>
      <trkpt lat="48.02706" lon="-2.27858">
        <ele>136.16</ele>
        <time>2012-08-28T08:16:15Z</time>
      </trkpt>
      <trkpt lat="48.02669" lon="-2.27908">
        <ele>136.16</ele>
        <time>2012-08-28T08:16:26Z</time>
      </trkpt>
      <trkpt lat="48.02638" lon="-2.27952">
        <ele>134.72</ele>
        <time>2012-08-28T08:16:35Z</time>
      </trkpt>
      <trkpt lat="48.02606" lon="-2.27994">
        <ele>133.28</ele>
        <time>2012-08-28T08:16:45Z</time>
      </trkpt>
      <trkpt lat="48.0257" lon="-2.28041">
        <ele>133.76</ele>
        <time>2012-08-28T08:16:56Z</time>
      </trkpt>
      <trkpt lat="48.0254" lon="-2.28084">
        <ele>134.72</ele>
        <time>2012-08-28T08:17:06Z</time>
      </trkpt>
      <trkpt lat="48.02509" lon="-2.28124">
        <ele>135.2</ele>
        <time>2012-08-28T08:17:16Z</time>
      </trkpt>
      <trkpt lat="48.02496" lon="-2.2814">
        <ele>135.2</ele>
        <time>2012-08-28T08:17:20Z</time>
      </trkpt>
      <trkpt lat="48.02466" lon="-2.28183">
        <ele>137.61</ele>
        <time>2012-08-28T08:17:30Z</time>
      </trkpt>
      <trkpt lat="48.02437" lon="-2.28225">
        <ele>140.97</ele>
        <time>2012-08-28T08:17:41Z</time>
      </trkpt>
      <trkpt lat="48.02406" lon="-2.28266">
        <ele>144.82</ele>
        <time>2012-08-28T08:17:51Z</time>
      </trkpt>
      <trkpt lat="48.02381" lon="-2.28297">
        <ele>145.78</ele>
        <time>2012-08-28T08:18:01Z</time>
      </trkpt>
      <trkpt lat="48.02352" lon="-2.28336">
        <ele>146.74</ele>
        <time>2012-08-28T08:18:11Z</time>
      </trkpt>
      <trkpt lat="48.02331" lon="-2.28363">
        <ele>146.74</ele>
        <time>2012-08-28T08:18:18Z</time>
      </trkpt>
      <trkpt lat="48.02311" lon="-2.28389">
        <ele>148.18</ele>
        <time>2012-08-28T08:18:26Z</time>
      </trkpt>
      <trkpt lat="48.02286" lon="-2.28423">
        <ele>149.14</ele>
        <time>2012-08-28T08:18:35Z</time>
      </trkpt>
      <trkpt lat="48.02257" lon="-2.28466">
        <ele>150.58</ele>
        <time>2012-08-28T08:18:45Z</time>
      </trkpt>
      <trkpt lat="48.02239" lon="-2.28491">
        <ele>151.54</ele>
        <time>2012-08-28T08:18:52Z</time>
      </trkpt>
      <trkpt lat="48.02221" lon="-2.28525">
        <ele>152.03</ele>
        <time>2012-08-28T08:19:00Z</time>
      </trkpt>
      <trkpt lat="48.02198" lon="-2.28552">
        <ele>152.99</ele>
        <time>2012-08-28T08:19:08Z</time>
      </trkpt>
      <trkpt lat="48.02173" lon="-2.2858">
        <ele>152.51</ele>
        <time>2012-08-28T08:19:16Z</time>
      </trkpt>
      <trkpt lat="48.02143" lon="-2.28619">
        <ele>152.03</ele>
        <time>2012-08-28T08:19:25Z</time>
      </trkpt>
      <trkpt lat="48.02111" lon="-2.28661">
        <ele>151.06</ele>
        <time>2012-08-28T08:19:35Z</time>
      </trkpt>
      <trkpt lat="48.02082" lon="-2.28699">
        <ele>150.1</ele>
        <time>2012-08-28T08:19:44Z</time>
      </trkpt>
      <trkpt lat="48.02048" lon="-2.28746">
        <ele>148.18</ele>
        <time>2012-08-28T08:19:54Z</time>
      </trkpt>
      <trkpt lat="48.02005" lon="-2.28798">
        <ele>144.82</ele>
        <time>2012-08-28T08:20:06Z</time>
      </trkpt>
      <trkpt lat="48.01971" lon="-2.28832">
        <ele>143.85</ele>
        <time>2012-08-28T08:20:14Z</time>
      </trkpt>
      <trkpt lat="48.01937" lon="-2.28866">
        <ele>143.37</ele>
        <time>2012-08-28T08:20:22Z</time>
      </trkpt>
      <trkpt lat="48.0191" lon="-2.28892">
        <ele>143.85</ele>
        <time>2012-08-28T08:20:28Z</time>
      </trkpt>
      <trkpt lat="48.01868" lon="-2.28932">
        <ele>142.41</ele>
        <time>2012-08-28T08:20:36Z</time>
      </trkpt>
      <trkpt lat="48.01852" lon="-2.28947">
        <ele>142.41</ele>
        <time>2012-08-28T08:20:39Z</time>
      </trkpt>
      <trkpt lat="48.01813" lon="-2.28984">
        <ele>141.45</ele>
        <time>2012-08-28T08:20:47Z</time>
      </trkpt>
      <trkpt lat="48.01797" lon="-2.28999">
        <ele>141.45</ele>
        <time>2012-08-28T08:20:51Z</time>
      </trkpt>
      <trkpt lat="48.01798" lon="-2.29012">
        <ele>140.97</ele>
        <time>2012-08-28T08:20:55Z</time>
      </trkpt>
      <trkpt lat="48.01801" lon="-2.29015">
        <ele>140.01</ele>
        <time>2012-08-28T08:21:02Z</time>
      </trkpt>
      <trkpt lat="48.01802" lon="-2.29014">
        <ele>139.05</ele>
        <time>2012-08-28T08:21:10Z</time>
      </trkpt>
      <trkpt lat="48.01802" lon="-2.29014">
        <ele>139.53</ele>
        <time>2012-08-28T08:21:21Z</time>
      </trkpt>
      <trkpt lat="48.018" lon="-2.29015">
        <ele>141.45</ele>
        <time>2012-08-28T08:21:40Z</time>
      </trkpt>
      <trkpt lat="48.018" lon="-2.29016">
        <ele>142.89</ele>
        <time>2012-08-28T08:22:01Z</time>
      </trkpt>
      <trkpt lat="48.018" lon="-2.29016">
        <ele>143.37</ele>
        <time>2012-08-28T08:22:22Z</time>
      </trkpt>
      <trkpt lat="48.018" lon="-2.29016">
        <ele>143.85</ele>
        <time>2012-08-28T08:22:35Z</time>
      </trkpt>
      <trkpt lat="48.018" lon="-2.29016">
        <ele>143.85</ele>
        <time>2012-08-28T08:22:37Z</time>
      </trkpt>
      <trkpt lat="48.01799" lon="-2.29015">
        <ele>142.89</ele>
        <time>2012-08-28T08:22:44Z</time>
      </trkpt>
      <trkpt lat="48.01796" lon="-2.29012">
        <ele>142.89</ele>
        <time>2012-08-28T08:22:52Z</time>
      </trkpt>
      <trkpt lat="48.01786" lon="-2.29007">
        <ele>142.41</ele>
        <time>2012-08-28T08:22:59Z</time>
      </trkpt>
      <trkpt lat="48.01767" lon="-2.29017">
        <ele>140.97</ele>
        <time>2012-08-28T08:23:06Z</time>
      </trkpt>
      <trkpt lat="48.01738" lon="-2.2903">
        <ele>140.01</ele>
        <time>2012-08-28T08:23:15Z</time>
      </trkpt>
      <trkpt lat="48.01699" lon="-2.29046">
        <ele>139.53</ele>
        <time>2012-08-28T08:23:25Z</time>
      </trkpt>
      <trkpt lat="48.01661" lon="-2.29062">
        <ele>139.05</ele>
        <time>2012-08-28T08:23:34Z</time>
      </trkpt>
      <trkpt lat="48.01616" lon="-2.29082">
        <ele>137.61</ele>
        <time>2012-08-28T08:23:42Z</time>
      </trkpt>
      <trkpt lat="48.01557" lon="-2.29101">
        <ele>134.72</ele>
        <time>2012-08-28T08:23:51Z</time>
      </trkpt>
      <trkpt lat="48.01551" lon="-2.29102">
        <ele>134.72</ele>
        <time>2012-08-28T08:23:52Z</time>
      </trkpt>
      <trkpt lat="48.01488" lon="-2.29105">
        <ele>134.72</ele>
        <time>2012-08-28T08:24:03Z</time>
      </trkpt>
      <trkpt lat="48.0145" lon="-2.29103">
        <ele>134.24</ele>
        <time>2012-08-28T08:24:10Z</time>
      </trkpt>
      <trkpt lat="48.01413" lon="-2.29076">
        <ele>133.28</ele>
        <time>2012-08-28T08:24:17Z</time>
      </trkpt>
      <trkpt lat="48.01405" lon="-2.29063">
        <ele>132.8</ele>
        <time>2012-08-28T08:24:19Z</time>
      </trkpt>
      <trkpt lat="48.01379" lon="-2.28997">
        <ele>131.36</ele>
        <time>2012-08-28T08:24:28Z</time>
      </trkpt>
      <trkpt lat="48.01356" lon="-2.28932">
        <ele>129.92</ele>
        <time>2012-08-28T08:24:37Z</time>
      </trkpt>
      <trkpt lat="48.01348" lon="-2.28915">
        <ele>129.43</ele>
        <time>2012-08-28T08:24:39Z</time>
      </trkpt>
      <trkpt lat="48.01317" lon="-2.28882">
        <ele>127.99</ele>
        <time>2012-08-28T08:24:44Z</time>
      </trkpt>
      <trkpt lat="48.01281" lon="-2.28881">
        <ele>126.55</ele>
        <time>2012-08-28T08:24:48Z</time>
      </trkpt>
      <trkpt lat="48.01256" lon="-2.28901">
        <ele>125.11</ele>
        <time>2012-08-28T08:24:51Z</time>
      </trkpt>
      <trkpt lat="48.01186" lon="-2.28987">
        <ele>118.86</ele>
        <time>2012-08-28T08:25:00Z</time>
      </trkpt>
      <trkpt lat="48.01154" lon="-2.29026">
        <ele>116.46</ele>
        <time>2012-08-28T08:25:04Z</time>
      </trkpt>
      <trkpt lat="48.01104" lon="-2.29052">
        <ele>112.13</ele>
        <time>2012-08-28T08:25:09Z</time>
      </trkpt>
      <trkpt lat="48.01071" lon="-2.29045">
        <ele>109.73</ele>
        <time>2012-08-28T08:25:12Z</time>
      </trkpt>
      <trkpt lat="48.00997" lon="-2.29001">
        <ele>103.96</ele>
        <time>2012-08-28T08:25:19Z</time>
      </trkpt>
      <trkpt lat="48.00961" lon="-2.28955">
        <ele>101.08</ele>
        <time>2012-08-28T08:25:23Z</time>
      </trkpt>
      <trkpt lat="48.00906" lon="-2.2887">
        <ele>96.27</ele>
        <time>2012-08-28T08:25:30Z</time>
      </trkpt>
      <trkpt lat="48.00885" lon="-2.28837">
        <ele>93.39</ele>
        <time>2012-08-28T08:25:34Z</time>
      </trkpt>
      <trkpt lat="48.00881" lon="-2.28832">
        <ele>92.9</ele>
        <time>2012-08-28T08:25:35Z</time>
      </trkpt>
      <trkpt lat="48.00872" lon="-2.28816">
        <ele>91.46</ele>
        <time>2012-08-28T08:25:38Z</time>
      </trkpt>
      <trkpt lat="48.00862" lon="-2.28766">
        <ele>89.06</ele>
        <time>2012-08-28T08:25:44Z</time>
      </trkpt>
      <trkpt lat="48.00856" lon="-2.28739">
        <ele>89.06</ele>
        <time>2012-08-28T08:25:47Z</time>
      </trkpt>
      <trkpt lat="48.00841" lon="-2.28713">
        <ele>88.58</ele>
        <time>2012-08-28T08:25:51Z</time>
      </trkpt>
      <trkpt lat="48.0082" lon="-2.2869">
        <ele>88.1</ele>
        <time>2012-08-28T08:25:55Z</time>
      </trkpt>
      <trkpt lat="48.00792" lon="-2.28678">
        <ele>87.14</ele>
        <time>2012-08-28T08:25:59Z</time>
      </trkpt>
      <trkpt lat="48.00754" lon="-2.28677">
        <ele>86.18</ele>
        <time>2012-08-28T08:26:05Z</time>
      </trkpt>
      <trkpt lat="48.00734" lon="-2.28665">
        <ele>86.18</ele>
        <time>2012-08-28T08:26:09Z</time>
      </trkpt>
      <trkpt lat="48.00719" lon="-2.28647">
        <ele>87.14</ele>
        <time>2012-08-28T08:26:13Z</time>
      </trkpt>
      <trkpt lat="48.00698" lon="-2.28636">
        <ele>87.62</ele>
        <time>2012-08-28T08:26:18Z</time>
      </trkpt>
      <trkpt lat="48.00696" lon="-2.28634">
        <ele>88.1</ele>
        <time>2012-08-28T08:26:19Z</time>
      </trkpt>
      <trkpt lat="48.00694" lon="-2.28631">
        <ele>89.06</ele>
        <time>2012-08-28T08:26:27Z</time>
      </trkpt>
      <trkpt lat="48.00694" lon="-2.28631">
        <ele>89.06</ele>
        <time>2012-08-28T08:26:39Z</time>
      </trkpt>
      <trkpt lat="48.00693" lon="-2.2863">
        <ele>89.54</ele>
        <time>2012-08-28T08:26:53Z</time>
      </trkpt>
      <trkpt lat="48.00693" lon="-2.2863">
        <ele>90.02</ele>
        <time>2012-08-28T08:27:10Z</time>
      </trkpt>
      <trkpt lat="48.00694" lon="-2.2863">
        <ele>90.5</ele>
        <time>2012-08-28T08:27:22Z</time>
      </trkpt>
      <trkpt lat="48.00694" lon="-2.2863">
        <ele>90.98</ele>
        <time>2012-08-28T08:27:36Z</time>
      </trkpt>
      <trkpt lat="48.00693" lon="-2.28631">
        <ele>91.94</ele>
        <time>2012-08-28T08:27:52Z</time>
      </trkpt>
      <trkpt lat="48.00694" lon="-2.28631">
        <ele>92.42</ele>
        <time>2012-08-28T08:28:05Z</time>
      </trkpt>
      <trkpt lat="48.00693" lon="-2.2863">
        <ele>92.42</ele>
        <time>2012-08-28T08:28:19Z</time>
      </trkpt>
      <trkpt lat="48.00693" lon="-2.2863">
        <ele>92.9</ele>
        <time>2012-08-28T08:28:34Z</time>
      </trkpt>
      <trkpt lat="48.00693" lon="-2.28631">
        <ele>92.9</ele>
        <time>2012-08-28T08:28:42Z</time>
      </trkpt>
      <trkpt lat="48.0068" lon="-2.28633">
        <ele>92.42</ele>
        <time>2012-08-28T08:28:48Z</time>
      </trkpt>
      <trkpt lat="48.0067" lon="-2.28635">
        <ele>92.42</ele>
        <time>2012-08-28T08:28:51Z</time>
      </trkpt>
      <trkpt lat="48.00648" lon="-2.28634">
        <ele>91.94</ele>
        <time>2012-08-28T08:28:56Z</time>
      </trkpt>
      <trkpt lat="48.00624" lon="-2.28636">
        <ele>91.46</ele>
        <time>2012-08-28T08:29:01Z</time>
      </trkpt>
      <trkpt lat="48.00594" lon="-2.28664">
        <ele>90.02</ele>
        <time>2012-08-28T08:29:07Z</time>
      </trkpt>
      <trkpt lat="48.00558" lon="-2.28731">
        <ele>89.06</ele>
        <time>2012-08-28T08:29:18Z</time>
      </trkpt>
      <trkpt lat="48.00525" lon="-2.2879">
        <ele>88.58</ele>
        <time>2012-08-28T08:29:28Z</time>
      </trkpt>
      <trkpt lat="48.00502" lon="-2.28832">
        <ele>88.58</ele>
        <time>2012-08-28T08:29:35Z</time>
      </trkpt>
      <trkpt lat="48.00469" lon="-2.28892">
        <ele>89.54</ele>
        <time>2012-08-28T08:29:45Z</time>
      </trkpt>
      <trkpt lat="48.00443" lon="-2.2895">
        <ele>88.58</ele>
        <time>2012-08-28T08:29:53Z</time>
      </trkpt>
      <trkpt lat="48.00415" lon="-2.29034">
        <ele>89.06</ele>
        <time>2012-08-28T08:30:04Z</time>
      </trkpt>
      <trkpt lat="48.00387" lon="-2.29116">
        <ele>88.1</ele>
        <time>2012-08-28T08:30:15Z</time>
      </trkpt>
      <trkpt lat="48.00351" lon="-2.29187">
        <ele>88.1</ele>
        <time>2012-08-28T08:30:25Z</time>
      </trkpt>
      <trkpt lat="48.00319" lon="-2.29247">
        <ele>87.62</ele>
        <time>2012-08-28T08:30:34Z</time>
      </trkpt>
      <trkpt lat="48.00285" lon="-2.29306">
        <ele>88.1</ele>
        <time>2012-08-28T08:30:44Z</time>
      </trkpt>
      <trkpt lat="48.00247" lon="-2.29361">
        <ele>88.58</ele>
        <time>2012-08-28T08:30:55Z</time>
      </trkpt>
      <trkpt lat="48.00213" lon="-2.29402">
        <ele>88.58</ele>
        <time>2012-08-28T08:31:04Z</time>
      </trkpt>
      <trkpt lat="48.00177" lon="-2.29444">
        <ele>89.06</ele>
        <time>2012-08-28T08:31:14Z</time>
      </trkpt>
      <trkpt lat="48.00142" lon="-2.29478">
        <ele>90.02</ele>
        <time>2012-08-28T08:31:24Z</time>
      </trkpt>
      <trkpt lat="48.00108" lon="-2.29504">
        <ele>90.02</ele>
        <time>2012-08-28T08:31:34Z</time>
      </trkpt>
      <trkpt lat="48.00075" lon="-2.29527">
        <ele>90.5</ele>
        <time>2012-08-28T08:31:44Z</time>
      </trkpt>
      <trkpt lat="48.00034" lon="-2.29552">
        <ele>89.54</ele>
        <time>2012-08-28T08:31:54Z</time>
      </trkpt>
      <trkpt lat="47.99995" lon="-2.29571">
        <ele>88.58</ele>
        <time>2012-08-28T08:32:04Z</time>
      </trkpt>
      <trkpt lat="47.99962" lon="-2.29589">
        <ele>87.62</ele>
        <time>2012-08-28T08:32:12Z</time>
      </trkpt>
      <trkpt lat="47.99931" lon="-2.29614">
        <ele>87.62</ele>
        <time>2012-08-28T08:32:20Z</time>
      </trkpt>
      <trkpt lat="47.99898" lon="-2.29648">
        <ele>87.62</ele>
        <time>2012-08-28T08:32:29Z</time>
      </trkpt>
      <trkpt lat="47.99866" lon="-2.29685">
        <ele>87.62</ele>
        <time>2012-08-28T08:32:39Z</time>
      </trkpt>
      <trkpt lat="47.99843" lon="-2.29723">
        <ele>89.06</ele>
        <time>2012-08-28T08:32:49Z</time>
      </trkpt>
      <trkpt lat="47.99826" lon="-2.2976">
        <ele>90.02</ele>
        <time>2012-08-28T08:32:59Z</time>
      </trkpt>
      <trkpt lat="47.99811" lon="-2.29795">
        <ele>91.46</ele>
        <time>2012-08-28T08:33:09Z</time>
      </trkpt>
      <trkpt lat="47.99798" lon="-2.29823">
        <ele>94.35</ele>
        <time>2012-08-28T08:33:17Z</time>
      </trkpt>
      <trkpt lat="47.99783" lon="-2.29859">
        <ele>96.75</ele>
        <time>2012-08-28T08:33:28Z</time>
      </trkpt>
      <trkpt lat="47.99766" lon="-2.29897">
        <ele>97.71</ele>
        <time>2012-08-28T08:33:40Z</time>
      </trkpt>
      <trkpt lat="47.99748" lon="-2.29925">
        <ele>99.15</ele>
        <time>2012-08-28T08:33:50Z</time>
      </trkpt>
      <trkpt lat="47.99729" lon="-2.29951">
        <ele>100.6</ele>
        <time>2012-08-28T08:34:00Z</time>
      </trkpt>
      <trkpt lat="47.99707" lon="-2.29978">
        <ele>101.08</ele>
        <time>2012-08-28T08:34:11Z</time>
      </trkpt>
      <trkpt lat="47.99691" lon="-2.29997">
        <ele>102.04</ele>
        <time>2012-08-28T08:34:19Z</time>
      </trkpt>
      <trkpt lat="47.9968" lon="-2.3001">
        <ele>103</ele>
        <time>2012-08-28T08:34:25Z</time>
      </trkpt>
      <trkpt lat="47.99658" lon="-2.30036">
        <ele>104.44</ele>
        <time>2012-08-28T08:34:36Z</time>
      </trkpt>
      <trkpt lat="47.99635" lon="-2.30064">
        <ele>105.4</ele>
        <time>2012-08-28T08:34:48Z</time>
      </trkpt>
      <trkpt lat="47.99614" lon="-2.30085">
        <ele>106.36</ele>
        <time>2012-08-28T08:34:58Z</time>
      </trkpt>
      <trkpt lat="47.9959" lon="-2.30105">
        <ele>106.84</ele>
        <time>2012-08-28T08:35:09Z</time>
      </trkpt>
      <trkpt lat="47.99561" lon="-2.30129">
        <ele>108.29</ele>
        <time>2012-08-28T08:35:22Z</time>
      </trkpt>
      <trkpt lat="47.9954" lon="-2.30152">
        <ele>110.21</ele>
        <time>2012-08-28T08:35:33Z</time>
      </trkpt>
      <trkpt lat="47.99524" lon="-2.30179">
        <ele>111.65</ele>
        <time>2012-08-28T08:35:43Z</time>
      </trkpt>
      <trkpt lat="47.99514" lon="-2.30211">
        <ele>112.61</ele>
        <time>2012-08-28T08:35:53Z</time>
      </trkpt>
      <trkpt lat="47.99504" lon="-2.30253">
        <ele>113.57</ele>
        <time>2012-08-28T08:36:06Z</time>
      </trkpt>
      <trkpt lat="47.99497" lon="-2.30285">
        <ele>114.53</ele>
        <time>2012-08-28T08:36:15Z</time>
      </trkpt>
      <trkpt lat="47.99483" lon="-2.30331">
        <ele>114.53</ele>
        <time>2012-08-28T08:36:28Z</time>
      </trkpt>
      <trkpt lat="47.99473" lon="-2.30364">
        <ele>114.53</ele>
        <time>2012-08-28T08:36:37Z</time>
      </trkpt>
      <trkpt lat="47.99455" lon="-2.30399">
        <ele>115.5</ele>
        <time>2012-08-28T08:36:48Z</time>
      </trkpt>
      <trkpt lat="47.99434" lon="-2.30444">
        <ele>115.5</ele>
        <time>2012-08-28T08:37:00Z</time>
      </trkpt>
      <trkpt lat="47.99416" lon="-2.30482">
        <ele>115.5</ele>
        <time>2012-08-28T08:37:09Z</time>
      </trkpt>
      <trkpt lat="47.99394" lon="-2.30527">
        <ele>114.53</ele>
        <time>2012-08-28T08:37:18Z</time>
      </trkpt>
      <trkpt lat="47.99362" lon="-2.30595">
        <ele>113.57</ele>
        <time>2012-08-28T08:37:30Z</time>
      </trkpt>
      <trkpt lat="47.99334" lon="-2.30653">
        <ele>112.13</ele>
        <time>2012-08-28T08:37:39Z</time>
      </trkpt>
      <trkpt lat="47.99327" lon="-2.30669">
        <ele>111.17</ele>
        <time>2012-08-28T08:37:41Z</time>
      </trkpt>
      <trkpt lat="47.99301" lon="-2.30679">
        <ele>110.21</ele>
        <time>2012-08-28T08:37:45Z</time>
      </trkpt>
      <trkpt lat="47.99293" lon="-2.30676">
        <ele>109.73</ele>
        <time>2012-08-28T08:37:46Z</time>
      </trkpt>
      <trkpt lat="47.99252" lon="-2.30646">
        <ele>108.29</ele>
        <time>2012-08-28T08:37:53Z</time>
      </trkpt>
      <trkpt lat="47.99221" lon="-2.30624">
        <ele>107.32</ele>
        <time>2012-08-28T08:38:01Z</time>
      </trkpt>
      <trkpt lat="47.99195" lon="-2.30603">
        <ele>107.32</ele>
        <time>2012-08-28T08:38:10Z</time>
      </trkpt>
      <trkpt lat="47.99166" lon="-2.30581">
        <ele>108.77</ele>
        <time>2012-08-28T08:38:20Z</time>
      </trkpt>
      <trkpt lat="47.99137" lon="-2.30564">
        <ele>112.13</ele>
        <time>2012-08-28T08:38:31Z</time>
      </trkpt>
      <trkpt lat="47.9911" lon="-2.30554">
        <ele>115.01</ele>
        <time>2012-08-28T08:38:42Z</time>
      </trkpt>
      <trkpt lat="47.99086" lon="-2.30552">
        <ele>117.42</ele>
        <time>2012-08-28T08:38:52Z</time>
      </trkpt>
      <trkpt lat="47.99062" lon="-2.30555">
        <ele>119.34</ele>
        <time>2012-08-28T08:39:02Z</time>
      </trkpt>
      <trkpt lat="47.99039" lon="-2.30565">
        <ele>121.26</ele>
        <time>2012-08-28T08:39:12Z</time>
      </trkpt>
      <trkpt lat="47.99017" lon="-2.30576">
        <ele>123.19</ele>
        <time>2012-08-28T08:39:23Z</time>
      </trkpt>
      <trkpt lat="47.98992" lon="-2.3059">
        <ele>125.11</ele>
        <time>2012-08-28T08:39:35Z</time>
      </trkpt>
      <trkpt lat="47.98967" lon="-2.30605">
        <ele>125.59</ele>
        <time>2012-08-28T08:39:46Z</time>
      </trkpt>
      <trkpt lat="47.98941" lon="-2.3062">
        <ele>127.03</ele>
        <time>2012-08-28T08:39:57Z</time>
      </trkpt>
      <trkpt lat="47.9892" lon="-2.30632">
        <ele>127.03</ele>
        <time>2012-08-28T08:40:05Z</time>
      </trkpt>
      <trkpt lat="47.98892" lon="-2.30649">
        <ele>127.51</ele>
        <time>2012-08-28T08:40:15Z</time>
      </trkpt>
      <trkpt lat="47.98864" lon="-2.30665">
        <ele>127.51</ele>
        <time>2012-08-28T08:40:23Z</time>
      </trkpt>
      <trkpt lat="47.98844" lon="-2.30677">
        <ele>127.51</ele>
        <time>2012-08-28T08:40:28Z</time>
      </trkpt>
      <trkpt lat="47.988" lon="-2.30701">
        <ele>127.99</ele>
        <time>2012-08-28T08:40:39Z</time>
      </trkpt>
      <trkpt lat="47.98753" lon="-2.30728">
        <ele>127.03</ele>
        <time>2012-08-28T08:40:50Z</time>
      </trkpt>
      <trkpt lat="47.98734" lon="-2.30735">
        <ele>126.55</ele>
        <time>2012-08-28T08:40:54Z</time>
      </trkpt>
      <trkpt lat="47.98695" lon="-2.30731">
        <ele>125.59</ele>
        <time>2012-08-28T08:41:02Z</time>
      </trkpt>
      <trkpt lat="47.98645" lon="-2.30697">
        <ele>124.15</ele>
        <time>2012-08-28T08:41:12Z</time>
      </trkpt>
      <trkpt lat="47.98595" lon="-2.30658">
        <ele>122.22</ele>
        <time>2012-08-28T08:41:21Z</time>
      </trkpt>
      <trkpt lat="47.98542" lon="-2.30617">
        <ele>120.3</ele>
        <time>2012-08-28T08:41:29Z</time>
      </trkpt>
      <trkpt lat="47.98487" lon="-2.30583">
        <ele>118.86</ele>
        <time>2012-08-28T08:41:37Z</time>
      </trkpt>
      <trkpt lat="47.98472" lon="-2.3058">
        <ele>117.9</ele>
        <time>2012-08-28T08:41:39Z</time>
      </trkpt>
      <trkpt lat="47.98432" lon="-2.30596">
        <ele>116.46</ele>
        <time>2012-08-28T08:41:44Z</time>
      </trkpt>
      <trkpt lat="47.98407" lon="-2.30633">
        <ele>115.01</ele>
        <time>2012-08-28T08:41:48Z</time>
      </trkpt>
      <trkpt lat="47.98355" lon="-2.30743">
        <ele>111.17</ele>
        <time>2012-08-28T08:41:58Z</time>
      </trkpt>
      <trkpt lat="47.98338" lon="-2.30773">
        <ele>110.21</ele>
        <time>2012-08-28T08:42:01Z</time>
      </trkpt>
      <trkpt lat="47.983" lon="-2.30823">
        <ele>109.73</ele>
        <time>2012-08-28T08:42:08Z</time>
      </trkpt>
      <trkpt lat="47.98259" lon="-2.30872">
        <ele>110.21</ele>
        <time>2012-08-28T08:42:16Z</time>
      </trkpt>
      <trkpt lat="47.98213" lon="-2.30917">
        <ele>108.77</ele>
        <time>2012-08-28T08:42:24Z</time>
      </trkpt>
      <trkpt lat="47.98193" lon="-2.30931">
        <ele>108.29</ele>
        <time>2012-08-28T08:42:27Z</time>
      </trkpt>
      <trkpt lat="47.98132" lon="-2.30954">
        <ele>105.4</ele>
        <time>2012-08-28T08:42:35Z</time>
      </trkpt>
      <trkpt lat="47.98071" lon="-2.30975">
        <ele>102.52</ele>
        <time>2012-08-28T08:42:42Z</time>
      </trkpt>
      <trkpt lat="47.98026" lon="-2.31012">
        <ele>99.15</ele>
        <time>2012-08-28T08:42:47Z</time>
      </trkpt>
      <trkpt lat="47.97981" lon="-2.31026">
        <ele>95.79</ele>
        <time>2012-08-28T08:42:51Z</time>
      </trkpt>
      <trkpt lat="47.97959" lon="-2.31017">
        <ele>93.87</ele>
        <time>2012-08-28T08:42:53Z</time>
      </trkpt>
      <trkpt lat="47.97883" lon="-2.30972">
        <ele>90.5</ele>
        <time>2012-08-28T08:43:01Z</time>
      </trkpt>
      <trkpt lat="47.97851" lon="-2.3095">
        <ele>90.5</ele>
        <time>2012-08-28T08:43:06Z</time>
      </trkpt>
      <trkpt lat="47.97827" lon="-2.30933">
        <ele>90.98</ele>
        <time>2012-08-28T08:43:11Z</time>
      </trkpt>
      <trkpt lat="47.97806" lon="-2.30914">
        <ele>90.98</ele>
        <time>2012-08-28T08:43:16Z</time>
      </trkpt>
      <trkpt lat="47.97779" lon="-2.30867">
        <ele>89.54</ele>
        <time>2012-08-28T08:43:25Z</time>
      </trkpt>
      <trkpt lat="47.97777" lon="-2.30862">
        <ele>89.54</ele>
        <time>2012-08-28T08:43:26Z</time>
      </trkpt>
      <trkpt lat="47.97755" lon="-2.30817">
        <ele>87.14</ele>
        <time>2012-08-28T08:43:35Z</time>
      </trkpt>
      <trkpt lat="47.97736" lon="-2.30775">
        <ele>87.62</ele>
        <time>2012-08-28T08:43:43Z</time>
      </trkpt>
      <trkpt lat="47.97714" lon="-2.30741">
        <ele>89.54</ele>
        <time>2012-08-28T08:43:51Z</time>
      </trkpt>
      <trkpt lat="47.97684" lon="-2.30717">
        <ele>93.39</ele>
        <time>2012-08-28T08:44:00Z</time>
      </trkpt>
      <trkpt lat="47.97656" lon="-2.30704">
        <ele>96.27</ele>
        <time>2012-08-28T08:44:09Z</time>
      </trkpt>
      <trkpt lat="47.97632" lon="-2.30693">
        <ele>98.19</ele>
        <time>2012-08-28T08:44:18Z</time>
      </trkpt>
      <trkpt lat="47.97607" lon="-2.30682">
        <ele>100.11</ele>
        <time>2012-08-28T08:44:28Z</time>
      </trkpt>
      <trkpt lat="47.97581" lon="-2.30671">
        <ele>101.56</ele>
        <time>2012-08-28T08:44:39Z</time>
      </trkpt>
      <trkpt lat="47.97553" lon="-2.30658">
        <ele>103</ele>
        <time>2012-08-28T08:44:51Z</time>
      </trkpt>
      <trkpt lat="47.97527" lon="-2.30647">
        <ele>103.48</ele>
        <time>2012-08-28T08:45:02Z</time>
      </trkpt>
      <trkpt lat="47.97505" lon="-2.30637">
        <ele>104.92</ele>
        <time>2012-08-28T08:45:10Z</time>
      </trkpt>
      <trkpt lat="47.97482" lon="-2.30626">
        <ele>105.4</ele>
        <time>2012-08-28T08:45:17Z</time>
      </trkpt>
      <trkpt lat="47.9745" lon="-2.30611">
        <ele>105.4</ele>
        <time>2012-08-28T08:45:24Z</time>
      </trkpt>
      <trkpt lat="47.9741" lon="-2.30601">
        <ele>105.88</ele>
        <time>2012-08-28T08:45:31Z</time>
      </trkpt>
      <trkpt lat="47.97359" lon="-2.30594">
        <ele>106.36</ele>
        <time>2012-08-28T08:45:40Z</time>
      </trkpt>
      <trkpt lat="47.97305" lon="-2.30596">
        <ele>105.88</ele>
        <time>2012-08-28T08:45:49Z</time>
      </trkpt>
      <trkpt lat="47.97237" lon="-2.30603">
        <ele>103.96</ele>
        <time>2012-08-28T08:46:01Z</time>
      </trkpt>
      <trkpt lat="47.97191" lon="-2.30608">
        <ele>102.52</ele>
        <time>2012-08-28T08:46:09Z</time>
      </trkpt>
      <trkpt lat="47.97154" lon="-2.30594">
        <ele>102.04</ele>
        <time>2012-08-28T08:46:16Z</time>
      </trkpt>
      <trkpt lat="47.971" lon="-2.30568">
        <ele>100.6</ele>
        <time>2012-08-28T08:46:26Z</time>
      </trkpt>
      <trkpt lat="47.97041" lon="-2.30539">
        <ele>98.19</ele>
        <time>2012-08-28T08:46:34Z</time>
      </trkpt>
      <trkpt lat="47.96955" lon="-2.30497">
        <ele>93.39</ele>
        <time>2012-08-28T08:46:45Z</time>
      </trkpt>
      <trkpt lat="47.96894" lon="-2.3048">
        <ele>90.98</ele>
        <time>2012-08-28T08:46:53Z</time>
      </trkpt>
      <trkpt lat="47.96842" lon="-2.30462">
        <ele>90.02</ele>
        <time>2012-08-28T08:47:01Z</time>
      </trkpt>
      <trkpt lat="47.96777" lon="-2.30439">
        <ele>88.58</ele>
        <time>2012-08-28T08:47:11Z</time>
      </trkpt>
      <trkpt lat="47.96771" lon="-2.30438">
        <ele>88.58</ele>
        <time>2012-08-28T08:47:12Z</time>
      </trkpt>
      <trkpt lat="47.96722" lon="-2.3045">
        <ele>88.1</ele>
        <time>2012-08-28T08:47:20Z</time>
      </trkpt>
      <trkpt lat="47.96665" lon="-2.3047">
        <ele>88.1</ele>
        <time>2012-08-28T08:47:30Z</time>
      </trkpt>
      <trkpt lat="47.96644" lon="-2.30475">
        <ele>89.06</ele>
        <time>2012-08-28T08:47:34Z</time>
      </trkpt>
      <trkpt lat="47.96598" lon="-2.30473">
        <ele>90.98</ele>
        <time>2012-08-28T08:47:44Z</time>
      </trkpt>
      <trkpt lat="47.9656" lon="-2.30466">
        <ele>92.42</ele>
        <time>2012-08-28T08:47:53Z</time>
      </trkpt>
      <trkpt lat="47.96547" lon="-2.3046">
        <ele>92.42</ele>
        <time>2012-08-28T08:47:56Z</time>
      </trkpt>
      <trkpt lat="47.96508" lon="-2.30434">
        <ele>91.94</ele>
        <time>2012-08-28T08:48:04Z</time>
      </trkpt>
      <trkpt lat="47.96473" lon="-2.30418">
        <ele>91.46</ele>
        <time>2012-08-28T08:48:12Z</time>
      </trkpt>
      <trkpt lat="47.96437" lon="-2.30393">
        <ele>91.94</ele>
        <time>2012-08-28T08:48:21Z</time>
      </trkpt>
      <trkpt lat="47.96403" lon="-2.30351">
        <ele>91.46</ele>
        <time>2012-08-28T08:48:31Z</time>
      </trkpt>
      <trkpt lat="47.96366" lon="-2.30296">
        <ele>91.46</ele>
        <time>2012-08-28T08:48:42Z</time>
      </trkpt>
      <trkpt lat="47.96331" lon="-2.30249">
        <ele>90.98</ele>
        <time>2012-08-28T08:48:51Z</time>
      </trkpt>
      <trkpt lat="47.96295" lon="-2.30206">
        <ele>90.02</ele>
        <time>2012-08-28T08:48:59Z</time>
      </trkpt>
      <trkpt lat="47.96246" lon="-2.30154">
        <ele>89.06</ele>
        <time>2012-08-28T08:49:09Z</time>
      </trkpt>
      <trkpt lat="47.96204" lon="-2.30109">
        <ele>88.1</ele>
        <time>2012-08-28T08:49:17Z</time>
      </trkpt>
      <trkpt lat="47.96166" lon="-2.30069">
        <ele>86.18</ele>
        <time>2012-08-28T08:49:23Z</time>
      </trkpt>
      <trkpt lat="47.96126" lon="-2.30027">
        <ele>83.29</ele>
        <time>2012-08-28T08:49:28Z</time>
      </trkpt>
      <trkpt lat="47.96086" lon="-2.29979">
        <ele>80.89</ele>
        <time>2012-08-28T08:49:34Z</time>
      </trkpt>
      <trkpt lat="47.96066" lon="-2.29943">
        <ele>80.41</ele>
        <time>2012-08-28T08:49:41Z</time>
      </trkpt>
      <trkpt lat="47.96051" lon="-2.29913">
        <ele>80.89</ele>
        <time>2012-08-28T08:49:49Z</time>
      </trkpt>
      <trkpt lat="47.96034" lon="-2.29883">
        <ele>83.29</ele>
        <time>2012-08-28T08:49:57Z</time>
      </trkpt>
      <trkpt lat="47.96017" lon="-2.29845">
        <ele>86.66</ele>
        <time>2012-08-28T08:50:06Z</time>
      </trkpt>
      <trkpt lat="47.96" lon="-2.29808">
        <ele>86.66</ele>
        <time>2012-08-28T08:50:14Z</time>
      </trkpt>
      <trkpt lat="47.95978" lon="-2.29754">
        <ele>87.62</ele>
        <time>2012-08-28T08:50:24Z</time>
      </trkpt>
      <trkpt lat="47.95968" lon="-2.2973">
        <ele>87.62</ele>
        <time>2012-08-28T08:50:28Z</time>
      </trkpt>
      <trkpt lat="47.95962" lon="-2.2972">
        <ele>87.14</ele>
        <time>2012-08-28T08:50:30Z</time>
      </trkpt>
      <trkpt lat="47.95944" lon="-2.29678">
        <ele>87.14</ele>
        <time>2012-08-28T08:50:37Z</time>
      </trkpt>
      <trkpt lat="47.95928" lon="-2.29619">
        <ele>87.62</ele>
        <time>2012-08-28T08:50:45Z</time>
      </trkpt>
      <trkpt lat="47.95904" lon="-2.2955">
        <ele>86.18</ele>
        <time>2012-08-28T08:50:53Z</time>
      </trkpt>
      <trkpt lat="47.95896" lon="-2.29533">
        <ele>86.18</ele>
        <time>2012-08-28T08:50:55Z</time>
      </trkpt>
      <trkpt lat="47.95887" lon="-2.29519">
        <ele>85.69</ele>
        <time>2012-08-28T08:50:57Z</time>
      </trkpt>
      <trkpt lat="47.95848" lon="-2.29488">
        <ele>83.77</ele>
        <time>2012-08-28T08:51:03Z</time>
      </trkpt>
      <trkpt lat="47.95807" lon="-2.2948">
        <ele>82.33</ele>
        <time>2012-08-28T08:51:09Z</time>
      </trkpt>
      <trkpt lat="47.95785" lon="-2.29475">
        <ele>81.37</ele>
        <time>2012-08-28T08:51:13Z</time>
      </trkpt>
      <trkpt lat="47.95759" lon="-2.29458">
        <ele>80.89</ele>
        <time>2012-08-28T08:51:18Z</time>
      </trkpt>
      <trkpt lat="47.95727" lon="-2.29427">
        <ele>79.93</ele>
        <time>2012-08-28T08:51:26Z</time>
      </trkpt>
      <trkpt lat="47.95713" lon="-2.29414">
        <ele>79.93</ele>
        <time>2012-08-28T08:51:32Z</time>
      </trkpt>
      <trkpt lat="47.95715" lon="-2.29389">
        <ele>79.45</ele>
        <time>2012-08-28T08:51:38Z</time>
      </trkpt>
      <trkpt lat="47.95719" lon="-2.29346">
        <ele>78.97</ele>
        <time>2012-08-28T08:51:46Z</time>
      </trkpt>
      <trkpt lat="47.95727" lon="-2.29307">
        <ele>78.97</ele>
        <time>2012-08-28T08:51:52Z</time>
      </trkpt>
      <trkpt lat="47.95726" lon="-2.29279">
        <ele>77.52</ele>
        <time>2012-08-28T08:51:57Z</time>
      </trkpt>
      <trkpt lat="47.95705" lon="-2.2927">
        <ele>75.6</ele>
        <time>2012-08-28T08:52:01Z</time>
      </trkpt>
      <trkpt lat="47.95676" lon="-2.29255">
        <ele>74.16</ele>
        <time>2012-08-28T08:52:05Z</time>
      </trkpt>
      <trkpt lat="47.95661" lon="-2.29239">
        <ele>73.2</ele>
        <time>2012-08-28T08:52:07Z</time>
      </trkpt>
      <trkpt lat="47.95606" lon="-2.29159">
        <ele>69.35</ele>
        <time>2012-08-28T08:52:16Z</time>
      </trkpt>
      <trkpt lat="47.95565" lon="-2.29112">
        <ele>68.39</ele>
        <time>2012-08-28T08:52:23Z</time>
      </trkpt>
      <trkpt lat="47.95526" lon="-2.29072">
        <ele>68.87</ele>
        <time>2012-08-28T08:52:32Z</time>
      </trkpt>
      <trkpt lat="47.95485" lon="-2.29037">
        <ele>70.79</ele>
        <time>2012-08-28T08:52:42Z</time>
      </trkpt>
      <trkpt lat="47.95452" lon="-2.29015">
        <ele>72.72</ele>
        <time>2012-08-28T08:52:50Z</time>
      </trkpt>
      <trkpt lat="47.95405" lon="-2.28993">
        <ele>76.08</ele>
        <time>2012-08-28T08:53:01Z</time>
      </trkpt>
      <trkpt lat="47.95357" lon="-2.28977">
        <ele>78</ele>
        <time>2012-08-28T08:53:13Z</time>
      </trkpt>
      <trkpt lat="47.95322" lon="-2.28967">
        <ele>79.93</ele>
        <time>2012-08-28T08:53:23Z</time>
      </trkpt>
      <trkpt lat="47.95287" lon="-2.28957">
        <ele>81.37</ele>
        <time>2012-08-28T08:53:34Z</time>
      </trkpt>
      <trkpt lat="47.9526" lon="-2.28949">
        <ele>82.33</ele>
        <time>2012-08-28T08:53:43Z</time>
      </trkpt>
      <trkpt lat="47.95229" lon="-2.2894">
        <ele>82.81</ele>
        <time>2012-08-28T08:53:53Z</time>
      </trkpt>
      <trkpt lat="47.95202" lon="-2.28932">
        <ele>83.29</ele>
        <time>2012-08-28T08:54:01Z</time>
      </trkpt>
      <trkpt lat="47.95162" lon="-2.28921">
        <ele>82.33</ele>
        <time>2012-08-28T08:54:12Z</time>
      </trkpt>
      <trkpt lat="47.95126" lon="-2.28909">
        <ele>81.85</ele>
        <time>2012-08-28T08:54:21Z</time>
      </trkpt>
      <trkpt lat="47.95088" lon="-2.28895">
        <ele>81.85</ele>
        <time>2012-08-28T08:54:30Z</time>
      </trkpt>
      <trkpt lat="47.95033" lon="-2.28871">
        <ele>80.89</ele>
        <time>2012-08-28T08:54:42Z</time>
      </trkpt>
      <trkpt lat="47.94977" lon="-2.28844">
        <ele>81.37</ele>
        <time>2012-08-28T08:54:54Z</time>
      </trkpt>
      <trkpt lat="47.94929" lon="-2.28821">
        <ele>81.85</ele>
        <time>2012-08-28T08:55:05Z</time>
      </trkpt>
      <trkpt lat="47.94883" lon="-2.28797">
        <ele>82.33</ele>
        <time>2012-08-28T08:55:17Z</time>
      </trkpt>
      <trkpt lat="47.94839" lon="-2.28773">
        <ele>82.81</ele>
        <time>2012-08-28T08:55:29Z</time>
      </trkpt>
      <trkpt lat="47.9481" lon="-2.28756">
        <ele>84.25</ele>
        <time>2012-08-28T08:55:38Z</time>
      </trkpt>
      <trkpt lat="47.94776" lon="-2.28737">
        <ele>86.18</ele>
        <time>2012-08-28T08:55:48Z</time>
      </trkpt>
      <trkpt lat="47.94743" lon="-2.28718">
        <ele>87.62</ele>
        <time>2012-08-28T08:55:59Z</time>
      </trkpt>
      <trkpt lat="47.94716" lon="-2.28702">
        <ele>88.58</ele>
        <time>2012-08-28T08:56:09Z</time>
      </trkpt>
      <trkpt lat="47.94684" lon="-2.28683">
        <ele>90.02</ele>
        <time>2012-08-28T08:56:21Z</time>
      </trkpt>
      <trkpt lat="47.9465" lon="-2.28664">
        <ele>91.46</ele>
        <time>2012-08-28T08:56:34Z</time>
      </trkpt>
      <trkpt lat="47.94622" lon="-2.28649">
        <ele>92.42</ele>
        <time>2012-08-28T08:56:44Z</time>
      </trkpt>
      <trkpt lat="47.9459" lon="-2.28636">
        <ele>93.39</ele>
        <time>2012-08-28T08:56:54Z</time>
      </trkpt>
      <trkpt lat="47.94556" lon="-2.28625">
        <ele>94.35</ele>
        <time>2012-08-28T08:57:03Z</time>
      </trkpt>
      <trkpt lat="47.94519" lon="-2.28619">
        <ele>94.35</ele>
        <time>2012-08-28T08:57:12Z</time>
      </trkpt>
      <trkpt lat="47.94497" lon="-2.28617">
        <ele>93.87</ele>
        <time>2012-08-28T08:57:17Z</time>
      </trkpt>
      <trkpt lat="47.94461" lon="-2.28614">
        <ele>93.39</ele>
        <time>2012-08-28T08:57:25Z</time>
      </trkpt>
      <trkpt lat="47.94417" lon="-2.2861">
        <ele>92.9</ele>
        <time>2012-08-28T08:57:34Z</time>
      </trkpt>
      <trkpt lat="47.94377" lon="-2.28604">
        <ele>93.39</ele>
        <time>2012-08-28T08:57:42Z</time>
      </trkpt>
      <trkpt lat="47.94323" lon="-2.28592">
        <ele>92.42</ele>
        <time>2012-08-28T08:57:52Z</time>
      </trkpt>
      <trkpt lat="47.94258" lon="-2.28572">
        <ele>90.02</ele>
        <time>2012-08-28T08:58:02Z</time>
      </trkpt>
      <trkpt lat="47.9419" lon="-2.28551">
        <ele>87.62</ele>
        <time>2012-08-28T08:58:11Z</time>
      </trkpt>
      <trkpt lat="47.94125" lon="-2.2853">
        <ele>85.21</ele>
        <time>2012-08-28T08:58:19Z</time>
      </trkpt>
      <trkpt lat="47.94048" lon="-2.28505">
        <ele>83.29</ele>
        <time>2012-08-28T08:58:29Z</time>
      </trkpt>
      <trkpt lat="47.94004" lon="-2.28492">
        <ele>82.81</ele>
        <time>2012-08-28T08:58:36Z</time>
      </trkpt>
      <trkpt lat="47.93961" lon="-2.28484">
        <ele>83.77</ele>
        <time>2012-08-28T08:58:44Z</time>
      </trkpt>
      <trkpt lat="47.93915" lon="-2.28482">
        <ele>85.69</ele>
        <time>2012-08-28T08:58:54Z</time>
      </trkpt>
      <trkpt lat="47.93858" lon="-2.2848">
        <ele>87.14</ele>
        <time>2012-08-28T08:59:07Z</time>
      </trkpt>
      <trkpt lat="47.9384" lon="-2.2848">
        <ele>87.62</ele>
        <time>2012-08-28T08:59:11Z</time>
      </trkpt>
      <trkpt lat="47.938" lon="-2.28479">
        <ele>88.1</ele>
        <time>2012-08-28T08:59:20Z</time>
      </trkpt>
      <trkpt lat="47.93748" lon="-2.28479">
        <ele>88.58</ele>
        <time>2012-08-28T08:59:32Z</time>
      </trkpt>
      <trkpt lat="47.93709" lon="-2.28477">
        <ele>88.58</ele>
        <time>2012-08-28T08:59:41Z</time>
      </trkpt>
      <trkpt lat="47.93658" lon="-2.28477">
        <ele>89.54</ele>
        <time>2012-08-28T08:59:53Z</time>
      </trkpt>
      <trkpt lat="47.93617" lon="-2.28476">
        <ele>90.98</ele>
        <time>2012-08-28T09:00:03Z</time>
      </trkpt>
      <trkpt lat="47.93587" lon="-2.28474">
        <ele>90.98</ele>
        <time>2012-08-28T09:00:10Z</time>
      </trkpt>
      <trkpt lat="47.93545" lon="-2.28469">
        <ele>91.46</ele>
        <time>2012-08-28T09:00:20Z</time>
      </trkpt>
      <trkpt lat="47.93508" lon="-2.28458">
        <ele>91.94</ele>
        <time>2012-08-28T09:00:29Z</time>
      </trkpt>
      <trkpt lat="47.93466" lon="-2.2844">
        <ele>91.46</ele>
        <time>2012-08-28T09:00:39Z</time>
      </trkpt>
      <trkpt lat="47.93447" lon="-2.28429">
        <ele>91.46</ele>
        <time>2012-08-28T09:00:44Z</time>
      </trkpt>
      <trkpt lat="47.93435" lon="-2.28422">
        <ele>91.46</ele>
        <time>2012-08-28T09:00:47Z</time>
      </trkpt>
      <trkpt lat="47.93383" lon="-2.28401">
        <ele>90.5</ele>
        <time>2012-08-28T09:00:58Z</time>
      </trkpt>
      <trkpt lat="47.93341" lon="-2.28384">
        <ele>89.06</ele>
        <time>2012-08-28T09:01:08Z</time>
      </trkpt>
      <trkpt lat="47.93301" lon="-2.28366">
        <ele>88.58</ele>
        <time>2012-08-28T09:01:18Z</time>
      </trkpt>
      <trkpt lat="47.93263" lon="-2.28347">
        <ele>88.1</ele>
        <time>2012-08-28T09:01:27Z</time>
      </trkpt>
      <trkpt lat="47.93229" lon="-2.28332">
        <ele>88.1</ele>
        <time>2012-08-28T09:01:34Z</time>
      </trkpt>
      <trkpt lat="47.93178" lon="-2.28313">
        <ele>88.1</ele>
        <time>2012-08-28T09:01:43Z</time>
      </trkpt>
      <trkpt lat="47.93124" lon="-2.28292">
        <ele>87.14</ele>
        <time>2012-08-28T09:01:52Z</time>
      </trkpt>
      <trkpt lat="47.93059" lon="-2.28264">
        <ele>87.14</ele>
        <time>2012-08-28T09:02:02Z</time>
      </trkpt>
      <trkpt lat="47.93007" lon="-2.2824">
        <ele>86.66</ele>
        <time>2012-08-28T09:02:09Z</time>
      </trkpt>
      <trkpt lat="47.92921" lon="-2.28206">
        <ele>86.18</ele>
        <time>2012-08-28T09:02:19Z</time>
      </trkpt>
      <trkpt lat="47.92876" lon="-2.282">
        <ele>86.18</ele>
        <time>2012-08-28T09:02:25Z</time>
      </trkpt>
      <trkpt lat="47.92835" lon="-2.28199">
        <ele>86.18</ele>
        <time>2012-08-28T09:02:32Z</time>
      </trkpt>
      <trkpt lat="47.92799" lon="-2.28195">
        <ele>88.58</ele>
        <time>2012-08-28T09:02:40Z</time>
      </trkpt>
      <trkpt lat="47.92761" lon="-2.28186">
        <ele>90.5</ele>
        <time>2012-08-28T09:02:49Z</time>
      </trkpt>
      <trkpt lat="47.92741" lon="-2.28175">
        <ele>91.94</ele>
        <time>2012-08-28T09:02:55Z</time>
      </trkpt>
      <trkpt lat="47.92719" lon="-2.28164">
        <ele>92.9</ele>
        <time>2012-08-28T09:03:01Z</time>
      </trkpt>
      <trkpt lat="47.92706" lon="-2.28158">
        <ele>92.9</ele>
        <time>2012-08-28T09:03:04Z</time>
      </trkpt>
      <trkpt lat="47.92674" lon="-2.28144">
        <ele>93.87</ele>
        <time>2012-08-28T09:03:11Z</time>
      </trkpt>
      <trkpt lat="47.92666" lon="-2.2814">
        <ele>94.35</ele>
        <time>2012-08-28T09:03:13Z</time>
      </trkpt>
      <trkpt lat="47.92624" lon="-2.2813">
        <ele>94.35</ele>
        <time>2012-08-28T09:03:20Z</time>
      </trkpt>
      <trkpt lat="47.92572" lon="-2.28122">
        <ele>93.39</ele>
        <time>2012-08-28T09:03:27Z</time>
      </trkpt>
      <trkpt lat="47.92507" lon="-2.28111">
        <ele>90.5</ele>
        <time>2012-08-28T09:03:35Z</time>
      </trkpt>
      <trkpt lat="47.92439" lon="-2.28101">
        <ele>84.73</ele>
        <time>2012-08-28T09:03:43Z</time>
      </trkpt>
      <trkpt lat="47.9238" lon="-2.28093">
        <ele>80.89</ele>
        <time>2012-08-28T09:03:50Z</time>
      </trkpt>
      <trkpt lat="47.92322" lon="-2.28085">
        <ele>77.52</ele>
        <time>2012-08-28T09:03:57Z</time>
      </trkpt>
      <trkpt lat="47.92269" lon="-2.2808">
        <ele>75.12</ele>
        <time>2012-08-28T09:04:04Z</time>
      </trkpt>
      <trkpt lat="47.92262" lon="-2.28078">
        <ele>74.64</ele>
        <time>2012-08-28T09:04:05Z</time>
      </trkpt>
      <trkpt lat="47.92218" lon="-2.28075">
        <ele>73.2</ele>
        <time>2012-08-28T09:04:13Z</time>
      </trkpt>
      <trkpt lat="47.92181" lon="-2.28074">
        <ele>73.2</ele>
        <time>2012-08-28T09:04:22Z</time>
      </trkpt>
      <trkpt lat="47.92146" lon="-2.28074">
        <ele>74.64</ele>
        <time>2012-08-28T09:04:31Z</time>
      </trkpt>
      <trkpt lat="47.9211" lon="-2.28073">
        <ele>78</ele>
        <time>2012-08-28T09:04:41Z</time>
      </trkpt>
      <trkpt lat="47.92082" lon="-2.28072">
        <ele>79.93</ele>
        <time>2012-08-28T09:04:50Z</time>
      </trkpt>
      <trkpt lat="47.92053" lon="-2.28071">
        <ele>80.89</ele>
        <time>2012-08-28T09:05:00Z</time>
      </trkpt>
      <trkpt lat="47.92028" lon="-2.28063">
        <ele>83.29</ele>
        <time>2012-08-28T09:05:10Z</time>
      </trkpt>
      <trkpt lat="47.92009" lon="-2.28048">
        <ele>86.18</ele>
        <time>2012-08-28T09:05:18Z</time>
      </trkpt>
      <trkpt lat="47.9199" lon="-2.2802">
        <ele>89.06</ele>
        <time>2012-08-28T09:05:27Z</time>
      </trkpt>
      <trkpt lat="47.91973" lon="-2.27991">
        <ele>89.54</ele>
        <time>2012-08-28T09:05:35Z</time>
      </trkpt>
      <trkpt lat="47.91954" lon="-2.27971">
        <ele>89.06</ele>
        <time>2012-08-28T09:05:42Z</time>
      </trkpt>
      <trkpt lat="47.91932" lon="-2.27966">
        <ele>89.06</ele>
        <time>2012-08-28T09:05:49Z</time>
      </trkpt>
      <trkpt lat="47.91917" lon="-2.27957">
        <ele>89.54</ele>
        <time>2012-08-28T09:05:54Z</time>
      </trkpt>
      <trkpt lat="47.91894" lon="-2.2793">
        <ele>91.46</ele>
        <time>2012-08-28T09:06:02Z</time>
      </trkpt>
      <trkpt lat="47.91882" lon="-2.27936">
        <ele>91.94</ele>
        <time>2012-08-28T09:06:07Z</time>
      </trkpt>
      <trkpt lat="47.91868" lon="-2.27959">
        <ele>93.39</ele>
        <time>2012-08-28T09:06:16Z</time>
      </trkpt>
      <trkpt lat="47.91848" lon="-2.27983">
        <ele>95.79</ele>
        <time>2012-08-28T09:06:26Z</time>
      </trkpt>
      <trkpt lat="47.91815" lon="-2.27998">
        <ele>95.31</ele>
        <time>2012-08-28T09:06:36Z</time>
      </trkpt>
      <trkpt lat="47.91785" lon="-2.28006">
        <ele>93.39</ele>
        <time>2012-08-28T09:06:44Z</time>
      </trkpt>
      <trkpt lat="47.91773" lon="-2.2801">
        <ele>91.94</ele>
        <time>2012-08-28T09:06:47Z</time>
      </trkpt>
      <trkpt lat="47.91734" lon="-2.28013">
        <ele>90.98</ele>
        <time>2012-08-28T09:06:55Z</time>
      </trkpt>
      <trkpt lat="47.9169" lon="-2.28013">
        <ele>90.02</ele>
        <time>2012-08-28T09:07:02Z</time>
      </trkpt>
      <trkpt lat="47.91638" lon="-2.28021">
        <ele>88.58</ele>
        <time>2012-08-28T09:07:09Z</time>
      </trkpt>
      <trkpt lat="47.91616" lon="-2.28026">
        <ele>87.62</ele>
        <time>2012-08-28T09:07:12Z</time>
      </trkpt>
      <trkpt lat="47.91542" lon="-2.28049">
        <ele>84.73</ele>
        <time>2012-08-28T09:07:22Z</time>
      </trkpt>
      <trkpt lat="47.91501" lon="-2.28076">
        <ele>83.29</ele>
        <time>2012-08-28T09:07:28Z</time>
      </trkpt>
      <trkpt lat="47.91433" lon="-2.28124">
        <ele>80.41</ele>
        <time>2012-08-28T09:07:37Z</time>
      </trkpt>
      <trkpt lat="47.9138" lon="-2.28127">
        <ele>77.52</ele>
        <time>2012-08-28T09:07:43Z</time>
      </trkpt>
      <trkpt lat="47.91296" lon="-2.28115">
        <ele>73.2</ele>
        <time>2012-08-28T09:07:52Z</time>
      </trkpt>
      <trkpt lat="47.91273" lon="-2.28133">
        <ele>70.79</ele>
        <time>2012-08-28T09:07:56Z</time>
      </trkpt>
      <trkpt lat="47.91272" lon="-2.28143">
        <ele>69.83</ele>
        <time>2012-08-28T09:07:57Z</time>
      </trkpt>
      <trkpt lat="47.91267" lon="-2.28267">
        <ele>64.07</ele>
        <time>2012-08-28T09:08:08Z</time>
      </trkpt>
      <trkpt lat="47.91265" lon="-2.28317">
        <ele>62.14</ele>
        <time>2012-08-28T09:08:12Z</time>
      </trkpt>
      <trkpt lat="47.91259" lon="-2.28367">
        <ele>60.22</ele>
        <time>2012-08-28T09:08:16Z</time>
      </trkpt>
      <trkpt lat="47.91236" lon="-2.2843">
        <ele>58.3</ele>
        <time>2012-08-28T09:08:22Z</time>
      </trkpt>
      <trkpt lat="47.91213" lon="-2.28487">
        <ele>58.78</ele>
        <time>2012-08-28T09:08:28Z</time>
      </trkpt>
      <trkpt lat="47.91209" lon="-2.28546">
        <ele>58.3</ele>
        <time>2012-08-28T09:08:34Z</time>
      </trkpt>
      <trkpt lat="47.91209" lon="-2.28555">
        <ele>58.3</ele>
        <time>2012-08-28T09:08:35Z</time>
      </trkpt>
      <trkpt lat="47.91214" lon="-2.2861">
        <ele>59.26</ele>
        <time>2012-08-28T09:08:42Z</time>
      </trkpt>
      <trkpt lat="47.91218" lon="-2.28644">
        <ele>60.7</ele>
        <time>2012-08-28T09:08:47Z</time>
      </trkpt>
      <trkpt lat="47.91216" lon="-2.28684">
        <ele>61.66</ele>
        <time>2012-08-28T09:08:52Z</time>
      </trkpt>
      <trkpt lat="47.91197" lon="-2.28738">
        <ele>65.03</ele>
        <time>2012-08-28T09:09:00Z</time>
      </trkpt>
      <trkpt lat="47.91172" lon="-2.28767">
        <ele>66.95</ele>
        <time>2012-08-28T09:09:06Z</time>
      </trkpt>
      <trkpt lat="47.91148" lon="-2.2879">
        <ele>68.39</ele>
        <time>2012-08-28T09:09:11Z</time>
      </trkpt>
      <trkpt lat="47.9113" lon="-2.28809">
        <ele>69.35</ele>
        <time>2012-08-28T09:09:15Z</time>
      </trkpt>
      <trkpt lat="47.91091" lon="-2.2885">
        <ele>70.79</ele>
        <time>2012-08-28T09:09:24Z</time>
      </trkpt>
      <trkpt lat="47.91079" lon="-2.28864">
        <ele>70.79</ele>
        <time>2012-08-28T09:09:27Z</time>
      </trkpt>
      <trkpt lat="47.91063" lon="-2.2888">
        <ele>70.79</ele>
        <time>2012-08-28T09:09:32Z</time>
      </trkpt>
      <trkpt lat="47.91037" lon="-2.2891">
        <ele>70.31</ele>
        <time>2012-08-28T09:09:39Z</time>
      </trkpt>
      <trkpt lat="47.91011" lon="-2.28942">
        <ele>67.91</ele>
        <time>2012-08-28T09:09:47Z</time>
      </trkpt>
      <trkpt lat="47.90983" lon="-2.28972">
        <ele>66.95</ele>
        <time>2012-08-28T09:09:56Z</time>
      </trkpt>
      <trkpt lat="47.90958" lon="-2.28998">
        <ele>66.95</ele>
        <time>2012-08-28T09:10:05Z</time>
      </trkpt>
      <trkpt lat="47.90934" lon="-2.29025">
        <ele>67.91</ele>
        <time>2012-08-28T09:10:15Z</time>
      </trkpt>
      <trkpt lat="47.90911" lon="-2.29047">
        <ele>68.87</ele>
        <time>2012-08-28T09:10:24Z</time>
      </trkpt>
      <trkpt lat="47.90886" lon="-2.29076">
        <ele>67.43</ele>
        <time>2012-08-28T09:10:32Z</time>
      </trkpt>
      <trkpt lat="47.90859" lon="-2.29105">
        <ele>66.95</ele>
        <time>2012-08-28T09:10:40Z</time>
      </trkpt>
      <trkpt lat="47.90827" lon="-2.29139">
        <ele>67.91</ele>
        <time>2012-08-28T09:10:49Z</time>
      </trkpt>
      <trkpt lat="47.90791" lon="-2.29178">
        <ele>69.35</ele>
        <time>2012-08-28T09:10:59Z</time>
      </trkpt>
      <trkpt lat="47.90758" lon="-2.29212">
        <ele>68.87</ele>
        <time>2012-08-28T09:11:08Z</time>
      </trkpt>
      <trkpt lat="47.90732" lon="-2.29234">
        <ele>68.87</ele>
        <time>2012-08-28T09:11:15Z</time>
      </trkpt>
      <trkpt lat="47.90702" lon="-2.2925">
        <ele>69.83</ele>
        <time>2012-08-28T09:11:23Z</time>
      </trkpt>
      <trkpt lat="47.90672" lon="-2.29265">
        <ele>70.79</ele>
        <time>2012-08-28T09:11:32Z</time>
      </trkpt>
      <trkpt lat="47.90638" lon="-2.29282">
        <ele>70.79</ele>
        <time>2012-08-28T09:11:43Z</time>
      </trkpt>
      <trkpt lat="47.90617" lon="-2.29294">
        <ele>71.76</ele>
        <time>2012-08-28T09:11:50Z</time>
      </trkpt>
      <trkpt lat="47.90582" lon="-2.2931">
        <ele>72.24</ele>
        <time>2012-08-28T09:12:02Z</time>
      </trkpt>
      <trkpt lat="47.90552" lon="-2.29327">
        <ele>73.2</ele>
        <time>2012-08-28T09:12:12Z</time>
      </trkpt>
      <trkpt lat="47.90533" lon="-2.29346">
        <ele>72.24</ele>
        <time>2012-08-28T09:12:20Z</time>
      </trkpt>
      <trkpt lat="47.90522" lon="-2.29366">
        <ele>71.27</ele>
        <time>2012-08-28T09:12:27Z</time>
      </trkpt>
      <trkpt lat="47.90505" lon="-2.29394">
        <ele>70.79</ele>
        <time>2012-08-28T09:12:36Z</time>
      </trkpt>
      <trkpt lat="47.9049" lon="-2.29421">
        <ele>71.27</ele>
        <time>2012-08-28T09:12:44Z</time>
      </trkpt>
      <trkpt lat="47.90472" lon="-2.29453">
        <ele>73.68</ele>
        <time>2012-08-28T09:12:51Z</time>
      </trkpt>
      <trkpt lat="47.9045" lon="-2.29489">
        <ele>75.6</ele>
        <time>2012-08-28T09:12:59Z</time>
      </trkpt>
      <trkpt lat="47.9044" lon="-2.2951">
        <ele>77.04</ele>
        <time>2012-08-28T09:13:03Z</time>
      </trkpt>
      <trkpt lat="47.90435" lon="-2.29556">
        <ele>78.48</ele>
        <time>2012-08-28T09:13:11Z</time>
      </trkpt>
      <trkpt lat="47.90441" lon="-2.29584">
        <ele>79.93</ele>
        <time>2012-08-28T09:13:18Z</time>
      </trkpt>
      <trkpt lat="47.90451" lon="-2.29618">
        <ele>81.85</ele>
        <time>2012-08-28T09:13:27Z</time>
      </trkpt>
      <trkpt lat="47.90458" lon="-2.29652">
        <ele>83.77</ele>
        <time>2012-08-28T09:13:36Z</time>
      </trkpt>
      <trkpt lat="47.90464" lon="-2.29699">
        <ele>85.69</ele>
        <time>2012-08-28T09:13:47Z</time>
      </trkpt>
      <trkpt lat="47.90468" lon="-2.29738">
        <ele>85.69</ele>
        <time>2012-08-28T09:13:56Z</time>
      </trkpt>
      <trkpt lat="47.90474" lon="-2.29787">
        <ele>85.21</ele>
        <time>2012-08-28T09:14:06Z</time>
      </trkpt>
      <trkpt lat="47.90475" lon="-2.29844">
        <ele>86.18</ele>
        <time>2012-08-28T09:14:18Z</time>
      </trkpt>
      <trkpt lat="47.90474" lon="-2.299">
        <ele>87.62</ele>
        <time>2012-08-28T09:14:30Z</time>
      </trkpt>
      <trkpt lat="47.90474" lon="-2.29942">
        <ele>89.06</ele>
        <time>2012-08-28T09:14:39Z</time>
      </trkpt>
      <trkpt lat="47.90474" lon="-2.29984">
        <ele>90.02</ele>
        <time>2012-08-28T09:14:47Z</time>
      </trkpt>
      <trkpt lat="47.90468" lon="-2.30038">
        <ele>90.02</ele>
        <time>2012-08-28T09:14:57Z</time>
      </trkpt>
      <trkpt lat="47.90459" lon="-2.301">
        <ele>89.54</ele>
        <time>2012-08-28T09:15:09Z</time>
      </trkpt>
      <trkpt lat="47.90452" lon="-2.30157">
        <ele>89.54</ele>
        <time>2012-08-28T09:15:20Z</time>
      </trkpt>
      <trkpt lat="47.90444" lon="-2.30214">
        <ele>89.54</ele>
        <time>2012-08-28T09:15:31Z</time>
      </trkpt>
      <trkpt lat="47.90437" lon="-2.30264">
        <ele>90.02</ele>
        <time>2012-08-28T09:15:41Z</time>
      </trkpt>
      <trkpt lat="47.90432" lon="-2.30318">
        <ele>91.46</ele>
        <time>2012-08-28T09:15:52Z</time>
      </trkpt>
      <trkpt lat="47.90431" lon="-2.30369">
        <ele>93.39</ele>
        <time>2012-08-28T09:16:02Z</time>
      </trkpt>
      <trkpt lat="47.90433" lon="-2.30413">
        <ele>94.35</ele>
        <time>2012-08-28T09:16:10Z</time>
      </trkpt>
      <trkpt lat="47.90441" lon="-2.30457">
        <ele>94.83</ele>
        <time>2012-08-28T09:16:18Z</time>
      </trkpt>
      <trkpt lat="47.90449" lon="-2.30499">
        <ele>95.31</ele>
        <time>2012-08-28T09:16:25Z</time>
      </trkpt>
      <trkpt lat="47.90455" lon="-2.30523">
        <ele>94.83</ele>
        <time>2012-08-28T09:16:29Z</time>
      </trkpt>
      <trkpt lat="47.90458" lon="-2.30535">
        <ele>94.83</ele>
        <time>2012-08-28T09:16:31Z</time>
      </trkpt>
      <trkpt lat="47.90469" lon="-2.30592">
        <ele>95.31</ele>
        <time>2012-08-28T09:16:41Z</time>
      </trkpt>
      <trkpt lat="47.90477" lon="-2.30648">
        <ele>95.79</ele>
        <time>2012-08-28T09:16:51Z</time>
      </trkpt>
      <trkpt lat="47.90484" lon="-2.30705">
        <ele>97.23</ele>
        <time>2012-08-28T09:17:01Z</time>
      </trkpt>
      <trkpt lat="47.9049" lon="-2.30774">
        <ele>98.19</ele>
        <time>2012-08-28T09:17:11Z</time>
      </trkpt>
      <trkpt lat="47.90497" lon="-2.30848">
        <ele>97.23</ele>
        <time>2012-08-28T09:17:22Z</time>
      </trkpt>
      <trkpt lat="47.90506" lon="-2.30925">
        <ele>95.31</ele>
        <time>2012-08-28T09:17:33Z</time>
      </trkpt>
      <trkpt lat="47.90512" lon="-2.30991">
        <ele>94.35</ele>
        <time>2012-08-28T09:17:42Z</time>
      </trkpt>
      <trkpt lat="47.90519" lon="-2.31067">
        <ele>92.9</ele>
        <time>2012-08-28T09:17:52Z</time>
      </trkpt>
      <trkpt lat="47.90524" lon="-2.31139">
        <ele>91.46</ele>
        <time>2012-08-28T09:18:01Z</time>
      </trkpt>
      <trkpt lat="47.90535" lon="-2.31227">
        <ele>90.02</ele>
        <time>2012-08-28T09:18:12Z</time>
      </trkpt>
      <trkpt lat="47.9055" lon="-2.31303">
        <ele>88.1</ele>
        <time>2012-08-28T09:18:22Z</time>
      </trkpt>
      <trkpt lat="47.90558" lon="-2.31351">
        <ele>88.1</ele>
        <time>2012-08-28T09:18:30Z</time>
      </trkpt>
      <trkpt lat="47.90559" lon="-2.31405">
        <ele>89.06</ele>
        <time>2012-08-28T09:18:40Z</time>
      </trkpt>
      <trkpt lat="47.90556" lon="-2.31469">
        <ele>90.02</ele>
        <time>2012-08-28T09:18:52Z</time>
      </trkpt>
      <trkpt lat="47.90553" lon="-2.3153">
        <ele>90.5</ele>
        <time>2012-08-28T09:19:02Z</time>
      </trkpt>
      <trkpt lat="47.90543" lon="-2.31563">
        <ele>90.02</ele>
        <time>2012-08-28T09:19:08Z</time>
      </trkpt>
      <trkpt lat="47.90523" lon="-2.31559">
        <ele>89.06</ele>
        <time>2012-08-28T09:19:12Z</time>
      </trkpt>
      <trkpt lat="47.90518" lon="-2.31556">
        <ele>89.06</ele>
        <time>2012-08-28T09:19:13Z</time>
      </trkpt>
      <trkpt lat="47.90462" lon="-2.31524">
        <ele>86.66</ele>
        <time>2012-08-28T09:19:23Z</time>
      </trkpt>
      <trkpt lat="47.90413" lon="-2.31487">
        <ele>84.73</ele>
        <time>2012-08-28T09:19:31Z</time>
      </trkpt>
      <trkpt lat="47.90377" lon="-2.3145">
        <ele>83.77</ele>
        <time>2012-08-28T09:19:37Z</time>
      </trkpt>
      <trkpt lat="47.90359" lon="-2.31448">
        <ele>82.81</ele>
        <time>2012-08-28T09:19:41Z</time>
      </trkpt>
      <trkpt lat="47.9035" lon="-2.31457">
        <ele>82.81</ele>
        <time>2012-08-28T09:19:43Z</time>
      </trkpt>
      <trkpt lat="47.90317" lon="-2.31512">
        <ele>80.89</ele>
        <time>2012-08-28T09:19:52Z</time>
      </trkpt>
      <trkpt lat="47.9031" lon="-2.31524">
        <ele>80.89</ele>
        <time>2012-08-28T09:19:54Z</time>
      </trkpt>
      <trkpt lat="47.90285" lon="-2.31564">
        <ele>81.85</ele>
        <time>2012-08-28T09:20:01Z</time>
      </trkpt>
      <trkpt lat="47.90258" lon="-2.31612">
        <ele>82.81</ele>
        <time>2012-08-28T09:20:10Z</time>
      </trkpt>
      <trkpt lat="47.90232" lon="-2.31655">
        <ele>85.21</ele>
        <time>2012-08-28T09:20:20Z</time>
      </trkpt>
      <trkpt lat="47.90205" lon="-2.31703">
        <ele>88.1</ele>
        <time>2012-08-28T09:20:32Z</time>
      </trkpt>
      <trkpt lat="47.90186" lon="-2.31737">
        <ele>89.06</ele>
        <time>2012-08-28T09:20:41Z</time>
      </trkpt>
      <trkpt lat="47.90173" lon="-2.31777">
        <ele>90.02</ele>
        <time>2012-08-28T09:20:50Z</time>
      </trkpt>
      <trkpt lat="47.90173" lon="-2.31823">
        <ele>90.5</ele>
        <time>2012-08-28T09:21:00Z</time>
      </trkpt>
      <trkpt lat="47.90174" lon="-2.31872">
        <ele>91.46</ele>
        <time>2012-08-28T09:21:11Z</time>
      </trkpt>
      <trkpt lat="47.90175" lon="-2.31922">
        <ele>92.42</ele>
        <time>2012-08-28T09:21:22Z</time>
      </trkpt>
      <trkpt lat="47.90175" lon="-2.31969">
        <ele>92.9</ele>
        <time>2012-08-28T09:21:32Z</time>
      </trkpt>
      <trkpt lat="47.90176" lon="-2.32015">
        <ele>93.39</ele>
        <time>2012-08-28T09:21:41Z</time>
      </trkpt>
      <trkpt lat="47.90178" lon="-2.32073">
        <ele>93.39</ele>
        <time>2012-08-28T09:21:51Z</time>
      </trkpt>
      <trkpt lat="47.9018" lon="-2.32125">
        <ele>92.9</ele>
        <time>2012-08-28T09:22:00Z</time>
      </trkpt>
      <trkpt lat="47.90181" lon="-2.32138">
        <ele>92.42</ele>
        <time>2012-08-28T09:22:02Z</time>
      </trkpt>
      <trkpt lat="47.90179" lon="-2.32193">
        <ele>91.94</ele>
        <time>2012-08-28T09:22:11Z</time>
      </trkpt>
      <trkpt lat="47.90177" lon="-2.32245">
        <ele>90.98</ele>
        <time>2012-08-28T09:22:20Z</time>
      </trkpt>
      <trkpt lat="47.90175" lon="-2.32302">
        <ele>90.98</ele>
        <time>2012-08-28T09:22:31Z</time>
      </trkpt>
      <trkpt lat="47.90172" lon="-2.32346">
        <ele>91.46</ele>
        <time>2012-08-28T09:22:40Z</time>
      </trkpt>
      <trkpt lat="47.9017" lon="-2.32383">
        <ele>92.42</ele>
        <time>2012-08-28T09:22:47Z</time>
      </trkpt>
      <trkpt lat="47.90168" lon="-2.32435">
        <ele>91.46</ele>
        <time>2012-08-28T09:22:56Z</time>
      </trkpt>
      <trkpt lat="47.90165" lon="-2.32497">
        <ele>90.98</ele>
        <time>2012-08-28T09:23:05Z</time>
      </trkpt>
      <trkpt lat="47.90164" lon="-2.32526">
        <ele>90.98</ele>
        <time>2012-08-28T09:23:09Z</time>
      </trkpt>
      <trkpt lat="47.90171" lon="-2.32603">
        <ele>89.06</ele>
        <time>2012-08-28T09:23:19Z</time>
      </trkpt>
      <trkpt lat="47.90172" lon="-2.3261">
        <ele>89.54</ele>
        <time>2012-08-28T09:23:20Z</time>
      </trkpt>
      <trkpt lat="47.90179" lon="-2.32665">
        <ele>89.06</ele>
        <time>2012-08-28T09:23:29Z</time>
      </trkpt>
      <trkpt lat="47.90185" lon="-2.32722">
        <ele>89.06</ele>
        <time>2012-08-28T09:23:37Z</time>
      </trkpt>
      <trkpt lat="47.90184" lon="-2.32745">
        <ele>88.58</ele>
        <time>2012-08-28T09:23:40Z</time>
      </trkpt>
      <trkpt lat="47.9018" lon="-2.32782">
        <ele>88.58</ele>
        <time>2012-08-28T09:23:45Z</time>
      </trkpt>
      <trkpt lat="47.90174" lon="-2.32843">
        <ele>88.1</ele>
        <time>2012-08-28T09:23:54Z</time>
      </trkpt>
      <trkpt lat="47.90157" lon="-2.32873">
        <ele>88.1</ele>
        <time>2012-08-28T09:24:00Z</time>
      </trkpt>
      <trkpt lat="47.90153" lon="-2.32875">
        <ele>88.1</ele>
        <time>2012-08-28T09:24:01Z</time>
      </trkpt>
      <trkpt lat="47.9012" lon="-2.32882">
        <ele>88.58</ele>
        <time>2012-08-28T09:24:08Z</time>
      </trkpt>
      <trkpt lat="47.90075" lon="-2.329">
        <ele>89.06</ele>
        <time>2012-08-28T09:24:18Z</time>
      </trkpt>
      <trkpt lat="47.90034" lon="-2.32918">
        <ele>89.06</ele>
        <time>2012-08-28T09:24:26Z</time>
      </trkpt>
      <trkpt lat="47.90024" lon="-2.32925">
        <ele>89.06</ele>
        <time>2012-08-28T09:24:28Z</time>
      </trkpt>
      <trkpt lat="47.90005" lon="-2.32949">
        <ele>89.06</ele>
        <time>2012-08-28T09:24:32Z</time>
      </trkpt>
      <trkpt lat="47.8999" lon="-2.32984">
        <ele>88.58</ele>
        <time>2012-08-28T09:24:37Z</time>
      </trkpt>
      <trkpt lat="47.89978" lon="-2.33025">
        <ele>89.06</ele>
        <time>2012-08-28T09:24:43Z</time>
      </trkpt>
      <trkpt lat="47.89975" lon="-2.33037">
        <ele>88.58</ele>
        <time>2012-08-28T09:24:45Z</time>
      </trkpt>
      <trkpt lat="47.89959" lon="-2.33091">
        <ele>88.58</ele>
        <time>2012-08-28T09:24:54Z</time>
      </trkpt>
      <trkpt lat="47.89955" lon="-2.33103">
        <ele>88.1</ele>
        <time>2012-08-28T09:24:56Z</time>
      </trkpt>
      <trkpt lat="47.89942" lon="-2.33129">
        <ele>88.58</ele>
        <time>2012-08-28T09:25:01Z</time>
      </trkpt>
      <trkpt lat="47.89909" lon="-2.33151">
        <ele>88.58</ele>
        <time>2012-08-28T09:25:08Z</time>
      </trkpt>
      <trkpt lat="47.89904" lon="-2.33151">
        <ele>88.1</ele>
        <time>2012-08-28T09:25:09Z</time>
      </trkpt>
      <trkpt lat="47.8985" lon="-2.33145">
        <ele>86.66</ele>
        <time>2012-08-28T09:25:18Z</time>
      </trkpt>
      <trkpt lat="47.89801" lon="-2.33137">
        <ele>85.21</ele>
        <time>2012-08-28T09:25:26Z</time>
      </trkpt>
      <trkpt lat="47.89758" lon="-2.33126">
        <ele>84.73</ele>
        <time>2012-08-28T09:25:34Z</time>
      </trkpt>
      <trkpt lat="47.89715" lon="-2.33118">
        <ele>85.21</ele>
        <time>2012-08-28T09:25:42Z</time>
      </trkpt>
      <trkpt lat="47.89674" lon="-2.33109">
        <ele>86.18</ele>
        <time>2012-08-28T09:25:50Z</time>
      </trkpt>
      <trkpt lat="47.89647" lon="-2.33104">
        <ele>86.66</ele>
        <time>2012-08-28T09:25:56Z</time>
      </trkpt>
      <trkpt lat="47.89598" lon="-2.33105">
        <ele>88.58</ele>
        <time>2012-08-28T09:26:06Z</time>
      </trkpt>
      <trkpt lat="47.8956" lon="-2.33105">
        <ele>90.98</ele>
        <time>2012-08-28T09:26:15Z</time>
      </trkpt>
      <trkpt lat="47.89537" lon="-2.33104">
        <ele>92.9</ele>
        <time>2012-08-28T09:26:21Z</time>
      </trkpt>
      <trkpt lat="47.89496" lon="-2.33106">
        <ele>93.39</ele>
        <time>2012-08-28T09:26:29Z</time>
      </trkpt>
      <trkpt lat="47.89466" lon="-2.33108">
        <ele>92.9</ele>
        <time>2012-08-28T09:26:35Z</time>
      </trkpt>
      <trkpt lat="47.89448" lon="-2.33124">
        <ele>94.35</ele>
        <time>2012-08-28T09:26:40Z</time>
      </trkpt>
      <trkpt lat="47.89446" lon="-2.3314">
        <ele>94.35</ele>
        <time>2012-08-28T09:26:43Z</time>
      </trkpt>
      <trkpt lat="47.89445" lon="-2.33191">
        <ele>94.35</ele>
        <time>2012-08-28T09:26:52Z</time>
      </trkpt>
      <trkpt lat="47.89442" lon="-2.33244">
        <ele>93.39</ele>
        <time>2012-08-28T09:27:01Z</time>
      </trkpt>
      <trkpt lat="47.89443" lon="-2.33261">
        <ele>93.87</ele>
        <time>2012-08-28T09:27:04Z</time>
      </trkpt>
      <trkpt lat="47.89443" lon="-2.33309">
        <ele>94.35</ele>
        <time>2012-08-28T09:27:12Z</time>
      </trkpt>
      <trkpt lat="47.89441" lon="-2.33364">
        <ele>93.87</ele>
        <time>2012-08-28T09:27:20Z</time>
      </trkpt>
      <trkpt lat="47.89443" lon="-2.33436">
        <ele>94.35</ele>
        <time>2012-08-28T09:27:30Z</time>
      </trkpt>
      <trkpt lat="47.89446" lon="-2.33496">
        <ele>94.35</ele>
        <time>2012-08-28T09:27:38Z</time>
      </trkpt>
      <trkpt lat="47.89451" lon="-2.33568">
        <ele>93.87</ele>
        <time>2012-08-28T09:27:48Z</time>
      </trkpt>
      <trkpt lat="47.89456" lon="-2.33639">
        <ele>92.9</ele>
        <time>2012-08-28T09:27:58Z</time>
      </trkpt>
      <trkpt lat="47.89459" lon="-2.33707">
        <ele>93.87</ele>
        <time>2012-08-28T09:28:08Z</time>
      </trkpt>
      <trkpt lat="47.89457" lon="-2.33721">
        <ele>93.87</ele>
        <time>2012-08-28T09:28:10Z</time>
      </trkpt>
      <trkpt lat="47.89451" lon="-2.33749">
        <ele>94.35</ele>
        <time>2012-08-28T09:28:14Z</time>
      </trkpt>
      <trkpt lat="47.89431" lon="-2.33816">
        <ele>95.31</ele>
        <time>2012-08-28T09:28:24Z</time>
      </trkpt>
      <trkpt lat="47.8943" lon="-2.33823">
        <ele>95.31</ele>
        <time>2012-08-28T09:28:25Z</time>
      </trkpt>
      <trkpt lat="47.89422" lon="-2.33896">
        <ele>96.75</ele>
        <time>2012-08-28T09:28:35Z</time>
      </trkpt>
      <trkpt lat="47.89418" lon="-2.33944">
        <ele>97.71</ele>
        <time>2012-08-28T09:28:41Z</time>
      </trkpt>
      <trkpt lat="47.89402" lon="-2.33967">
        <ele>98.19</ele>
        <time>2012-08-28T09:28:46Z</time>
      </trkpt>
      <trkpt lat="47.89364" lon="-2.33981">
        <ele>98.67</ele>
        <time>2012-08-28T09:28:56Z</time>
      </trkpt>
      <trkpt lat="47.89342" lon="-2.34004">
        <ele>99.63</ele>
        <time>2012-08-28T09:29:03Z</time>
      </trkpt>
      <trkpt lat="47.89317" lon="-2.34039">
        <ele>100.11</ele>
        <time>2012-08-28T09:29:12Z</time>
      </trkpt>
      <trkpt lat="47.89302" lon="-2.3406">
        <ele>101.08</ele>
        <time>2012-08-28T09:29:17Z</time>
      </trkpt>
      <trkpt lat="47.8927" lon="-2.34098">
        <ele>101.56</ele>
        <time>2012-08-28T09:29:27Z</time>
      </trkpt>
      <trkpt lat="47.89246" lon="-2.34112">
        <ele>101.08</ele>
        <time>2012-08-28T09:29:34Z</time>
      </trkpt>
      <trkpt lat="47.89219" lon="-2.34112">
        <ele>100.6</ele>
        <time>2012-08-28T09:29:42Z</time>
      </trkpt>
      <trkpt lat="47.89193" lon="-2.34103">
        <ele>100.6</ele>
        <time>2012-08-28T09:29:50Z</time>
      </trkpt>
      <trkpt lat="47.89167" lon="-2.3409">
        <ele>101.56</ele>
        <time>2012-08-28T09:29:59Z</time>
      </trkpt>
      <trkpt lat="47.89138" lon="-2.34076">
        <ele>102.52</ele>
        <time>2012-08-28T09:30:10Z</time>
      </trkpt>
      <trkpt lat="47.8911" lon="-2.34063">
        <ele>104.44</ele>
        <time>2012-08-28T09:30:21Z</time>
      </trkpt>
      <trkpt lat="47.89085" lon="-2.34051">
        <ele>105.88</ele>
        <time>2012-08-28T09:30:31Z</time>
      </trkpt>
      <trkpt lat="47.89062" lon="-2.3404">
        <ele>105.88</ele>
        <time>2012-08-28T09:30:41Z</time>
      </trkpt>
      <trkpt lat="47.89027" lon="-2.34024">
        <ele>106.84</ele>
        <time>2012-08-28T09:30:53Z</time>
      </trkpt>
      <trkpt lat="47.88996" lon="-2.34009">
        <ele>106.84</ele>
        <time>2012-08-28T09:31:02Z</time>
      </trkpt>
      <trkpt lat="47.88961" lon="-2.33993">
        <ele>106.84</ele>
        <time>2012-08-28T09:31:11Z</time>
      </trkpt>
      <trkpt lat="47.88941" lon="-2.33983">
        <ele>107.32</ele>
        <time>2012-08-28T09:31:18Z</time>
      </trkpt>
      <trkpt lat="47.88913" lon="-2.3397">
        <ele>107.32</ele>
        <time>2012-08-28T09:31:26Z</time>
      </trkpt>
      <trkpt lat="47.88886" lon="-2.33957">
        <ele>107.32</ele>
        <time>2012-08-28T09:31:34Z</time>
      </trkpt>
      <trkpt lat="47.88864" lon="-2.33947">
        <ele>107.81</ele>
        <time>2012-08-28T09:31:40Z</time>
      </trkpt>
      <trkpt lat="47.88836" lon="-2.33936">
        <ele>107.32</ele>
        <time>2012-08-28T09:31:47Z</time>
      </trkpt>
      <trkpt lat="47.8881" lon="-2.33945">
        <ele>106.84</ele>
        <time>2012-08-28T09:31:53Z</time>
      </trkpt>
      <trkpt lat="47.88807" lon="-2.33949">
        <ele>106.84</ele>
        <time>2012-08-28T09:31:54Z</time>
      </trkpt>
      <trkpt lat="47.88781" lon="-2.33996">
        <ele>106.36</ele>
        <time>2012-08-28T09:32:04Z</time>
      </trkpt>
      <trkpt lat="47.88754" lon="-2.34053">
        <ele>106.36</ele>
        <time>2012-08-28T09:32:15Z</time>
      </trkpt>
      <trkpt lat="47.88744" lon="-2.34074">
        <ele>106.84</ele>
        <time>2012-08-28T09:32:19Z</time>
      </trkpt>
      <trkpt lat="47.8873" lon="-2.34099">
        <ele>106.36</ele>
        <time>2012-08-28T09:32:24Z</time>
      </trkpt>
      <trkpt lat="47.88702" lon="-2.34126">
        <ele>106.36</ele>
        <time>2012-08-28T09:32:33Z</time>
      </trkpt>
      <trkpt lat="47.88678" lon="-2.34144">
        <ele>107.32</ele>
        <time>2012-08-28T09:32:41Z</time>
      </trkpt>
      <trkpt lat="47.88656" lon="-2.34175">
        <ele>108.29</ele>
        <time>2012-08-28T09:32:50Z</time>
      </trkpt>
      <trkpt lat="47.8864" lon="-2.34223">
        <ele>109.25</ele>
        <time>2012-08-28T09:33:00Z</time>
      </trkpt>
      <trkpt lat="47.88627" lon="-2.3428">
        <ele>109.25</ele>
        <time>2012-08-28T09:33:10Z</time>
      </trkpt>
      <trkpt lat="47.88607" lon="-2.34356">
        <ele>109.25</ele>
        <time>2012-08-28T09:33:23Z</time>
      </trkpt>
      <trkpt lat="47.88591" lon="-2.34424">
        <ele>109.73</ele>
        <time>2012-08-28T09:33:35Z</time>
      </trkpt>
      <trkpt lat="47.88575" lon="-2.34487">
        <ele>110.21</ele>
        <time>2012-08-28T09:33:46Z</time>
      </trkpt>
      <trkpt lat="47.88561" lon="-2.34544">
        <ele>110.21</ele>
        <time>2012-08-28T09:33:56Z</time>
      </trkpt>
      <trkpt lat="47.88548" lon="-2.346">
        <ele>110.69</ele>
        <time>2012-08-28T09:34:06Z</time>
      </trkpt>
      <trkpt lat="47.88534" lon="-2.34658">
        <ele>110.21</ele>
        <time>2012-08-28T09:34:16Z</time>
      </trkpt>
      <trkpt lat="47.8852" lon="-2.34713">
        <ele>110.21</ele>
        <time>2012-08-28T09:34:26Z</time>
      </trkpt>
      <trkpt lat="47.88505" lon="-2.34776">
        <ele>109.73</ele>
        <time>2012-08-28T09:34:37Z</time>
      </trkpt>
      <trkpt lat="47.8849" lon="-2.34837">
        <ele>109.25</ele>
        <time>2012-08-28T09:34:47Z</time>
      </trkpt>
      <trkpt lat="47.88476" lon="-2.34895">
        <ele>108.77</ele>
        <time>2012-08-28T09:34:57Z</time>
      </trkpt>
      <trkpt lat="47.88464" lon="-2.34942">
        <ele>108.77</ele>
        <time>2012-08-28T09:35:05Z</time>
      </trkpt>
      <trkpt lat="47.88455" lon="-2.34962">
        <ele>108.77</ele>
        <time>2012-08-28T09:35:09Z</time>
      </trkpt>
      <trkpt lat="47.88435" lon="-2.34984">
        <ele>108.77</ele>
        <time>2012-08-28T09:35:15Z</time>
      </trkpt>
      <trkpt lat="47.88404" lon="-2.34991">
        <ele>109.25</ele>
        <time>2012-08-28T09:35:24Z</time>
      </trkpt>
      <trkpt lat="47.88377" lon="-2.34989">
        <ele>110.21</ele>
        <time>2012-08-28T09:35:33Z</time>
      </trkpt>
      <trkpt lat="47.88348" lon="-2.34987">
        <ele>112.61</ele>
        <time>2012-08-28T09:35:43Z</time>
      </trkpt>
      <trkpt lat="47.8832" lon="-2.34986">
        <ele>115.01</ele>
        <time>2012-08-28T09:35:53Z</time>
      </trkpt>
      <trkpt lat="47.88293" lon="-2.34992">
        <ele>116.46</ele>
        <time>2012-08-28T09:36:03Z</time>
      </trkpt>
      <trkpt lat="47.88271" lon="-2.35011">
        <ele>118.38</ele>
        <time>2012-08-28T09:36:13Z</time>
      </trkpt>
      <trkpt lat="47.88256" lon="-2.35039">
        <ele>119.34</ele>
        <time>2012-08-28T09:36:23Z</time>
      </trkpt>
      <trkpt lat="47.88239" lon="-2.35069">
        <ele>120.78</ele>
        <time>2012-08-28T09:36:31Z</time>
      </trkpt>
      <trkpt lat="47.8822" lon="-2.35105">
        <ele>122.71</ele>
        <time>2012-08-28T09:36:40Z</time>
      </trkpt>
      <trkpt lat="47.882" lon="-2.35137">
        <ele>123.19</ele>
        <time>2012-08-28T09:36:48Z</time>
      </trkpt>
      <trkpt lat="47.88174" lon="-2.35178">
        <ele>121.74</ele>
        <time>2012-08-28T09:36:57Z</time>
      </trkpt>
      <trkpt lat="47.88165" lon="-2.35197">
        <ele>121.74</ele>
        <time>2012-08-28T09:37:01Z</time>
      </trkpt>
      <trkpt lat="47.88145" lon="-2.3523">
        <ele>121.26</ele>
        <time>2012-08-28T09:37:06Z</time>
      </trkpt>
      <trkpt lat="47.88106" lon="-2.3529">
        <ele>119.82</ele>
        <time>2012-08-28T09:37:15Z</time>
      </trkpt>
      <trkpt lat="47.88086" lon="-2.35328">
        <ele>118.38</ele>
        <time>2012-08-28T09:37:21Z</time>
      </trkpt>
      <trkpt lat="47.88059" lon="-2.35386">
        <ele>118.38</ele>
        <time>2012-08-28T09:37:29Z</time>
      </trkpt>
      <trkpt lat="47.88031" lon="-2.35458">
        <ele>115.98</ele>
        <time>2012-08-28T09:37:37Z</time>
      </trkpt>
      <trkpt lat="47.88026" lon="-2.35477">
        <ele>115.98</ele>
        <time>2012-08-28T09:37:39Z</time>
      </trkpt>
      <trkpt lat="47.8802" lon="-2.35538">
        <ele>114.05</ele>
        <time>2012-08-28T09:37:46Z</time>
      </trkpt>
      <trkpt lat="47.88019" lon="-2.35571">
        <ele>113.57</ele>
        <time>2012-08-28T09:37:51Z</time>
      </trkpt>
      <trkpt lat="47.88018" lon="-2.35611">
        <ele>113.09</ele>
        <time>2012-08-28T09:37:58Z</time>
      </trkpt>
      <trkpt lat="47.88017" lon="-2.35638">
        <ele>111.65</ele>
        <time>2012-08-28T09:38:04Z</time>
      </trkpt>
      <trkpt lat="47.8801" lon="-2.35666">
        <ele>111.65</ele>
        <time>2012-08-28T09:38:11Z</time>
      </trkpt>
      <trkpt lat="47.88001" lon="-2.35699">
        <ele>111.17</ele>
        <time>2012-08-28T09:38:17Z</time>
      </trkpt>
      <trkpt lat="47.87996" lon="-2.35741">
        <ele>110.69</ele>
        <time>2012-08-28T09:38:25Z</time>
      </trkpt>
      <trkpt lat="47.87991" lon="-2.35778">
        <ele>112.13</ele>
        <time>2012-08-28T09:38:33Z</time>
      </trkpt>
      <trkpt lat="47.87982" lon="-2.35814">
        <ele>113.09</ele>
        <time>2012-08-28T09:38:40Z</time>
      </trkpt>
      <trkpt lat="47.87979" lon="-2.35845">
        <ele>113.09</ele>
        <time>2012-08-28T09:38:46Z</time>
      </trkpt>
      <trkpt lat="47.8799" lon="-2.35886">
        <ele>111.65</ele>
        <time>2012-08-28T09:38:53Z</time>
      </trkpt>
      <trkpt lat="47.87997" lon="-2.3591">
        <ele>110.69</ele>
        <time>2012-08-28T09:38:57Z</time>
      </trkpt>
      <trkpt lat="47.88001" lon="-2.3594">
        <ele>109.73</ele>
        <time>2012-08-28T09:39:02Z</time>
      </trkpt>
      <trkpt lat="47.88008" lon="-2.3601">
        <ele>108.77</ele>
        <time>2012-08-28T09:39:12Z</time>
      </trkpt>
      <trkpt lat="47.88011" lon="-2.36076">
        <ele>108.29</ele>
        <time>2012-08-28T09:39:21Z</time>
      </trkpt>
      <trkpt lat="47.88012" lon="-2.36141">
        <ele>107.32</ele>
        <time>2012-08-28T09:39:29Z</time>
      </trkpt>
      <trkpt lat="47.88011" lon="-2.36157">
        <ele>106.84</ele>
        <time>2012-08-28T09:39:31Z</time>
      </trkpt>
      <trkpt lat="47.88008" lon="-2.36229">
        <ele>105.4</ele>
        <time>2012-08-28T09:39:40Z</time>
      </trkpt>
      <trkpt lat="47.88003" lon="-2.36302">
        <ele>104.44</ele>
        <time>2012-08-28T09:39:49Z</time>
      </trkpt>
      <trkpt lat="47.87999" lon="-2.3637">
        <ele>102.52</ele>
        <time>2012-08-28T09:39:57Z</time>
      </trkpt>
      <trkpt lat="47.87995" lon="-2.36441">
        <ele>101.08</ele>
        <time>2012-08-28T09:40:06Z</time>
      </trkpt>
      <trkpt lat="47.87994" lon="-2.36491">
        <ele>101.08</ele>
        <time>2012-08-28T09:40:13Z</time>
      </trkpt>
      <trkpt lat="47.8799" lon="-2.36553">
        <ele>100.6</ele>
        <time>2012-08-28T09:40:20Z</time>
      </trkpt>
      <trkpt lat="47.87972" lon="-2.36623">
        <ele>99.63</ele>
        <time>2012-08-28T09:40:28Z</time>
      </trkpt>
      <trkpt lat="47.87962" lon="-2.36664">
        <ele>99.63</ele>
        <time>2012-08-28T09:40:34Z</time>
      </trkpt>
      <trkpt lat="47.87955" lon="-2.36707">
        <ele>101.08</ele>
        <time>2012-08-28T09:40:42Z</time>
      </trkpt>
      <trkpt lat="47.8795" lon="-2.36748">
        <ele>102.52</ele>
        <time>2012-08-28T09:40:51Z</time>
      </trkpt>
      <trkpt lat="47.87947" lon="-2.36787">
        <ele>104.44</ele>
        <time>2012-08-28T09:40:59Z</time>
      </trkpt>
      <trkpt lat="47.87944" lon="-2.36821">
        <ele>106.36</ele>
        <time>2012-08-28T09:41:06Z</time>
      </trkpt>
      <trkpt lat="47.87939" lon="-2.36862">
        <ele>108.29</ele>
        <time>2012-08-28T09:41:14Z</time>
      </trkpt>
      <trkpt lat="47.87933" lon="-2.36905">
        <ele>111.65</ele>
        <time>2012-08-28T09:41:22Z</time>
      </trkpt>
      <trkpt lat="47.87928" lon="-2.36951">
        <ele>115.5</ele>
        <time>2012-08-28T09:41:30Z</time>
      </trkpt>
      <trkpt lat="47.87925" lon="-2.36982">
        <ele>115.01</ele>
        <time>2012-08-28T09:41:35Z</time>
      </trkpt>
      <trkpt lat="47.87922" lon="-2.37022">
        <ele>115.5</ele>
        <time>2012-08-28T09:41:42Z</time>
      </trkpt>
      <trkpt lat="47.87919" lon="-2.3706">
        <ele>115.5</ele>
        <time>2012-08-28T09:41:48Z</time>
      </trkpt>
      <trkpt lat="47.87918" lon="-2.37091">
        <ele>115.98</ele>
        <time>2012-08-28T09:41:53Z</time>
      </trkpt>
      <trkpt lat="47.87912" lon="-2.37144">
        <ele>115.98</ele>
        <time>2012-08-28T09:42:01Z</time>
      </trkpt>
      <trkpt lat="47.87909" lon="-2.37194">
        <ele>115.01</ele>
        <time>2012-08-28T09:42:09Z</time>
      </trkpt>
      <trkpt lat="47.87907" lon="-2.37238">
        <ele>112.61</ele>
        <time>2012-08-28T09:42:15Z</time>
      </trkpt>
      <trkpt lat="47.87908" lon="-2.37296">
        <ele>109.25</ele>
        <time>2012-08-28T09:42:23Z</time>
      </trkpt>
      <trkpt lat="47.87908" lon="-2.37303">
        <ele>108.77</ele>
        <time>2012-08-28T09:42:24Z</time>
      </trkpt>
      <trkpt lat="47.87908" lon="-2.37317">
        <ele>107.81</ele>
        <time>2012-08-28T09:42:26Z</time>
      </trkpt>
      <trkpt lat="47.87909" lon="-2.37345">
        <ele>106.36</ele>
        <time>2012-08-28T09:42:30Z</time>
      </trkpt>
      <trkpt lat="47.87911" lon="-2.37372">
        <ele>104.44</ele>
        <time>2012-08-28T09:42:34Z</time>
      </trkpt>
      <trkpt lat="47.87911" lon="-2.37405">
        <ele>103</ele>
        <time>2012-08-28T09:42:38Z</time>
      </trkpt>
      <trkpt lat="47.8791" lon="-2.37455">
        <ele>101.56</ele>
        <time>2012-08-28T09:42:43Z</time>
      </trkpt>
      <trkpt lat="47.87912" lon="-2.37521">
        <ele>99.63</ele>
        <time>2012-08-28T09:42:51Z</time>
      </trkpt>
      <trkpt lat="47.87915" lon="-2.37591">
        <ele>97.71</ele>
        <time>2012-08-28T09:42:59Z</time>
      </trkpt>
      <trkpt lat="47.87915" lon="-2.37599">
        <ele>97.23</ele>
        <time>2012-08-28T09:43:00Z</time>
      </trkpt>
      <trkpt lat="47.87916" lon="-2.37648">
        <ele>95.79</ele>
        <time>2012-08-28T09:43:06Z</time>
      </trkpt>
      <trkpt lat="47.87915" lon="-2.37685">
        <ele>94.35</ele>
        <time>2012-08-28T09:43:11Z</time>
      </trkpt>
      <trkpt lat="47.87918" lon="-2.37749">
        <ele>90.5</ele>
        <time>2012-08-28T09:43:20Z</time>
      </trkpt>
      <trkpt lat="47.87923" lon="-2.37792">
        <ele>89.54</ele>
        <time>2012-08-28T09:43:26Z</time>
      </trkpt>
      <trkpt lat="47.87929" lon="-2.37846">
        <ele>85.69</ele>
        <time>2012-08-28T09:43:33Z</time>
      </trkpt>
      <trkpt lat="47.87935" lon="-2.37901">
        <ele>81.37</ele>
        <time>2012-08-28T09:43:40Z</time>
      </trkpt>
      <trkpt lat="47.87941" lon="-2.37955">
        <ele>74.64</ele>
        <time>2012-08-28T09:43:47Z</time>
      </trkpt>
      <trkpt lat="47.87943" lon="-2.37962">
        <ele>73.2</ele>
        <time>2012-08-28T09:43:48Z</time>
      </trkpt>
      <trkpt lat="47.87948" lon="-2.38036">
        <ele>60.7</ele>
        <time>2012-08-28T09:43:57Z</time>
      </trkpt>
      <trkpt lat="47.87951" lon="-2.38085">
        <ele>54.45</ele>
        <time>2012-08-28T09:44:03Z</time>
      </trkpt>
      <trkpt lat="47.87954" lon="-2.38124">
        <ele>50.13</ele>
        <time>2012-08-28T09:44:08Z</time>
      </trkpt>
      <trkpt lat="47.87958" lon="-2.38191">
        <ele>45.32</ele>
        <time>2012-08-28T09:44:17Z</time>
      </trkpt>
      <trkpt lat="47.87959" lon="-2.38252">
        <ele>45.32</ele>
        <time>2012-08-28T09:44:26Z</time>
      </trkpt>
      <trkpt lat="47.87963" lon="-2.38298">
        <ele>47.24</ele>
        <time>2012-08-28T09:44:34Z</time>
      </trkpt>
      <trkpt lat="47.87964" lon="-2.38304">
        <ele>47.24</ele>
        <time>2012-08-28T09:44:35Z</time>
      </trkpt>
      <trkpt lat="47.87968" lon="-2.38335">
        <ele>48.2</ele>
        <time>2012-08-28T09:44:40Z</time>
      </trkpt>
      <trkpt lat="47.87977" lon="-2.38383">
        <ele>46.76</ele>
        <time>2012-08-28T09:44:47Z</time>
      </trkpt>
      <trkpt lat="47.87985" lon="-2.38441">
        <ele>43.4</ele>
        <time>2012-08-28T09:44:56Z</time>
      </trkpt>
      <trkpt lat="47.87986" lon="-2.38447">
        <ele>43.4</ele>
        <time>2012-08-28T09:44:57Z</time>
      </trkpt>
      <trkpt lat="47.87993" lon="-2.38499">
        <ele>47.72</ele>
        <time>2012-08-28T09:45:05Z</time>
      </trkpt>
      <trkpt lat="47.88003" lon="-2.3854">
        <ele>52.05</ele>
        <time>2012-08-28T09:45:11Z</time>
      </trkpt>
      <trkpt lat="47.88006" lon="-2.3855">
        <ele>54.45</ele>
        <time>2012-08-28T09:45:15Z</time>
      </trkpt>
      <trkpt lat="47.88006" lon="-2.38553">
        <ele>58.78</ele>
        <time>2012-08-28T09:45:24Z</time>
      </trkpt>
      <trkpt lat="47.88006" lon="-2.38554">
        <ele>62.62</ele>
        <time>2012-08-28T09:45:32Z</time>
      </trkpt>
      <trkpt lat="47.88005" lon="-2.38555">
        <ele>63.1</ele>
        <time>2012-08-28T09:45:39Z</time>
      </trkpt>
      <trkpt lat="47.88005" lon="-2.38555">
        <ele>64.55</ele>
        <time>2012-08-28T09:45:48Z</time>
      </trkpt>
      <trkpt lat="47.88003" lon="-2.38559">
        <ele>69.83</ele>
        <time>2012-08-28T09:46:05Z</time>
      </trkpt>
      <trkpt lat="47.88" lon="-2.38561">
        <ele>77.52</ele>
        <time>2012-08-28T09:46:22Z</time>
      </trkpt>
      <trkpt lat="47.87998" lon="-2.38561">
        <ele>83.77</ele>
        <time>2012-08-28T09:46:40Z</time>
      </trkpt>
      <trkpt lat="47.87997" lon="-2.38561">
        <ele>86.18</ele>
        <time>2012-08-28T09:47:00Z</time>
      </trkpt>
      <trkpt lat="47.87996" lon="-2.3856">
        <ele>89.06</ele>
        <time>2012-08-28T09:47:14Z</time>
      </trkpt>
      <trkpt lat="47.87995" lon="-2.3856">
        <ele>90.98</ele>
        <time>2012-08-28T09:47:31Z</time>
      </trkpt>
      <trkpt lat="47.87995" lon="-2.3856">
        <ele>91.46</ele>
        <time>2012-08-28T09:47:43Z</time>
      </trkpt>
      <trkpt lat="47.87994" lon="-2.38562">
        <ele>92.42</ele>
        <time>2012-08-28T09:47:51Z</time>
      </trkpt>
      <trkpt lat="47.87996" lon="-2.38578">
        <ele>92.42</ele>
        <time>2012-08-28T09:47:58Z</time>
      </trkpt>
      <trkpt lat="47.87997" lon="-2.386">
        <ele>92.9</ele>
        <time>2012-08-28T09:48:05Z</time>
      </trkpt>
      <trkpt lat="47.87998" lon="-2.38607">
        <ele>93.87</ele>
        <time>2012-08-28T09:48:12Z</time>
      </trkpt>
      <trkpt lat="47.87998" lon="-2.38611">
        <ele>95.79</ele>
        <time>2012-08-28T09:48:21Z</time>
      </trkpt>
      <trkpt lat="47.88001" lon="-2.38631">
        <ele>97.71</ele>
        <time>2012-08-28T09:48:27Z</time>
      </trkpt>
      <trkpt lat="47.88007" lon="-2.38663">
        <ele>97.23</ele>
        <time>2012-08-28T09:48:33Z</time>
      </trkpt>
      <trkpt lat="47.88016" lon="-2.38722">
        <ele>97.23</ele>
        <time>2012-08-28T09:48:43Z</time>
      </trkpt>
      <trkpt lat="47.88023" lon="-2.38781">
        <ele>102.52</ele>
        <time>2012-08-28T09:48:53Z</time>
      </trkpt>
      <trkpt lat="47.88033" lon="-2.38847">
        <ele>103.48</ele>
        <time>2012-08-28T09:49:04Z</time>
      </trkpt>
      <trkpt lat="47.88043" lon="-2.3891">
        <ele>103</ele>
        <time>2012-08-28T09:49:14Z</time>
      </trkpt>
      <trkpt lat="47.88045" lon="-2.38923">
        <ele>103</ele>
        <time>2012-08-28T09:49:16Z</time>
      </trkpt>
      <trkpt lat="47.88055" lon="-2.38979">
        <ele>101.56</ele>
        <time>2012-08-28T09:49:24Z</time>
      </trkpt>
      <trkpt lat="47.88064" lon="-2.39039">
        <ele>100.11</ele>
        <time>2012-08-28T09:49:32Z</time>
      </trkpt>
      <trkpt lat="47.88067" lon="-2.39105">
        <ele>99.15</ele>
        <time>2012-08-28T09:49:41Z</time>
      </trkpt>
      <trkpt lat="47.88067" lon="-2.39126">
        <ele>99.63</ele>
        <time>2012-08-28T09:49:44Z</time>
      </trkpt>
      <trkpt lat="47.88065" lon="-2.39169">
        <ele>101.08</ele>
        <time>2012-08-28T09:49:51Z</time>
      </trkpt>
      <trkpt lat="47.88063" lon="-2.39206">
        <ele>103</ele>
        <time>2012-08-28T09:49:57Z</time>
      </trkpt>
      <trkpt lat="47.88062" lon="-2.39264">
        <ele>104.44</ele>
        <time>2012-08-28T09:50:06Z</time>
      </trkpt>
      <trkpt lat="47.88059" lon="-2.39353">
        <ele>105.88</ele>
        <time>2012-08-28T09:50:19Z</time>
      </trkpt>
      <trkpt lat="47.88058" lon="-2.39427">
        <ele>105.88</ele>
        <time>2012-08-28T09:50:29Z</time>
      </trkpt>
      <trkpt lat="47.88056" lon="-2.39503">
        <ele>105.4</ele>
        <time>2012-08-28T09:50:39Z</time>
      </trkpt>
      <trkpt lat="47.88055" lon="-2.39566">
        <ele>104.44</ele>
        <time>2012-08-28T09:50:47Z</time>
      </trkpt>
      <trkpt lat="47.88049" lon="-2.39652">
        <ele>103.96</ele>
        <time>2012-08-28T09:50:58Z</time>
      </trkpt>
      <trkpt lat="47.88032" lon="-2.39728">
        <ele>103.48</ele>
        <time>2012-08-28T09:51:08Z</time>
      </trkpt>
      <trkpt lat="47.88013" lon="-2.39808">
        <ele>103.48</ele>
        <time>2012-08-28T09:51:19Z</time>
      </trkpt>
      <trkpt lat="47.88" lon="-2.39865">
        <ele>103.48</ele>
        <time>2012-08-28T09:51:27Z</time>
      </trkpt>
      <trkpt lat="47.87989" lon="-2.39912">
        <ele>103</ele>
        <time>2012-08-28T09:51:33Z</time>
      </trkpt>
      <trkpt lat="47.87974" lon="-2.39971">
        <ele>102.04</ele>
        <time>2012-08-28T09:51:40Z</time>
      </trkpt>
      <trkpt lat="47.87957" lon="-2.40049">
        <ele>99.63</ele>
        <time>2012-08-28T09:51:48Z</time>
      </trkpt>
      <trkpt lat="47.87936" lon="-2.40137">
        <ele>97.23</ele>
        <time>2012-08-28T09:51:57Z</time>
      </trkpt>
      <trkpt lat="47.87917" lon="-2.40197">
        <ele>96.75</ele>
        <time>2012-08-28T09:52:05Z</time>
      </trkpt>
      <trkpt lat="47.87912" lon="-2.4021">
        <ele>96.75</ele>
        <time>2012-08-28T09:52:07Z</time>
      </trkpt>
      <trkpt lat="47.87882" lon="-2.40268">
        <ele>98.19</ele>
        <time>2012-08-28T09:52:17Z</time>
      </trkpt>
      <trkpt lat="47.87852" lon="-2.40316">
        <ele>98.19</ele>
        <time>2012-08-28T09:52:25Z</time>
      </trkpt>
      <trkpt lat="47.8782" lon="-2.40349">
        <ele>98.19</ele>
        <time>2012-08-28T09:52:31Z</time>
      </trkpt>
      <trkpt lat="47.87767" lon="-2.40379">
        <ele>97.71</ele>
        <time>2012-08-28T09:52:39Z</time>
      </trkpt>
      <trkpt lat="47.87705" lon="-2.40391">
        <ele>96.27</ele>
        <time>2012-08-28T09:52:46Z</time>
      </trkpt>
      <trkpt lat="47.8763" lon="-2.40403">
        <ele>90.98</ele>
        <time>2012-08-28T09:52:53Z</time>
      </trkpt>
      <trkpt lat="47.87555" lon="-2.40421">
        <ele>83.77</ele>
        <time>2012-08-28T09:52:59Z</time>
      </trkpt>
      <trkpt lat="47.8751" lon="-2.40447">
        <ele>79.45</ele>
        <time>2012-08-28T09:53:03Z</time>
      </trkpt>
      <trkpt lat="47.87468" lon="-2.40485">
        <ele>77.04</ele>
        <time>2012-08-28T09:53:08Z</time>
      </trkpt>
      <trkpt lat="47.87431" lon="-2.40521">
        <ele>75.12</ele>
        <time>2012-08-28T09:53:14Z</time>
      </trkpt>
      <trkpt lat="47.87394" lon="-2.40557">
        <ele>74.64</ele>
        <time>2012-08-28T09:53:22Z</time>
      </trkpt>
      <trkpt lat="47.87352" lon="-2.40597">
        <ele>74.64</ele>
        <time>2012-08-28T09:53:32Z</time>
      </trkpt>
      <trkpt lat="47.87321" lon="-2.40626">
        <ele>75.6</ele>
        <time>2012-08-28T09:53:40Z</time>
      </trkpt>
      <trkpt lat="47.87278" lon="-2.40666">
        <ele>76.56</ele>
        <time>2012-08-28T09:53:52Z</time>
      </trkpt>
      <trkpt lat="47.87246" lon="-2.40697">
        <ele>77.52</ele>
        <time>2012-08-28T09:54:02Z</time>
      </trkpt>
      <trkpt lat="47.87218" lon="-2.40723">
        <ele>78</ele>
        <time>2012-08-28T09:54:10Z</time>
      </trkpt>
      <trkpt lat="47.87183" lon="-2.40755">
        <ele>78</ele>
        <time>2012-08-28T09:54:21Z</time>
      </trkpt>
      <trkpt lat="47.87157" lon="-2.4078">
        <ele>78</ele>
        <time>2012-08-28T09:54:29Z</time>
      </trkpt>
      <trkpt lat="47.87128" lon="-2.40811">
        <ele>78</ele>
        <time>2012-08-28T09:54:38Z</time>
      </trkpt>
      <trkpt lat="47.87124" lon="-2.40816">
        <ele>78.48</ele>
        <time>2012-08-28T09:54:39Z</time>
      </trkpt>
      <trkpt lat="47.87107" lon="-2.40844">
        <ele>78.48</ele>
        <time>2012-08-28T09:54:45Z</time>
      </trkpt>
      <trkpt lat="47.87097" lon="-2.40867">
        <ele>78</ele>
        <time>2012-08-28T09:54:49Z</time>
      </trkpt>
      <trkpt lat="47.87087" lon="-2.4091">
        <ele>78.48</ele>
        <time>2012-08-28T09:54:56Z</time>
      </trkpt>
      <trkpt lat="47.87086" lon="-2.40923">
        <ele>78.48</ele>
        <time>2012-08-28T09:54:58Z</time>
      </trkpt>
      <trkpt lat="47.87085" lon="-2.40954">
        <ele>78.48</ele>
        <time>2012-08-28T09:55:03Z</time>
      </trkpt>
      <trkpt lat="47.87084" lon="-2.41012">
        <ele>78.48</ele>
        <time>2012-08-28T09:55:12Z</time>
      </trkpt>
      <trkpt lat="47.87084" lon="-2.41064">
        <ele>78.97</ele>
        <time>2012-08-28T09:55:20Z</time>
      </trkpt>
      <trkpt lat="47.87082" lon="-2.41116">
        <ele>78.97</ele>
        <time>2012-08-28T09:55:28Z</time>
      </trkpt>
      <trkpt lat="47.87078" lon="-2.41201">
        <ele>78.48</ele>
        <time>2012-08-28T09:55:40Z</time>
      </trkpt>
      <trkpt lat="47.87075" lon="-2.4125">
        <ele>78.48</ele>
        <time>2012-08-28T09:55:47Z</time>
      </trkpt>
      <trkpt lat="47.87067" lon="-2.41329">
        <ele>78</ele>
        <time>2012-08-28T09:55:58Z</time>
      </trkpt>
      <trkpt lat="47.8705" lon="-2.41388">
        <ele>77.52</ele>
        <time>2012-08-28T09:56:07Z</time>
      </trkpt>
      <trkpt lat="47.87025" lon="-2.41449">
        <ele>77.52</ele>
        <time>2012-08-28T09:56:17Z</time>
      </trkpt>
      <trkpt lat="47.87011" lon="-2.41495">
        <ele>77.52</ele>
        <time>2012-08-28T09:56:24Z</time>
      </trkpt>
      <trkpt lat="47.86994" lon="-2.41554">
        <ele>77.52</ele>
        <time>2012-08-28T09:56:33Z</time>
      </trkpt>
      <trkpt lat="47.86976" lon="-2.41622">
        <ele>78</ele>
        <time>2012-08-28T09:56:43Z</time>
      </trkpt>
      <trkpt lat="47.8696" lon="-2.41687">
        <ele>78</ele>
        <time>2012-08-28T09:56:52Z</time>
      </trkpt>
      <trkpt lat="47.86951" lon="-2.4175">
        <ele>78.48</ele>
        <time>2012-08-28T09:57:01Z</time>
      </trkpt>
      <trkpt lat="47.86942" lon="-2.41813">
        <ele>78.97</ele>
        <time>2012-08-28T09:57:10Z</time>
      </trkpt>
      <trkpt lat="47.86934" lon="-2.41875">
        <ele>78.97</ele>
        <time>2012-08-28T09:57:19Z</time>
      </trkpt>
      <trkpt lat="47.86938" lon="-2.41904">
        <ele>78.48</ele>
        <time>2012-08-28T09:57:23Z</time>
      </trkpt>
      <trkpt lat="47.86942" lon="-2.41931">
        <ele>78.48</ele>
        <time>2012-08-28T09:57:27Z</time>
      </trkpt>
      <trkpt lat="47.86941" lon="-2.41937">
        <ele>78</ele>
        <time>2012-08-28T09:57:28Z</time>
      </trkpt>
      <trkpt lat="47.86939" lon="-2.41943">
        <ele>78</ele>
        <time>2012-08-28T09:57:29Z</time>
      </trkpt>
      <trkpt lat="47.86937" lon="-2.41949">
        <ele>78</ele>
        <time>2012-08-28T09:57:30Z</time>
      </trkpt>
      <trkpt lat="47.8692" lon="-2.42009">
        <ele>77.04</ele>
        <time>2012-08-28T09:57:40Z</time>
      </trkpt>
      <trkpt lat="47.86908" lon="-2.42034">
        <ele>77.04</ele>
        <time>2012-08-28T09:57:44Z</time>
      </trkpt>
      <trkpt lat="47.86905" lon="-2.42039">
        <ele>77.04</ele>
        <time>2012-08-28T09:57:45Z</time>
      </trkpt>
      <trkpt lat="47.8689" lon="-2.4206">
        <ele>77.04</ele>
        <time>2012-08-28T09:57:49Z</time>
      </trkpt>
      <trkpt lat="47.86885" lon="-2.42064">
        <ele>76.56</ele>
        <time>2012-08-28T09:57:50Z</time>
      </trkpt>
      <trkpt lat="47.86833" lon="-2.42112">
        <ele>74.64</ele>
        <time>2012-08-28T09:58:01Z</time>
      </trkpt>
      <trkpt lat="47.86785" lon="-2.42155">
        <ele>73.68</ele>
        <time>2012-08-28T09:58:11Z</time>
      </trkpt>
      <trkpt lat="47.86735" lon="-2.42199">
        <ele>72.24</ele>
        <time>2012-08-28T09:58:21Z</time>
      </trkpt>
      <trkpt lat="47.86682" lon="-2.4225">
        <ele>69.83</ele>
        <time>2012-08-28T09:58:31Z</time>
      </trkpt>
      <trkpt lat="47.86625" lon="-2.423">
        <ele>66.95</ele>
        <time>2012-08-28T09:58:40Z</time>
      </trkpt>
      <trkpt lat="47.8659" lon="-2.4233">
        <ele>64.55</ele>
        <time>2012-08-28T09:58:45Z</time>
      </trkpt>
      <trkpt lat="47.86524" lon="-2.42388">
        <ele>58.78</ele>
        <time>2012-08-28T09:58:53Z</time>
      </trkpt>
      <trkpt lat="47.86451" lon="-2.4245">
        <ele>53.01</ele>
        <time>2012-08-28T09:59:01Z</time>
      </trkpt>
      <trkpt lat="47.86381" lon="-2.42512">
        <ele>47.72</ele>
        <time>2012-08-28T09:59:09Z</time>
      </trkpt>
      <trkpt lat="47.86323" lon="-2.42563">
        <ele>42.92</ele>
        <time>2012-08-28T09:59:16Z</time>
      </trkpt>
      <trkpt lat="47.86316" lon="-2.42573">
        <ele>42.44</ele>
        <time>2012-08-28T09:59:17Z</time>
      </trkpt>
      <trkpt lat="47.8631" lon="-2.42584">
        <ele>41.95</ele>
        <time>2012-08-28T09:59:18Z</time>
      </trkpt>
      <trkpt lat="47.86306" lon="-2.42597">
        <ele>41.47</ele>
        <time>2012-08-28T09:59:19Z</time>
      </trkpt>
      <trkpt lat="47.86303" lon="-2.42609">
        <ele>40.99</ele>
        <time>2012-08-28T09:59:20Z</time>
      </trkpt>
      <trkpt lat="47.86301" lon="-2.42621">
        <ele>40.99</ele>
        <time>2012-08-28T09:59:21Z</time>
      </trkpt>
      <trkpt lat="47.86298" lon="-2.42644">
        <ele>40.51</ele>
        <time>2012-08-28T09:59:23Z</time>
      </trkpt>
      <trkpt lat="47.86298" lon="-2.42655">
        <ele>40.51</ele>
        <time>2012-08-28T09:59:24Z</time>
      </trkpt>
      <trkpt lat="47.86298" lon="-2.42666">
        <ele>40.51</ele>
        <time>2012-08-28T09:59:25Z</time>
      </trkpt>
      <trkpt lat="47.86312" lon="-2.4275">
        <ele>40.03</ele>
        <time>2012-08-28T09:59:33Z</time>
      </trkpt>
      <trkpt lat="47.86325" lon="-2.42831">
        <ele>39.55</ele>
        <time>2012-08-28T09:59:41Z</time>
      </trkpt>
      <trkpt lat="47.8634" lon="-2.42938">
        <ele>38.11</ele>
        <time>2012-08-28T09:59:51Z</time>
      </trkpt>
      <trkpt lat="47.86353" lon="-2.43019">
        <ele>36.19</ele>
        <time>2012-08-28T09:59:59Z</time>
      </trkpt>
      <trkpt lat="47.86365" lon="-2.43104">
        <ele>32.34</ele>
        <time>2012-08-28T10:00:06Z</time>
      </trkpt>
      <trkpt lat="47.86379" lon="-2.43202">
        <ele>28.02</ele>
        <time>2012-08-28T10:00:13Z</time>
      </trkpt>
      <trkpt lat="47.86395" lon="-2.43309">
        <ele>25.13</ele>
        <time>2012-08-28T10:00:21Z</time>
      </trkpt>
      <trkpt lat="47.8641" lon="-2.43415">
        <ele>22.73</ele>
        <time>2012-08-28T10:00:30Z</time>
      </trkpt>
      <trkpt lat="47.86423" lon="-2.43503">
        <ele>22.25</ele>
        <time>2012-08-28T10:00:38Z</time>
      </trkpt>
      <trkpt lat="47.86439" lon="-2.43614">
        <ele>21.29</ele>
        <time>2012-08-28T10:00:48Z</time>
      </trkpt>
      <trkpt lat="47.8646" lon="-2.43757">
        <ele>20.32</ele>
        <time>2012-08-28T10:01:01Z</time>
      </trkpt>
      <trkpt lat="47.8647" lon="-2.43836">
        <ele>20.32</ele>
        <time>2012-08-28T10:01:09Z</time>
      </trkpt>
      <trkpt lat="47.86483" lon="-2.4393">
        <ele>19.36</ele>
        <time>2012-08-28T10:01:19Z</time>
      </trkpt>
      <trkpt lat="47.86497" lon="-2.44015">
        <ele>17.92</ele>
        <time>2012-08-28T10:01:27Z</time>
      </trkpt>
      <trkpt lat="47.86512" lon="-2.44115">
        <ele>16.96</ele>
        <time>2012-08-28T10:01:37Z</time>
      </trkpt>
      <trkpt lat="47.86525" lon="-2.44207">
        <ele>16.96</ele>
        <time>2012-08-28T10:01:47Z</time>
      </trkpt>
      <trkpt lat="47.8653" lon="-2.44284">
        <ele>17.44</ele>
        <time>2012-08-28T10:01:56Z</time>
      </trkpt>
      <trkpt lat="47.86526" lon="-2.44346">
        <ele>18.4</ele>
        <time>2012-08-28T10:02:04Z</time>
      </trkpt>
      <trkpt lat="47.86522" lon="-2.44408">
        <ele>19.84</ele>
        <time>2012-08-28T10:02:13Z</time>
      </trkpt>
      <trkpt lat="47.8652" lon="-2.44442">
        <ele>21.29</ele>
        <time>2012-08-28T10:02:19Z</time>
      </trkpt>
      <trkpt lat="47.86516" lon="-2.44488">
        <ele>22.73</ele>
        <time>2012-08-28T10:02:28Z</time>
      </trkpt>
      <trkpt lat="47.86512" lon="-2.44534">
        <ele>24.65</ele>
        <time>2012-08-28T10:02:38Z</time>
      </trkpt>
      <trkpt lat="47.86509" lon="-2.44574">
        <ele>25.61</ele>
        <time>2012-08-28T10:02:47Z</time>
      </trkpt>
      <trkpt lat="47.86507" lon="-2.44616">
        <ele>27.05</ele>
        <time>2012-08-28T10:02:57Z</time>
      </trkpt>
      <trkpt lat="47.86507" lon="-2.44622">
        <ele>26.57</ele>
        <time>2012-08-28T10:02:59Z</time>
      </trkpt>
      <trkpt lat="47.86498" lon="-2.44624">
        <ele>26.57</ele>
        <time>2012-08-28T10:03:05Z</time>
      </trkpt>
      <trkpt lat="47.86496" lon="-2.44623">
        <ele>26.57</ele>
        <time>2012-08-28T10:03:06Z</time>
      </trkpt>
      <trkpt lat="47.86469" lon="-2.44613">
        <ele>23.69</ele>
        <time>2012-08-28T10:03:13Z</time>
      </trkpt>
      <trkpt lat="47.86427" lon="-2.44603">
        <ele>21.29</ele>
        <time>2012-08-28T10:03:19Z</time>
      </trkpt>
      <trkpt lat="47.86381" lon="-2.44588">
        <ele>19.36</ele>
        <time>2012-08-28T10:03:25Z</time>
      </trkpt>
      <trkpt lat="47.86358" lon="-2.44585">
        <ele>17.44</ele>
        <time>2012-08-28T10:03:30Z</time>
      </trkpt>
      <trkpt lat="47.86342" lon="-2.44575">
        <ele>16</ele>
        <time>2012-08-28T10:03:37Z</time>
      </trkpt>
      <trkpt lat="47.86309" lon="-2.4457">
        <ele>16</ele>
        <time>2012-08-28T10:03:46Z</time>
      </trkpt>
      <trkpt lat="47.86279" lon="-2.44565">
        <ele>16.96</ele>
        <time>2012-08-28T10:03:54Z</time>
      </trkpt>
      <trkpt lat="47.86245" lon="-2.44561">
        <ele>16.96</ele>
        <time>2012-08-28T10:04:02Z</time>
      </trkpt>
      <trkpt lat="47.86208" lon="-2.44559">
        <ele>16</ele>
        <time>2012-08-28T10:04:10Z</time>
      </trkpt>
      <trkpt lat="47.86176" lon="-2.44559">
        <ele>16</ele>
        <time>2012-08-28T10:04:17Z</time>
      </trkpt>
      <trkpt lat="47.86118" lon="-2.44564">
        <ele>16.48</ele>
        <time>2012-08-28T10:04:29Z</time>
      </trkpt>
      <trkpt lat="47.86084" lon="-2.44574">
        <ele>16.96</ele>
        <time>2012-08-28T10:04:37Z</time>
      </trkpt>
      <trkpt lat="47.86046" lon="-2.44594">
        <ele>17.44</ele>
        <time>2012-08-28T10:04:46Z</time>
      </trkpt>
      <trkpt lat="47.86011" lon="-2.4462">
        <ele>17.92</ele>
        <time>2012-08-28T10:04:54Z</time>
      </trkpt>
      <trkpt lat="47.85978" lon="-2.4465">
        <ele>18.88</ele>
        <time>2012-08-28T10:05:02Z</time>
      </trkpt>
      <trkpt lat="47.85937" lon="-2.44676">
        <ele>18.88</ele>
        <time>2012-08-28T10:05:11Z</time>
      </trkpt>
      <trkpt lat="47.85893" lon="-2.44687">
        <ele>17.92</ele>
        <time>2012-08-28T10:05:20Z</time>
      </trkpt>
      <trkpt lat="47.85852" lon="-2.44691">
        <ele>18.4</ele>
        <time>2012-08-28T10:05:28Z</time>
      </trkpt>
      <trkpt lat="47.85811" lon="-2.44694">
        <ele>18.4</ele>
        <time>2012-08-28T10:05:36Z</time>
      </trkpt>
      <trkpt lat="47.85772" lon="-2.44689">
        <ele>16.96</ele>
        <time>2012-08-28T10:05:44Z</time>
      </trkpt>
      <trkpt lat="47.85732" lon="-2.44669">
        <ele>16</ele>
        <time>2012-08-28T10:05:53Z</time>
      </trkpt>
      <trkpt lat="47.85691" lon="-2.44647">
        <ele>16.96</ele>
        <time>2012-08-28T10:06:02Z</time>
      </trkpt>
      <trkpt lat="47.85653" lon="-2.44632">
        <ele>17.92</ele>
        <time>2012-08-28T10:06:10Z</time>
      </trkpt>
      <trkpt lat="47.85629" lon="-2.44627">
        <ele>18.4</ele>
        <time>2012-08-28T10:06:15Z</time>
      </trkpt>
      <trkpt lat="47.85619" lon="-2.44625">
        <ele>18.4</ele>
        <time>2012-08-28T10:06:17Z</time>
      </trkpt>
      <trkpt lat="47.85568" lon="-2.44621">
        <ele>20.32</ele>
        <time>2012-08-28T10:06:27Z</time>
      </trkpt>
      <trkpt lat="47.85528" lon="-2.44621">
        <ele>20.81</ele>
        <time>2012-08-28T10:06:35Z</time>
      </trkpt>
      <trkpt lat="47.85483" lon="-2.44631">
        <ele>21.29</ele>
        <time>2012-08-28T10:06:44Z</time>
      </trkpt>
      <trkpt lat="47.85441" lon="-2.44643">
        <ele>20.81</ele>
        <time>2012-08-28T10:06:52Z</time>
      </trkpt>
      <trkpt lat="47.85402" lon="-2.44645">
        <ele>20.32</ele>
        <time>2012-08-28T10:07:00Z</time>
      </trkpt>
      <trkpt lat="47.85399" lon="-2.44646">
        <ele>20.32</ele>
        <time>2012-08-28T10:07:01Z</time>
      </trkpt>
      <trkpt lat="47.85389" lon="-2.44643">
        <ele>19.84</ele>
        <time>2012-08-28T10:07:05Z</time>
      </trkpt>
      <trkpt lat="47.85375" lon="-2.44645">
        <ele>20.32</ele>
        <time>2012-08-28T10:07:09Z</time>
      </trkpt>
      <trkpt lat="47.85333" lon="-2.44642">
        <ele>21.29</ele>
        <time>2012-08-28T10:07:18Z</time>
      </trkpt>
      <trkpt lat="47.85324" lon="-2.44641">
        <ele>21.29</ele>
        <time>2012-08-28T10:07:20Z</time>
      </trkpt>
      <trkpt lat="47.85287" lon="-2.44636">
        <ele>21.29</ele>
        <time>2012-08-28T10:07:28Z</time>
      </trkpt>
      <trkpt lat="47.85277" lon="-2.44634">
        <ele>20.81</ele>
        <time>2012-08-28T10:07:30Z</time>
      </trkpt>
      <trkpt lat="47.85241" lon="-2.44623">
        <ele>20.81</ele>
        <time>2012-08-28T10:07:38Z</time>
      </trkpt>
      <trkpt lat="47.85188" lon="-2.44602">
        <ele>21.29</ele>
        <time>2012-08-28T10:07:49Z</time>
      </trkpt>
      <trkpt lat="47.85158" lon="-2.44591">
        <ele>21.77</ele>
        <time>2012-08-28T10:07:55Z</time>
      </trkpt>
      <trkpt lat="47.85134" lon="-2.44584">
        <ele>23.21</ele>
        <time>2012-08-28T10:08:01Z</time>
      </trkpt>
      <trkpt lat="47.85124" lon="-2.44579">
        <ele>22.73</ele>
        <time>2012-08-28T10:08:04Z</time>
      </trkpt>
      <trkpt lat="47.85114" lon="-2.44572">
        <ele>21.77</ele>
        <time>2012-08-28T10:08:08Z</time>
      </trkpt>
      <trkpt lat="47.85089" lon="-2.44563">
        <ele>21.29</ele>
        <time>2012-08-28T10:08:15Z</time>
      </trkpt>
      <trkpt lat="47.85048" lon="-2.44546">
        <ele>21.29</ele>
        <time>2012-08-28T10:08:24Z</time>
      </trkpt>
      <trkpt lat="47.85003" lon="-2.44528">
        <ele>19.84</ele>
        <time>2012-08-28T10:08:33Z</time>
      </trkpt>
      <trkpt lat="47.84954" lon="-2.44509">
        <ele>19.36</ele>
        <time>2012-08-28T10:08:43Z</time>
      </trkpt>
      <trkpt lat="47.84918" lon="-2.44488">
        <ele>18.88</ele>
        <time>2012-08-28T10:08:51Z</time>
      </trkpt>
      <trkpt lat="47.8488" lon="-2.4446">
        <ele>19.36</ele>
        <time>2012-08-28T10:09:00Z</time>
      </trkpt>
      <trkpt lat="47.84837" lon="-2.44422">
        <ele>19.36</ele>
        <time>2012-08-28T10:09:10Z</time>
      </trkpt>
      <trkpt lat="47.84794" lon="-2.44373">
        <ele>19.36</ele>
        <time>2012-08-28T10:09:20Z</time>
      </trkpt>
      <trkpt lat="47.84757" lon="-2.44324">
        <ele>19.36</ele>
        <time>2012-08-28T10:09:29Z</time>
      </trkpt>
      <trkpt lat="47.84716" lon="-2.44272">
        <ele>19.84</ele>
        <time>2012-08-28T10:09:39Z</time>
      </trkpt>
      <trkpt lat="47.84696" lon="-2.44255">
        <ele>19.84</ele>
        <time>2012-08-28T10:09:43Z</time>
      </trkpt>
      <trkpt lat="47.84642" lon="-2.44234">
        <ele>20.32</ele>
        <time>2012-08-28T10:09:53Z</time>
      </trkpt>
      <trkpt lat="47.84594" lon="-2.44219">
        <ele>19.84</ele>
        <time>2012-08-28T10:10:02Z</time>
      </trkpt>
      <trkpt lat="47.84534" lon="-2.44203">
        <ele>18.4</ele>
        <time>2012-08-28T10:10:13Z</time>
      </trkpt>
      <trkpt lat="47.84479" lon="-2.44188">
        <ele>16.96</ele>
        <time>2012-08-28T10:10:23Z</time>
      </trkpt>
      <trkpt lat="47.8444" lon="-2.44166">
        <ele>16.96</ele>
        <time>2012-08-28T10:10:31Z</time>
      </trkpt>
      <trkpt lat="47.84436" lon="-2.44163">
        <ele>16.96</ele>
        <time>2012-08-28T10:10:32Z</time>
      </trkpt>
      <trkpt lat="47.84419" lon="-2.44144">
        <ele>16.96</ele>
        <time>2012-08-28T10:10:36Z</time>
      </trkpt>
      <trkpt lat="47.84407" lon="-2.44126">
        <ele>16.96</ele>
        <time>2012-08-28T10:10:39Z</time>
      </trkpt>
      <trkpt lat="47.84381" lon="-2.44061">
        <ele>16.48</ele>
        <time>2012-08-28T10:10:48Z</time>
      </trkpt>
      <trkpt lat="47.84346" lon="-2.43991">
        <ele>17.44</ele>
        <time>2012-08-28T10:10:58Z</time>
      </trkpt>
      <trkpt lat="47.84315" lon="-2.43937">
        <ele>17.92</ele>
        <time>2012-08-28T10:11:07Z</time>
      </trkpt>
      <trkpt lat="47.84298" lon="-2.4391">
        <ele>18.4</ele>
        <time>2012-08-28T10:11:12Z</time>
      </trkpt>
      <trkpt lat="47.84261" lon="-2.43854">
        <ele>19.36</ele>
        <time>2012-08-28T10:11:22Z</time>
      </trkpt>
      <trkpt lat="47.84232" lon="-2.4381">
        <ele>19.36</ele>
        <time>2012-08-28T10:11:30Z</time>
      </trkpt>
      <trkpt lat="47.84192" lon="-2.43751">
        <ele>19.84</ele>
        <time>2012-08-28T10:11:41Z</time>
      </trkpt>
      <trkpt lat="47.84153" lon="-2.43704">
        <ele>19.84</ele>
        <time>2012-08-28T10:11:51Z</time>
      </trkpt>
      <trkpt lat="47.8412" lon="-2.4367">
        <ele>19.36</ele>
        <time>2012-08-28T10:11:59Z</time>
      </trkpt>
      <trkpt lat="47.84093" lon="-2.43642">
        <ele>19.36</ele>
        <time>2012-08-28T10:12:06Z</time>
      </trkpt>
      <trkpt lat="47.84053" lon="-2.43589">
        <ele>20.32</ele>
        <time>2012-08-28T10:12:17Z</time>
      </trkpt>
      <trkpt lat="47.84028" lon="-2.43541">
        <ele>20.81</ele>
        <time>2012-08-28T10:12:25Z</time>
      </trkpt>
      <trkpt lat="47.84006" lon="-2.4349">
        <ele>20.81</ele>
        <time>2012-08-28T10:12:33Z</time>
      </trkpt>
      <trkpt lat="47.83982" lon="-2.43426">
        <ele>20.32</ele>
        <time>2012-08-28T10:12:42Z</time>
      </trkpt>
      <trkpt lat="47.83963" lon="-2.4336">
        <ele>20.32</ele>
        <time>2012-08-28T10:12:51Z</time>
      </trkpt>
      <trkpt lat="47.83957" lon="-2.43307">
        <ele>20.81</ele>
        <time>2012-08-28T10:12:58Z</time>
      </trkpt>
      <trkpt lat="47.83954" lon="-2.43241">
        <ele>22.25</ele>
        <time>2012-08-28T10:13:06Z</time>
      </trkpt>
      <trkpt lat="47.83963" lon="-2.43187">
        <ele>23.21</ele>
        <time>2012-08-28T10:13:13Z</time>
      </trkpt>
      <trkpt lat="47.83965" lon="-2.4318">
        <ele>22.73</ele>
        <time>2012-08-28T10:13:14Z</time>
      </trkpt>
      <trkpt lat="47.83985" lon="-2.43145">
        <ele>22.73</ele>
        <time>2012-08-28T10:13:20Z</time>
      </trkpt>
      <trkpt lat="47.83996" lon="-2.43122">
        <ele>23.21</ele>
        <time>2012-08-28T10:13:24Z</time>
      </trkpt>
      <trkpt lat="47.84004" lon="-2.43092">
        <ele>23.21</ele>
        <time>2012-08-28T10:13:28Z</time>
      </trkpt>
      <trkpt lat="47.84001" lon="-2.43048">
        <ele>23.21</ele>
        <time>2012-08-28T10:13:34Z</time>
      </trkpt>
      <trkpt lat="47.83996" lon="-2.43042">
        <ele>23.21</ele>
        <time>2012-08-28T10:13:35Z</time>
      </trkpt>
      <trkpt lat="47.83966" lon="-2.42986">
        <ele>22.73</ele>
        <time>2012-08-28T10:13:44Z</time>
      </trkpt>
      <trkpt lat="47.83963" lon="-2.42979">
        <ele>22.73</ele>
        <time>2012-08-28T10:13:45Z</time>
      </trkpt>
      <trkpt lat="47.83943" lon="-2.42917">
        <ele>21.77</ele>
        <time>2012-08-28T10:13:54Z</time>
      </trkpt>
      <trkpt lat="47.83924" lon="-2.42873">
        <ele>20.81</ele>
        <time>2012-08-28T10:14:00Z</time>
      </trkpt>
      <trkpt lat="47.83897" lon="-2.42813">
        <ele>18.88</ele>
        <time>2012-08-28T10:14:09Z</time>
      </trkpt>
      <trkpt lat="47.83869" lon="-2.42758">
        <ele>17.92</ele>
        <time>2012-08-28T10:14:18Z</time>
      </trkpt>
      <trkpt lat="47.83845" lon="-2.42709">
        <ele>18.88</ele>
        <time>2012-08-28T10:14:26Z</time>
      </trkpt>
      <trkpt lat="47.83825" lon="-2.42679">
        <ele>18.88</ele>
        <time>2012-08-28T10:14:31Z</time>
      </trkpt>
      <trkpt lat="47.83796" lon="-2.42616">
        <ele>19.36</ele>
        <time>2012-08-28T10:14:40Z</time>
      </trkpt>
      <trkpt lat="47.83778" lon="-2.42554">
        <ele>19.36</ele>
        <time>2012-08-28T10:14:49Z</time>
      </trkpt>
      <trkpt lat="47.8376" lon="-2.4248">
        <ele>20.32</ele>
        <time>2012-08-28T10:14:59Z</time>
      </trkpt>
      <trkpt lat="47.83755" lon="-2.42457">
        <ele>20.81</ele>
        <time>2012-08-28T10:15:02Z</time>
      </trkpt>
      <trkpt lat="47.83732" lon="-2.4237">
        <ele>21.77</ele>
        <time>2012-08-28T10:15:14Z</time>
      </trkpt>
      <trkpt lat="47.83729" lon="-2.42356">
        <ele>21.29</ele>
        <time>2012-08-28T10:15:16Z</time>
      </trkpt>
      <trkpt lat="47.83712" lon="-2.42285">
        <ele>22.25</ele>
        <time>2012-08-28T10:15:26Z</time>
      </trkpt>
      <trkpt lat="47.837" lon="-2.42209">
        <ele>22.25</ele>
        <time>2012-08-28T10:15:36Z</time>
      </trkpt>
      <trkpt lat="47.83694" lon="-2.4215">
        <ele>22.25</ele>
        <time>2012-08-28T10:15:44Z</time>
      </trkpt>
      <trkpt lat="47.83692" lon="-2.42067">
        <ele>23.21</ele>
        <time>2012-08-28T10:15:55Z</time>
      </trkpt>
      <trkpt lat="47.83693" lon="-2.42005">
        <ele>23.69</ele>
        <time>2012-08-28T10:16:03Z</time>
      </trkpt>
      <trkpt lat="47.83698" lon="-2.41947">
        <ele>24.17</ele>
        <time>2012-08-28T10:16:12Z</time>
      </trkpt>
      <trkpt lat="47.83706" lon="-2.41897">
        <ele>24.17</ele>
        <time>2012-08-28T10:16:19Z</time>
      </trkpt>
      <trkpt lat="47.83707" lon="-2.41876">
        <ele>23.69</ele>
        <time>2012-08-28T10:16:22Z</time>
      </trkpt>
      <trkpt lat="47.83704" lon="-2.41856">
        <ele>23.21</ele>
        <time>2012-08-28T10:16:25Z</time>
      </trkpt>
      <trkpt lat="47.83685" lon="-2.41798">
        <ele>23.69</ele>
        <time>2012-08-28T10:16:34Z</time>
      </trkpt>
      <trkpt lat="47.8366" lon="-2.41751">
        <ele>22.73</ele>
        <time>2012-08-28T10:16:42Z</time>
      </trkpt>
      <trkpt lat="47.83634" lon="-2.41713">
        <ele>20.81</ele>
        <time>2012-08-28T10:16:49Z</time>
      </trkpt>
      <trkpt lat="47.83619" lon="-2.41695">
        <ele>20.32</ele>
        <time>2012-08-28T10:16:53Z</time>
      </trkpt>
      <trkpt lat="47.83582" lon="-2.41663">
        <ele>19.36</ele>
        <time>2012-08-28T10:17:02Z</time>
      </trkpt>
      <trkpt lat="47.83541" lon="-2.41647">
        <ele>19.84</ele>
        <time>2012-08-28T10:17:11Z</time>
      </trkpt>
      <trkpt lat="47.83532" lon="-2.41642">
        <ele>19.84</ele>
        <time>2012-08-28T10:17:13Z</time>
      </trkpt>
      <trkpt lat="47.83512" lon="-2.41626">
        <ele>19.36</ele>
        <time>2012-08-28T10:17:18Z</time>
      </trkpt>
      <trkpt lat="47.83475" lon="-2.41571">
        <ele>18.4</ele>
        <time>2012-08-28T10:17:29Z</time>
      </trkpt>
      <trkpt lat="47.83447" lon="-2.41519">
        <ele>17.44</ele>
        <time>2012-08-28T10:17:38Z</time>
      </trkpt>
      <trkpt lat="47.83408" lon="-2.41469">
        <ele>16.48</ele>
        <time>2012-08-28T10:17:48Z</time>
      </trkpt>
      <trkpt lat="47.83401" lon="-2.41459">
        <ele>16.48</ele>
        <time>2012-08-28T10:17:50Z</time>
      </trkpt>
      <trkpt lat="47.83387" lon="-2.41441">
        <ele>16.48</ele>
        <time>2012-08-28T10:17:54Z</time>
      </trkpt>
      <trkpt lat="47.83355" lon="-2.41387">
        <ele>15.52</ele>
        <time>2012-08-28T10:18:03Z</time>
      </trkpt>
      <trkpt lat="47.83329" lon="-2.41339">
        <ele>15.52</ele>
        <time>2012-08-28T10:18:11Z</time>
      </trkpt>
      <trkpt lat="47.83296" lon="-2.41289">
        <ele>14.56</ele>
        <time>2012-08-28T10:18:20Z</time>
      </trkpt>
      <trkpt lat="47.83287" lon="-2.41279">
        <ele>15.52</ele>
        <time>2012-08-28T10:18:22Z</time>
      </trkpt>
      <trkpt lat="47.83274" lon="-2.41264">
        <ele>16.48</ele>
        <time>2012-08-28T10:18:25Z</time>
      </trkpt>
      <trkpt lat="47.8323" lon="-2.41225">
        <ele>15.52</ele>
        <time>2012-08-28T10:18:35Z</time>
      </trkpt>
      <trkpt lat="47.83186" lon="-2.41191">
        <ele>16</ele>
        <time>2012-08-28T10:18:45Z</time>
      </trkpt>
      <trkpt lat="47.83156" lon="-2.41165">
        <ele>14.56</ele>
        <time>2012-08-28T10:18:52Z</time>
      </trkpt>
      <trkpt lat="47.83125" lon="-2.4113">
        <ele>14.56</ele>
        <time>2012-08-28T10:19:00Z</time>
      </trkpt>
      <trkpt lat="47.83111" lon="-2.41108">
        <ele>15.04</ele>
        <time>2012-08-28T10:19:04Z</time>
      </trkpt>
      <trkpt lat="47.83085" lon="-2.4107">
        <ele>16.48</ele>
        <time>2012-08-28T10:19:11Z</time>
      </trkpt>
      <trkpt lat="47.83055" lon="-2.41038">
        <ele>16</ele>
        <time>2012-08-28T10:19:18Z</time>
      </trkpt>
      <trkpt lat="47.83017" lon="-2.41003">
        <ele>14.56</ele>
        <time>2012-08-28T10:19:27Z</time>
      </trkpt>
      <trkpt lat="47.83008" lon="-2.40995">
        <ele>14.08</ele>
        <time>2012-08-28T10:19:29Z</time>
      </trkpt>
      <trkpt lat="47.82987" lon="-2.4098">
        <ele>14.08</ele>
        <time>2012-08-28T10:19:35Z</time>
      </trkpt>
      <trkpt lat="47.82984" lon="-2.40978">
        <ele>13.6</ele>
        <time>2012-08-28T10:19:36Z</time>
      </trkpt>
      <trkpt lat="47.82953" lon="-2.40949">
        <ele>13.6</ele>
        <time>2012-08-28T10:19:45Z</time>
      </trkpt>
      <trkpt lat="47.82941" lon="-2.40933">
        <ele>14.56</ele>
        <time>2012-08-28T10:19:51Z</time>
      </trkpt>
      <trkpt lat="47.82939" lon="-2.40931">
        <ele>14.56</ele>
        <time>2012-08-28T10:19:52Z</time>
      </trkpt>
      <trkpt lat="47.82931" lon="-2.40923">
        <ele>14.56</ele>
        <time>2012-08-28T10:19:56Z</time>
      </trkpt>
      <trkpt lat="47.82909" lon="-2.40899">
        <ele>13.12</ele>
        <time>2012-08-28T10:20:03Z</time>
      </trkpt>
      <trkpt lat="47.82873" lon="-2.40862">
        <ele>12.63</ele>
        <time>2012-08-28T10:20:11Z</time>
      </trkpt>
      <trkpt lat="47.82844" lon="-2.40826">
        <ele>11.67</ele>
        <time>2012-08-28T10:20:18Z</time>
      </trkpt>
      <trkpt lat="47.8284" lon="-2.40822">
        <ele>11.67</ele>
        <time>2012-08-28T10:20:19Z</time>
      </trkpt>
      <trkpt lat="47.82815" lon="-2.40792">
        <ele>11.19</ele>
        <time>2012-08-28T10:20:26Z</time>
      </trkpt>
      <trkpt lat="47.82794" lon="-2.40763">
        <ele>12.15</ele>
        <time>2012-08-28T10:20:32Z</time>
      </trkpt>
      <trkpt lat="47.82764" lon="-2.40718">
        <ele>13.6</ele>
        <time>2012-08-28T10:20:40Z</time>
      </trkpt>
      <trkpt lat="47.8274" lon="-2.40679">
        <ele>14.08</ele>
        <time>2012-08-28T10:20:47Z</time>
      </trkpt>
      <trkpt lat="47.82709" lon="-2.40631">
        <ele>14.08</ele>
        <time>2012-08-28T10:20:55Z</time>
      </trkpt>
      <trkpt lat="47.82692" lon="-2.40602">
        <ele>14.56</ele>
        <time>2012-08-28T10:21:00Z</time>
      </trkpt>
      <trkpt lat="47.82663" lon="-2.40556">
        <ele>15.04</ele>
        <time>2012-08-28T10:21:08Z</time>
      </trkpt>
      <trkpt lat="47.82633" lon="-2.40509">
        <ele>14.56</ele>
        <time>2012-08-28T10:21:16Z</time>
      </trkpt>
      <trkpt lat="47.82604" lon="-2.40464">
        <ele>14.56</ele>
        <time>2012-08-28T10:21:24Z</time>
      </trkpt>
      <trkpt lat="47.8258" lon="-2.40426">
        <ele>15.04</ele>
        <time>2012-08-28T10:21:31Z</time>
      </trkpt>
      <trkpt lat="47.82551" lon="-2.40369">
        <ele>14.56</ele>
        <time>2012-08-28T10:21:40Z</time>
      </trkpt>
      <trkpt lat="47.82533" lon="-2.40307">
        <ele>15.04</ele>
        <time>2012-08-28T10:21:48Z</time>
      </trkpt>
      <trkpt lat="47.82526" lon="-2.40265">
        <ele>15.52</ele>
        <time>2012-08-28T10:21:53Z</time>
      </trkpt>
      <trkpt lat="47.82518" lon="-2.40191">
        <ele>16.96</ele>
        <time>2012-08-28T10:22:02Z</time>
      </trkpt>
      <trkpt lat="47.82514" lon="-2.40146">
        <ele>17.92</ele>
        <time>2012-08-28T10:22:08Z</time>
      </trkpt>
      <trkpt lat="47.8251" lon="-2.4007">
        <ele>21.29</ele>
        <time>2012-08-28T10:22:19Z</time>
      </trkpt>
      <trkpt lat="47.82504" lon="-2.40012">
        <ele>24.65</ele>
        <time>2012-08-28T10:22:27Z</time>
      </trkpt>
      <trkpt lat="47.82503" lon="-2.40005">
        <ele>25.13</ele>
        <time>2012-08-28T10:22:28Z</time>
      </trkpt>
      <trkpt lat="47.82495" lon="-2.39977">
        <ele>26.57</ele>
        <time>2012-08-28T10:22:32Z</time>
      </trkpt>
      <trkpt lat="47.82477" lon="-2.39947">
        <ele>26.09</ele>
        <time>2012-08-28T10:22:38Z</time>
      </trkpt>
      <trkpt lat="47.82471" lon="-2.39936">
        <ele>26.09</ele>
        <time>2012-08-28T10:22:42Z</time>
      </trkpt>
      <trkpt lat="47.82449" lon="-2.3991">
        <ele>25.61</ele>
        <time>2012-08-28T10:22:51Z</time>
      </trkpt>
      <trkpt lat="47.82445" lon="-2.39906">
        <ele>24.65</ele>
        <time>2012-08-28T10:22:53Z</time>
      </trkpt>
      <trkpt lat="47.82444" lon="-2.39903">
        <ele>23.69</ele>
        <time>2012-08-28T10:22:59Z</time>
      </trkpt>
      <trkpt lat="47.82448" lon="-2.3991">
        <ele>21.29</ele>
        <time>2012-08-28T10:23:08Z</time>
      </trkpt>
      <trkpt lat="47.82447" lon="-2.3991">
        <ele>20.32</ele>
        <time>2012-08-28T10:23:19Z</time>
      </trkpt>
      <trkpt lat="47.82447" lon="-2.39908">
        <ele>19.84</ele>
        <time>2012-08-28T10:23:30Z</time>
      </trkpt>
      <trkpt lat="47.82446" lon="-2.39906">
        <ele>19.84</ele>
        <time>2012-08-28T10:23:34Z</time>
      </trkpt>
      <trkpt lat="47.82437" lon="-2.39897">
        <ele>19.36</ele>
        <time>2012-08-28T10:23:39Z</time>
      </trkpt>
      <trkpt lat="47.82424" lon="-2.3988">
        <ele>18.4</ele>
        <time>2012-08-28T10:23:46Z</time>
      </trkpt>
      <trkpt lat="47.82413" lon="-2.39863">
        <ele>17.44</ele>
        <time>2012-08-28T10:23:50Z</time>
      </trkpt>
      <trkpt lat="47.82399" lon="-2.39848">
        <ele>16.96</ele>
        <time>2012-08-28T10:23:54Z</time>
      </trkpt>
      <trkpt lat="47.82384" lon="-2.39826">
        <ele>16.48</ele>
        <time>2012-08-28T10:24:00Z</time>
      </trkpt>
      <trkpt lat="47.82363" lon="-2.39799">
        <ele>16</ele>
        <time>2012-08-28T10:24:08Z</time>
      </trkpt>
      <trkpt lat="47.82357" lon="-2.3979">
        <ele>16</ele>
        <time>2012-08-28T10:24:10Z</time>
      </trkpt>
      <trkpt lat="47.82314" lon="-2.39736">
        <ele>15.52</ele>
        <time>2012-08-28T10:24:22Z</time>
      </trkpt>
      <trkpt lat="47.8228" lon="-2.39693">
        <ele>14.56</ele>
        <time>2012-08-28T10:24:31Z</time>
      </trkpt>
      <trkpt lat="47.82258" lon="-2.39663">
        <ele>13.12</ele>
        <time>2012-08-28T10:24:37Z</time>
      </trkpt>
      <trkpt lat="47.82217" lon="-2.39609">
        <ele>11.19</ele>
        <time>2012-08-28T10:24:48Z</time>
      </trkpt>
      <trkpt lat="47.82176" lon="-2.39557">
        <ele>11.19</ele>
        <time>2012-08-28T10:24:58Z</time>
      </trkpt>
      <trkpt lat="47.82127" lon="-2.39495">
        <ele>10.23</ele>
        <time>2012-08-28T10:25:10Z</time>
      </trkpt>
      <trkpt lat="47.82096" lon="-2.39455">
        <ele>9.75</ele>
        <time>2012-08-28T10:25:18Z</time>
      </trkpt>
      <trkpt lat="47.8206" lon="-2.39409">
        <ele>9.75</ele>
        <time>2012-08-28T10:25:27Z</time>
      </trkpt>
      <trkpt lat="47.82024" lon="-2.39363">
        <ele>9.75</ele>
        <time>2012-08-28T10:25:36Z</time>
      </trkpt>
      <trkpt lat="47.81993" lon="-2.39323">
        <ele>8.31</ele>
        <time>2012-08-28T10:25:44Z</time>
      </trkpt>
      <trkpt lat="47.81963" lon="-2.3928">
        <ele>7.35</ele>
        <time>2012-08-28T10:25:52Z</time>
      </trkpt>
      <trkpt lat="47.81936" lon="-2.39248">
        <ele>6.87</ele>
        <time>2012-08-28T10:25:59Z</time>
      </trkpt>
      <trkpt lat="47.81912" lon="-2.39218">
        <ele>6.39</ele>
        <time>2012-08-28T10:26:05Z</time>
      </trkpt>
      <trkpt lat="47.81876" lon="-2.39171">
        <ele>4.46</ele>
        <time>2012-08-28T10:26:14Z</time>
      </trkpt>
      <trkpt lat="47.81838" lon="-2.39123">
        <ele>3.5</ele>
        <time>2012-08-28T10:26:23Z</time>
      </trkpt>
      <trkpt lat="47.81796" lon="-2.39068">
        <ele>6.39</ele>
        <time>2012-08-28T10:26:33Z</time>
      </trkpt>
      <trkpt lat="47.81762" lon="-2.39023">
        <ele>7.35</ele>
        <time>2012-08-28T10:26:41Z</time>
      </trkpt>
      <trkpt lat="47.81722" lon="-2.38972">
        <ele>8.79</ele>
        <time>2012-08-28T10:26:51Z</time>
      </trkpt>
      <trkpt lat="47.8169" lon="-2.3893">
        <ele>10.71</ele>
        <time>2012-08-28T10:26:59Z</time>
      </trkpt>
      <trkpt lat="47.81666" lon="-2.389">
        <ele>11.19</ele>
        <time>2012-08-28T10:27:05Z</time>
      </trkpt>
      <trkpt lat="47.8164" lon="-2.38865">
        <ele>11.19</ele>
        <time>2012-08-28T10:27:12Z</time>
      </trkpt>
      <trkpt lat="47.81613" lon="-2.3883">
        <ele>10.71</ele>
        <time>2012-08-28T10:27:19Z</time>
      </trkpt>
      <trkpt lat="47.81594" lon="-2.38805">
        <ele>10.23</ele>
        <time>2012-08-28T10:27:24Z</time>
      </trkpt>
      <trkpt lat="47.81553" lon="-2.38752">
        <ele>10.23</ele>
        <time>2012-08-28T10:27:34Z</time>
      </trkpt>
      <trkpt lat="47.81519" lon="-2.38708">
        <ele>11.19</ele>
        <time>2012-08-28T10:27:42Z</time>
      </trkpt>
      <trkpt lat="47.8148" lon="-2.38655">
        <ele>11.67</ele>
        <time>2012-08-28T10:27:52Z</time>
      </trkpt>
      <trkpt lat="47.81454" lon="-2.38621">
        <ele>11.67</ele>
        <time>2012-08-28T10:28:00Z</time>
      </trkpt>
      <trkpt lat="47.81442" lon="-2.38606">
        <ele>11.19</ele>
        <time>2012-08-28T10:28:06Z</time>
      </trkpt>
      <trkpt lat="47.8144" lon="-2.38604">
        <ele>11.67</ele>
        <time>2012-08-28T10:28:12Z</time>
      </trkpt>
      <trkpt lat="47.8144" lon="-2.38605">
        <ele>11.67</ele>
        <time>2012-08-28T10:28:21Z</time>
      </trkpt>
      <trkpt lat="47.81438" lon="-2.38606">
        <ele>12.63</ele>
        <time>2012-08-28T10:28:34Z</time>
      </trkpt>
      <trkpt lat="47.81438" lon="-2.38608">
        <ele>12.63</ele>
        <time>2012-08-28T10:28:46Z</time>
      </trkpt>
      <trkpt lat="47.81438" lon="-2.38605">
        <ele>15.04</ele>
        <time>2012-08-28T10:29:06Z</time>
      </trkpt>
      <trkpt lat="47.81436" lon="-2.38606">
        <ele>12.63</ele>
        <time>2012-08-28T10:29:25Z</time>
      </trkpt>
      <trkpt lat="47.81437" lon="-2.38607">
        <ele>11.19</ele>
        <time>2012-08-28T10:29:44Z</time>
      </trkpt>
      <trkpt lat="47.81436" lon="-2.38604">
        <ele>12.63</ele>
        <time>2012-08-28T10:30:07Z</time>
      </trkpt>
      <trkpt lat="47.81436" lon="-2.38604">
        <ele>14.08</ele>
        <time>2012-08-28T10:30:26Z</time>
      </trkpt>
      <trkpt lat="47.81437" lon="-2.38603">
        <ele>14.56</ele>
        <time>2012-08-28T10:30:45Z</time>
      </trkpt>
      <trkpt lat="47.81438" lon="-2.38604">
        <ele>15.04</ele>
        <time>2012-08-28T10:31:06Z</time>
      </trkpt>
      <trkpt lat="47.81438" lon="-2.38603">
        <ele>14.56</ele>
        <time>2012-08-28T10:31:24Z</time>
      </trkpt>
      <trkpt lat="47.81439" lon="-2.38603">
        <ele>14.56</ele>
        <time>2012-08-28T10:31:47Z</time>
      </trkpt>
      <trkpt lat="47.81439" lon="-2.38603">
        <ele>14.56</ele>
        <time>2012-08-28T10:32:07Z</time>
      </trkpt>
      <trkpt lat="47.81439" lon="-2.38603">
        <ele>14.56</ele>
        <time>2012-08-28T10:32:24Z</time>
      </trkpt>
      <trkpt lat="47.81439" lon="-2.38603">
        <ele>16</ele>
        <time>2012-08-28T10:32:42Z</time>
      </trkpt>
      <trkpt lat="47.81438" lon="-2.38605">
        <ele>15.04</ele>
        <time>2012-08-28T10:33:00Z</time>
      </trkpt>
      <trkpt lat="47.81437" lon="-2.38606">
        <ele>15.52</ele>
        <time>2012-08-28T10:33:17Z</time>
      </trkpt>
      <trkpt lat="47.81437" lon="-2.38605">
        <ele>16</ele>
        <time>2012-08-28T10:33:34Z</time>
      </trkpt>
      <trkpt lat="47.81438" lon="-2.38603">
        <ele>16.48</ele>
        <time>2012-08-28T10:33:49Z</time>
      </trkpt>
      <trkpt lat="47.81437" lon="-2.38603">
        <ele>16.96</ele>
        <time>2012-08-28T10:34:06Z</time>
      </trkpt>
      <trkpt lat="47.81437" lon="-2.38602">
        <ele>16.48</ele>
        <time>2012-08-28T10:34:25Z</time>
      </trkpt>
      <trkpt lat="47.81438" lon="-2.38602">
        <ele>16.48</ele>
        <time>2012-08-28T10:34:44Z</time>
      </trkpt>
      <trkpt lat="47.81438" lon="-2.38602">
        <ele>16.96</ele>
        <time>2012-08-28T10:35:00Z</time>
      </trkpt>
      <trkpt lat="47.81438" lon="-2.38604">
        <ele>18.4</ele>
        <time>2012-08-28T10:35:19Z</time>
      </trkpt>
      <trkpt lat="47.81438" lon="-2.38602">
        <ele>18.4</ele>
        <time>2012-08-28T10:35:38Z</time>
      </trkpt>
      <trkpt lat="47.81437" lon="-2.38602">
        <ele>18.4</ele>
        <time>2012-08-28T10:35:56Z</time>
      </trkpt>
      <trkpt lat="47.81437" lon="-2.38603">
        <ele>18.88</ele>
        <time>2012-08-28T10:36:15Z</time>
      </trkpt>
      <trkpt lat="47.81437" lon="-2.38604">
        <ele>17.92</ele>
        <time>2012-08-28T10:36:29Z</time>
      </trkpt>
      <trkpt lat="47.81438" lon="-2.38603">
        <ele>17.44</ele>
        <time>2012-08-28T10:36:48Z</time>
      </trkpt>
      <trkpt lat="47.81439" lon="-2.38604">
        <ele>17.92</ele>
        <time>2012-08-28T10:37:04Z</time>
      </trkpt>
      <trkpt lat="47.81439" lon="-2.38605">
        <ele>17.44</ele>
        <time>2012-08-28T10:37:22Z</time>
      </trkpt>
      <trkpt lat="47.81439" lon="-2.38606">
        <ele>16.48</ele>
        <time>2012-08-28T10:37:36Z</time>
      </trkpt>
      <trkpt lat="47.8144" lon="-2.38605">
        <ele>16</ele>
        <time>2012-08-28T10:37:51Z</time>
      </trkpt>
      <trkpt lat="47.81439" lon="-2.38605">
        <ele>16.48</ele>
        <time>2012-08-28T10:38:06Z</time>
      </trkpt>
      <trkpt lat="47.81439" lon="-2.38607">
        <ele>16.96</ele>
        <time>2012-08-28T10:38:22Z</time>
      </trkpt>
      <trkpt lat="47.81439" lon="-2.38606">
        <ele>16.96</ele>
        <time>2012-08-28T10:38:36Z</time>
      </trkpt>
      <trkpt lat="47.8144" lon="-2.38603">
        <ele>17.44</ele>
        <time>2012-08-28T10:38:55Z</time>
      </trkpt>
      <trkpt lat="47.8144" lon="-2.38603">
        <ele>16.96</ele>
        <time>2012-08-28T10:39:14Z</time>
      </trkpt>
      <trkpt lat="47.81441" lon="-2.38604">
        <ele>17.44</ele>
        <time>2012-08-28T10:39:33Z</time>
      </trkpt>
      <trkpt lat="47.81441" lon="-2.38604">
        <ele>17.44</ele>
        <time>2012-08-28T10:39:48Z</time>
      </trkpt>
      <trkpt lat="47.8144" lon="-2.38604">
        <ele>16.96</ele>
        <time>2012-08-28T10:40:03Z</time>
      </trkpt>
      <trkpt lat="47.81439" lon="-2.38604">
        <ele>18.4</ele>
        <time>2012-08-28T10:40:22Z</time>
      </trkpt>
      <trkpt lat="47.81439" lon="-2.38604">
        <ele>19.36</ele>
        <time>2012-08-28T10:40:39Z</time>
      </trkpt>
      <trkpt lat="47.81439" lon="-2.38606">
        <ele>18.88</ele>
        <time>2012-08-28T10:40:56Z</time>
      </trkpt>
      <trkpt lat="47.81439" lon="-2.38607">
        <ele>18.4</ele>
        <time>2012-08-28T10:41:12Z</time>
      </trkpt>
      <trkpt lat="47.81439" lon="-2.38606">
        <ele>16.96</ele>
        <time>2012-08-28T10:41:31Z</time>
      </trkpt>
      <trkpt lat="47.81439" lon="-2.38606">
        <ele>16.48</ele>
        <time>2012-08-28T10:41:53Z</time>
      </trkpt>
      <trkpt lat="47.81438" lon="-2.38606">
        <ele>17.44</ele>
        <time>2012-08-28T10:42:14Z</time>
      </trkpt>
      <trkpt lat="47.81438" lon="-2.38603">
        <ele>17.92</ele>
        <time>2012-08-28T10:42:33Z</time>
      </trkpt>
      <trkpt lat="47.81438" lon="-2.38602">
        <ele>18.88</ele>
        <time>2012-08-28T10:42:51Z</time>
      </trkpt>
      <trkpt lat="47.81438" lon="-2.38603">
        <ele>18.88</ele>
        <time>2012-08-28T10:43:06Z</time>
      </trkpt>
      <trkpt lat="47.81438" lon="-2.38604">
        <ele>18.88</ele>
        <time>2012-08-28T10:43:23Z</time>
      </trkpt>
      <trkpt lat="47.81438" lon="-2.38605">
        <ele>19.36</ele>
        <time>2012-08-28T10:43:42Z</time>
      </trkpt>
      <trkpt lat="47.81439" lon="-2.38605">
        <ele>19.36</ele>
        <time>2012-08-28T10:43:58Z</time>
      </trkpt>
      <trkpt lat="47.8144" lon="-2.38605">
        <ele>19.36</ele>
        <time>2012-08-28T10:44:09Z</time>
      </trkpt>
      <trkpt lat="47.81439" lon="-2.38604">
        <ele>19.36</ele>
        <time>2012-08-28T10:44:18Z</time>
      </trkpt>
      <trkpt lat="47.81437" lon="-2.38603">
        <ele>19.36</ele>
        <time>2012-08-28T10:44:37Z</time>
      </trkpt>
      <trkpt lat="47.8144" lon="-2.38603">
        <ele>18.88</ele>
        <time>2012-08-28T10:44:53Z</time>
      </trkpt>
      <trkpt lat="47.81439" lon="-2.38604">
        <ele>19.36</ele>
        <time>2012-08-28T10:45:10Z</time>
      </trkpt>
      <trkpt lat="47.81439" lon="-2.38604">
        <ele>19.36</ele>
        <time>2012-08-28T10:45:28Z</time>
      </trkpt>
      <trkpt lat="47.81439" lon="-2.38604">
        <ele>19.84</ele>
        <time>2012-08-28T10:45:40Z</time>
      </trkpt>
      <trkpt lat="47.81438" lon="-2.38603">
        <ele>20.32</ele>
        <time>2012-08-28T10:45:58Z</time>
      </trkpt>
      <trkpt lat="47.81438" lon="-2.38604">
        <ele>20.32</ele>
        <time>2012-08-28T10:46:11Z</time>
      </trkpt>
      <trkpt lat="47.81438" lon="-2.38604">
        <ele>19.84</ele>
        <time>2012-08-28T10:46:29Z</time>
      </trkpt>
      <trkpt lat="47.81438" lon="-2.38604">
        <ele>19.84</ele>
        <time>2012-08-28T10:46:45Z</time>
      </trkpt>
      <trkpt lat="47.81438" lon="-2.38604">
        <ele>19.36</ele>
        <time>2012-08-28T10:47:02Z</time>
      </trkpt>
      <trkpt lat="47.81438" lon="-2.38604">
        <ele>18.88</ele>
        <time>2012-08-28T10:47:18Z</time>
      </trkpt>
      <trkpt lat="47.81438" lon="-2.38604">
        <ele>18.88</ele>
        <time>2012-08-28T10:47:36Z</time>
      </trkpt>
      <trkpt lat="47.81437" lon="-2.38603">
        <ele>18.88</ele>
        <time>2012-08-28T10:47:51Z</time>
      </trkpt>
      <trkpt lat="47.81437" lon="-2.38603">
        <ele>18.4</ele>
        <time>2012-08-28T10:48:05Z</time>
      </trkpt>
      <trkpt lat="47.81437" lon="-2.38603">
        <ele>18.4</ele>
        <time>2012-08-28T10:48:24Z</time>
      </trkpt>
      <trkpt lat="47.81437" lon="-2.38604">
        <ele>18.4</ele>
        <time>2012-08-28T10:48:39Z</time>
      </trkpt>
      <trkpt lat="47.81437" lon="-2.38604">
        <ele>18.4</ele>
        <time>2012-08-28T10:48:59Z</time>
      </trkpt>
      <trkpt lat="47.81437" lon="-2.38604">
        <ele>18.4</ele>
        <time>2012-08-28T10:49:17Z</time>
      </trkpt>
      <trkpt lat="47.81437" lon="-2.38604">
        <ele>18.4</ele>
        <time>2012-08-28T10:49:36Z</time>
      </trkpt>
      <trkpt lat="47.81437" lon="-2.38604">
        <ele>18.4</ele>
        <time>2012-08-28T10:49:55Z</time>
      </trkpt>
      <trkpt lat="47.81437" lon="-2.38604">
        <ele>18.4</ele>
        <time>2012-08-28T10:50:11Z</time>
      </trkpt>
      <trkpt lat="47.81437" lon="-2.38604">
        <ele>18.4</ele>
        <time>2012-08-28T10:50:28Z</time>
      </trkpt>
      <trkpt lat="47.81438" lon="-2.38604">
        <ele>17.92</ele>
        <time>2012-08-28T10:50:45Z</time>
      </trkpt>
      <trkpt lat="47.81438" lon="-2.38604">
        <ele>17.92</ele>
        <time>2012-08-28T10:50:58Z</time>
      </trkpt>
      <trkpt lat="47.81439" lon="-2.38604">
        <ele>18.4</ele>
        <time>2012-08-28T10:51:06Z</time>
      </trkpt>
      <trkpt lat="47.81437" lon="-2.38605">
        <ele>17.92</ele>
        <time>2012-08-28T10:51:16Z</time>
      </trkpt>
      <trkpt lat="47.81437" lon="-2.38605">
        <ele>17.44</ele>
        <time>2012-08-28T10:51:27Z</time>
      </trkpt>
      <trkpt lat="47.81437" lon="-2.38606">
        <ele>17.44</ele>
        <time>2012-08-28T10:51:37Z</time>
      </trkpt>
      <trkpt lat="47.81437" lon="-2.38604">
        <ele>16.96</ele>
        <time>2012-08-28T10:51:54Z</time>
      </trkpt>
      <trkpt lat="47.81436" lon="-2.38602">
        <ele>16.96</ele>
        <time>2012-08-28T10:52:01Z</time>
      </trkpt>
      <trkpt lat="47.81431" lon="-2.38595">
        <ele>16</ele>
        <time>2012-08-28T10:52:08Z</time>
      </trkpt>
      <trkpt lat="47.81419" lon="-2.38579">
        <ele>14.08</ele>
        <time>2012-08-28T10:52:15Z</time>
      </trkpt>
      <trkpt lat="47.81401" lon="-2.38555">
        <ele>12.63</ele>
        <time>2012-08-28T10:52:24Z</time>
      </trkpt>
      <trkpt lat="47.81379" lon="-2.38526">
        <ele>11.67</ele>
        <time>2012-08-28T10:52:33Z</time>
      </trkpt>
      <trkpt lat="47.81361" lon="-2.38501">
        <ele>11.19</ele>
        <time>2012-08-28T10:52:41Z</time>
      </trkpt>
      <trkpt lat="47.81343" lon="-2.38477">
        <ele>11.19</ele>
        <time>2012-08-28T10:52:49Z</time>
      </trkpt>
      <trkpt lat="47.81318" lon="-2.38447">
        <ele>10.23</ele>
        <time>2012-08-28T10:52:59Z</time>
      </trkpt>
      <trkpt lat="47.81296" lon="-2.38417">
        <ele>11.19</ele>
        <time>2012-08-28T10:53:08Z</time>
      </trkpt>
      <trkpt lat="47.81277" lon="-2.38394">
        <ele>11.67</ele>
        <time>2012-08-28T10:53:16Z</time>
      </trkpt>
      <trkpt lat="47.81271" lon="-2.3839">
        <ele>12.63</ele>
        <time>2012-08-28T10:53:21Z</time>
      </trkpt>
      <trkpt lat="47.8127" lon="-2.38389">
        <ele>12.63</ele>
        <time>2012-08-28T10:53:33Z</time>
      </trkpt>
      <trkpt lat="47.81269" lon="-2.38386">
        <ele>13.12</ele>
        <time>2012-08-28T10:53:35Z</time>
      </trkpt>
      <trkpt lat="47.81259" lon="-2.38372">
        <ele>12.15</ele>
        <time>2012-08-28T10:53:43Z</time>
      </trkpt>
      <trkpt lat="47.81247" lon="-2.38356">
        <ele>10.23</ele>
        <time>2012-08-28T10:53:52Z</time>
      </trkpt>
      <trkpt lat="47.8124" lon="-2.38349">
        <ele>9.75</ele>
        <time>2012-08-28T10:54:03Z</time>
      </trkpt>
      <trkpt lat="47.81239" lon="-2.3835">
        <ele>9.27</ele>
        <time>2012-08-28T10:54:18Z</time>
      </trkpt>
      <trkpt lat="47.81239" lon="-2.38348">
        <ele>9.27</ele>
        <time>2012-08-28T10:54:21Z</time>
      </trkpt>
      <trkpt lat="47.81237" lon="-2.38343">
        <ele>8.79</ele>
        <time>2012-08-28T10:54:26Z</time>
      </trkpt>
      <trkpt lat="47.81229" lon="-2.38334">
        <ele>9.75</ele>
        <time>2012-08-28T10:54:34Z</time>
      </trkpt>
      <trkpt lat="47.81227" lon="-2.3833">
        <ele>10.23</ele>
        <time>2012-08-28T10:54:36Z</time>
      </trkpt>
      <trkpt lat="47.81216" lon="-2.38316">
        <ele>12.63</ele>
        <time>2012-08-28T10:54:44Z</time>
      </trkpt>
      <trkpt lat="47.8121" lon="-2.38309">
        <ele>11.19</ele>
        <time>2012-08-28T10:54:50Z</time>
      </trkpt>
      <trkpt lat="47.81207" lon="-2.38306">
        <ele>11.19</ele>
        <time>2012-08-28T10:54:53Z</time>
      </trkpt>
      <trkpt lat="47.81197" lon="-2.38298">
        <ele>10.71</ele>
        <time>2012-08-28T10:55:00Z</time>
      </trkpt>
      <trkpt lat="47.81183" lon="-2.3832">
        <ele>11.19</ele>
        <time>2012-08-28T10:55:07Z</time>
      </trkpt>
      <trkpt lat="47.81181" lon="-2.38323">
        <ele>11.19</ele>
        <time>2012-08-28T10:55:08Z</time>
      </trkpt>
      <trkpt lat="47.81163" lon="-2.38344">
        <ele>11.19</ele>
        <time>2012-08-28T10:55:16Z</time>
      </trkpt>
      <trkpt lat="47.81143" lon="-2.38352">
        <ele>11.19</ele>
        <time>2012-08-28T10:55:23Z</time>
      </trkpt>
      <trkpt lat="47.81121" lon="-2.38359">
        <ele>13.12</ele>
        <time>2012-08-28T10:55:32Z</time>
      </trkpt>
      <trkpt lat="47.81111" lon="-2.38374">
        <ele>14.08</ele>
        <time>2012-08-28T10:55:39Z</time>
      </trkpt>
      <trkpt lat="47.81104" lon="-2.38385">
        <ele>14.56</ele>
        <time>2012-08-28T10:55:44Z</time>
      </trkpt>
      <trkpt lat="47.81107" lon="-2.38396">
        <ele>15.04</ele>
        <time>2012-08-28T10:55:49Z</time>
      </trkpt>
      <trkpt lat="47.81124" lon="-2.3843">
        <ele>14.08</ele>
        <time>2012-08-28T10:55:59Z</time>
      </trkpt>
      <trkpt lat="47.8114" lon="-2.38458">
        <ele>13.6</ele>
        <time>2012-08-28T10:56:08Z</time>
      </trkpt>
      <trkpt lat="47.81142" lon="-2.38463">
        <ele>13.6</ele>
        <time>2012-08-28T10:56:14Z</time>
      </trkpt>
      <trkpt lat="47.81142" lon="-2.38463">
        <ele>13.6</ele>
        <time>2012-08-28T10:56:27Z</time>
      </trkpt>
      <trkpt lat="47.81142" lon="-2.38464">
        <ele>14.56</ele>
        <time>2012-08-28T10:56:42Z</time>
      </trkpt>
      <trkpt lat="47.81143" lon="-2.38463">
        <ele>15.52</ele>
        <time>2012-08-28T10:56:53Z</time>
      </trkpt>
      <trkpt lat="47.81144" lon="-2.38462">
        <ele>16</ele>
        <time>2012-08-28T10:57:07Z</time>
      </trkpt>
      <trkpt lat="47.81144" lon="-2.38463">
        <ele>17.44</ele>
        <time>2012-08-28T10:57:17Z</time>
      </trkpt>
      <trkpt lat="47.81144" lon="-2.38464">
        <ele>18.4</ele>
        <time>2012-08-28T10:57:34Z</time>
      </trkpt>
      <trkpt lat="47.81137" lon="-2.38468">
        <ele>16.48</ele>
        <time>2012-08-28T10:57:41Z</time>
      </trkpt>
      <trkpt lat="47.81137" lon="-2.38468">
        <ele>15.52</ele>
        <time>2012-08-28T10:57:53Z</time>
      </trkpt>
      <trkpt lat="47.81137" lon="-2.38468">
        <ele>15.52</ele>
        <time>2012-08-28T10:58:09Z</time>
      </trkpt>
      <trkpt lat="47.81137" lon="-2.38468">
        <ele>15.52</ele>
        <time>2012-08-28T10:58:23Z</time>
      </trkpt>
      <trkpt lat="47.81136" lon="-2.38468">
        <ele>15.52</ele>
        <time>2012-08-28T10:58:38Z</time>
      </trkpt>
      <trkpt lat="47.81136" lon="-2.38469">
        <ele>16</ele>
        <time>2012-08-28T10:58:52Z</time>
      </trkpt>
      <trkpt lat="47.81135" lon="-2.38469">
        <ele>16.48</ele>
        <time>2012-08-28T10:59:07Z</time>
      </trkpt>
      <trkpt lat="47.81135" lon="-2.38469">
        <ele>16</ele>
        <time>2012-08-28T10:59:18Z</time>
      </trkpt>
      <trkpt lat="47.81135" lon="-2.38469">
        <ele>16</ele>
        <time>2012-08-28T10:59:32Z</time>
      </trkpt>
      <trkpt lat="47.81137" lon="-2.3847">
        <ele>16</ele>
        <time>2012-08-28T10:59:36Z</time>
      </trkpt>
      <trkpt lat="47.81145" lon="-2.38479">
        <ele>16</ele>
        <time>2012-08-28T10:59:43Z</time>
      </trkpt>
      <trkpt lat="47.81158" lon="-2.38508">
        <ele>14.56</ele>
        <time>2012-08-28T10:59:52Z</time>
      </trkpt>
      <trkpt lat="47.81172" lon="-2.38534">
        <ele>14.56</ele>
        <time>2012-08-28T11:00:00Z</time>
      </trkpt>
      <trkpt lat="47.81192" lon="-2.38564">
        <ele>14.56</ele>
        <time>2012-08-28T11:00:09Z</time>
      </trkpt>
      <trkpt lat="47.81211" lon="-2.38599">
        <ele>14.56</ele>
        <time>2012-08-28T11:00:18Z</time>
      </trkpt>
      <trkpt lat="47.81224" lon="-2.38638">
        <ele>14.56</ele>
        <time>2012-08-28T11:00:26Z</time>
      </trkpt>
      <trkpt lat="47.81234" lon="-2.38677">
        <ele>14.56</ele>
        <time>2012-08-28T11:00:34Z</time>
      </trkpt>
      <trkpt lat="47.81244" lon="-2.3871">
        <ele>14.56</ele>
        <time>2012-08-28T11:00:41Z</time>
      </trkpt>
      <trkpt lat="47.81258" lon="-2.38755">
        <ele>14.08</ele>
        <time>2012-08-28T11:00:50Z</time>
      </trkpt>
      <trkpt lat="47.81273" lon="-2.38793">
        <ele>14.08</ele>
        <time>2012-08-28T11:00:58Z</time>
      </trkpt>
      <trkpt lat="47.81294" lon="-2.38834">
        <ele>13.12</ele>
        <time>2012-08-28T11:01:07Z</time>
      </trkpt>
      <trkpt lat="47.81326" lon="-2.38871">
        <ele>12.63</ele>
        <time>2012-08-28T11:01:18Z</time>
      </trkpt>
      <trkpt lat="47.81353" lon="-2.38903">
        <ele>13.12</ele>
        <time>2012-08-28T11:01:27Z</time>
      </trkpt>
      <trkpt lat="47.81376" lon="-2.3895">
        <ele>14.08</ele>
        <time>2012-08-28T11:01:38Z</time>
      </trkpt>
      <trkpt lat="47.81396" lon="-2.39011">
        <ele>14.08</ele>
        <time>2012-08-28T11:01:49Z</time>
      </trkpt>
      <trkpt lat="47.81414" lon="-2.39075">
        <ele>13.12</ele>
        <time>2012-08-28T11:01:58Z</time>
      </trkpt>
      <trkpt lat="47.81439" lon="-2.39153">
        <ele>12.15</ele>
        <time>2012-08-28T11:02:09Z</time>
      </trkpt>
      <trkpt lat="47.81458" lon="-2.39218">
        <ele>10.71</ele>
        <time>2012-08-28T11:02:19Z</time>
      </trkpt>
      <trkpt lat="47.81477" lon="-2.39276">
        <ele>8.79</ele>
        <time>2012-08-28T11:02:29Z</time>
      </trkpt>
      <trkpt lat="47.81492" lon="-2.3933">
        <ele>8.31</ele>
        <time>2012-08-28T11:02:38Z</time>
      </trkpt>
      <trkpt lat="47.81508" lon="-2.39387">
        <ele>9.27</ele>
        <time>2012-08-28T11:02:48Z</time>
      </trkpt>
      <trkpt lat="47.81526" lon="-2.39449">
        <ele>10.71</ele>
        <time>2012-08-28T11:02:59Z</time>
      </trkpt>
      <trkpt lat="47.81547" lon="-2.39523">
        <ele>12.15</ele>
        <time>2012-08-28T11:03:12Z</time>
      </trkpt>
      <trkpt lat="47.81568" lon="-2.39586">
        <ele>14.56</ele>
        <time>2012-08-28T11:03:23Z</time>
      </trkpt>
      <trkpt lat="47.81589" lon="-2.39637">
        <ele>16.96</ele>
        <time>2012-08-28T11:03:32Z</time>
      </trkpt>
      <trkpt lat="47.81622" lon="-2.39696">
        <ele>17.92</ele>
        <time>2012-08-28T11:03:43Z</time>
      </trkpt>
      <trkpt lat="47.81662" lon="-2.39752">
        <ele>18.88</ele>
        <time>2012-08-28T11:03:54Z</time>
      </trkpt>
      <trkpt lat="47.81706" lon="-2.39796">
        <ele>18.88</ele>
        <time>2012-08-28T11:04:04Z</time>
      </trkpt>
      <trkpt lat="47.81756" lon="-2.39833">
        <ele>18.88</ele>
        <time>2012-08-28T11:04:14Z</time>
      </trkpt>
      <trkpt lat="47.81804" lon="-2.39862">
        <ele>18.4</ele>
        <time>2012-08-28T11:04:23Z</time>
      </trkpt>
      <trkpt lat="47.81848" lon="-2.39887">
        <ele>19.36</ele>
        <time>2012-08-28T11:04:32Z</time>
      </trkpt>
      <trkpt lat="47.81887" lon="-2.39908">
        <ele>20.32</ele>
        <time>2012-08-28T11:04:41Z</time>
      </trkpt>
      <trkpt lat="47.81925" lon="-2.39928">
        <ele>22.25</ele>
        <time>2012-08-28T11:04:50Z</time>
      </trkpt>
      <trkpt lat="47.81959" lon="-2.39946">
        <ele>24.65</ele>
        <time>2012-08-28T11:04:58Z</time>
      </trkpt>
      <trkpt lat="47.81989" lon="-2.39968">
        <ele>27.53</ele>
        <time>2012-08-28T11:05:06Z</time>
      </trkpt>
      <trkpt lat="47.82018" lon="-2.40005">
        <ele>29.94</ele>
        <time>2012-08-28T11:05:15Z</time>
      </trkpt>
      <trkpt lat="47.82053" lon="-2.40057">
        <ele>31.86</ele>
        <time>2012-08-28T11:05:27Z</time>
      </trkpt>
      <trkpt lat="47.82078" lon="-2.40094">
        <ele>31.86</ele>
        <time>2012-08-28T11:05:36Z</time>
      </trkpt>
      <trkpt lat="47.82107" lon="-2.40136">
        <ele>32.34</ele>
        <time>2012-08-28T11:05:46Z</time>
      </trkpt>
      <trkpt lat="47.82139" lon="-2.40182">
        <ele>32.34</ele>
        <time>2012-08-28T11:05:56Z</time>
      </trkpt>
      <trkpt lat="47.82171" lon="-2.40232">
        <ele>31.86</ele>
        <time>2012-08-28T11:06:05Z</time>
      </trkpt>
      <trkpt lat="47.82201" lon="-2.4029">
        <ele>30.42</ele>
        <time>2012-08-28T11:06:14Z</time>
      </trkpt>
      <trkpt lat="47.82228" lon="-2.40368">
        <ele>28.98</ele>
        <time>2012-08-28T11:06:25Z</time>
      </trkpt>
      <trkpt lat="47.82246" lon="-2.40425">
        <ele>27.53</ele>
        <time>2012-08-28T11:06:33Z</time>
      </trkpt>
      <trkpt lat="47.82277" lon="-2.40497">
        <ele>25.61</ele>
        <time>2012-08-28T11:06:44Z</time>
      </trkpt>
      <trkpt lat="47.82305" lon="-2.40568">
        <ele>23.69</ele>
        <time>2012-08-28T11:06:53Z</time>
      </trkpt>
      <trkpt lat="47.82329" lon="-2.4065">
        <ele>21.77</ele>
        <time>2012-08-28T11:07:02Z</time>
      </trkpt>
      <trkpt lat="47.82347" lon="-2.40728">
        <ele>18.88</ele>
        <time>2012-08-28T11:07:11Z</time>
      </trkpt>
      <trkpt lat="47.82356" lon="-2.408">
        <ele>16.96</ele>
        <time>2012-08-28T11:07:20Z</time>
      </trkpt>
      <trkpt lat="47.82359" lon="-2.40866">
        <ele>15.04</ele>
        <time>2012-08-28T11:07:29Z</time>
      </trkpt>
      <trkpt lat="47.82361" lon="-2.40936">
        <ele>14.56</ele>
        <time>2012-08-28T11:07:38Z</time>
      </trkpt>
      <trkpt lat="47.82363" lon="-2.41011">
        <ele>15.52</ele>
        <time>2012-08-28T11:07:48Z</time>
      </trkpt>
      <trkpt lat="47.82366" lon="-2.41084">
        <ele>16</ele>
        <time>2012-08-28T11:07:58Z</time>
      </trkpt>
      <trkpt lat="47.82378" lon="-2.41167">
        <ele>18.88</ele>
        <time>2012-08-28T11:08:10Z</time>
      </trkpt>
      <trkpt lat="47.82381" lon="-2.41179">
        <ele>18.88</ele>
        <time>2012-08-28T11:08:12Z</time>
      </trkpt>
      <trkpt lat="47.82393" lon="-2.41245">
        <ele>20.32</ele>
        <time>2012-08-28T11:08:22Z</time>
      </trkpt>
      <trkpt lat="47.82405" lon="-2.41303">
        <ele>21.29</ele>
        <time>2012-08-28T11:08:31Z</time>
      </trkpt>
      <trkpt lat="47.82418" lon="-2.41364">
        <ele>21.29</ele>
        <time>2012-08-28T11:08:40Z</time>
      </trkpt>
      <trkpt lat="47.8243" lon="-2.41425">
        <ele>21.77</ele>
        <time>2012-08-28T11:08:49Z</time>
      </trkpt>
      <trkpt lat="47.82443" lon="-2.41474">
        <ele>21.29</ele>
        <time>2012-08-28T11:08:57Z</time>
      </trkpt>
      <trkpt lat="47.82454" lon="-2.41526">
        <ele>19.36</ele>
        <time>2012-08-28T11:09:04Z</time>
      </trkpt>
      <trkpt lat="47.82469" lon="-2.41597">
        <ele>17.44</ele>
        <time>2012-08-28T11:09:13Z</time>
      </trkpt>
      <trkpt lat="47.82486" lon="-2.41684">
        <ele>19.36</ele>
        <time>2012-08-28T11:09:24Z</time>
      </trkpt>
      <trkpt lat="47.82503" lon="-2.41763">
        <ele>22.25</ele>
        <time>2012-08-28T11:09:35Z</time>
      </trkpt>
      <trkpt lat="47.8252" lon="-2.41839">
        <ele>25.61</ele>
        <time>2012-08-28T11:09:47Z</time>
      </trkpt>
      <trkpt lat="47.82533" lon="-2.41904">
        <ele>28.5</ele>
        <time>2012-08-28T11:09:59Z</time>
      </trkpt>
      <trkpt lat="47.82544" lon="-2.41962">
        <ele>29.94</ele>
        <time>2012-08-28T11:10:10Z</time>
      </trkpt>
      <trkpt lat="47.82545" lon="-2.41972">
        <ele>30.42</ele>
        <time>2012-08-28T11:10:12Z</time>
      </trkpt>
      <trkpt lat="47.82552" lon="-2.41977">
        <ele>30.42</ele>
        <time>2012-08-28T11:10:16Z</time>
      </trkpt>
      <trkpt lat="47.82565" lon="-2.41979">
        <ele>30.42</ele>
        <time>2012-08-28T11:10:21Z</time>
      </trkpt>
      <trkpt lat="47.82581" lon="-2.4198">
        <ele>29.94</ele>
        <time>2012-08-28T11:10:26Z</time>
      </trkpt>
      <trkpt lat="47.82596" lon="-2.4198">
        <ele>29.94</ele>
        <time>2012-08-28T11:10:30Z</time>
      </trkpt>
      <trkpt lat="47.82628" lon="-2.41977">
        <ele>29.46</ele>
        <time>2012-08-28T11:10:38Z</time>
      </trkpt>
      <trkpt lat="47.82666" lon="-2.41975">
        <ele>28.98</ele>
        <time>2012-08-28T11:10:45Z</time>
      </trkpt>
      <trkpt lat="47.82709" lon="-2.41972">
        <ele>28.5</ele>
        <time>2012-08-28T11:10:52Z</time>
      </trkpt>
      <trkpt lat="47.82751" lon="-2.41971">
        <ele>28.98</ele>
        <time>2012-08-28T11:10:59Z</time>
      </trkpt>
      <trkpt lat="47.8279" lon="-2.41967">
        <ele>28.5</ele>
        <time>2012-08-28T11:11:05Z</time>
      </trkpt>
      <trkpt lat="47.82843" lon="-2.41966">
        <ele>28.02</ele>
        <time>2012-08-28T11:11:13Z</time>
      </trkpt>
      <trkpt lat="47.82903" lon="-2.41964">
        <ele>28.02</ele>
        <time>2012-08-28T11:11:22Z</time>
      </trkpt>
      <trkpt lat="47.82943" lon="-2.41968">
        <ele>27.53</ele>
        <time>2012-08-28T11:11:28Z</time>
      </trkpt>
      <trkpt lat="47.82997" lon="-2.41975">
        <ele>27.05</ele>
        <time>2012-08-28T11:11:36Z</time>
      </trkpt>
      <trkpt lat="47.83053" lon="-2.41986">
        <ele>26.09</ele>
        <time>2012-08-28T11:11:44Z</time>
      </trkpt>
      <trkpt lat="47.83082" lon="-2.41995">
        <ele>25.13</ele>
        <time>2012-08-28T11:11:48Z</time>
      </trkpt>
      <trkpt lat="47.83144" lon="-2.42019">
        <ele>23.69</ele>
        <time>2012-08-28T11:11:57Z</time>
      </trkpt>
      <trkpt lat="47.832" lon="-2.42045">
        <ele>21.29</ele>
        <time>2012-08-28T11:12:05Z</time>
      </trkpt>
      <trkpt lat="47.83253" lon="-2.42078">
        <ele>18.88</ele>
        <time>2012-08-28T11:12:13Z</time>
      </trkpt>
      <trkpt lat="47.83308" lon="-2.42118">
        <ele>16.48</ele>
        <time>2012-08-28T11:12:21Z</time>
      </trkpt>
      <trkpt lat="47.83364" lon="-2.42166">
        <ele>14.08</ele>
        <time>2012-08-28T11:12:30Z</time>
      </trkpt>
      <trkpt lat="47.83404" lon="-2.42206">
        <ele>13.12</ele>
        <time>2012-08-28T11:12:37Z</time>
      </trkpt>
      <trkpt lat="47.83444" lon="-2.42251">
        <ele>14.56</ele>
        <time>2012-08-28T11:12:45Z</time>
      </trkpt>
      <trkpt lat="47.83457" lon="-2.42266">
        <ele>14.56</ele>
        <time>2012-08-28T11:12:48Z</time>
      </trkpt>
      <trkpt lat="47.8347" lon="-2.42274">
        <ele>14.56</ele>
        <time>2012-08-28T11:12:52Z</time>
      </trkpt>
      <trkpt lat="47.83486" lon="-2.42297">
        <ele>14.08</ele>
        <time>2012-08-28T11:12:59Z</time>
      </trkpt>
      <trkpt lat="47.83516" lon="-2.42338">
        <ele>13.6</ele>
        <time>2012-08-28T11:13:08Z</time>
      </trkpt>
      <trkpt lat="47.83553" lon="-2.42395">
        <ele>13.6</ele>
        <time>2012-08-28T11:13:18Z</time>
      </trkpt>
      <trkpt lat="47.83597" lon="-2.4247">
        <ele>15.04</ele>
        <time>2012-08-28T11:13:30Z</time>
      </trkpt>
      <trkpt lat="47.83626" lon="-2.42521">
        <ele>14.56</ele>
        <time>2012-08-28T11:13:38Z</time>
      </trkpt>
      <trkpt lat="47.83666" lon="-2.42594">
        <ele>13.12</ele>
        <time>2012-08-28T11:13:49Z</time>
      </trkpt>
      <trkpt lat="47.83705" lon="-2.42664">
        <ele>13.12</ele>
        <time>2012-08-28T11:13:59Z</time>
      </trkpt>
      <trkpt lat="47.83712" lon="-2.42678">
        <ele>12.63</ele>
        <time>2012-08-28T11:14:01Z</time>
      </trkpt>
      <trkpt lat="47.83743" lon="-2.42729">
        <ele>12.63</ele>
        <time>2012-08-28T11:14:09Z</time>
      </trkpt>
      <trkpt lat="47.83781" lon="-2.42804">
        <ele>13.6</ele>
        <time>2012-08-28T11:14:20Z</time>
      </trkpt>
      <trkpt lat="47.83807" lon="-2.42852">
        <ele>15.04</ele>
        <time>2012-08-28T11:14:27Z</time>
      </trkpt>
      <trkpt lat="47.83831" lon="-2.42896">
        <ele>16</ele>
        <time>2012-08-28T11:14:34Z</time>
      </trkpt>
      <trkpt lat="47.83865" lon="-2.42958">
        <ele>17.92</ele>
        <time>2012-08-28T11:14:44Z</time>
      </trkpt>
      <trkpt lat="47.83888" lon="-2.43">
        <ele>17.44</ele>
        <time>2012-08-28T11:14:51Z</time>
      </trkpt>
      <trkpt lat="47.83921" lon="-2.43057">
        <ele>16.48</ele>
        <time>2012-08-28T11:15:01Z</time>
      </trkpt>
      <trkpt lat="47.83952" lon="-2.43114">
        <ele>16.48</ele>
        <time>2012-08-28T11:15:11Z</time>
      </trkpt>
      <trkpt lat="47.83967" lon="-2.43141">
        <ele>16.48</ele>
        <time>2012-08-28T11:15:16Z</time>
      </trkpt>
      <trkpt lat="47.83988" lon="-2.43178">
        <ele>16.48</ele>
        <time>2012-08-28T11:15:23Z</time>
      </trkpt>
      <trkpt lat="47.84015" lon="-2.43231">
        <ele>18.88</ele>
        <time>2012-08-28T11:15:32Z</time>
      </trkpt>
      <trkpt lat="47.84044" lon="-2.43285">
        <ele>18.4</ele>
        <time>2012-08-28T11:15:40Z</time>
      </trkpt>
      <trkpt lat="47.84078" lon="-2.43344">
        <ele>16.48</ele>
        <time>2012-08-28T11:15:49Z</time>
      </trkpt>
      <trkpt lat="47.84104" lon="-2.43387">
        <ele>15.04</ele>
        <time>2012-08-28T11:15:56Z</time>
      </trkpt>
      <trkpt lat="47.8414" lon="-2.43444">
        <ele>14.08</ele>
        <time>2012-08-28T11:16:05Z</time>
      </trkpt>
      <trkpt lat="47.84178" lon="-2.43499">
        <ele>14.56</ele>
        <time>2012-08-28T11:16:14Z</time>
      </trkpt>
      <trkpt lat="47.84216" lon="-2.43549">
        <ele>13.12</ele>
        <time>2012-08-28T11:16:23Z</time>
      </trkpt>
      <trkpt lat="47.8426" lon="-2.43602">
        <ele>11.19</ele>
        <time>2012-08-28T11:16:33Z</time>
      </trkpt>
      <trkpt lat="47.843" lon="-2.43646">
        <ele>11.19</ele>
        <time>2012-08-28T11:16:42Z</time>
      </trkpt>
      <trkpt lat="47.84323" lon="-2.43671">
        <ele>12.15</ele>
        <time>2012-08-28T11:16:47Z</time>
      </trkpt>
      <trkpt lat="47.84356" lon="-2.43704">
        <ele>12.15</ele>
        <time>2012-08-28T11:16:54Z</time>
      </trkpt>
      <trkpt lat="47.84389" lon="-2.43736">
        <ele>12.63</ele>
        <time>2012-08-28T11:17:01Z</time>
      </trkpt>
      <trkpt lat="47.84418" lon="-2.43762">
        <ele>14.08</ele>
        <time>2012-08-28T11:17:07Z</time>
      </trkpt>
      <trkpt lat="47.84462" lon="-2.43801">
        <ele>15.52</ele>
        <time>2012-08-28T11:17:16Z</time>
      </trkpt>
      <trkpt lat="47.84497" lon="-2.43828">
        <ele>15.52</ele>
        <time>2012-08-28T11:17:23Z</time>
      </trkpt>
      <trkpt lat="47.84501" lon="-2.43831">
        <ele>16</ele>
        <time>2012-08-28T11:17:24Z</time>
      </trkpt>
      <trkpt lat="47.84546" lon="-2.43863">
        <ele>15.04</ele>
        <time>2012-08-28T11:17:33Z</time>
      </trkpt>
      <trkpt lat="47.84585" lon="-2.43888">
        <ele>15.04</ele>
        <time>2012-08-28T11:17:41Z</time>
      </trkpt>
      <trkpt lat="47.84626" lon="-2.43912">
        <ele>15.52</ele>
        <time>2012-08-28T11:17:49Z</time>
      </trkpt>
      <trkpt lat="47.84672" lon="-2.43936">
        <ele>15.52</ele>
        <time>2012-08-28T11:17:58Z</time>
      </trkpt>
      <trkpt lat="47.84714" lon="-2.43958">
        <ele>15.52</ele>
        <time>2012-08-28T11:18:06Z</time>
      </trkpt>
      <trkpt lat="47.84724" lon="-2.43963">
        <ele>15.04</ele>
        <time>2012-08-28T11:18:08Z</time>
      </trkpt>
      <trkpt lat="47.84743" lon="-2.43965">
        <ele>15.04</ele>
        <time>2012-08-28T11:18:13Z</time>
      </trkpt>
      <trkpt lat="47.84748" lon="-2.4397">
        <ele>15.52</ele>
        <time>2012-08-28T11:18:15Z</time>
      </trkpt>
      <trkpt lat="47.84761" lon="-2.43975">
        <ele>15.04</ele>
        <time>2012-08-28T11:18:19Z</time>
      </trkpt>
      <trkpt lat="47.8481" lon="-2.43991">
        <ele>15.52</ele>
        <time>2012-08-28T11:18:30Z</time>
      </trkpt>
      <trkpt lat="47.84849" lon="-2.44004">
        <ele>16.48</ele>
        <time>2012-08-28T11:18:38Z</time>
      </trkpt>
      <trkpt lat="47.8488" lon="-2.44012">
        <ele>16.48</ele>
        <time>2012-08-28T11:18:44Z</time>
      </trkpt>
      <trkpt lat="47.84924" lon="-2.44023">
        <ele>16</ele>
        <time>2012-08-28T11:18:52Z</time>
      </trkpt>
      <trkpt lat="47.84967" lon="-2.44029">
        <ele>15.52</ele>
        <time>2012-08-28T11:19:00Z</time>
      </trkpt>
      <trkpt lat="47.85024" lon="-2.44035">
        <ele>16.96</ele>
        <time>2012-08-28T11:19:10Z</time>
      </trkpt>
      <trkpt lat="47.85075" lon="-2.44037">
        <ele>16.96</ele>
        <time>2012-08-28T11:19:19Z</time>
      </trkpt>
      <trkpt lat="47.85126" lon="-2.44037">
        <ele>16.48</ele>
        <time>2012-08-28T11:19:28Z</time>
      </trkpt>
      <trkpt lat="47.8519" lon="-2.44032">
        <ele>17.92</ele>
        <time>2012-08-28T11:19:39Z</time>
      </trkpt>
      <trkpt lat="47.8524" lon="-2.44025">
        <ele>17.92</ele>
        <time>2012-08-28T11:19:48Z</time>
      </trkpt>
      <trkpt lat="47.85278" lon="-2.44023">
        <ele>17.44</ele>
        <time>2012-08-28T11:19:55Z</time>
      </trkpt>
      <trkpt lat="47.85292" lon="-2.44017">
        <ele>17.44</ele>
        <time>2012-08-28T11:19:59Z</time>
      </trkpt>
      <trkpt lat="47.85313" lon="-2.44019">
        <ele>16.96</ele>
        <time>2012-08-28T11:20:05Z</time>
      </trkpt>
      <trkpt lat="47.85357" lon="-2.44011">
        <ele>16</ele>
        <time>2012-08-28T11:20:14Z</time>
      </trkpt>
      <trkpt lat="47.85382" lon="-2.44008">
        <ele>16</ele>
        <time>2012-08-28T11:20:19Z</time>
      </trkpt>
      <trkpt lat="47.85436" lon="-2.44001">
        <ele>15.52</ele>
        <time>2012-08-28T11:20:29Z</time>
      </trkpt>
      <trkpt lat="47.85452" lon="-2.43999">
        <ele>15.52</ele>
        <time>2012-08-28T11:20:32Z</time>
      </trkpt>
      <trkpt lat="47.85504" lon="-2.43992">
        <ele>15.52</ele>
        <time>2012-08-28T11:20:41Z</time>
      </trkpt>
      <trkpt lat="47.85542" lon="-2.43985">
        <ele>16</ele>
        <time>2012-08-28T11:20:48Z</time>
      </trkpt>
      <trkpt lat="47.85558" lon="-2.43983">
        <ele>16.48</ele>
        <time>2012-08-28T11:20:51Z</time>
      </trkpt>
      <trkpt lat="47.85604" lon="-2.43977">
        <ele>18.4</ele>
        <time>2012-08-28T11:20:59Z</time>
      </trkpt>
      <trkpt lat="47.85635" lon="-2.43974">
        <ele>19.36</ele>
        <time>2012-08-28T11:21:05Z</time>
      </trkpt>
      <trkpt lat="47.8568" lon="-2.43968">
        <ele>19.84</ele>
        <time>2012-08-28T11:21:13Z</time>
      </trkpt>
      <trkpt lat="47.8572" lon="-2.43963">
        <ele>20.81</ele>
        <time>2012-08-28T11:21:20Z</time>
      </trkpt>
      <trkpt lat="47.85772" lon="-2.43956">
        <ele>20.32</ele>
        <time>2012-08-28T11:21:29Z</time>
      </trkpt>
      <trkpt lat="47.85815" lon="-2.43951">
        <ele>20.81</ele>
        <time>2012-08-28T11:21:37Z</time>
      </trkpt>
      <trkpt lat="47.85829" lon="-2.4395">
        <ele>20.81</ele>
        <time>2012-08-28T11:21:40Z</time>
      </trkpt>
      <trkpt lat="47.85833" lon="-2.43948">
        <ele>20.81</ele>
        <time>2012-08-28T11:21:41Z</time>
      </trkpt>
      <trkpt lat="47.85836" lon="-2.43946">
        <ele>20.81</ele>
        <time>2012-08-28T11:21:42Z</time>
      </trkpt>
      <trkpt lat="47.85843" lon="-2.43946">
        <ele>20.81</ele>
        <time>2012-08-28T11:21:44Z</time>
      </trkpt>
      <trkpt lat="47.85862" lon="-2.43947">
        <ele>20.32</ele>
        <time>2012-08-28T11:21:50Z</time>
      </trkpt>
      <trkpt lat="47.85901" lon="-2.4394">
        <ele>20.32</ele>
        <time>2012-08-28T11:21:58Z</time>
      </trkpt>
      <trkpt lat="47.85958" lon="-2.43933">
        <ele>20.81</ele>
        <time>2012-08-28T11:22:09Z</time>
      </trkpt>
      <trkpt lat="47.86002" lon="-2.43928">
        <ele>21.29</ele>
        <time>2012-08-28T11:22:17Z</time>
      </trkpt>
      <trkpt lat="47.86051" lon="-2.4392">
        <ele>21.29</ele>
        <time>2012-08-28T11:22:26Z</time>
      </trkpt>
      <trkpt lat="47.86108" lon="-2.43912">
        <ele>21.77</ele>
        <time>2012-08-28T11:22:36Z</time>
      </trkpt>
      <trkpt lat="47.86159" lon="-2.43905">
        <ele>21.77</ele>
        <time>2012-08-28T11:22:45Z</time>
      </trkpt>
      <trkpt lat="47.86217" lon="-2.43897">
        <ele>21.77</ele>
        <time>2012-08-28T11:22:55Z</time>
      </trkpt>
      <trkpt lat="47.86268" lon="-2.4389">
        <ele>21.77</ele>
        <time>2012-08-28T11:23:04Z</time>
      </trkpt>
      <trkpt lat="47.86319" lon="-2.43884">
        <ele>23.21</ele>
        <time>2012-08-28T11:23:13Z</time>
      </trkpt>
      <trkpt lat="47.86359" lon="-2.4388">
        <ele>22.73</ele>
        <time>2012-08-28T11:23:20Z</time>
      </trkpt>
      <trkpt lat="47.86419" lon="-2.43872">
        <ele>22.73</ele>
        <time>2012-08-28T11:23:30Z</time>
      </trkpt>
      <trkpt lat="47.86429" lon="-2.43871">
        <ele>22.25</ele>
        <time>2012-08-28T11:23:32Z</time>
      </trkpt>
      <trkpt lat="47.86449" lon="-2.43869">
        <ele>22.25</ele>
        <time>2012-08-28T11:23:36Z</time>
      </trkpt>
      <trkpt lat="47.86463" lon="-2.43861">
        <ele>22.25</ele>
        <time>2012-08-28T11:23:40Z</time>
      </trkpt>
      <trkpt lat="47.86466" lon="-2.43862">
        <ele>22.25</ele>
        <time>2012-08-28T11:23:42Z</time>
      </trkpt>
      <trkpt lat="47.8647" lon="-2.43854">
        <ele>22.25</ele>
        <time>2012-08-28T11:23:48Z</time>
      </trkpt>
      <trkpt lat="47.86479" lon="-2.43848">
        <ele>22.73</ele>
        <time>2012-08-28T11:23:54Z</time>
      </trkpt>
      <trkpt lat="47.86496" lon="-2.43846">
        <ele>22.73</ele>
        <time>2012-08-28T11:23:58Z</time>
      </trkpt>
      <trkpt lat="47.86541" lon="-2.4384">
        <ele>22.25</ele>
        <time>2012-08-28T11:24:07Z</time>
      </trkpt>
      <trkpt lat="47.86566" lon="-2.43834">
        <ele>21.77</ele>
        <time>2012-08-28T11:24:12Z</time>
      </trkpt>
      <trkpt lat="47.86579" lon="-2.43837">
        <ele>20.81</ele>
        <time>2012-08-28T11:24:16Z</time>
      </trkpt>
      <trkpt lat="47.86582" lon="-2.43837">
        <ele>20.81</ele>
        <time>2012-08-28T11:24:18Z</time>
      </trkpt>
      <trkpt lat="47.86606" lon="-2.43833">
        <ele>19.84</ele>
        <time>2012-08-28T11:24:24Z</time>
      </trkpt>
      <trkpt lat="47.8661" lon="-2.43831">
        <ele>19.84</ele>
        <time>2012-08-28T11:24:25Z</time>
      </trkpt>
      <trkpt lat="47.86655" lon="-2.43824">
        <ele>18.88</ele>
        <time>2012-08-28T11:24:35Z</time>
      </trkpt>
      <trkpt lat="47.86684" lon="-2.4382">
        <ele>18.88</ele>
        <time>2012-08-28T11:24:42Z</time>
      </trkpt>
      <trkpt lat="47.86691" lon="-2.43812">
        <ele>18.88</ele>
        <time>2012-08-28T11:24:44Z</time>
      </trkpt>
      <trkpt lat="47.86704" lon="-2.43782">
        <ele>19.36</ele>
        <time>2012-08-28T11:24:49Z</time>
      </trkpt>
      <trkpt lat="47.86708" lon="-2.4376">
        <ele>19.36</ele>
        <time>2012-08-28T11:24:52Z</time>
      </trkpt>
      <trkpt lat="47.86713" lon="-2.43746">
        <ele>19.36</ele>
        <time>2012-08-28T11:24:54Z</time>
      </trkpt>
      <trkpt lat="47.86723" lon="-2.43702">
        <ele>19.84</ele>
        <time>2012-08-28T11:25:00Z</time>
      </trkpt>
      <trkpt lat="47.86733" lon="-2.43674">
        <ele>20.81</ele>
        <time>2012-08-28T11:25:04Z</time>
      </trkpt>
      <trkpt lat="47.86766" lon="-2.43595">
        <ele>23.21</ele>
        <time>2012-08-28T11:25:15Z</time>
      </trkpt>
      <trkpt lat="47.8679" lon="-2.43537">
        <ele>24.65</ele>
        <time>2012-08-28T11:25:23Z</time>
      </trkpt>
      <trkpt lat="47.86807" lon="-2.43482">
        <ele>26.09</ele>
        <time>2012-08-28T11:25:32Z</time>
      </trkpt>
      <trkpt lat="47.86813" lon="-2.43472">
        <ele>26.57</ele>
        <time>2012-08-28T11:25:34Z</time>
      </trkpt>
      <trkpt lat="47.86847" lon="-2.43441">
        <ele>26.09</ele>
        <time>2012-08-28T11:25:40Z</time>
      </trkpt>
      <trkpt lat="47.86854" lon="-2.43436">
        <ele>26.09</ele>
        <time>2012-08-28T11:25:41Z</time>
      </trkpt>
      <trkpt lat="47.86896" lon="-2.43397">
        <ele>26.57</ele>
        <time>2012-08-28T11:25:50Z</time>
      </trkpt>
      <trkpt lat="47.86912" lon="-2.43372">
        <ele>27.05</ele>
        <time>2012-08-28T11:25:55Z</time>
      </trkpt>
      <trkpt lat="47.86928" lon="-2.4335">
        <ele>28.02</ele>
        <time>2012-08-28T11:25:59Z</time>
      </trkpt>
      <trkpt lat="47.86963" lon="-2.43295">
        <ele>29.46</ele>
        <time>2012-08-28T11:26:07Z</time>
      </trkpt>
      <trkpt lat="47.86994" lon="-2.43229">
        <ele>29.46</ele>
        <time>2012-08-28T11:26:15Z</time>
      </trkpt>
      <trkpt lat="47.87011" lon="-2.43152">
        <ele>29.94</ele>
        <time>2012-08-28T11:26:25Z</time>
      </trkpt>
      <trkpt lat="47.87014" lon="-2.43137">
        <ele>29.94</ele>
        <time>2012-08-28T11:26:27Z</time>
      </trkpt>
      <trkpt lat="47.87039" lon="-2.4308">
        <ele>29.94</ele>
        <time>2012-08-28T11:26:35Z</time>
      </trkpt>
      <trkpt lat="47.87042" lon="-2.43073">
        <ele>29.94</ele>
        <time>2012-08-28T11:26:36Z</time>
      </trkpt>
      <trkpt lat="47.87077" lon="-2.43008">
        <ele>28.98</ele>
        <time>2012-08-28T11:26:45Z</time>
      </trkpt>
      <trkpt lat="47.87097" lon="-2.42944">
        <ele>28.5</ele>
        <time>2012-08-28T11:26:53Z</time>
      </trkpt>
      <trkpt lat="47.87112" lon="-2.4288">
        <ele>28.02</ele>
        <time>2012-08-28T11:27:01Z</time>
      </trkpt>
      <trkpt lat="47.87117" lon="-2.42865">
        <ele>27.53</ele>
        <time>2012-08-28T11:27:03Z</time>
      </trkpt>
      <trkpt lat="47.87125" lon="-2.42835">
        <ele>27.53</ele>
        <time>2012-08-28T11:27:07Z</time>
      </trkpt>
      <trkpt lat="47.87146" lon="-2.42787">
        <ele>27.53</ele>
        <time>2012-08-28T11:27:15Z</time>
      </trkpt>
      <trkpt lat="47.87156" lon="-2.42763">
        <ele>27.53</ele>
        <time>2012-08-28T11:27:19Z</time>
      </trkpt>
      <trkpt lat="47.87172" lon="-2.42739">
        <ele>28.5</ele>
        <time>2012-08-28T11:27:24Z</time>
      </trkpt>
      <trkpt lat="47.87182" lon="-2.4273">
        <ele>28.5</ele>
        <time>2012-08-28T11:27:26Z</time>
      </trkpt>
      <trkpt lat="47.87213" lon="-2.42717">
        <ele>29.46</ele>
        <time>2012-08-28T11:27:31Z</time>
      </trkpt>
      <trkpt lat="47.87253" lon="-2.42735">
        <ele>28.5</ele>
        <time>2012-08-28T11:27:38Z</time>
      </trkpt>
      <trkpt lat="47.87296" lon="-2.42762">
        <ele>26.57</ele>
        <time>2012-08-28T11:27:46Z</time>
      </trkpt>
      <trkpt lat="47.87343" lon="-2.42779">
        <ele>24.17</ele>
        <time>2012-08-28T11:27:55Z</time>
      </trkpt>
      <trkpt lat="47.87384" lon="-2.42793">
        <ele>23.21</ele>
        <time>2012-08-28T11:28:03Z</time>
      </trkpt>
      <trkpt lat="47.87389" lon="-2.42794">
        <ele>23.21</ele>
        <time>2012-08-28T11:28:04Z</time>
      </trkpt>
      <trkpt lat="47.87436" lon="-2.42799">
        <ele>22.73</ele>
        <time>2012-08-28T11:28:13Z</time>
      </trkpt>
      <trkpt lat="47.87479" lon="-2.42802">
        <ele>21.77</ele>
        <time>2012-08-28T11:28:21Z</time>
      </trkpt>
      <trkpt lat="47.87505" lon="-2.42799">
        <ele>20.32</ele>
        <time>2012-08-28T11:28:26Z</time>
      </trkpt>
      <trkpt lat="47.87541" lon="-2.42783">
        <ele>18.4</ele>
        <time>2012-08-28T11:28:34Z</time>
      </trkpt>
      <trkpt lat="47.87566" lon="-2.42763">
        <ele>16.48</ele>
        <time>2012-08-28T11:28:40Z</time>
      </trkpt>
      <trkpt lat="47.8759" lon="-2.42725">
        <ele>12.63</ele>
        <time>2012-08-28T11:28:48Z</time>
      </trkpt>
      <trkpt lat="47.87627" lon="-2.42662">
        <ele>8.31</ele>
        <time>2012-08-28T11:28:58Z</time>
      </trkpt>
      <trkpt lat="47.87655" lon="-2.42605">
        <ele>6.39</ele>
        <time>2012-08-28T11:29:07Z</time>
      </trkpt>
      <trkpt lat="47.87679" lon="-2.42559">
        <ele>6.87</ele>
        <time>2012-08-28T11:29:15Z</time>
      </trkpt>
      <trkpt lat="47.87709" lon="-2.42512">
        <ele>8.31</ele>
        <time>2012-08-28T11:29:23Z</time>
      </trkpt>
      <trkpt lat="47.87741" lon="-2.42467">
        <ele>10.23</ele>
        <time>2012-08-28T11:29:31Z</time>
      </trkpt>
      <trkpt lat="47.87772" lon="-2.42431">
        <ele>11.19</ele>
        <time>2012-08-28T11:29:38Z</time>
      </trkpt>
      <trkpt lat="47.87798" lon="-2.42408">
        <ele>13.12</ele>
        <time>2012-08-28T11:29:43Z</time>
      </trkpt>
      <trkpt lat="47.87846" lon="-2.4238">
        <ele>15.04</ele>
        <time>2012-08-28T11:29:52Z</time>
      </trkpt>
      <trkpt lat="47.87906" lon="-2.42354">
        <ele>16</ele>
        <time>2012-08-28T11:30:01Z</time>
      </trkpt>
      <trkpt lat="47.87968" lon="-2.42341">
        <ele>18.4</ele>
        <time>2012-08-28T11:30:11Z</time>
      </trkpt>
      <trkpt lat="47.87991" lon="-2.42339">
        <ele>18.88</ele>
        <time>2012-08-28T11:30:15Z</time>
      </trkpt>
      <trkpt lat="47.88054" lon="-2.4233">
        <ele>20.32</ele>
        <time>2012-08-28T11:30:27Z</time>
      </trkpt>
      <trkpt lat="47.88075" lon="-2.42329">
        <ele>20.32</ele>
        <time>2012-08-28T11:30:31Z</time>
      </trkpt>
      <trkpt lat="47.88092" lon="-2.42334">
        <ele>20.81</ele>
        <time>2012-08-28T11:30:34Z</time>
      </trkpt>
      <trkpt lat="47.88119" lon="-2.42343">
        <ele>20.81</ele>
        <time>2012-08-28T11:30:41Z</time>
      </trkpt>
      <trkpt lat="47.8813" lon="-2.42342">
        <ele>20.32</ele>
        <time>2012-08-28T11:30:45Z</time>
      </trkpt>
      <trkpt lat="47.88134" lon="-2.42344">
        <ele>19.36</ele>
        <time>2012-08-28T11:30:49Z</time>
      </trkpt>
      <trkpt lat="47.88133" lon="-2.42346">
        <ele>20.81</ele>
        <time>2012-08-28T11:31:01Z</time>
      </trkpt>
      <trkpt lat="47.88134" lon="-2.42344">
        <ele>20.32</ele>
        <time>2012-08-28T11:31:09Z</time>
      </trkpt>
      <trkpt lat="47.88136" lon="-2.42343">
        <ele>21.77</ele>
        <time>2012-08-28T11:31:25Z</time>
      </trkpt>
      <trkpt lat="47.88138" lon="-2.42345">
        <ele>18.88</ele>
        <time>2012-08-28T11:31:42Z</time>
      </trkpt>
      <trkpt lat="47.88138" lon="-2.42346">
        <ele>18.88</ele>
        <time>2012-08-28T11:31:59Z</time>
      </trkpt>
      <trkpt lat="47.88138" lon="-2.42345">
        <ele>18.4</ele>
        <time>2012-08-28T11:32:18Z</time>
      </trkpt>
      <trkpt lat="47.88138" lon="-2.42345">
        <ele>17.92</ele>
        <time>2012-08-28T11:32:36Z</time>
      </trkpt>
      <trkpt lat="47.88138" lon="-2.42345">
        <ele>16.96</ele>
        <time>2012-08-28T11:32:55Z</time>
      </trkpt>
      <trkpt lat="47.88138" lon="-2.42345">
        <ele>17.44</ele>
        <time>2012-08-28T11:33:11Z</time>
      </trkpt>
      <trkpt lat="47.88138" lon="-2.42344">
        <ele>16.48</ele>
        <time>2012-08-28T11:33:30Z</time>
      </trkpt>
      <trkpt lat="47.88138" lon="-2.42343">
        <ele>17.92</ele>
        <time>2012-08-28T11:33:53Z</time>
      </trkpt>
      <trkpt lat="47.88137" lon="-2.42343">
        <ele>17.44</ele>
        <time>2012-08-28T11:34:14Z</time>
      </trkpt>
      <trkpt lat="47.88137" lon="-2.42341">
        <ele>17.44</ele>
        <time>2012-08-28T11:34:33Z</time>
      </trkpt>
      <trkpt lat="47.88138" lon="-2.42341">
        <ele>17.44</ele>
        <time>2012-08-28T11:34:54Z</time>
      </trkpt>
      <trkpt lat="47.88137" lon="-2.42342">
        <ele>16.48</ele>
        <time>2012-08-28T11:35:13Z</time>
      </trkpt>
      <trkpt lat="47.88138" lon="-2.42342">
        <ele>17.92</ele>
        <time>2012-08-28T11:35:34Z</time>
      </trkpt>
      <trkpt lat="47.88137" lon="-2.42342">
        <ele>16.96</ele>
        <time>2012-08-28T11:35:53Z</time>
      </trkpt>
      <trkpt lat="47.88137" lon="-2.42343">
        <ele>17.92</ele>
        <time>2012-08-28T11:36:07Z</time>
      </trkpt>
      <trkpt lat="47.88137" lon="-2.42343">
        <ele>18.4</ele>
        <time>2012-08-28T11:36:23Z</time>
      </trkpt>
      <trkpt lat="47.88137" lon="-2.42343">
        <ele>17.44</ele>
        <time>2012-08-28T11:36:38Z</time>
      </trkpt>
      <trkpt lat="47.88137" lon="-2.42344">
        <ele>18.4</ele>
        <time>2012-08-28T11:36:54Z</time>
      </trkpt>
      <trkpt lat="47.88136" lon="-2.42344">
        <ele>19.36</ele>
        <time>2012-08-28T11:37:08Z</time>
      </trkpt>
      <trkpt lat="47.88136" lon="-2.42344">
        <ele>19.36</ele>
        <time>2012-08-28T11:37:26Z</time>
      </trkpt>
      <trkpt lat="47.88136" lon="-2.42344">
        <ele>18.88</ele>
        <time>2012-08-28T11:37:43Z</time>
      </trkpt>
      <trkpt lat="47.88136" lon="-2.42344">
        <ele>19.36</ele>
        <time>2012-08-28T11:38:02Z</time>
      </trkpt>
      <trkpt lat="47.88136" lon="-2.42343">
        <ele>20.32</ele>
        <time>2012-08-28T11:38:21Z</time>
      </trkpt>
      <trkpt lat="47.88136" lon="-2.42343">
        <ele>19.84</ele>
        <time>2012-08-28T11:38:38Z</time>
      </trkpt>
      <trkpt lat="47.88137" lon="-2.42344">
        <ele>20.32</ele>
        <time>2012-08-28T11:38:56Z</time>
      </trkpt>
      <trkpt lat="47.88136" lon="-2.42342">
        <ele>20.32</ele>
        <time>2012-08-28T11:39:15Z</time>
      </trkpt>
      <trkpt lat="47.88137" lon="-2.42343">
        <ele>19.36</ele>
        <time>2012-08-28T11:39:37Z</time>
      </trkpt>
      <trkpt lat="47.88137" lon="-2.42344">
        <ele>18.4</ele>
        <time>2012-08-28T11:39:57Z</time>
      </trkpt>
      <trkpt lat="47.88136" lon="-2.42344">
        <ele>17.92</ele>
        <time>2012-08-28T11:40:12Z</time>
      </trkpt>
      <trkpt lat="47.88135" lon="-2.42344">
        <ele>19.36</ele>
        <time>2012-08-28T11:40:30Z</time>
      </trkpt>
      <trkpt lat="47.88134" lon="-2.42347">
        <ele>19.84</ele>
        <time>2012-08-28T11:40:51Z</time>
      </trkpt>
      <trkpt lat="47.88135" lon="-2.42347">
        <ele>20.32</ele>
        <time>2012-08-28T11:41:08Z</time>
      </trkpt>
      <trkpt lat="47.88135" lon="-2.42347">
        <ele>20.81</ele>
        <time>2012-08-28T11:41:25Z</time>
      </trkpt>
      <trkpt lat="47.88135" lon="-2.42347">
        <ele>21.77</ele>
        <time>2012-08-28T11:41:40Z</time>
      </trkpt>
      <trkpt lat="47.88134" lon="-2.42347">
        <ele>21.77</ele>
        <time>2012-08-28T11:41:56Z</time>
      </trkpt>
      <trkpt lat="47.88133" lon="-2.42346">
        <ele>22.73</ele>
        <time>2012-08-28T11:42:18Z</time>
      </trkpt>
      <trkpt lat="47.88133" lon="-2.42346">
        <ele>23.21</ele>
        <time>2012-08-28T11:42:38Z</time>
      </trkpt>
      <trkpt lat="47.88132" lon="-2.42348">
        <ele>22.25</ele>
        <time>2012-08-28T11:42:49Z</time>
      </trkpt>
      <trkpt lat="47.8813" lon="-2.42356">
        <ele>21.29</ele>
        <time>2012-08-28T11:42:58Z</time>
      </trkpt>
      <trkpt lat="47.88132" lon="-2.42363">
        <ele>20.81</ele>
        <time>2012-08-28T11:43:06Z</time>
      </trkpt>
      <trkpt lat="47.88131" lon="-2.42364">
        <ele>21.29</ele>
        <time>2012-08-28T11:43:13Z</time>
      </trkpt>
      <trkpt lat="47.8813" lon="-2.42366">
        <ele>21.29</ele>
        <time>2012-08-28T11:43:20Z</time>
      </trkpt>
      <trkpt lat="47.8813" lon="-2.42366">
        <ele>22.25</ele>
        <time>2012-08-28T11:43:27Z</time>
      </trkpt>
      <trkpt lat="47.8813" lon="-2.42364">
        <ele>21.77</ele>
        <time>2012-08-28T11:43:44Z</time>
      </trkpt>
      <trkpt lat="47.88129" lon="-2.42367">
        <ele>19.36</ele>
        <time>2012-08-28T11:44:01Z</time>
      </trkpt>
      <trkpt lat="47.88129" lon="-2.42367">
        <ele>18.4</ele>
        <time>2012-08-28T11:44:19Z</time>
      </trkpt>
      <trkpt lat="47.88128" lon="-2.42365">
        <ele>20.81</ele>
        <time>2012-08-28T11:44:38Z</time>
      </trkpt>
      <trkpt lat="47.88128" lon="-2.42363">
        <ele>19.84</ele>
        <time>2012-08-28T11:44:57Z</time>
      </trkpt>
      <trkpt lat="47.88129" lon="-2.42363">
        <ele>17.92</ele>
        <time>2012-08-28T11:45:17Z</time>
      </trkpt>
      <trkpt lat="47.88128" lon="-2.42364">
        <ele>18.4</ele>
        <time>2012-08-28T11:45:23Z</time>
      </trkpt>
      <trkpt lat="47.88132" lon="-2.42378">
        <ele>18.4</ele>
        <time>2012-08-28T11:45:30Z</time>
      </trkpt>
      <trkpt lat="47.88138" lon="-2.42386">
        <ele>18.88</ele>
        <time>2012-08-28T11:45:34Z</time>
      </trkpt>
      <trkpt lat="47.88153" lon="-2.42406">
        <ele>20.32</ele>
        <time>2012-08-28T11:45:44Z</time>
      </trkpt>
      <trkpt lat="47.88166" lon="-2.42423">
        <ele>20.32</ele>
        <time>2012-08-28T11:45:52Z</time>
      </trkpt>
      <trkpt lat="47.88184" lon="-2.42444">
        <ele>20.32</ele>
        <time>2012-08-28T11:46:00Z</time>
      </trkpt>
      <trkpt lat="47.8821" lon="-2.42474">
        <ele>20.32</ele>
        <time>2012-08-28T11:46:09Z</time>
      </trkpt>
      <trkpt lat="47.88234" lon="-2.42495">
        <ele>20.32</ele>
        <time>2012-08-28T11:46:16Z</time>
      </trkpt>
      <trkpt lat="47.88278" lon="-2.42527">
        <ele>21.29</ele>
        <time>2012-08-28T11:46:27Z</time>
      </trkpt>
      <trkpt lat="47.88316" lon="-2.42554">
        <ele>22.73</ele>
        <time>2012-08-28T11:46:36Z</time>
      </trkpt>
      <trkpt lat="47.88356" lon="-2.42585">
        <ele>22.73</ele>
        <time>2012-08-28T11:46:45Z</time>
      </trkpt>
      <trkpt lat="47.88387" lon="-2.42622">
        <ele>21.29</ele>
        <time>2012-08-28T11:46:53Z</time>
      </trkpt>
      <trkpt lat="47.88394" lon="-2.42633">
        <ele>20.81</ele>
        <time>2012-08-28T11:46:55Z</time>
      </trkpt>
      <trkpt lat="47.88424" lon="-2.42685">
        <ele>20.32</ele>
        <time>2012-08-28T11:47:04Z</time>
      </trkpt>
      <trkpt lat="47.88446" lon="-2.42728">
        <ele>19.84</ele>
        <time>2012-08-28T11:47:11Z</time>
      </trkpt>
      <trkpt lat="47.88479" lon="-2.42779">
        <ele>18.88</ele>
        <time>2012-08-28T11:47:20Z</time>
      </trkpt>
      <trkpt lat="47.88508" lon="-2.42832">
        <ele>17.92</ele>
        <time>2012-08-28T11:47:29Z</time>
      </trkpt>
      <trkpt lat="47.88538" lon="-2.42882">
        <ele>17.92</ele>
        <time>2012-08-28T11:47:38Z</time>
      </trkpt>
      <trkpt lat="47.88567" lon="-2.42932">
        <ele>18.4</ele>
        <time>2012-08-28T11:47:47Z</time>
      </trkpt>
      <trkpt lat="47.8859" lon="-2.42984">
        <ele>18.88</ele>
        <time>2012-08-28T11:47:55Z</time>
      </trkpt>
      <trkpt lat="47.8861" lon="-2.43036">
        <ele>19.36</ele>
        <time>2012-08-28T11:48:03Z</time>
      </trkpt>
      <trkpt lat="47.88637" lon="-2.43099">
        <ele>19.84</ele>
        <time>2012-08-28T11:48:13Z</time>
      </trkpt>
      <trkpt lat="47.88667" lon="-2.43157">
        <ele>19.84</ele>
        <time>2012-08-28T11:48:24Z</time>
      </trkpt>
      <trkpt lat="47.88691" lon="-2.43204">
        <ele>19.36</ele>
        <time>2012-08-28T11:48:34Z</time>
      </trkpt>
      <trkpt lat="47.88712" lon="-2.43243">
        <ele>19.36</ele>
        <time>2012-08-28T11:48:42Z</time>
      </trkpt>
      <trkpt lat="47.88721" lon="-2.43265">
        <ele>18.88</ele>
        <time>2012-08-28T11:48:46Z</time>
      </trkpt>
      <trkpt lat="47.88734" lon="-2.43322">
        <ele>17.92</ele>
        <time>2012-08-28T11:48:56Z</time>
      </trkpt>
      <trkpt lat="47.88741" lon="-2.43382">
        <ele>17.92</ele>
        <time>2012-08-28T11:49:05Z</time>
      </trkpt>
      <trkpt lat="47.88752" lon="-2.43447">
        <ele>18.4</ele>
        <time>2012-08-28T11:49:14Z</time>
      </trkpt>
      <trkpt lat="47.88763" lon="-2.43516">
        <ele>20.32</ele>
        <time>2012-08-28T11:49:24Z</time>
      </trkpt>
      <trkpt lat="47.88779" lon="-2.43574">
        <ele>21.29</ele>
        <time>2012-08-28T11:49:33Z</time>
      </trkpt>
      <trkpt lat="47.88798" lon="-2.43595">
        <ele>21.77</ele>
        <time>2012-08-28T11:49:40Z</time>
      </trkpt>
      <trkpt lat="47.88802" lon="-2.43596">
        <ele>21.77</ele>
        <time>2012-08-28T11:49:41Z</time>
      </trkpt>
      <trkpt lat="47.88829" lon="-2.43597">
        <ele>21.77</ele>
        <time>2012-08-28T11:49:50Z</time>
      </trkpt>
      <trkpt lat="47.88854" lon="-2.43598">
        <ele>22.73</ele>
        <time>2012-08-28T11:50:00Z</time>
      </trkpt>
      <trkpt lat="47.88877" lon="-2.43601">
        <ele>23.69</ele>
        <time>2012-08-28T11:50:06Z</time>
      </trkpt>
      <trkpt lat="47.88906" lon="-2.436">
        <ele>24.17</ele>
        <time>2012-08-28T11:50:14Z</time>
      </trkpt>
      <trkpt lat="47.88938" lon="-2.436">
        <ele>22.25</ele>
        <time>2012-08-28T11:50:21Z</time>
      </trkpt>
      <trkpt lat="47.88978" lon="-2.43601">
        <ele>21.29</ele>
        <time>2012-08-28T11:50:29Z</time>
      </trkpt>
      <trkpt lat="47.89029" lon="-2.43601">
        <ele>20.81</ele>
        <time>2012-08-28T11:50:38Z</time>
      </trkpt>
      <trkpt lat="47.89039" lon="-2.43603">
        <ele>20.32</ele>
        <time>2012-08-28T11:50:40Z</time>
      </trkpt>
      <trkpt lat="47.89083" lon="-2.43605">
        <ele>18.4</ele>
        <time>2012-08-28T11:50:49Z</time>
      </trkpt>
      <trkpt lat="47.89092" lon="-2.43608">
        <ele>17.92</ele>
        <time>2012-08-28T11:50:51Z</time>
      </trkpt>
      <trkpt lat="47.89134" lon="-2.43612">
        <ele>17.44</ele>
        <time>2012-08-28T11:51:00Z</time>
      </trkpt>
      <trkpt lat="47.89176" lon="-2.43614">
        <ele>18.88</ele>
        <time>2012-08-28T11:51:08Z</time>
      </trkpt>
      <trkpt lat="47.89218" lon="-2.43617">
        <ele>20.32</ele>
        <time>2012-08-28T11:51:17Z</time>
      </trkpt>
      <trkpt lat="47.89258" lon="-2.43621">
        <ele>19.84</ele>
        <time>2012-08-28T11:51:26Z</time>
      </trkpt>
      <trkpt lat="47.89272" lon="-2.43619">
        <ele>19.84</ele>
        <time>2012-08-28T11:51:30Z</time>
      </trkpt>
      <trkpt lat="47.89275" lon="-2.43619">
        <ele>20.32</ele>
        <time>2012-08-28T11:51:31Z</time>
      </trkpt>
      <trkpt lat="47.8929" lon="-2.43624">
        <ele>18.4</ele>
        <time>2012-08-28T11:51:37Z</time>
      </trkpt>
      <trkpt lat="47.89326" lon="-2.43624">
        <ele>17.92</ele>
        <time>2012-08-28T11:51:46Z</time>
      </trkpt>
      <trkpt lat="47.89359" lon="-2.43625">
        <ele>17.44</ele>
        <time>2012-08-28T11:51:54Z</time>
      </trkpt>
      <trkpt lat="47.8939" lon="-2.43628">
        <ele>15.52</ele>
        <time>2012-08-28T11:52:01Z</time>
      </trkpt>
      <trkpt lat="47.89433" lon="-2.43631">
        <ele>15.52</ele>
        <time>2012-08-28T11:52:10Z</time>
      </trkpt>
      <trkpt lat="47.89474" lon="-2.43635">
        <ele>17.44</ele>
        <time>2012-08-28T11:52:18Z</time>
      </trkpt>
      <trkpt lat="47.89509" lon="-2.43637">
        <ele>20.81</ele>
        <time>2012-08-28T11:52:25Z</time>
      </trkpt>
      <trkpt lat="47.89566" lon="-2.43641">
        <ele>23.69</ele>
        <time>2012-08-28T11:52:36Z</time>
      </trkpt>
      <trkpt lat="47.89603" lon="-2.43644">
        <ele>24.65</ele>
        <time>2012-08-28T11:52:45Z</time>
      </trkpt>
      <trkpt lat="47.89635" lon="-2.43643">
        <ele>24.65</ele>
        <time>2012-08-28T11:52:51Z</time>
      </trkpt>
      <trkpt lat="47.89672" lon="-2.4364">
        <ele>26.57</ele>
        <time>2012-08-28T11:52:58Z</time>
      </trkpt>
      <trkpt lat="47.89712" lon="-2.43635">
        <ele>26.09</ele>
        <time>2012-08-28T11:53:07Z</time>
      </trkpt>
      <trkpt lat="47.89754" lon="-2.43627">
        <ele>28.02</ele>
        <time>2012-08-28T11:53:15Z</time>
      </trkpt>
      <trkpt lat="47.89802" lon="-2.43615">
        <ele>28.5</ele>
        <time>2012-08-28T11:53:25Z</time>
      </trkpt>
      <trkpt lat="47.8985" lon="-2.43599">
        <ele>29.94</ele>
        <time>2012-08-28T11:53:35Z</time>
      </trkpt>
      <trkpt lat="47.89884" lon="-2.43584">
        <ele>30.9</ele>
        <time>2012-08-28T11:53:43Z</time>
      </trkpt>
      <trkpt lat="47.89895" lon="-2.43574">
        <ele>30.42</ele>
        <time>2012-08-28T11:53:47Z</time>
      </trkpt>
      <trkpt lat="47.89898" lon="-2.43573">
        <ele>30.42</ele>
        <time>2012-08-28T11:53:48Z</time>
      </trkpt>
      <trkpt lat="47.89917" lon="-2.43568">
        <ele>30.9</ele>
        <time>2012-08-28T11:53:55Z</time>
      </trkpt>
      <trkpt lat="47.89944" lon="-2.43553">
        <ele>31.38</ele>
        <time>2012-08-28T11:54:02Z</time>
      </trkpt>
      <trkpt lat="47.89978" lon="-2.43534">
        <ele>31.86</ele>
        <time>2012-08-28T11:54:10Z</time>
      </trkpt>
      <trkpt lat="47.90007" lon="-2.43517">
        <ele>33.3</ele>
        <time>2012-08-28T11:54:17Z</time>
      </trkpt>
      <trkpt lat="47.90043" lon="-2.43498">
        <ele>33.3</ele>
        <time>2012-08-28T11:54:25Z</time>
      </trkpt>
      <trkpt lat="47.90081" lon="-2.43476">
        <ele>33.78</ele>
        <time>2012-08-28T11:54:33Z</time>
      </trkpt>
      <trkpt lat="47.90124" lon="-2.43451">
        <ele>34.26</ele>
        <time>2012-08-28T11:54:42Z</time>
      </trkpt>
      <trkpt lat="47.90171" lon="-2.43423">
        <ele>34.26</ele>
        <time>2012-08-28T11:54:52Z</time>
      </trkpt>
      <trkpt lat="47.90215" lon="-2.43397">
        <ele>33.78</ele>
        <time>2012-08-28T11:55:01Z</time>
      </trkpt>
      <trkpt lat="47.9022" lon="-2.43394">
        <ele>33.78</ele>
        <time>2012-08-28T11:55:02Z</time>
      </trkpt>
      <trkpt lat="47.90253" lon="-2.43373">
        <ele>33.78</ele>
        <time>2012-08-28T11:55:09Z</time>
      </trkpt>
      <trkpt lat="47.90295" lon="-2.43349">
        <ele>34.26</ele>
        <time>2012-08-28T11:55:17Z</time>
      </trkpt>
      <trkpt lat="47.90338" lon="-2.43325">
        <ele>34.26</ele>
        <time>2012-08-28T11:55:25Z</time>
      </trkpt>
      <trkpt lat="47.90384" lon="-2.43298">
        <ele>34.26</ele>
        <time>2012-08-28T11:55:34Z</time>
      </trkpt>
      <trkpt lat="47.90389" lon="-2.43295">
        <ele>34.26</ele>
        <time>2012-08-28T11:55:35Z</time>
      </trkpt>
      <trkpt lat="47.90413" lon="-2.43283">
        <ele>35.23</ele>
        <time>2012-08-28T11:55:40Z</time>
      </trkpt>
      <trkpt lat="47.90431" lon="-2.43268">
        <ele>35.71</ele>
        <time>2012-08-28T11:55:45Z</time>
      </trkpt>
      <trkpt lat="47.90443" lon="-2.43267">
        <ele>36.19</ele>
        <time>2012-08-28T11:55:49Z</time>
      </trkpt>
      <trkpt lat="47.90449" lon="-2.43263">
        <ele>36.19</ele>
        <time>2012-08-28T11:55:51Z</time>
      </trkpt>
      <trkpt lat="47.90484" lon="-2.4324">
        <ele>35.71</ele>
        <time>2012-08-28T11:56:00Z</time>
      </trkpt>
      <trkpt lat="47.90493" lon="-2.43236">
        <ele>35.71</ele>
        <time>2012-08-28T11:56:02Z</time>
      </trkpt>
      <trkpt lat="47.90542" lon="-2.43221">
        <ele>35.71</ele>
        <time>2012-08-28T11:56:11Z</time>
      </trkpt>
      <trkpt lat="47.90573" lon="-2.43212">
        <ele>35.23</ele>
        <time>2012-08-28T11:56:17Z</time>
      </trkpt>
      <trkpt lat="47.90592" lon="-2.43208">
        <ele>37.15</ele>
        <time>2012-08-28T11:56:23Z</time>
      </trkpt>
      <trkpt lat="47.90609" lon="-2.43203">
        <ele>37.63</ele>
        <time>2012-08-28T11:56:29Z</time>
      </trkpt>
      <trkpt lat="47.90629" lon="-2.43197">
        <ele>37.63</ele>
        <time>2012-08-28T11:56:34Z</time>
      </trkpt>
      <trkpt lat="47.90664" lon="-2.4319">
        <ele>36.67</ele>
        <time>2012-08-28T11:56:42Z</time>
      </trkpt>
      <trkpt lat="47.90682" lon="-2.43189">
        <ele>35.71</ele>
        <time>2012-08-28T11:56:48Z</time>
      </trkpt>
      <trkpt lat="47.90777" lon="-2.43169">
        <ele>28.98</ele>
        <time>2012-08-28T11:56:54Z</time>
      </trkpt>
      <trkpt lat="47.90822" lon="-2.43162">
        <ele>25.61</ele>
        <time>2012-08-28T11:57:01Z</time>
      </trkpt>
      <trkpt lat="47.90885" lon="-2.43157">
        <ele>29.94</ele>
        <time>2012-08-28T11:57:11Z</time>
      </trkpt>
      <trkpt lat="47.90945" lon="-2.43152">
        <ele>33.78</ele>
        <time>2012-08-28T11:57:21Z</time>
      </trkpt>
      <trkpt lat="47.91008" lon="-2.43142">
        <ele>37.63</ele>
        <time>2012-08-28T11:57:31Z</time>
      </trkpt>
      <trkpt lat="47.9107" lon="-2.43116">
        <ele>39.07</ele>
        <time>2012-08-28T11:57:41Z</time>
      </trkpt>
      <trkpt lat="47.91123" lon="-2.43084">
        <ele>39.07</ele>
        <time>2012-08-28T11:57:50Z</time>
      </trkpt>
      <trkpt lat="47.91167" lon="-2.43053">
        <ele>39.55</ele>
        <time>2012-08-28T11:57:58Z</time>
      </trkpt>
      <trkpt lat="47.91206" lon="-2.43028">
        <ele>39.07</ele>
        <time>2012-08-28T11:58:05Z</time>
      </trkpt>
      <trkpt lat="47.91249" lon="-2.43">
        <ele>39.07</ele>
        <time>2012-08-28T11:58:13Z</time>
      </trkpt>
      <trkpt lat="47.91271" lon="-2.42989">
        <ele>39.07</ele>
        <time>2012-08-28T11:58:17Z</time>
      </trkpt>
      <trkpt lat="47.91319" lon="-2.4297">
        <ele>38.59</ele>
        <time>2012-08-28T11:58:26Z</time>
      </trkpt>
      <trkpt lat="47.91363" lon="-2.42957">
        <ele>38.11</ele>
        <time>2012-08-28T11:58:34Z</time>
      </trkpt>
      <trkpt lat="47.914" lon="-2.42946">
        <ele>38.59</ele>
        <time>2012-08-28T11:58:41Z</time>
      </trkpt>
      <trkpt lat="47.9141" lon="-2.42942">
        <ele>38.59</ele>
        <time>2012-08-28T11:58:43Z</time>
      </trkpt>
      <trkpt lat="47.91443" lon="-2.42932">
        <ele>39.07</ele>
        <time>2012-08-28T11:58:50Z</time>
      </trkpt>
      <trkpt lat="47.91476" lon="-2.4292">
        <ele>39.07</ele>
        <time>2012-08-28T11:58:58Z</time>
      </trkpt>
      <trkpt lat="47.91534" lon="-2.4289">
        <ele>38.59</ele>
        <time>2012-08-28T11:59:09Z</time>
      </trkpt>
      <trkpt lat="47.9163" lon="-2.42852">
        <ele>37.63</ele>
        <time>2012-08-28T11:59:18Z</time>
      </trkpt>
      <trkpt lat="47.91667" lon="-2.42832">
        <ele>37.63</ele>
        <time>2012-08-28T11:59:26Z</time>
      </trkpt>
      <trkpt lat="47.91714" lon="-2.42805">
        <ele>38.59</ele>
        <time>2012-08-28T11:59:36Z</time>
      </trkpt>
      <trkpt lat="47.91769" lon="-2.42781">
        <ele>35.71</ele>
        <time>2012-08-28T11:59:44Z</time>
      </trkpt>
      <trkpt lat="47.91823" lon="-2.42756">
        <ele>38.59</ele>
        <time>2012-08-28T11:59:53Z</time>
      </trkpt>
      <trkpt lat="47.91865" lon="-2.42728">
        <ele>39.55</ele>
        <time>2012-08-28T12:00:01Z</time>
      </trkpt>
      <trkpt lat="47.91903" lon="-2.42703">
        <ele>40.99</ele>
        <time>2012-08-28T12:00:07Z</time>
      </trkpt>
      <trkpt lat="47.91918" lon="-2.42688">
        <ele>41.95</ele>
        <time>2012-08-28T12:00:11Z</time>
      </trkpt>
      <trkpt lat="47.91921" lon="-2.42686">
        <ele>41.95</ele>
        <time>2012-08-28T12:00:12Z</time>
      </trkpt>
      <trkpt lat="47.91943" lon="-2.42671">
        <ele>41.47</ele>
        <time>2012-08-28T12:00:19Z</time>
      </trkpt>
      <trkpt lat="47.9198" lon="-2.42631">
        <ele>41.95</ele>
        <time>2012-08-28T12:00:30Z</time>
      </trkpt>
      <trkpt lat="47.92006" lon="-2.42606">
        <ele>41.95</ele>
        <time>2012-08-28T12:00:37Z</time>
      </trkpt>
      <trkpt lat="47.92032" lon="-2.42571">
        <ele>42.44</ele>
        <time>2012-08-28T12:00:45Z</time>
      </trkpt>
      <trkpt lat="47.92058" lon="-2.42535">
        <ele>42.92</ele>
        <time>2012-08-28T12:00:53Z</time>
      </trkpt>
      <trkpt lat="47.92073" lon="-2.4251">
        <ele>42.92</ele>
        <time>2012-08-28T12:00:58Z</time>
      </trkpt>
      <trkpt lat="47.92106" lon="-2.42459">
        <ele>41.47</ele>
        <time>2012-08-28T12:01:08Z</time>
      </trkpt>
      <trkpt lat="47.92135" lon="-2.42404">
        <ele>43.4</ele>
        <time>2012-08-28T12:01:17Z</time>
      </trkpt>
      <trkpt lat="47.92151" lon="-2.42372">
        <ele>45.32</ele>
        <time>2012-08-28T12:01:23Z</time>
      </trkpt>
      <trkpt lat="47.92162" lon="-2.4234">
        <ele>46.28</ele>
        <time>2012-08-28T12:01:30Z</time>
      </trkpt>
      <trkpt lat="47.9218" lon="-2.42289">
        <ele>47.72</ele>
        <time>2012-08-28T12:01:40Z</time>
      </trkpt>
      <trkpt lat="47.92195" lon="-2.42239">
        <ele>46.28</ele>
        <time>2012-08-28T12:01:48Z</time>
      </trkpt>
      <trkpt lat="47.92222" lon="-2.42174">
        <ele>46.76</ele>
        <time>2012-08-28T12:01:57Z</time>
      </trkpt>
      <trkpt lat="47.92236" lon="-2.42115">
        <ele>48.2</ele>
        <time>2012-08-28T12:02:06Z</time>
      </trkpt>
      <trkpt lat="47.92253" lon="-2.42044">
        <ele>49.16</ele>
        <time>2012-08-28T12:02:17Z</time>
      </trkpt>
      <trkpt lat="47.9227" lon="-2.4198">
        <ele>49.65</ele>
        <time>2012-08-28T12:02:26Z</time>
      </trkpt>
      <trkpt lat="47.92279" lon="-2.41947">
        <ele>50.13</ele>
        <time>2012-08-28T12:02:31Z</time>
      </trkpt>
      <trkpt lat="47.92291" lon="-2.419">
        <ele>50.61</ele>
        <time>2012-08-28T12:02:39Z</time>
      </trkpt>
      <trkpt lat="47.92293" lon="-2.41896">
        <ele>50.61</ele>
        <time>2012-08-28T12:02:40Z</time>
      </trkpt>
      <trkpt lat="47.92295" lon="-2.41873">
        <ele>51.57</ele>
        <time>2012-08-28T12:02:46Z</time>
      </trkpt>
      <trkpt lat="47.92301" lon="-2.41852">
        <ele>53.49</ele>
        <time>2012-08-28T12:02:52Z</time>
      </trkpt>
      <trkpt lat="47.9231" lon="-2.41811">
        <ele>53.97</ele>
        <time>2012-08-28T12:03:00Z</time>
      </trkpt>
      <trkpt lat="47.92318" lon="-2.41774">
        <ele>54.45</ele>
        <time>2012-08-28T12:03:07Z</time>
      </trkpt>
      <trkpt lat="47.92332" lon="-2.4172">
        <ele>55.41</ele>
        <time>2012-08-28T12:03:16Z</time>
      </trkpt>
      <trkpt lat="47.92346" lon="-2.41659">
        <ele>57.34</ele>
        <time>2012-08-28T12:03:27Z</time>
      </trkpt>
      <trkpt lat="47.92357" lon="-2.41613">
        <ele>58.3</ele>
        <time>2012-08-28T12:03:35Z</time>
      </trkpt>
      <trkpt lat="47.92369" lon="-2.41558">
        <ele>59.26</ele>
        <time>2012-08-28T12:03:44Z</time>
      </trkpt>
      <trkpt lat="47.92385" lon="-2.41497">
        <ele>59.74</ele>
        <time>2012-08-28T12:03:54Z</time>
      </trkpt>
      <trkpt lat="47.92401" lon="-2.41436">
        <ele>61.18</ele>
        <time>2012-08-28T12:04:04Z</time>
      </trkpt>
      <trkpt lat="47.92416" lon="-2.41374">
        <ele>62.62</ele>
        <time>2012-08-28T12:04:13Z</time>
      </trkpt>
      <trkpt lat="47.92428" lon="-2.41303">
        <ele>63.58</ele>
        <time>2012-08-28T12:04:23Z</time>
      </trkpt>
      <trkpt lat="47.92451" lon="-2.41227">
        <ele>62.62</ele>
        <time>2012-08-28T12:04:34Z</time>
      </trkpt>
      <trkpt lat="47.92459" lon="-2.41192">
        <ele>63.1</ele>
        <time>2012-08-28T12:04:41Z</time>
      </trkpt>
      <trkpt lat="47.92478" lon="-2.41134">
        <ele>63.58</ele>
        <time>2012-08-28T12:04:51Z</time>
      </trkpt>
      <trkpt lat="47.92493" lon="-2.41088">
        <ele>64.55</ele>
        <time>2012-08-28T12:04:59Z</time>
      </trkpt>
      <trkpt lat="47.92511" lon="-2.41044">
        <ele>67.91</ele>
        <time>2012-08-28T12:05:08Z</time>
      </trkpt>
      <trkpt lat="47.92534" lon="-2.41003">
        <ele>70.31</ele>
        <time>2012-08-28T12:05:16Z</time>
      </trkpt>
      <trkpt lat="47.92557" lon="-2.40967">
        <ele>72.72</ele>
        <time>2012-08-28T12:05:23Z</time>
      </trkpt>
      <trkpt lat="47.9259" lon="-2.40933">
        <ele>70.79</ele>
        <time>2012-08-28T12:05:29Z</time>
      </trkpt>
      <trkpt lat="47.92622" lon="-2.40897">
        <ele>71.76</ele>
        <time>2012-08-28T12:05:38Z</time>
      </trkpt>
      <trkpt lat="47.92657" lon="-2.40854">
        <ele>72.72</ele>
        <time>2012-08-28T12:05:49Z</time>
      </trkpt>
      <trkpt lat="47.92713" lon="-2.4081">
        <ele>73.2</ele>
        <time>2012-08-28T12:06:00Z</time>
      </trkpt>
      <trkpt lat="47.92753" lon="-2.40782">
        <ele>73.68</ele>
        <time>2012-08-28T12:06:07Z</time>
      </trkpt>
      <trkpt lat="47.92814" lon="-2.40745">
        <ele>73.68</ele>
        <time>2012-08-28T12:06:16Z</time>
      </trkpt>
      <trkpt lat="47.92873" lon="-2.40712">
        <ele>73.68</ele>
        <time>2012-08-28T12:06:24Z</time>
      </trkpt>
      <trkpt lat="47.92925" lon="-2.40685">
        <ele>76.08</ele>
        <time>2012-08-28T12:06:31Z</time>
      </trkpt>
      <trkpt lat="47.92976" lon="-2.40652">
        <ele>73.68</ele>
        <time>2012-08-28T12:06:38Z</time>
      </trkpt>
      <trkpt lat="47.93031" lon="-2.40621">
        <ele>69.35</ele>
        <time>2012-08-28T12:06:46Z</time>
      </trkpt>
      <trkpt lat="47.93098" lon="-2.40597">
        <ele>66.47</ele>
        <time>2012-08-28T12:06:55Z</time>
      </trkpt>
      <trkpt lat="47.93166" lon="-2.40591">
        <ele>63.58</ele>
        <time>2012-08-28T12:07:04Z</time>
      </trkpt>
      <trkpt lat="47.9322" lon="-2.40597">
        <ele>61.66</ele>
        <time>2012-08-28T12:07:11Z</time>
      </trkpt>
      <trkpt lat="47.93266" lon="-2.40611">
        <ele>58.78</ele>
        <time>2012-08-28T12:07:18Z</time>
      </trkpt>
      <trkpt lat="47.93278" lon="-2.40616">
        <ele>57.82</ele>
        <time>2012-08-28T12:07:20Z</time>
      </trkpt>
      <trkpt lat="47.93284" lon="-2.40617">
        <ele>57.34</ele>
        <time>2012-08-28T12:07:21Z</time>
      </trkpt>
      <trkpt lat="47.93301" lon="-2.40621">
        <ele>56.37</ele>
        <time>2012-08-28T12:07:25Z</time>
      </trkpt>
      <trkpt lat="47.93309" lon="-2.40636">
        <ele>55.41</ele>
        <time>2012-08-28T12:07:30Z</time>
      </trkpt>
      <trkpt lat="47.93324" lon="-2.40652">
        <ele>55.41</ele>
        <time>2012-08-28T12:07:37Z</time>
      </trkpt>
      <trkpt lat="47.93328" lon="-2.40655">
        <ele>54.93</ele>
        <time>2012-08-28T12:07:39Z</time>
      </trkpt>
      <trkpt lat="47.93335" lon="-2.40655">
        <ele>54.93</ele>
        <time>2012-08-28T12:07:45Z</time>
      </trkpt>
      <trkpt lat="47.93347" lon="-2.40655">
        <ele>55.41</ele>
        <time>2012-08-28T12:07:51Z</time>
      </trkpt>
      <trkpt lat="47.93366" lon="-2.4066">
        <ele>54.45</ele>
        <time>2012-08-28T12:07:58Z</time>
      </trkpt>
      <trkpt lat="47.93393" lon="-2.40669">
        <ele>53.97</ele>
        <time>2012-08-28T12:08:06Z</time>
      </trkpt>
      <trkpt lat="47.93408" lon="-2.40675">
        <ele>53.97</ele>
        <time>2012-08-28T12:08:10Z</time>
      </trkpt>
      <trkpt lat="47.93412" lon="-2.40676">
        <ele>53.97</ele>
        <time>2012-08-28T12:08:11Z</time>
      </trkpt>
      <trkpt lat="47.93425" lon="-2.40679">
        <ele>53.97</ele>
        <time>2012-08-28T12:08:14Z</time>
      </trkpt>
      <trkpt lat="47.93466" lon="-2.40697">
        <ele>53.01</ele>
        <time>2012-08-28T12:08:24Z</time>
      </trkpt>
      <trkpt lat="47.93495" lon="-2.4071">
        <ele>54.93</ele>
        <time>2012-08-28T12:08:31Z</time>
      </trkpt>
      <trkpt lat="47.93523" lon="-2.40723">
        <ele>56.37</ele>
        <time>2012-08-28T12:08:39Z</time>
      </trkpt>
      <trkpt lat="47.93535" lon="-2.40723">
        <ele>56.86</ele>
        <time>2012-08-28T12:08:43Z</time>
      </trkpt>
      <trkpt lat="47.93561" lon="-2.40734">
        <ele>56.86</ele>
        <time>2012-08-28T12:08:50Z</time>
      </trkpt>
      <trkpt lat="47.93574" lon="-2.40735">
        <ele>56.86</ele>
        <time>2012-08-28T12:08:53Z</time>
      </trkpt>
      <trkpt lat="47.93586" lon="-2.40741">
        <ele>57.34</ele>
        <time>2012-08-28T12:08:57Z</time>
      </trkpt>
      <trkpt lat="47.93605" lon="-2.40743">
        <ele>58.3</ele>
        <time>2012-08-28T12:09:03Z</time>
      </trkpt>
      <trkpt lat="47.93608" lon="-2.40744">
        <ele>58.3</ele>
        <time>2012-08-28T12:09:04Z</time>
      </trkpt>
      <trkpt lat="47.93646" lon="-2.40756">
        <ele>57.82</ele>
        <time>2012-08-28T12:09:13Z</time>
      </trkpt>
      <trkpt lat="47.93689" lon="-2.40776">
        <ele>57.34</ele>
        <time>2012-08-28T12:09:22Z</time>
      </trkpt>
      <trkpt lat="47.93746" lon="-2.40807">
        <ele>56.86</ele>
        <time>2012-08-28T12:09:33Z</time>
      </trkpt>
      <trkpt lat="47.93797" lon="-2.40833">
        <ele>56.37</ele>
        <time>2012-08-28T12:09:43Z</time>
      </trkpt>
      <trkpt lat="47.93843" lon="-2.40847">
        <ele>55.41</ele>
        <time>2012-08-28T12:09:51Z</time>
      </trkpt>
      <trkpt lat="47.93895" lon="-2.40849">
        <ele>53.97</ele>
        <time>2012-08-28T12:10:00Z</time>
      </trkpt>
      <trkpt lat="47.93943" lon="-2.40847">
        <ele>53.97</ele>
        <time>2012-08-28T12:10:08Z</time>
      </trkpt>
      <trkpt lat="47.93984" lon="-2.40842">
        <ele>53.01</ele>
        <time>2012-08-28T12:10:15Z</time>
      </trkpt>
      <trkpt lat="47.94035" lon="-2.40838">
        <ele>52.53</ele>
        <time>2012-08-28T12:10:23Z</time>
      </trkpt>
      <trkpt lat="47.94079" lon="-2.40832">
        <ele>52.53</ele>
        <time>2012-08-28T12:10:30Z</time>
      </trkpt>
      <trkpt lat="47.94123" lon="-2.40827">
        <ele>52.05</ele>
        <time>2012-08-28T12:10:38Z</time>
      </trkpt>
      <trkpt lat="47.94127" lon="-2.40827">
        <ele>52.05</ele>
        <time>2012-08-28T12:10:39Z</time>
      </trkpt>
      <trkpt lat="47.94129" lon="-2.4083">
        <ele>52.05</ele>
        <time>2012-08-28T12:10:41Z</time>
      </trkpt>
      <trkpt lat="47.94123" lon="-2.40834">
        <ele>52.05</ele>
        <time>2012-08-28T12:10:45Z</time>
      </trkpt>
      <trkpt lat="47.94107" lon="-2.40839">
        <ele>49.16</ele>
        <time>2012-08-28T12:10:53Z</time>
      </trkpt>
      <trkpt lat="47.94094" lon="-2.40853">
        <ele>46.28</ele>
        <time>2012-08-28T12:10:58Z</time>
      </trkpt>
      <trkpt lat="47.94085" lon="-2.40876">
        <ele>44.36</ele>
        <time>2012-08-28T12:11:02Z</time>
      </trkpt>
      <trkpt lat="47.9408" lon="-2.4092">
        <ele>42.92</ele>
        <time>2012-08-28T12:11:09Z</time>
      </trkpt>
      <trkpt lat="47.94083" lon="-2.40958">
        <ele>42.44</ele>
        <time>2012-08-28T12:11:17Z</time>
      </trkpt>
      <trkpt lat="47.94086" lon="-2.40967">
        <ele>41.95</ele>
        <time>2012-08-28T12:11:19Z</time>
      </trkpt>
      <trkpt lat="47.94095" lon="-2.40987">
        <ele>41.47</ele>
        <time>2012-08-28T12:11:23Z</time>
      </trkpt>
      <trkpt lat="47.94101" lon="-2.41">
        <ele>40.51</ele>
        <time>2012-08-28T12:11:25Z</time>
      </trkpt>
      <trkpt lat="47.94113" lon="-2.41033">
        <ele>38.59</ele>
        <time>2012-08-28T12:11:30Z</time>
      </trkpt>
      <trkpt lat="47.9413" lon="-2.4106">
        <ele>38.11</ele>
        <time>2012-08-28T12:11:34Z</time>
      </trkpt>
      <trkpt lat="47.94145" lon="-2.41077">
        <ele>38.11</ele>
        <time>2012-08-28T12:11:37Z</time>
      </trkpt>
      <trkpt lat="47.94161" lon="-2.41087">
        <ele>37.15</ele>
        <time>2012-08-28T12:11:40Z</time>
      </trkpt>
      <trkpt lat="47.94173" lon="-2.41106">
        <ele>36.19</ele>
        <time>2012-08-28T12:11:44Z</time>
      </trkpt>
      <trkpt lat="47.9419" lon="-2.41145">
        <ele>36.19</ele>
        <time>2012-08-28T12:11:53Z</time>
      </trkpt>
      <trkpt lat="47.94208" lon="-2.41173">
        <ele>36.67</ele>
        <time>2012-08-28T12:12:01Z</time>
      </trkpt>
      <trkpt lat="47.9421" lon="-2.41175">
        <ele>36.67</ele>
        <time>2012-08-28T12:12:02Z</time>
      </trkpt>
      <trkpt lat="47.94222" lon="-2.4117">
        <ele>37.15</ele>
        <time>2012-08-28T12:12:08Z</time>
      </trkpt>
      <trkpt lat="47.94232" lon="-2.41163">
        <ele>37.63</ele>
        <time>2012-08-28T12:12:13Z</time>
      </trkpt>
      <trkpt lat="47.9424" lon="-2.41172">
        <ele>36.67</ele>
        <time>2012-08-28T12:12:19Z</time>
      </trkpt>
      <trkpt lat="47.94243" lon="-2.41187">
        <ele>36.19</ele>
        <time>2012-08-28T12:12:24Z</time>
      </trkpt>
      <trkpt lat="47.94243" lon="-2.41202">
        <ele>35.71</ele>
        <time>2012-08-28T12:12:30Z</time>
      </trkpt>
      <trkpt lat="47.94242" lon="-2.41203">
        <ele>35.71</ele>
        <time>2012-08-28T12:12:31Z</time>
      </trkpt>
      <trkpt lat="47.94237" lon="-2.41215">
        <ele>35.23</ele>
        <time>2012-08-28T12:12:36Z</time>
      </trkpt>
      <trkpt lat="47.94224" lon="-2.41225">
        <ele>35.23</ele>
        <time>2012-08-28T12:12:44Z</time>
      </trkpt>
      <trkpt lat="47.9422" lon="-2.41228">
        <ele>35.23</ele>
        <time>2012-08-28T12:12:50Z</time>
      </trkpt>
      <trkpt lat="47.94221" lon="-2.41229">
        <ele>35.23</ele>
        <time>2012-08-28T12:12:57Z</time>
      </trkpt>
      <trkpt lat="47.94221" lon="-2.4123">
        <ele>33.3</ele>
        <time>2012-08-28T12:13:11Z</time>
      </trkpt>
      <trkpt lat="47.9422" lon="-2.41231">
        <ele>32.34</ele>
        <time>2012-08-28T12:13:30Z</time>
      </trkpt>
      <trkpt lat="47.94222" lon="-2.4123">
        <ele>34.74</ele>
        <time>2012-08-28T12:13:51Z</time>
      </trkpt>
      <trkpt lat="47.94223" lon="-2.41229">
        <ele>34.74</ele>
        <time>2012-08-28T12:14:10Z</time>
      </trkpt>
      <trkpt lat="47.94223" lon="-2.41229">
        <ele>35.71</ele>
        <time>2012-08-28T12:14:32Z</time>
      </trkpt>
      <trkpt lat="47.94223" lon="-2.41229">
        <ele>35.71</ele>
        <time>2012-08-28T12:14:49Z</time>
      </trkpt>
      <trkpt lat="47.94223" lon="-2.41229">
        <ele>35.71</ele>
        <time>2012-08-28T12:15:12Z</time>
      </trkpt>
      <trkpt lat="47.94223" lon="-2.41228">
        <ele>36.19</ele>
        <time>2012-08-28T12:15:31Z</time>
      </trkpt>
      <trkpt lat="47.94222" lon="-2.41227">
        <ele>36.19</ele>
        <time>2012-08-28T12:15:51Z</time>
      </trkpt>
      <trkpt lat="47.94223" lon="-2.41227">
        <ele>37.15</ele>
        <time>2012-08-28T12:16:11Z</time>
      </trkpt>
      <trkpt lat="47.94222" lon="-2.41229">
        <ele>36.67</ele>
        <time>2012-08-28T12:16:31Z</time>
      </trkpt>
      <trkpt lat="47.94222" lon="-2.41229">
        <ele>36.19</ele>
        <time>2012-08-28T12:16:51Z</time>
      </trkpt>
      <trkpt lat="47.94223" lon="-2.4123">
        <ele>34.74</ele>
        <time>2012-08-28T12:17:10Z</time>
      </trkpt>
      <trkpt lat="47.94223" lon="-2.4123">
        <ele>34.26</ele>
        <time>2012-08-28T12:17:28Z</time>
      </trkpt>
      <trkpt lat="47.94223" lon="-2.4123">
        <ele>33.78</ele>
        <time>2012-08-28T12:17:49Z</time>
      </trkpt>
      <trkpt lat="47.94224" lon="-2.4123">
        <ele>32.82</ele>
        <time>2012-08-28T12:18:05Z</time>
      </trkpt>
      <trkpt lat="47.94224" lon="-2.41229">
        <ele>32.34</ele>
        <time>2012-08-28T12:18:20Z</time>
      </trkpt>
      <trkpt lat="47.94224" lon="-2.41229">
        <ele>32.34</ele>
        <time>2012-08-28T12:18:36Z</time>
      </trkpt>
      <trkpt lat="47.94224" lon="-2.41229">
        <ele>33.3</ele>
        <time>2012-08-28T12:18:49Z</time>
      </trkpt>
      <trkpt lat="47.94223" lon="-2.4123">
        <ele>33.3</ele>
        <time>2012-08-28T12:19:06Z</time>
      </trkpt>
      <trkpt lat="47.94223" lon="-2.4123">
        <ele>33.78</ele>
        <time>2012-08-28T12:19:22Z</time>
      </trkpt>
      <trkpt lat="47.94223" lon="-2.41229">
        <ele>32.82</ele>
        <time>2012-08-28T12:19:38Z</time>
      </trkpt>
      <trkpt lat="47.94222" lon="-2.41229">
        <ele>33.3</ele>
        <time>2012-08-28T12:19:55Z</time>
      </trkpt>
      <trkpt lat="47.94221" lon="-2.41228">
        <ele>33.3</ele>
        <time>2012-08-28T12:20:11Z</time>
      </trkpt>
      <trkpt lat="47.9422" lon="-2.41228">
        <ele>32.82</ele>
        <time>2012-08-28T12:20:25Z</time>
      </trkpt>
      <trkpt lat="47.9422" lon="-2.41229">
        <ele>32.82</ele>
        <time>2012-08-28T12:20:40Z</time>
      </trkpt>
      <trkpt lat="47.94219" lon="-2.41229">
        <ele>33.3</ele>
        <time>2012-08-28T12:20:54Z</time>
      </trkpt>
      <trkpt lat="47.94219" lon="-2.41231">
        <ele>33.3</ele>
        <time>2012-08-28T12:21:10Z</time>
      </trkpt>
      <trkpt lat="47.94219" lon="-2.41231">
        <ele>33.3</ele>
        <time>2012-08-28T12:21:23Z</time>
      </trkpt>
      <trkpt lat="47.94219" lon="-2.4123">
        <ele>33.3</ele>
        <time>2012-08-28T12:21:37Z</time>
      </trkpt>
      <trkpt lat="47.94219" lon="-2.4123">
        <ele>33.78</ele>
        <time>2012-08-28T12:21:54Z</time>
      </trkpt>
      <trkpt lat="47.94219" lon="-2.4123">
        <ele>33.3</ele>
        <time>2012-08-28T12:22:08Z</time>
      </trkpt>
      <trkpt lat="47.94219" lon="-2.41231">
        <ele>33.78</ele>
        <time>2012-08-28T12:22:25Z</time>
      </trkpt>
      <trkpt lat="47.94219" lon="-2.41231">
        <ele>34.74</ele>
        <time>2012-08-28T12:22:43Z</time>
      </trkpt>
      <trkpt lat="47.94219" lon="-2.41231">
        <ele>34.74</ele>
        <time>2012-08-28T12:23:01Z</time>
      </trkpt>
      <trkpt lat="47.94219" lon="-2.41232">
        <ele>34.74</ele>
        <time>2012-08-28T12:23:16Z</time>
      </trkpt>
      <trkpt lat="47.94218" lon="-2.41231">
        <ele>34.26</ele>
        <time>2012-08-28T12:23:33Z</time>
      </trkpt>
      <trkpt lat="47.94218" lon="-2.41231">
        <ele>33.3</ele>
        <time>2012-08-28T12:23:48Z</time>
      </trkpt>
      <trkpt lat="47.94217" lon="-2.41231">
        <ele>32.82</ele>
        <time>2012-08-28T12:24:03Z</time>
      </trkpt>
      <trkpt lat="47.94217" lon="-2.41231">
        <ele>32.82</ele>
        <time>2012-08-28T12:24:16Z</time>
      </trkpt>
      <trkpt lat="47.94217" lon="-2.41231">
        <ele>32.82</ele>
        <time>2012-08-28T12:24:32Z</time>
      </trkpt>
      <trkpt lat="47.94217" lon="-2.41232">
        <ele>31.86</ele>
        <time>2012-08-28T12:24:45Z</time>
      </trkpt>
      <trkpt lat="47.94217" lon="-2.41232">
        <ele>31.86</ele>
        <time>2012-08-28T12:25:00Z</time>
      </trkpt>
      <trkpt lat="47.9422" lon="-2.41232">
        <ele>33.78</ele>
        <time>2012-08-28T12:25:19Z</time>
      </trkpt>
      <trkpt lat="47.9422" lon="-2.41233">
        <ele>33.78</ele>
        <time>2012-08-28T12:25:39Z</time>
      </trkpt>
      <trkpt lat="47.9422" lon="-2.41232">
        <ele>33.78</ele>
        <time>2012-08-28T12:25:56Z</time>
      </trkpt>
      <trkpt lat="47.9422" lon="-2.41231">
        <ele>33.3</ele>
        <time>2012-08-28T12:26:16Z</time>
      </trkpt>
      <trkpt lat="47.9422" lon="-2.4123">
        <ele>33.3</ele>
        <time>2012-08-28T12:26:30Z</time>
      </trkpt>
      <trkpt lat="47.9422" lon="-2.4123">
        <ele>33.3</ele>
        <time>2012-08-28T12:26:47Z</time>
      </trkpt>
      <trkpt lat="47.9422" lon="-2.4123">
        <ele>33.3</ele>
        <time>2012-08-28T12:27:01Z</time>
      </trkpt>
      <trkpt lat="47.9422" lon="-2.41231">
        <ele>33.3</ele>
        <time>2012-08-28T12:27:14Z</time>
      </trkpt>
      <trkpt lat="47.9422" lon="-2.41231">
        <ele>33.3</ele>
        <time>2012-08-28T12:27:26Z</time>
      </trkpt>
      <trkpt lat="47.9422" lon="-2.4123">
        <ele>33.78</ele>
        <time>2012-08-28T12:27:41Z</time>
      </trkpt>
      <trkpt lat="47.9422" lon="-2.41231">
        <ele>33.3</ele>
        <time>2012-08-28T12:27:52Z</time>
      </trkpt>
      <trkpt lat="47.9422" lon="-2.41231">
        <ele>32.82</ele>
        <time>2012-08-28T12:28:06Z</time>
      </trkpt>
      <trkpt lat="47.9422" lon="-2.41232">
        <ele>32.82</ele>
        <time>2012-08-28T12:28:16Z</time>
      </trkpt>
      <trkpt lat="47.94227" lon="-2.41231">
        <ele>32.82</ele>
        <time>2012-08-28T12:28:23Z</time>
      </trkpt>
      <trkpt lat="47.94236" lon="-2.4123">
        <ele>32.34</ele>
        <time>2012-08-28T12:28:29Z</time>
      </trkpt>
      <trkpt lat="47.94246" lon="-2.41234">
        <ele>32.34</ele>
        <time>2012-08-28T12:28:35Z</time>
      </trkpt>
      <trkpt lat="47.94251" lon="-2.4124">
        <ele>32.82</ele>
        <time>2012-08-28T12:28:40Z</time>
      </trkpt>
      <trkpt lat="47.94264" lon="-2.41261">
        <ele>33.78</ele>
        <time>2012-08-28T12:28:48Z</time>
      </trkpt>
      <trkpt lat="47.94276" lon="-2.4127">
        <ele>33.78</ele>
        <time>2012-08-28T12:28:54Z</time>
      </trkpt>
      <trkpt lat="47.94287" lon="-2.41278">
        <ele>33.3</ele>
        <time>2012-08-28T12:28:59Z</time>
      </trkpt>
      <trkpt lat="47.94317" lon="-2.41289">
        <ele>31.86</ele>
        <time>2012-08-28T12:29:10Z</time>
      </trkpt>
      <trkpt lat="47.94337" lon="-2.41293">
        <ele>32.82</ele>
        <time>2012-08-28T12:29:18Z</time>
      </trkpt>
      <trkpt lat="47.94362" lon="-2.41295">
        <ele>34.26</ele>
        <time>2012-08-28T12:29:26Z</time>
      </trkpt>
      <trkpt lat="47.94388" lon="-2.41287">
        <ele>34.74</ele>
        <time>2012-08-28T12:29:34Z</time>
      </trkpt>
      <trkpt lat="47.94423" lon="-2.41278">
        <ele>35.71</ele>
        <time>2012-08-28T12:29:43Z</time>
      </trkpt>
      <trkpt lat="47.9446" lon="-2.41265">
        <ele>34.74</ele>
        <time>2012-08-28T12:29:53Z</time>
      </trkpt>
      <trkpt lat="47.9449" lon="-2.41255">
        <ele>34.74</ele>
        <time>2012-08-28T12:30:01Z</time>
      </trkpt>
      <trkpt lat="47.94529" lon="-2.41238">
        <ele>34.26</ele>
        <time>2012-08-28T12:30:11Z</time>
      </trkpt>
      <trkpt lat="47.94568" lon="-2.4122">
        <ele>33.78</ele>
        <time>2012-08-28T12:30:21Z</time>
      </trkpt>
      <trkpt lat="47.94605" lon="-2.41202">
        <ele>32.82</ele>
        <time>2012-08-28T12:30:30Z</time>
      </trkpt>
      <trkpt lat="47.94644" lon="-2.41187">
        <ele>31.86</ele>
        <time>2012-08-28T12:30:39Z</time>
      </trkpt>
      <trkpt lat="47.94679" lon="-2.41176">
        <ele>30.9</ele>
        <time>2012-08-28T12:30:47Z</time>
      </trkpt>
      <trkpt lat="47.94712" lon="-2.41169">
        <ele>30.42</ele>
        <time>2012-08-28T12:30:54Z</time>
      </trkpt>
      <trkpt lat="47.94739" lon="-2.41159">
        <ele>29.94</ele>
        <time>2012-08-28T12:31:00Z</time>
      </trkpt>
      <trkpt lat="47.94747" lon="-2.41152">
        <ele>29.94</ele>
        <time>2012-08-28T12:31:02Z</time>
      </trkpt>
      <trkpt lat="47.94771" lon="-2.41128">
        <ele>29.94</ele>
        <time>2012-08-28T12:31:08Z</time>
      </trkpt>
      <trkpt lat="47.94801" lon="-2.41085">
        <ele>30.9</ele>
        <time>2012-08-28T12:31:17Z</time>
      </trkpt>
      <trkpt lat="47.9482" lon="-2.41049">
        <ele>32.34</ele>
        <time>2012-08-28T12:31:24Z</time>
      </trkpt>
      <trkpt lat="47.94858" lon="-2.41007">
        <ele>33.3</ele>
        <time>2012-08-28T12:31:34Z</time>
      </trkpt>
      <trkpt lat="47.94891" lon="-2.4097">
        <ele>32.34</ele>
        <time>2012-08-28T12:31:43Z</time>
      </trkpt>
      <trkpt lat="47.94922" lon="-2.40937">
        <ele>31.86</ele>
        <time>2012-08-28T12:31:51Z</time>
      </trkpt>
      <trkpt lat="47.94949" lon="-2.40921">
        <ele>31.38</ele>
        <time>2012-08-28T12:31:57Z</time>
      </trkpt>
      <trkpt lat="47.94962" lon="-2.40913">
        <ele>31.86</ele>
        <time>2012-08-28T12:32:00Z</time>
      </trkpt>
      <trkpt lat="47.95002" lon="-2.40892">
        <ele>32.34</ele>
        <time>2012-08-28T12:32:09Z</time>
      </trkpt>
      <trkpt lat="47.95034" lon="-2.40861">
        <ele>32.82</ele>
        <time>2012-08-28T12:32:17Z</time>
      </trkpt>
      <trkpt lat="47.95056" lon="-2.40841">
        <ele>32.34</ele>
        <time>2012-08-28T12:32:22Z</time>
      </trkpt>
      <trkpt lat="47.9508" lon="-2.40826">
        <ele>32.34</ele>
        <time>2012-08-28T12:32:27Z</time>
      </trkpt>
      <trkpt lat="47.95112" lon="-2.40808">
        <ele>33.3</ele>
        <time>2012-08-28T12:32:34Z</time>
      </trkpt>
      <trkpt lat="47.95128" lon="-2.40798">
        <ele>33.78</ele>
        <time>2012-08-28T12:32:38Z</time>
      </trkpt>
      <trkpt lat="47.95148" lon="-2.40792">
        <ele>34.26</ele>
        <time>2012-08-28T12:32:43Z</time>
      </trkpt>
      <trkpt lat="47.95163" lon="-2.4077">
        <ele>34.26</ele>
        <time>2012-08-28T12:32:49Z</time>
      </trkpt>
      <trkpt lat="47.95168" lon="-2.40752">
        <ele>34.74</ele>
        <time>2012-08-28T12:32:54Z</time>
      </trkpt>
      <trkpt lat="47.95161" lon="-2.40741">
        <ele>33.3</ele>
        <time>2012-08-28T12:33:00Z</time>
      </trkpt>
      <trkpt lat="47.9516" lon="-2.4074">
        <ele>33.3</ele>
        <time>2012-08-28T12:33:01Z</time>
      </trkpt>
      <trkpt lat="47.9514" lon="-2.40729">
        <ele>31.38</ele>
        <time>2012-08-28T12:33:10Z</time>
      </trkpt>
      <trkpt lat="47.9513" lon="-2.40724">
        <ele>31.38</ele>
        <time>2012-08-28T12:33:16Z</time>
      </trkpt>
      <trkpt lat="47.95128" lon="-2.40723">
        <ele>31.38</ele>
        <time>2012-08-28T12:33:17Z</time>
      </trkpt>
      <trkpt lat="47.95126" lon="-2.40719">
        <ele>31.86</ele>
        <time>2012-08-28T12:33:21Z</time>
      </trkpt>
      <trkpt lat="47.9513" lon="-2.40717">
        <ele>31.86</ele>
        <time>2012-08-28T12:33:25Z</time>
      </trkpt>
      <trkpt lat="47.95145" lon="-2.40713">
        <ele>32.82</ele>
        <time>2012-08-28T12:33:32Z</time>
      </trkpt>
      <trkpt lat="47.95162" lon="-2.40711">
        <ele>34.26</ele>
        <time>2012-08-28T12:33:39Z</time>
      </trkpt>
      <trkpt lat="47.95182" lon="-2.4071">
        <ele>35.23</ele>
        <time>2012-08-28T12:33:46Z</time>
      </trkpt>
      <trkpt lat="47.95207" lon="-2.40707">
        <ele>35.23</ele>
        <time>2012-08-28T12:33:53Z</time>
      </trkpt>
      <trkpt lat="47.95243" lon="-2.40703">
        <ele>35.71</ele>
        <time>2012-08-28T12:34:03Z</time>
      </trkpt>
      <trkpt lat="47.95276" lon="-2.40696">
        <ele>36.67</ele>
        <time>2012-08-28T12:34:12Z</time>
      </trkpt>
      <trkpt lat="47.95303" lon="-2.40687">
        <ele>37.63</ele>
        <time>2012-08-28T12:34:19Z</time>
      </trkpt>
      <trkpt lat="47.95334" lon="-2.40676">
        <ele>38.11</ele>
        <time>2012-08-28T12:34:27Z</time>
      </trkpt>
      <trkpt lat="47.95363" lon="-2.40665">
        <ele>38.11</ele>
        <time>2012-08-28T12:34:34Z</time>
      </trkpt>
      <trkpt lat="47.95392" lon="-2.40651">
        <ele>37.63</ele>
        <time>2012-08-28T12:34:41Z</time>
      </trkpt>
      <trkpt lat="47.95442" lon="-2.40628">
        <ele>37.15</ele>
        <time>2012-08-28T12:34:51Z</time>
      </trkpt>
      <trkpt lat="47.95498" lon="-2.406">
        <ele>37.15</ele>
        <time>2012-08-28T12:35:02Z</time>
      </trkpt>
      <trkpt lat="47.9554" lon="-2.40578">
        <ele>37.15</ele>
        <time>2012-08-28T12:35:10Z</time>
      </trkpt>
      <trkpt lat="47.95579" lon="-2.40559">
        <ele>35.71</ele>
        <time>2012-08-28T12:35:17Z</time>
      </trkpt>
      <trkpt lat="47.95613" lon="-2.40542">
        <ele>35.23</ele>
        <time>2012-08-28T12:35:23Z</time>
      </trkpt>
      <trkpt lat="47.95665" lon="-2.40515">
        <ele>35.23</ele>
        <time>2012-08-28T12:35:31Z</time>
      </trkpt>
      <trkpt lat="47.95726" lon="-2.40486">
        <ele>34.74</ele>
        <time>2012-08-28T12:35:40Z</time>
      </trkpt>
      <trkpt lat="47.95779" lon="-2.40459">
        <ele>34.74</ele>
        <time>2012-08-28T12:35:48Z</time>
      </trkpt>
      <trkpt lat="47.95829" lon="-2.40434">
        <ele>34.26</ele>
        <time>2012-08-28T12:35:56Z</time>
      </trkpt>
      <trkpt lat="47.95857" lon="-2.40419">
        <ele>34.26</ele>
        <time>2012-08-28T12:36:01Z</time>
      </trkpt>
      <trkpt lat="47.95896" lon="-2.40399">
        <ele>34.26</ele>
        <time>2012-08-28T12:36:08Z</time>
      </trkpt>
      <trkpt lat="47.95948" lon="-2.40373">
        <ele>35.71</ele>
        <time>2012-08-28T12:36:17Z</time>
      </trkpt>
      <trkpt lat="47.95983" lon="-2.40353">
        <ele>35.71</ele>
        <time>2012-08-28T12:36:24Z</time>
      </trkpt>
      <trkpt lat="47.9601" lon="-2.40339">
        <ele>35.23</ele>
        <time>2012-08-28T12:36:30Z</time>
      </trkpt>
      <trkpt lat="47.96038" lon="-2.40326">
        <ele>33.78</ele>
        <time>2012-08-28T12:36:38Z</time>
      </trkpt>
      <trkpt lat="47.96068" lon="-2.40304">
        <ele>31.86</ele>
        <time>2012-08-28T12:36:46Z</time>
      </trkpt>
      <trkpt lat="47.96093" lon="-2.40286">
        <ele>30.9</ele>
        <time>2012-08-28T12:36:53Z</time>
      </trkpt>
      <trkpt lat="47.96121" lon="-2.40265">
        <ele>29.46</ele>
        <time>2012-08-28T12:37:01Z</time>
      </trkpt>
      <trkpt lat="47.96144" lon="-2.40237">
        <ele>28.02</ele>
        <time>2012-08-28T12:37:08Z</time>
      </trkpt>
      <trkpt lat="47.96171" lon="-2.40206">
        <ele>25.13</ele>
        <time>2012-08-28T12:37:15Z</time>
      </trkpt>
      <trkpt lat="47.9621" lon="-2.40157">
        <ele>24.17</ele>
        <time>2012-08-28T12:37:24Z</time>
      </trkpt>
      <trkpt lat="47.96234" lon="-2.40113">
        <ele>26.57</ele>
        <time>2012-08-28T12:37:31Z</time>
      </trkpt>
      <trkpt lat="47.96247" lon="-2.40088">
        <ele>29.46</ele>
        <time>2012-08-28T12:37:35Z</time>
      </trkpt>
      <trkpt lat="47.96258" lon="-2.40064">
        <ele>31.38</ele>
        <time>2012-08-28T12:37:39Z</time>
      </trkpt>
      <trkpt lat="47.96273" lon="-2.40027">
        <ele>31.86</ele>
        <time>2012-08-28T12:37:45Z</time>
      </trkpt>
      <trkpt lat="47.96294" lon="-2.39962">
        <ele>33.3</ele>
        <time>2012-08-28T12:37:54Z</time>
      </trkpt>
      <trkpt lat="47.96306" lon="-2.3991">
        <ele>33.3</ele>
        <time>2012-08-28T12:38:01Z</time>
      </trkpt>
      <trkpt lat="47.9632" lon="-2.39842">
        <ele>34.26</ele>
        <time>2012-08-28T12:38:09Z</time>
      </trkpt>
      <trkpt lat="47.96328" lon="-2.3977">
        <ele>33.3</ele>
        <time>2012-08-28T12:38:17Z</time>
      </trkpt>
      <trkpt lat="47.96337" lon="-2.39708">
        <ele>33.3</ele>
        <time>2012-08-28T12:38:24Z</time>
      </trkpt>
      <trkpt lat="47.96339" lon="-2.39698">
        <ele>33.3</ele>
        <time>2012-08-28T12:38:25Z</time>
      </trkpt>
      <trkpt lat="47.96348" lon="-2.39621">
        <ele>32.82</ele>
        <time>2012-08-28T12:38:33Z</time>
      </trkpt>
      <trkpt lat="47.96355" lon="-2.39568">
        <ele>32.82</ele>
        <time>2012-08-28T12:38:39Z</time>
      </trkpt>
      <trkpt lat="47.96363" lon="-2.39504">
        <ele>33.3</ele>
        <time>2012-08-28T12:38:46Z</time>
      </trkpt>
      <trkpt lat="47.96372" lon="-2.3943">
        <ele>34.26</ele>
        <time>2012-08-28T12:38:54Z</time>
      </trkpt>
      <trkpt lat="47.96385" lon="-2.3934">
        <ele>34.74</ele>
        <time>2012-08-28T12:39:04Z</time>
      </trkpt>
      <trkpt lat="47.96406" lon="-2.39262">
        <ele>34.26</ele>
        <time>2012-08-28T12:39:13Z</time>
      </trkpt>
      <trkpt lat="47.96433" lon="-2.39187">
        <ele>33.78</ele>
        <time>2012-08-28T12:39:22Z</time>
      </trkpt>
      <trkpt lat="47.96474" lon="-2.39105">
        <ele>31.38</ele>
        <time>2012-08-28T12:39:33Z</time>
      </trkpt>
      <trkpt lat="47.96513" lon="-2.39044">
        <ele>30.42</ele>
        <time>2012-08-28T12:39:42Z</time>
      </trkpt>
      <trkpt lat="47.96562" lon="-2.38987">
        <ele>30.9</ele>
        <time>2012-08-28T12:39:52Z</time>
      </trkpt>
      <trkpt lat="47.96607" lon="-2.38946">
        <ele>32.34</ele>
        <time>2012-08-28T12:40:01Z</time>
      </trkpt>
      <trkpt lat="47.9666" lon="-2.38912">
        <ele>33.78</ele>
        <time>2012-08-28T12:40:11Z</time>
      </trkpt>
      <trkpt lat="47.96694" lon="-2.3889">
        <ele>34.74</ele>
        <time>2012-08-28T12:40:18Z</time>
      </trkpt>
      <trkpt lat="47.96717" lon="-2.38874">
        <ele>34.74</ele>
        <time>2012-08-28T12:40:23Z</time>
      </trkpt>
      <trkpt lat="47.96762" lon="-2.38842">
        <ele>34.74</ele>
        <time>2012-08-28T12:40:32Z</time>
      </trkpt>
      <trkpt lat="47.96805" lon="-2.38814">
        <ele>35.23</ele>
        <time>2012-08-28T12:40:41Z</time>
      </trkpt>
      <trkpt lat="47.96855" lon="-2.38781">
        <ele>35.23</ele>
        <time>2012-08-28T12:40:50Z</time>
      </trkpt>
      <trkpt lat="47.96901" lon="-2.38751">
        <ele>35.23</ele>
        <time>2012-08-28T12:40:58Z</time>
      </trkpt>
      <trkpt lat="47.9695" lon="-2.38719">
        <ele>35.71</ele>
        <time>2012-08-28T12:41:07Z</time>
      </trkpt>
      <trkpt lat="47.97002" lon="-2.38688">
        <ele>35.23</ele>
        <time>2012-08-28T12:41:16Z</time>
      </trkpt>
      <trkpt lat="47.97013" lon="-2.38681">
        <ele>35.23</ele>
        <time>2012-08-28T12:41:18Z</time>
      </trkpt>
      <trkpt lat="47.9703" lon="-2.38671">
        <ele>35.23</ele>
        <time>2012-08-28T12:41:21Z</time>
      </trkpt>
      <trkpt lat="47.97041" lon="-2.38668">
        <ele>35.23</ele>
        <time>2012-08-28T12:41:23Z</time>
      </trkpt>
      <trkpt lat="47.97058" lon="-2.38657">
        <ele>34.74</ele>
        <time>2012-08-28T12:41:27Z</time>
      </trkpt>
      <trkpt lat="47.97085" lon="-2.38653">
        <ele>34.74</ele>
        <time>2012-08-28T12:41:33Z</time>
      </trkpt>
      <trkpt lat="47.97138" lon="-2.38641">
        <ele>34.26</ele>
        <time>2012-08-28T12:41:43Z</time>
      </trkpt>
      <trkpt lat="47.9718" lon="-2.38637">
        <ele>33.3</ele>
        <time>2012-08-28T12:41:51Z</time>
      </trkpt>
      <trkpt lat="47.9723" lon="-2.38632">
        <ele>32.82</ele>
        <time>2012-08-28T12:42:00Z</time>
      </trkpt>
      <trkpt lat="47.97265" lon="-2.38629">
        <ele>31.86</ele>
        <time>2012-08-28T12:42:06Z</time>
      </trkpt>
      <trkpt lat="47.97319" lon="-2.38626">
        <ele>30.42</ele>
        <time>2012-08-28T12:42:15Z</time>
      </trkpt>
      <trkpt lat="47.97367" lon="-2.38623">
        <ele>29.94</ele>
        <time>2012-08-28T12:42:23Z</time>
      </trkpt>
      <trkpt lat="47.97404" lon="-2.3862">
        <ele>29.46</ele>
        <time>2012-08-28T12:42:29Z</time>
      </trkpt>
      <trkpt lat="47.97448" lon="-2.38615">
        <ele>28.5</ele>
        <time>2012-08-28T12:42:37Z</time>
      </trkpt>
      <trkpt lat="47.9747" lon="-2.38613">
        <ele>28.02</ele>
        <time>2012-08-28T12:42:41Z</time>
      </trkpt>
      <trkpt lat="47.9751" lon="-2.38609">
        <ele>28.98</ele>
        <time>2012-08-28T12:42:48Z</time>
      </trkpt>
      <trkpt lat="47.9755" lon="-2.38606">
        <ele>29.94</ele>
        <time>2012-08-28T12:42:55Z</time>
      </trkpt>
      <trkpt lat="47.97596" lon="-2.38603">
        <ele>31.38</ele>
        <time>2012-08-28T12:43:03Z</time>
      </trkpt>
      <trkpt lat="47.97625" lon="-2.386">
        <ele>32.34</ele>
        <time>2012-08-28T12:43:08Z</time>
      </trkpt>
      <trkpt lat="47.97684" lon="-2.38596">
        <ele>34.26</ele>
        <time>2012-08-28T12:43:18Z</time>
      </trkpt>
      <trkpt lat="47.97735" lon="-2.3859">
        <ele>35.23</ele>
        <time>2012-08-28T12:43:27Z</time>
      </trkpt>
      <trkpt lat="47.97752" lon="-2.38586">
        <ele>35.71</ele>
        <time>2012-08-28T12:43:30Z</time>
      </trkpt>
      <trkpt lat="47.97793" lon="-2.38574">
        <ele>37.15</ele>
        <time>2012-08-28T12:43:38Z</time>
      </trkpt>
      <trkpt lat="47.97825" lon="-2.3856">
        <ele>39.07</ele>
        <time>2012-08-28T12:43:44Z</time>
      </trkpt>
      <trkpt lat="47.97875" lon="-2.38531">
        <ele>41.47</ele>
        <time>2012-08-28T12:43:53Z</time>
      </trkpt>
      <trkpt lat="47.97922" lon="-2.38492">
        <ele>42.92</ele>
        <time>2012-08-28T12:44:02Z</time>
      </trkpt>
      <trkpt lat="47.97932" lon="-2.38483">
        <ele>42.92</ele>
        <time>2012-08-28T12:44:04Z</time>
      </trkpt>
      <trkpt lat="47.97958" lon="-2.38458">
        <ele>43.4</ele>
        <time>2012-08-28T12:44:11Z</time>
      </trkpt>
      <trkpt lat="47.97984" lon="-2.38426">
        <ele>44.36</ele>
        <time>2012-08-28T12:44:19Z</time>
      </trkpt>
      <trkpt lat="47.9803" lon="-2.38377">
        <ele>45.32</ele>
        <time>2012-08-28T12:44:28Z</time>
      </trkpt>
      <trkpt lat="47.98078" lon="-2.38331">
        <ele>43.4</ele>
        <time>2012-08-28T12:44:37Z</time>
      </trkpt>
      <trkpt lat="47.98126" lon="-2.38286">
        <ele>40.99</ele>
        <time>2012-08-28T12:44:45Z</time>
      </trkpt>
      <trkpt lat="47.98178" lon="-2.38233">
        <ele>40.03</ele>
        <time>2012-08-28T12:44:54Z</time>
      </trkpt>
      <trkpt lat="47.98224" lon="-2.38193">
        <ele>37.63</ele>
        <time>2012-08-28T12:45:02Z</time>
      </trkpt>
      <trkpt lat="47.98269" lon="-2.38151">
        <ele>37.15</ele>
        <time>2012-08-28T12:45:11Z</time>
      </trkpt>
      <trkpt lat="47.98319" lon="-2.38104">
        <ele>37.15</ele>
        <time>2012-08-28T12:45:21Z</time>
      </trkpt>
      <trkpt lat="47.98376" lon="-2.38053">
        <ele>37.63</ele>
        <time>2012-08-28T12:45:32Z</time>
      </trkpt>
      <trkpt lat="47.98398" lon="-2.38032">
        <ele>38.11</ele>
        <time>2012-08-28T12:45:37Z</time>
      </trkpt>
      <trkpt lat="47.98414" lon="-2.38013">
        <ele>38.11</ele>
        <time>2012-08-28T12:45:42Z</time>
      </trkpt>
      <trkpt lat="47.98424" lon="-2.37983">
        <ele>37.63</ele>
        <time>2012-08-28T12:45:49Z</time>
      </trkpt>
      <trkpt lat="47.98431" lon="-2.37977">
        <ele>37.15</ele>
        <time>2012-08-28T12:45:51Z</time>
      </trkpt>
      <trkpt lat="47.98448" lon="-2.37956">
        <ele>36.19</ele>
        <time>2012-08-28T12:45:57Z</time>
      </trkpt>
      <trkpt lat="47.98461" lon="-2.37941">
        <ele>35.23</ele>
        <time>2012-08-28T12:46:01Z</time>
      </trkpt>
      <trkpt lat="47.9848" lon="-2.37927">
        <ele>34.26</ele>
        <time>2012-08-28T12:46:06Z</time>
      </trkpt>
      <trkpt lat="47.98497" lon="-2.37925">
        <ele>34.26</ele>
        <time>2012-08-28T12:46:10Z</time>
      </trkpt>
      <trkpt lat="47.98512" lon="-2.37916">
        <ele>33.78</ele>
        <time>2012-08-28T12:46:14Z</time>
      </trkpt>
      <trkpt lat="47.98519" lon="-2.37911">
        <ele>33.3</ele>
        <time>2012-08-28T12:46:16Z</time>
      </trkpt>
      <trkpt lat="47.98555" lon="-2.37861">
        <ele>31.86</ele>
        <time>2012-08-28T12:46:26Z</time>
      </trkpt>
      <trkpt lat="47.9859" lon="-2.37807">
        <ele>30.9</ele>
        <time>2012-08-28T12:46:35Z</time>
      </trkpt>
      <trkpt lat="47.98631" lon="-2.37743">
        <ele>30.9</ele>
        <time>2012-08-28T12:46:45Z</time>
      </trkpt>
      <trkpt lat="47.9867" lon="-2.37681">
        <ele>29.94</ele>
        <time>2012-08-28T12:46:54Z</time>
      </trkpt>
      <trkpt lat="47.98701" lon="-2.37624">
        <ele>28.98</ele>
        <time>2012-08-28T12:47:02Z</time>
      </trkpt>
      <trkpt lat="47.9874" lon="-2.37537">
        <ele>28.5</ele>
        <time>2012-08-28T12:47:14Z</time>
      </trkpt>
      <trkpt lat="47.98775" lon="-2.37456">
        <ele>28.5</ele>
        <time>2012-08-28T12:47:25Z</time>
      </trkpt>
      <trkpt lat="47.98789" lon="-2.37428">
        <ele>28.98</ele>
        <time>2012-08-28T12:47:29Z</time>
      </trkpt>
      <trkpt lat="47.98815" lon="-2.37369">
        <ele>28.98</ele>
        <time>2012-08-28T12:47:37Z</time>
      </trkpt>
      <trkpt lat="47.98843" lon="-2.37303">
        <ele>30.42</ele>
        <time>2012-08-28T12:47:46Z</time>
      </trkpt>
      <trkpt lat="47.98875" lon="-2.3723">
        <ele>32.82</ele>
        <time>2012-08-28T12:47:56Z</time>
      </trkpt>
      <trkpt lat="47.98906" lon="-2.37155">
        <ele>34.74</ele>
        <time>2012-08-28T12:48:06Z</time>
      </trkpt>
      <trkpt lat="47.98931" lon="-2.37096">
        <ele>35.71</ele>
        <time>2012-08-28T12:48:14Z</time>
      </trkpt>
      <trkpt lat="47.98954" lon="-2.37046">
        <ele>35.71</ele>
        <time>2012-08-28T12:48:21Z</time>
      </trkpt>
      <trkpt lat="47.98963" lon="-2.37018">
        <ele>36.19</ele>
        <time>2012-08-28T12:48:27Z</time>
      </trkpt>
      <trkpt lat="47.98971" lon="-2.37001">
        <ele>36.19</ele>
        <time>2012-08-28T12:48:31Z</time>
      </trkpt>
      <trkpt lat="47.98993" lon="-2.36947">
        <ele>37.15</ele>
        <time>2012-08-28T12:48:40Z</time>
      </trkpt>
      <trkpt lat="47.99018" lon="-2.3689">
        <ele>38.59</ele>
        <time>2012-08-28T12:48:49Z</time>
      </trkpt>
      <trkpt lat="47.99045" lon="-2.36826">
        <ele>38.59</ele>
        <time>2012-08-28T12:48:58Z</time>
      </trkpt>
      <trkpt lat="47.99066" lon="-2.36777">
        <ele>39.55</ele>
        <time>2012-08-28T12:49:05Z</time>
      </trkpt>
      <trkpt lat="47.99098" lon="-2.36704">
        <ele>40.51</ele>
        <time>2012-08-28T12:49:15Z</time>
      </trkpt>
      <trkpt lat="47.9911" lon="-2.36675">
        <ele>40.51</ele>
        <time>2012-08-28T12:49:19Z</time>
      </trkpt>
      <trkpt lat="47.9914" lon="-2.36605">
        <ele>39.55</ele>
        <time>2012-08-28T12:49:29Z</time>
      </trkpt>
      <trkpt lat="47.99168" lon="-2.36536">
        <ele>39.07</ele>
        <time>2012-08-28T12:49:39Z</time>
      </trkpt>
      <trkpt lat="47.99191" lon="-2.3648">
        <ele>40.03</ele>
        <time>2012-08-28T12:49:48Z</time>
      </trkpt>
      <trkpt lat="47.9921" lon="-2.36438">
        <ele>40.99</ele>
        <time>2012-08-28T12:49:56Z</time>
      </trkpt>
      <trkpt lat="47.99229" lon="-2.3639">
        <ele>40.99</ele>
        <time>2012-08-28T12:50:05Z</time>
      </trkpt>
      <trkpt lat="47.99252" lon="-2.36336">
        <ele>40.99</ele>
        <time>2012-08-28T12:50:15Z</time>
      </trkpt>
      <trkpt lat="47.99262" lon="-2.36317">
        <ele>41.47</ele>
        <time>2012-08-28T12:50:19Z</time>
      </trkpt>
      <trkpt lat="47.99265" lon="-2.36302">
        <ele>41.95</ele>
        <time>2012-08-28T12:50:23Z</time>
      </trkpt>
      <trkpt lat="47.9928" lon="-2.36284">
        <ele>43.4</ele>
        <time>2012-08-28T12:50:29Z</time>
      </trkpt>
      <trkpt lat="47.993" lon="-2.36242">
        <ele>44.36</ele>
        <time>2012-08-28T12:50:38Z</time>
      </trkpt>
      <trkpt lat="47.99329" lon="-2.36195">
        <ele>44.36</ele>
        <time>2012-08-28T12:50:48Z</time>
      </trkpt>
      <trkpt lat="47.99361" lon="-2.3615">
        <ele>44.84</ele>
        <time>2012-08-28T12:50:58Z</time>
      </trkpt>
      <trkpt lat="47.9939" lon="-2.36117">
        <ele>45.32</ele>
        <time>2012-08-28T12:51:06Z</time>
      </trkpt>
      <trkpt lat="47.99419" lon="-2.36087">
        <ele>46.28</ele>
        <time>2012-08-28T12:51:14Z</time>
      </trkpt>
      <trkpt lat="47.99453" lon="-2.36057">
        <ele>47.24</ele>
        <time>2012-08-28T12:51:23Z</time>
      </trkpt>
      <trkpt lat="47.99482" lon="-2.36028">
        <ele>48.68</ele>
        <time>2012-08-28T12:51:31Z</time>
      </trkpt>
      <trkpt lat="47.99499" lon="-2.36013">
        <ele>49.65</ele>
        <time>2012-08-28T12:51:35Z</time>
      </trkpt>
      <trkpt lat="47.99508" lon="-2.36006">
        <ele>50.13</ele>
        <time>2012-08-28T12:51:37Z</time>
      </trkpt>
      <trkpt lat="47.99542" lon="-2.35973">
        <ele>51.57</ele>
        <time>2012-08-28T12:51:46Z</time>
      </trkpt>
      <trkpt lat="47.99576" lon="-2.35945">
        <ele>52.53</ele>
        <time>2012-08-28T12:51:54Z</time>
      </trkpt>
      <trkpt lat="47.99605" lon="-2.35917">
        <ele>52.53</ele>
        <time>2012-08-28T12:52:02Z</time>
      </trkpt>
      <trkpt lat="47.99634" lon="-2.35889">
        <ele>52.53</ele>
        <time>2012-08-28T12:52:10Z</time>
      </trkpt>
      <trkpt lat="47.99664" lon="-2.35862">
        <ele>53.01</ele>
        <time>2012-08-28T12:52:18Z</time>
      </trkpt>
      <trkpt lat="47.99694" lon="-2.35834">
        <ele>53.49</ele>
        <time>2012-08-28T12:52:26Z</time>
      </trkpt>
      <trkpt lat="47.99725" lon="-2.35807">
        <ele>53.97</ele>
        <time>2012-08-28T12:52:34Z</time>
      </trkpt>
      <trkpt lat="47.99761" lon="-2.35774">
        <ele>53.97</ele>
        <time>2012-08-28T12:52:43Z</time>
      </trkpt>
      <trkpt lat="47.99796" lon="-2.35743">
        <ele>53.01</ele>
        <time>2012-08-28T12:52:52Z</time>
      </trkpt>
      <trkpt lat="47.99829" lon="-2.35721">
        <ele>52.05</ele>
        <time>2012-08-28T12:53:00Z</time>
      </trkpt>
      <trkpt lat="47.99867" lon="-2.35699">
        <ele>51.57</ele>
        <time>2012-08-28T12:53:08Z</time>
      </trkpt>
      <trkpt lat="47.99905" lon="-2.35683">
        <ele>51.09</ele>
        <time>2012-08-28T12:53:16Z</time>
      </trkpt>
      <trkpt lat="47.99945" lon="-2.35671">
        <ele>50.13</ele>
        <time>2012-08-28T12:53:24Z</time>
      </trkpt>
      <trkpt lat="47.99962" lon="-2.35667">
        <ele>49.16</ele>
        <time>2012-08-28T12:53:27Z</time>
      </trkpt>
      <trkpt lat="47.99981" lon="-2.35663">
        <ele>49.16</ele>
        <time>2012-08-28T12:53:31Z</time>
      </trkpt>
      <trkpt lat="48.00002" lon="-2.35655">
        <ele>48.68</ele>
        <time>2012-08-28T12:53:37Z</time>
      </trkpt>
      <trkpt lat="48.00027" lon="-2.35648">
        <ele>48.2</ele>
        <time>2012-08-28T12:53:43Z</time>
      </trkpt>
      <trkpt lat="48.0006" lon="-2.35636">
        <ele>48.2</ele>
        <time>2012-08-28T12:53:50Z</time>
      </trkpt>
      <trkpt lat="48.00098" lon="-2.35624">
        <ele>47.72</ele>
        <time>2012-08-28T12:53:57Z</time>
      </trkpt>
      <trkpt lat="48.00144" lon="-2.35611">
        <ele>49.16</ele>
        <time>2012-08-28T12:54:06Z</time>
      </trkpt>
      <trkpt lat="48.00198" lon="-2.35598">
        <ele>50.61</ele>
        <time>2012-08-28T12:54:16Z</time>
      </trkpt>
      <trkpt lat="48.0024" lon="-2.35584">
        <ele>51.57</ele>
        <time>2012-08-28T12:54:24Z</time>
      </trkpt>
      <trkpt lat="48.00277" lon="-2.3557">
        <ele>52.05</ele>
        <time>2012-08-28T12:54:32Z</time>
      </trkpt>
      <trkpt lat="48.00285" lon="-2.35567">
        <ele>52.53</ele>
        <time>2012-08-28T12:54:34Z</time>
      </trkpt>
      <trkpt lat="48.00329" lon="-2.35553">
        <ele>52.53</ele>
        <time>2012-08-28T12:54:44Z</time>
      </trkpt>
      <trkpt lat="48.00347" lon="-2.35549">
        <ele>52.53</ele>
        <time>2012-08-28T12:54:48Z</time>
      </trkpt>
      <trkpt lat="48.00393" lon="-2.35534">
        <ele>53.01</ele>
        <time>2012-08-28T12:54:58Z</time>
      </trkpt>
      <trkpt lat="48.00438" lon="-2.35518">
        <ele>53.49</ele>
        <time>2012-08-28T12:55:08Z</time>
      </trkpt>
      <trkpt lat="48.00477" lon="-2.35506">
        <ele>53.49</ele>
        <time>2012-08-28T12:55:17Z</time>
      </trkpt>
      <trkpt lat="48.00485" lon="-2.35502">
        <ele>53.49</ele>
        <time>2012-08-28T12:55:19Z</time>
      </trkpt>
      <trkpt lat="48.00503" lon="-2.35495">
        <ele>54.45</ele>
        <time>2012-08-28T12:55:23Z</time>
      </trkpt>
      <trkpt lat="48.00512" lon="-2.35493">
        <ele>54.45</ele>
        <time>2012-08-28T12:55:25Z</time>
      </trkpt>
      <trkpt lat="48.00549" lon="-2.35481">
        <ele>56.37</ele>
        <time>2012-08-28T12:55:33Z</time>
      </trkpt>
      <trkpt lat="48.00598" lon="-2.35467">
        <ele>56.86</ele>
        <time>2012-08-28T12:55:43Z</time>
      </trkpt>
      <trkpt lat="48.00649" lon="-2.35451">
        <ele>57.82</ele>
        <time>2012-08-28T12:55:54Z</time>
      </trkpt>
      <trkpt lat="48.0068" lon="-2.35443">
        <ele>58.3</ele>
        <time>2012-08-28T12:56:01Z</time>
      </trkpt>
      <trkpt lat="48.00694" lon="-2.35438">
        <ele>58.3</ele>
        <time>2012-08-28T12:56:04Z</time>
      </trkpt>
      <trkpt lat="48.00747" lon="-2.3543">
        <ele>59.74</ele>
        <time>2012-08-28T12:56:15Z</time>
      </trkpt>
      <trkpt lat="48.00793" lon="-2.35433">
        <ele>60.22</ele>
        <time>2012-08-28T12:56:24Z</time>
      </trkpt>
      <trkpt lat="48.0083" lon="-2.35439">
        <ele>60.22</ele>
        <time>2012-08-28T12:56:32Z</time>
      </trkpt>
      <trkpt lat="48.00866" lon="-2.35451">
        <ele>60.22</ele>
        <time>2012-08-28T12:56:39Z</time>
      </trkpt>
      <trkpt lat="48.00911" lon="-2.35473">
        <ele>59.26</ele>
        <time>2012-08-28T12:56:47Z</time>
      </trkpt>
      <trkpt lat="48.00952" lon="-2.35495">
        <ele>57.82</ele>
        <time>2012-08-28T12:56:55Z</time>
      </trkpt>
      <trkpt lat="48.00986" lon="-2.35514">
        <ele>56.37</ele>
        <time>2012-08-28T12:57:02Z</time>
      </trkpt>
      <trkpt lat="48.01025" lon="-2.35533">
        <ele>54.45</ele>
        <time>2012-08-28T12:57:09Z</time>
      </trkpt>
      <trkpt lat="48.01036" lon="-2.35539">
        <ele>54.45</ele>
        <time>2012-08-28T12:57:11Z</time>
      </trkpt>
      <trkpt lat="48.01047" lon="-2.35541">
        <ele>53.49</ele>
        <time>2012-08-28T12:57:13Z</time>
      </trkpt>
      <trkpt lat="48.01066" lon="-2.35553">
        <ele>53.49</ele>
        <time>2012-08-28T12:57:18Z</time>
      </trkpt>
      <trkpt lat="48.01075" lon="-2.35556">
        <ele>53.97</ele>
        <time>2012-08-28T12:57:20Z</time>
      </trkpt>
      <trkpt lat="48.01101" lon="-2.35572">
        <ele>53.01</ele>
        <time>2012-08-28T12:57:26Z</time>
      </trkpt>
      <trkpt lat="48.01142" lon="-2.35594">
        <ele>51.09</ele>
        <time>2012-08-28T12:57:34Z</time>
      </trkpt>
      <trkpt lat="48.01191" lon="-2.35618">
        <ele>48.68</ele>
        <time>2012-08-28T12:57:42Z</time>
      </trkpt>
      <trkpt lat="48.01204" lon="-2.35624">
        <ele>48.68</ele>
        <time>2012-08-28T12:57:44Z</time>
      </trkpt>
      <trkpt lat="48.0125" lon="-2.35638">
        <ele>47.24</ele>
        <time>2012-08-28T12:57:51Z</time>
      </trkpt>
      <trkpt lat="48.01256" lon="-2.3564">
        <ele>47.24</ele>
        <time>2012-08-28T12:57:52Z</time>
      </trkpt>
      <trkpt lat="48.01315" lon="-2.35649">
        <ele>46.28</ele>
        <time>2012-08-28T12:58:01Z</time>
      </trkpt>
      <trkpt lat="48.0136" lon="-2.35648">
        <ele>45.32</ele>
        <time>2012-08-28T12:58:08Z</time>
      </trkpt>
      <trkpt lat="48.01387" lon="-2.35642">
        <ele>45.32</ele>
        <time>2012-08-28T12:58:13Z</time>
      </trkpt>
      <trkpt lat="48.01446" lon="-2.35625">
        <ele>44.84</ele>
        <time>2012-08-28T12:58:23Z</time>
      </trkpt>
      <trkpt lat="48.01492" lon="-2.35601">
        <ele>43.4</ele>
        <time>2012-08-28T12:58:31Z</time>
      </trkpt>
      <trkpt lat="48.01531" lon="-2.35575">
        <ele>41.95</ele>
        <time>2012-08-28T12:58:38Z</time>
      </trkpt>
      <trkpt lat="48.01576" lon="-2.35543">
        <ele>39.55</ele>
        <time>2012-08-28T12:58:46Z</time>
      </trkpt>
      <trkpt lat="48.01607" lon="-2.35521">
        <ele>37.63</ele>
        <time>2012-08-28T12:58:52Z</time>
      </trkpt>
      <trkpt lat="48.01624" lon="-2.35509">
        <ele>36.67</ele>
        <time>2012-08-28T12:58:56Z</time>
      </trkpt>
      <trkpt lat="48.01672" lon="-2.35474">
        <ele>34.74</ele>
        <time>2012-08-28T12:59:05Z</time>
      </trkpt>
      <trkpt lat="48.017" lon="-2.35457">
        <ele>34.26</ele>
        <time>2012-08-28T12:59:10Z</time>
      </trkpt>
      <trkpt lat="48.0174" lon="-2.35433">
        <ele>33.78</ele>
        <time>2012-08-28T12:59:18Z</time>
      </trkpt>
      <trkpt lat="48.01755" lon="-2.35423">
        <ele>33.78</ele>
        <time>2012-08-28T12:59:21Z</time>
      </trkpt>
      <trkpt lat="48.01768" lon="-2.35412">
        <ele>33.78</ele>
        <time>2012-08-28T12:59:24Z</time>
      </trkpt>
      <trkpt lat="48.01791" lon="-2.35394">
        <ele>34.74</ele>
        <time>2012-08-28T12:59:30Z</time>
      </trkpt>
      <trkpt lat="48.01801" lon="-2.35387">
        <ele>35.23</ele>
        <time>2012-08-28T12:59:33Z</time>
      </trkpt>
      <trkpt lat="48.01815" lon="-2.35382">
        <ele>35.71</ele>
        <time>2012-08-28T12:59:37Z</time>
      </trkpt>
      <trkpt lat="48.01839" lon="-2.35365">
        <ele>35.71</ele>
        <time>2012-08-28T12:59:43Z</time>
      </trkpt>
      <trkpt lat="48.01877" lon="-2.35339">
        <ele>37.15</ele>
        <time>2012-08-28T12:59:52Z</time>
      </trkpt>
      <trkpt lat="48.01925" lon="-2.35305">
        <ele>38.59</ele>
        <time>2012-08-28T13:00:02Z</time>
      </trkpt>
      <trkpt lat="48.01963" lon="-2.35278">
        <ele>39.07</ele>
        <time>2012-08-28T13:00:10Z</time>
      </trkpt>
      <trkpt lat="48.01996" lon="-2.35255">
        <ele>39.07</ele>
        <time>2012-08-28T13:00:16Z</time>
      </trkpt>
      <trkpt lat="48.02023" lon="-2.35237">
        <ele>39.07</ele>
        <time>2012-08-28T13:00:21Z</time>
      </trkpt>
      <trkpt lat="48.02057" lon="-2.35214">
        <ele>38.59</ele>
        <time>2012-08-28T13:00:28Z</time>
      </trkpt>
      <trkpt lat="48.02099" lon="-2.35184">
        <ele>38.59</ele>
        <time>2012-08-28T13:00:36Z</time>
      </trkpt>
      <trkpt lat="48.02115" lon="-2.35173">
        <ele>38.59</ele>
        <time>2012-08-28T13:00:39Z</time>
      </trkpt>
      <trkpt lat="48.02152" lon="-2.35148">
        <ele>40.51</ele>
        <time>2012-08-28T13:00:46Z</time>
      </trkpt>
      <trkpt lat="48.02189" lon="-2.35117">
        <ele>40.99</ele>
        <time>2012-08-28T13:00:54Z</time>
      </trkpt>
      <trkpt lat="48.02216" lon="-2.35095">
        <ele>41.47</ele>
        <time>2012-08-28T13:01:00Z</time>
      </trkpt>
      <trkpt lat="48.02265" lon="-2.35052">
        <ele>43.4</ele>
        <time>2012-08-28T13:01:10Z</time>
      </trkpt>
      <trkpt lat="48.02274" lon="-2.35045">
        <ele>43.4</ele>
        <time>2012-08-28T13:01:12Z</time>
      </trkpt>
      <trkpt lat="48.02314" lon="-2.35003">
        <ele>44.84</ele>
        <time>2012-08-28T13:01:22Z</time>
      </trkpt>
      <trkpt lat="48.02339" lon="-2.3498">
        <ele>44.84</ele>
        <time>2012-08-28T13:01:27Z</time>
      </trkpt>
      <trkpt lat="48.02367" lon="-2.34948">
        <ele>45.8</ele>
        <time>2012-08-28T13:01:31Z</time>
      </trkpt>
      <trkpt lat="48.02379" lon="-2.34926">
        <ele>46.28</ele>
        <time>2012-08-28T13:01:36Z</time>
      </trkpt>
      <trkpt lat="48.02394" lon="-2.3491">
        <ele>46.28</ele>
        <time>2012-08-28T13:01:42Z</time>
      </trkpt>
      <trkpt lat="48.02396" lon="-2.34907">
        <ele>46.76</ele>
        <time>2012-08-28T13:01:43Z</time>
      </trkpt>
      <trkpt lat="48.02421" lon="-2.34869">
        <ele>48.68</ele>
        <time>2012-08-28T13:01:54Z</time>
      </trkpt>
      <trkpt lat="48.02442" lon="-2.34842">
        <ele>50.13</ele>
        <time>2012-08-28T13:02:03Z</time>
      </trkpt>
      <trkpt lat="48.02463" lon="-2.34814">
        <ele>52.05</ele>
        <time>2012-08-28T13:02:11Z</time>
      </trkpt>
      <trkpt lat="48.02479" lon="-2.34793">
        <ele>53.01</ele>
        <time>2012-08-28T13:02:16Z</time>
      </trkpt>
      <trkpt lat="48.02509" lon="-2.34751">
        <ele>54.93</ele>
        <time>2012-08-28T13:02:25Z</time>
      </trkpt>
      <trkpt lat="48.02524" lon="-2.34724">
        <ele>56.86</ele>
        <time>2012-08-28T13:02:31Z</time>
      </trkpt>
      <trkpt lat="48.02531" lon="-2.3471">
        <ele>57.34</ele>
        <time>2012-08-28T13:02:34Z</time>
      </trkpt>
      <trkpt lat="48.0256" lon="-2.34671">
        <ele>58.78</ele>
        <time>2012-08-28T13:02:43Z</time>
      </trkpt>
      <trkpt lat="48.02577" lon="-2.34644">
        <ele>59.26</ele>
        <time>2012-08-28T13:02:49Z</time>
      </trkpt>
      <trkpt lat="48.026" lon="-2.3461">
        <ele>56.86</ele>
        <time>2012-08-28T13:02:56Z</time>
      </trkpt>
      <trkpt lat="48.0263" lon="-2.3457">
        <ele>53.49</ele>
        <time>2012-08-28T13:03:04Z</time>
      </trkpt>
      <trkpt lat="48.02663" lon="-2.34525">
        <ele>51.57</ele>
        <time>2012-08-28T13:03:13Z</time>
      </trkpt>
      <trkpt lat="48.02701" lon="-2.34473">
        <ele>53.01</ele>
        <time>2012-08-28T13:03:22Z</time>
      </trkpt>
      <trkpt lat="48.02724" lon="-2.34439">
        <ele>53.49</ele>
        <time>2012-08-28T13:03:30Z</time>
      </trkpt>
      <trkpt lat="48.02752" lon="-2.34398">
        <ele>54.45</ele>
        <time>2012-08-28T13:03:39Z</time>
      </trkpt>
      <trkpt lat="48.02783" lon="-2.34355">
        <ele>52.05</ele>
        <time>2012-08-28T13:03:49Z</time>
      </trkpt>
      <trkpt lat="48.02822" lon="-2.343">
        <ele>53.01</ele>
        <time>2012-08-28T13:04:00Z</time>
      </trkpt>
      <trkpt lat="48.02853" lon="-2.34259">
        <ele>53.97</ele>
        <time>2012-08-28T13:04:09Z</time>
      </trkpt>
      <trkpt lat="48.02866" lon="-2.34239">
        <ele>54.93</ele>
        <time>2012-08-28T13:04:13Z</time>
      </trkpt>
      <trkpt lat="48.02904" lon="-2.34187">
        <ele>54.93</ele>
        <time>2012-08-28T13:04:24Z</time>
      </trkpt>
      <trkpt lat="48.02928" lon="-2.34153">
        <ele>55.41</ele>
        <time>2012-08-28T13:04:32Z</time>
      </trkpt>
      <trkpt lat="48.02963" lon="-2.34105">
        <ele>56.86</ele>
        <time>2012-08-28T13:04:42Z</time>
      </trkpt>
      <trkpt lat="48.02987" lon="-2.34071">
        <ele>56.86</ele>
        <time>2012-08-28T13:04:49Z</time>
      </trkpt>
      <trkpt lat="48.03012" lon="-2.34034">
        <ele>55.89</ele>
        <time>2012-08-28T13:04:56Z</time>
      </trkpt>
      <trkpt lat="48.03039" lon="-2.3399">
        <ele>55.89</ele>
        <time>2012-08-28T13:05:04Z</time>
      </trkpt>
      <trkpt lat="48.03068" lon="-2.33938">
        <ele>53.97</ele>
        <time>2012-08-28T13:05:12Z</time>
      </trkpt>
      <trkpt lat="48.03101" lon="-2.33877">
        <ele>52.53</ele>
        <time>2012-08-28T13:05:21Z</time>
      </trkpt>
      <trkpt lat="48.03123" lon="-2.33836">
        <ele>52.05</ele>
        <time>2012-08-28T13:05:28Z</time>
      </trkpt>
      <trkpt lat="48.0313" lon="-2.33813">
        <ele>52.05</ele>
        <time>2012-08-28T13:05:32Z</time>
      </trkpt>
      <trkpt lat="48.03132" lon="-2.33807">
        <ele>52.05</ele>
        <time>2012-08-28T13:05:33Z</time>
      </trkpt>
      <trkpt lat="48.03143" lon="-2.33789">
        <ele>52.05</ele>
        <time>2012-08-28T13:05:37Z</time>
      </trkpt>
      <trkpt lat="48.03158" lon="-2.33751">
        <ele>50.61</ele>
        <time>2012-08-28T13:05:43Z</time>
      </trkpt>
      <trkpt lat="48.03174" lon="-2.33709">
        <ele>50.61</ele>
        <time>2012-08-28T13:05:49Z</time>
      </trkpt>
      <trkpt lat="48.03177" lon="-2.33702">
        <ele>50.61</ele>
        <time>2012-08-28T13:05:50Z</time>
      </trkpt>
      <trkpt lat="48.03194" lon="-2.33658">
        <ele>51.09</ele>
        <time>2012-08-28T13:05:57Z</time>
      </trkpt>
      <trkpt lat="48.03209" lon="-2.33618">
        <ele>51.57</ele>
        <time>2012-08-28T13:06:03Z</time>
      </trkpt>
      <trkpt lat="48.03231" lon="-2.33562">
        <ele>53.01</ele>
        <time>2012-08-28T13:06:11Z</time>
      </trkpt>
      <trkpt lat="48.03251" lon="-2.33514">
        <ele>53.97</ele>
        <time>2012-08-28T13:06:18Z</time>
      </trkpt>
      <trkpt lat="48.03277" lon="-2.33452">
        <ele>55.89</ele>
        <time>2012-08-28T13:06:27Z</time>
      </trkpt>
      <trkpt lat="48.03301" lon="-2.33395">
        <ele>58.3</ele>
        <time>2012-08-28T13:06:35Z</time>
      </trkpt>
      <trkpt lat="48.03325" lon="-2.33339">
        <ele>59.74</ele>
        <time>2012-08-28T13:06:43Z</time>
      </trkpt>
      <trkpt lat="48.03331" lon="-2.33326">
        <ele>60.22</ele>
        <time>2012-08-28T13:06:45Z</time>
      </trkpt>
      <trkpt lat="48.03354" lon="-2.33269">
        <ele>61.18</ele>
        <time>2012-08-28T13:06:53Z</time>
      </trkpt>
      <trkpt lat="48.03372" lon="-2.33223">
        <ele>61.66</ele>
        <time>2012-08-28T13:06:59Z</time>
      </trkpt>
      <trkpt lat="48.0338" lon="-2.332">
        <ele>62.14</ele>
        <time>2012-08-28T13:07:02Z</time>
      </trkpt>
      <trkpt lat="48.03417" lon="-2.33127">
        <ele>57.82</ele>
        <time>2012-08-28T13:07:12Z</time>
      </trkpt>
      <trkpt lat="48.03446" lon="-2.33077">
        <ele>57.34</ele>
        <time>2012-08-28T13:07:19Z</time>
      </trkpt>
      <trkpt lat="48.03489" lon="-2.3302">
        <ele>56.86</ele>
        <time>2012-08-28T13:07:28Z</time>
      </trkpt>
      <trkpt lat="48.03532" lon="-2.32972">
        <ele>55.89</ele>
        <time>2012-08-28T13:07:37Z</time>
      </trkpt>
      <trkpt lat="48.0357" lon="-2.32932">
        <ele>54.93</ele>
        <time>2012-08-28T13:07:45Z</time>
      </trkpt>
      <trkpt lat="48.03609" lon="-2.32891">
        <ele>53.97</ele>
        <time>2012-08-28T13:07:53Z</time>
      </trkpt>
      <trkpt lat="48.03648" lon="-2.32837">
        <ele>51.09</ele>
        <time>2012-08-28T13:08:02Z</time>
      </trkpt>
      <trkpt lat="48.03689" lon="-2.32771">
        <ele>48.68</ele>
        <time>2012-08-28T13:08:12Z</time>
      </trkpt>
      <trkpt lat="48.03704" lon="-2.32744">
        <ele>48.2</ele>
        <time>2012-08-28T13:08:16Z</time>
      </trkpt>
      <trkpt lat="48.03731" lon="-2.32681">
        <ele>46.28</ele>
        <time>2012-08-28T13:08:25Z</time>
      </trkpt>
      <trkpt lat="48.03749" lon="-2.32622">
        <ele>47.24</ele>
        <time>2012-08-28T13:08:33Z</time>
      </trkpt>
      <trkpt lat="48.03785" lon="-2.32526">
        <ele>50.13</ele>
        <time>2012-08-28T13:08:46Z</time>
      </trkpt>
      <trkpt lat="48.0381" lon="-2.32459">
        <ele>51.57</ele>
        <time>2012-08-28T13:08:55Z</time>
      </trkpt>
      <trkpt lat="48.03835" lon="-2.32383">
        <ele>52.05</ele>
        <time>2012-08-28T13:09:05Z</time>
      </trkpt>
      <trkpt lat="48.03863" lon="-2.32305">
        <ele>52.05</ele>
        <time>2012-08-28T13:09:15Z</time>
      </trkpt>
      <trkpt lat="48.03891" lon="-2.32227">
        <ele>53.01</ele>
        <time>2012-08-28T13:09:25Z</time>
      </trkpt>
      <trkpt lat="48.03922" lon="-2.32138">
        <ele>52.53</ele>
        <time>2012-08-28T13:09:37Z</time>
      </trkpt>
      <trkpt lat="48.03942" lon="-2.32077">
        <ele>52.53</ele>
        <time>2012-08-28T13:09:45Z</time>
      </trkpt>
      <trkpt lat="48.03965" lon="-2.32011">
        <ele>52.53</ele>
        <time>2012-08-28T13:09:53Z</time>
      </trkpt>
      <trkpt lat="48.03988" lon="-2.31944">
        <ele>51.57</ele>
        <time>2012-08-28T13:10:01Z</time>
      </trkpt>
      <trkpt lat="48.04004" lon="-2.31898">
        <ele>50.13</ele>
        <time>2012-08-28T13:10:07Z</time>
      </trkpt>
      <trkpt lat="48.04028" lon="-2.31837">
        <ele>46.76</ele>
        <time>2012-08-28T13:10:15Z</time>
      </trkpt>
      <trkpt lat="48.04059" lon="-2.31772">
        <ele>44.36</ele>
        <time>2012-08-28T13:10:23Z</time>
      </trkpt>
      <trkpt lat="48.04091" lon="-2.31719">
        <ele>42.44</ele>
        <time>2012-08-28T13:10:31Z</time>
      </trkpt>
      <trkpt lat="48.04132" lon="-2.31662">
        <ele>40.99</ele>
        <time>2012-08-28T13:10:40Z</time>
      </trkpt>
      <trkpt lat="48.04185" lon="-2.31615">
        <ele>40.51</ele>
        <time>2012-08-28T13:10:48Z</time>
      </trkpt>
      <trkpt lat="48.04233" lon="-2.31582">
        <ele>40.51</ele>
        <time>2012-08-28T13:10:56Z</time>
      </trkpt>
      <trkpt lat="48.04283" lon="-2.31554">
        <ele>40.51</ele>
        <time>2012-08-28T13:11:04Z</time>
      </trkpt>
      <trkpt lat="48.04333" lon="-2.31537">
        <ele>42.44</ele>
        <time>2012-08-28T13:11:12Z</time>
      </trkpt>
      <trkpt lat="48.0439" lon="-2.31528">
        <ele>44.84</ele>
        <time>2012-08-28T13:11:21Z</time>
      </trkpt>
      <trkpt lat="48.04438" lon="-2.31517">
        <ele>47.24</ele>
        <time>2012-08-28T13:11:29Z</time>
      </trkpt>
      <trkpt lat="48.04477" lon="-2.31508">
        <ele>48.68</ele>
        <time>2012-08-28T13:11:36Z</time>
      </trkpt>
      <trkpt lat="48.045" lon="-2.31503">
        <ele>49.16</ele>
        <time>2012-08-28T13:11:41Z</time>
      </trkpt>
      <trkpt lat="48.04512" lon="-2.315">
        <ele>49.65</ele>
        <time>2012-08-28T13:11:45Z</time>
      </trkpt>
      <trkpt lat="48.04534" lon="-2.31498">
        <ele>49.65</ele>
        <time>2012-08-28T13:11:51Z</time>
      </trkpt>
      <trkpt lat="48.04569" lon="-2.31488">
        <ele>49.65</ele>
        <time>2012-08-28T13:11:58Z</time>
      </trkpt>
      <trkpt lat="48.04619" lon="-2.31476">
        <ele>49.16</ele>
        <time>2012-08-28T13:12:07Z</time>
      </trkpt>
      <trkpt lat="48.04669" lon="-2.31465">
        <ele>49.16</ele>
        <time>2012-08-28T13:12:16Z</time>
      </trkpt>
      <trkpt lat="48.04721" lon="-2.31453">
        <ele>49.65</ele>
        <time>2012-08-28T13:12:25Z</time>
      </trkpt>
      <trkpt lat="48.04765" lon="-2.31442">
        <ele>49.16</ele>
        <time>2012-08-28T13:12:33Z</time>
      </trkpt>
      <trkpt lat="48.04776" lon="-2.31439">
        <ele>49.16</ele>
        <time>2012-08-28T13:12:35Z</time>
      </trkpt>
      <trkpt lat="48.04827" lon="-2.31427">
        <ele>49.16</ele>
        <time>2012-08-28T13:12:44Z</time>
      </trkpt>
      <trkpt lat="48.04883" lon="-2.31414">
        <ele>49.65</ele>
        <time>2012-08-28T13:12:54Z</time>
      </trkpt>
      <trkpt lat="48.04942" lon="-2.314">
        <ele>49.16</ele>
        <time>2012-08-28T13:13:04Z</time>
      </trkpt>
      <trkpt lat="48.04987" lon="-2.31383">
        <ele>49.16</ele>
        <time>2012-08-28T13:13:12Z</time>
      </trkpt>
      <trkpt lat="48.05024" lon="-2.31367">
        <ele>49.65</ele>
        <time>2012-08-28T13:13:18Z</time>
      </trkpt>
      <trkpt lat="48.05057" lon="-2.31349">
        <ele>50.13</ele>
        <time>2012-08-28T13:13:24Z</time>
      </trkpt>
      <trkpt lat="48.0507" lon="-2.31334">
        <ele>50.13</ele>
        <time>2012-08-28T13:13:28Z</time>
      </trkpt>
      <trkpt lat="48.05081" lon="-2.31329">
        <ele>50.13</ele>
        <time>2012-08-28T13:13:31Z</time>
      </trkpt>
      <trkpt lat="48.05109" lon="-2.31304">
        <ele>49.16</ele>
        <time>2012-08-28T13:13:38Z</time>
      </trkpt>
      <trkpt lat="48.05144" lon="-2.31266">
        <ele>48.2</ele>
        <time>2012-08-28T13:13:46Z</time>
      </trkpt>
      <trkpt lat="48.05167" lon="-2.31237">
        <ele>47.24</ele>
        <time>2012-08-28T13:13:52Z</time>
      </trkpt>
      <trkpt lat="48.05202" lon="-2.31193">
        <ele>46.28</ele>
        <time>2012-08-28T13:14:00Z</time>
      </trkpt>
      <trkpt lat="48.05244" lon="-2.3114">
        <ele>47.24</ele>
        <time>2012-08-28T13:14:09Z</time>
      </trkpt>
      <trkpt lat="48.05278" lon="-2.31096">
        <ele>47.24</ele>
        <time>2012-08-28T13:14:16Z</time>
      </trkpt>
      <trkpt lat="48.05316" lon="-2.31049">
        <ele>47.24</ele>
        <time>2012-08-28T13:14:24Z</time>
      </trkpt>
      <trkpt lat="48.05352" lon="-2.31002">
        <ele>49.16</ele>
        <time>2012-08-28T13:14:32Z</time>
      </trkpt>
      <trkpt lat="48.05388" lon="-2.30957">
        <ele>49.65</ele>
        <time>2012-08-28T13:14:40Z</time>
      </trkpt>
      <trkpt lat="48.05427" lon="-2.30907">
        <ele>50.61</ele>
        <time>2012-08-28T13:14:49Z</time>
      </trkpt>
      <trkpt lat="48.0547" lon="-2.30852">
        <ele>51.09</ele>
        <time>2012-08-28T13:14:59Z</time>
      </trkpt>
      <trkpt lat="48.05485" lon="-2.30831">
        <ele>51.09</ele>
        <time>2012-08-28T13:15:03Z</time>
      </trkpt>
      <trkpt lat="48.05518" lon="-2.30791">
        <ele>51.57</ele>
        <time>2012-08-28T13:15:11Z</time>
      </trkpt>
      <trkpt lat="48.05553" lon="-2.30745">
        <ele>52.05</ele>
        <time>2012-08-28T13:15:20Z</time>
      </trkpt>
      <trkpt lat="48.05587" lon="-2.30702">
        <ele>53.01</ele>
        <time>2012-08-28T13:15:29Z</time>
      </trkpt>
      <trkpt lat="48.05614" lon="-2.30668">
        <ele>53.49</ele>
        <time>2012-08-28T13:15:37Z</time>
      </trkpt>
      <trkpt lat="48.0562" lon="-2.30657">
        <ele>53.97</ele>
        <time>2012-08-28T13:15:40Z</time>
      </trkpt>
      <trkpt lat="48.05633" lon="-2.30644">
        <ele>53.97</ele>
        <time>2012-08-28T13:15:46Z</time>
      </trkpt>
      <trkpt lat="48.05658" lon="-2.30612">
        <ele>55.41</ele>
        <time>2012-08-28T13:15:55Z</time>
      </trkpt>
      <trkpt lat="48.0568" lon="-2.30583">
        <ele>55.89</ele>
        <time>2012-08-28T13:16:02Z</time>
      </trkpt>
      <trkpt lat="48.05684" lon="-2.30578">
        <ele>55.89</ele>
        <time>2012-08-28T13:16:03Z</time>
      </trkpt>
      <trkpt lat="48.05723" lon="-2.30529">
        <ele>55.89</ele>
        <time>2012-08-28T13:16:13Z</time>
      </trkpt>
      <trkpt lat="48.05726" lon="-2.30524">
        <ele>55.89</ele>
        <time>2012-08-28T13:16:14Z</time>
      </trkpt>
      <trkpt lat="48.05759" lon="-2.30483">
        <ele>55.41</ele>
        <time>2012-08-28T13:16:22Z</time>
      </trkpt>
      <trkpt lat="48.05801" lon="-2.30431">
        <ele>55.89</ele>
        <time>2012-08-28T13:16:32Z</time>
      </trkpt>
      <trkpt lat="48.05832" lon="-2.30397">
        <ele>55.41</ele>
        <time>2012-08-28T13:16:39Z</time>
      </trkpt>
      <trkpt lat="48.05885" lon="-2.30354">
        <ele>54.45</ele>
        <time>2012-08-28T13:16:49Z</time>
      </trkpt>
      <trkpt lat="48.05926" lon="-2.3033">
        <ele>53.49</ele>
        <time>2012-08-28T13:16:56Z</time>
      </trkpt>
      <trkpt lat="48.05962" lon="-2.30314">
        <ele>53.97</ele>
        <time>2012-08-28T13:17:02Z</time>
      </trkpt>
      <trkpt lat="48.06015" lon="-2.30301">
        <ele>54.93</ele>
        <time>2012-08-28T13:17:10Z</time>
      </trkpt>
      <trkpt lat="48.06062" lon="-2.30296">
        <ele>55.41</ele>
        <time>2012-08-28T13:17:17Z</time>
      </trkpt>
      <trkpt lat="48.06092" lon="-2.30296">
        <ele>55.41</ele>
        <time>2012-08-28T13:17:22Z</time>
      </trkpt>
      <trkpt lat="48.06133" lon="-2.30301">
        <ele>56.86</ele>
        <time>2012-08-28T13:17:29Z</time>
      </trkpt>
      <trkpt lat="48.06184" lon="-2.30308">
        <ele>57.82</ele>
        <time>2012-08-28T13:17:37Z</time>
      </trkpt>
      <trkpt lat="48.06233" lon="-2.30315">
        <ele>59.26</ele>
        <time>2012-08-28T13:17:45Z</time>
      </trkpt>
      <trkpt lat="48.0625" lon="-2.30318">
        <ele>59.74</ele>
        <time>2012-08-28T13:17:48Z</time>
      </trkpt>
      <trkpt lat="48.06293" lon="-2.30322">
        <ele>60.22</ele>
        <time>2012-08-28T13:17:56Z</time>
      </trkpt>
      <trkpt lat="48.06297" lon="-2.30322">
        <ele>60.22</ele>
        <time>2012-08-28T13:17:57Z</time>
      </trkpt>
      <trkpt lat="48.06347" lon="-2.3032">
        <ele>59.74</ele>
        <time>2012-08-28T13:18:07Z</time>
      </trkpt>
      <trkpt lat="48.06382" lon="-2.30312">
        <ele>59.74</ele>
        <time>2012-08-28T13:18:15Z</time>
      </trkpt>
      <trkpt lat="48.06414" lon="-2.30303">
        <ele>59.74</ele>
        <time>2012-08-28T13:18:23Z</time>
      </trkpt>
      <trkpt lat="48.06447" lon="-2.30284">
        <ele>60.22</ele>
        <time>2012-08-28T13:18:31Z</time>
      </trkpt>
      <trkpt lat="48.06476" lon="-2.30266">
        <ele>60.7</ele>
        <time>2012-08-28T13:18:39Z</time>
      </trkpt>
      <trkpt lat="48.06505" lon="-2.30245">
        <ele>61.66</ele>
        <time>2012-08-28T13:18:46Z</time>
      </trkpt>
      <trkpt lat="48.06539" lon="-2.30216">
        <ele>62.14</ele>
        <time>2012-08-28T13:18:53Z</time>
      </trkpt>
      <trkpt lat="48.06587" lon="-2.30168">
        <ele>60.7</ele>
        <time>2012-08-28T13:19:02Z</time>
      </trkpt>
      <trkpt lat="48.06617" lon="-2.30126">
        <ele>58.78</ele>
        <time>2012-08-28T13:19:10Z</time>
      </trkpt>
      <trkpt lat="48.06639" lon="-2.3009">
        <ele>55.89</ele>
        <time>2012-08-28T13:19:17Z</time>
      </trkpt>
      <trkpt lat="48.06648" lon="-2.30074">
        <ele>55.41</ele>
        <time>2012-08-28T13:19:20Z</time>
      </trkpt>
      <trkpt lat="48.06664" lon="-2.30044">
        <ele>54.93</ele>
        <time>2012-08-28T13:19:25Z</time>
      </trkpt>
      <trkpt lat="48.06689" lon="-2.29993">
        <ele>55.41</ele>
        <time>2012-08-28T13:19:33Z</time>
      </trkpt>
      <trkpt lat="48.06703" lon="-2.2996">
        <ele>55.41</ele>
        <time>2012-08-28T13:19:38Z</time>
      </trkpt>
      <trkpt lat="48.06726" lon="-2.29886">
        <ele>53.97</ele>
        <time>2012-08-28T13:19:48Z</time>
      </trkpt>
      <trkpt lat="48.06728" lon="-2.29879">
        <ele>53.97</ele>
        <time>2012-08-28T13:19:49Z</time>
      </trkpt>
      <trkpt lat="48.06743" lon="-2.29809">
        <ele>53.01</ele>
        <time>2012-08-28T13:19:57Z</time>
      </trkpt>
      <trkpt lat="48.06767" lon="-2.29714">
        <ele>54.93</ele>
        <time>2012-08-28T13:20:08Z</time>
      </trkpt>
      <trkpt lat="48.06783" lon="-2.29637">
        <ele>55.89</ele>
        <time>2012-08-28T13:20:17Z</time>
      </trkpt>
      <trkpt lat="48.06798" lon="-2.29572">
        <ele>56.37</ele>
        <time>2012-08-28T13:20:25Z</time>
      </trkpt>
      <trkpt lat="48.06813" lon="-2.2951">
        <ele>56.86</ele>
        <time>2012-08-28T13:20:33Z</time>
      </trkpt>
      <trkpt lat="48.06815" lon="-2.29485">
        <ele>57.34</ele>
        <time>2012-08-28T13:20:37Z</time>
      </trkpt>
      <trkpt lat="48.06821" lon="-2.29465">
        <ele>57.34</ele>
        <time>2012-08-28T13:20:41Z</time>
      </trkpt>
      <trkpt lat="48.06831" lon="-2.29419">
        <ele>56.37</ele>
        <time>2012-08-28T13:20:48Z</time>
      </trkpt>
      <trkpt lat="48.0685" lon="-2.29339">
        <ele>55.89</ele>
        <time>2012-08-28T13:20:59Z</time>
      </trkpt>
      <trkpt lat="48.06875" lon="-2.29269">
        <ele>54.93</ele>
        <time>2012-08-28T13:21:09Z</time>
      </trkpt>
      <trkpt lat="48.0688" lon="-2.29257">
        <ele>54.45</ele>
        <time>2012-08-28T13:21:11Z</time>
      </trkpt>
      <trkpt lat="48.06904" lon="-2.29205">
        <ele>53.49</ele>
        <time>2012-08-28T13:21:19Z</time>
      </trkpt>
      <trkpt lat="48.06936" lon="-2.29153">
        <ele>52.53</ele>
        <time>2012-08-28T13:21:28Z</time>
      </trkpt>
      <trkpt lat="48.0695" lon="-2.2913">
        <ele>52.53</ele>
        <time>2012-08-28T13:21:32Z</time>
      </trkpt>
      <trkpt lat="48.06965" lon="-2.29111">
        <ele>52.53</ele>
        <time>2012-08-28T13:21:37Z</time>
      </trkpt>
      <trkpt lat="48.06989" lon="-2.29077">
        <ele>52.53</ele>
        <time>2012-08-28T13:21:44Z</time>
      </trkpt>
      <trkpt lat="48.07032" lon="-2.29032">
        <ele>53.97</ele>
        <time>2012-08-28T13:21:53Z</time>
      </trkpt>
      <trkpt lat="48.07078" lon="-2.28985">
        <ele>55.89</ele>
        <time>2012-08-28T13:22:02Z</time>
      </trkpt>
      <trkpt lat="48.07116" lon="-2.28945">
        <ele>57.82</ele>
        <time>2012-08-28T13:22:10Z</time>
      </trkpt>
      <trkpt lat="48.07158" lon="-2.28906">
        <ele>58.78</ele>
        <time>2012-08-28T13:22:19Z</time>
      </trkpt>
      <trkpt lat="48.07176" lon="-2.28884">
        <ele>59.26</ele>
        <time>2012-08-28T13:22:25Z</time>
      </trkpt>
      <trkpt lat="48.07178" lon="-2.28882">
        <ele>59.26</ele>
        <time>2012-08-28T13:22:26Z</time>
      </trkpt>
      <trkpt lat="48.07181" lon="-2.28881">
        <ele>59.26</ele>
        <time>2012-08-28T13:22:27Z</time>
      </trkpt>
      <trkpt lat="48.07191" lon="-2.28868">
        <ele>59.74</ele>
        <time>2012-08-28T13:22:31Z</time>
      </trkpt>
      <trkpt lat="48.07192" lon="-2.28865">
        <ele>59.74</ele>
        <time>2012-08-28T13:22:32Z</time>
      </trkpt>
      <trkpt lat="48.07214" lon="-2.28845">
        <ele>59.74</ele>
        <time>2012-08-28T13:22:39Z</time>
      </trkpt>
      <trkpt lat="48.07229" lon="-2.28831">
        <ele>59.74</ele>
        <time>2012-08-28T13:22:43Z</time>
      </trkpt>
      <trkpt lat="48.07269" lon="-2.28787">
        <ele>60.22</ele>
        <time>2012-08-28T13:22:53Z</time>
      </trkpt>
      <trkpt lat="48.07307" lon="-2.28748">
        <ele>60.22</ele>
        <time>2012-08-28T13:23:01Z</time>
      </trkpt>
      <trkpt lat="48.0733" lon="-2.28725">
        <ele>60.22</ele>
        <time>2012-08-28T13:23:06Z</time>
      </trkpt>
      <trkpt lat="48.07369" lon="-2.28686">
        <ele>60.7</ele>
        <time>2012-08-28T13:23:14Z</time>
      </trkpt>
      <trkpt lat="48.07402" lon="-2.28652">
        <ele>61.18</ele>
        <time>2012-08-28T13:23:21Z</time>
      </trkpt>
      <trkpt lat="48.07436" lon="-2.28617">
        <ele>61.18</ele>
        <time>2012-08-28T13:23:28Z</time>
      </trkpt>
      <trkpt lat="48.07475" lon="-2.28573">
        <ele>61.18</ele>
        <time>2012-08-28T13:23:36Z</time>
      </trkpt>
      <trkpt lat="48.07517" lon="-2.28513">
        <ele>60.22</ele>
        <time>2012-08-28T13:23:46Z</time>
      </trkpt>
      <trkpt lat="48.07553" lon="-2.2846">
        <ele>59.74</ele>
        <time>2012-08-28T13:23:54Z</time>
      </trkpt>
      <trkpt lat="48.076" lon="-2.28392">
        <ele>59.26</ele>
        <time>2012-08-28T13:24:04Z</time>
      </trkpt>
      <trkpt lat="48.07633" lon="-2.28343">
        <ele>58.78</ele>
        <time>2012-08-28T13:24:12Z</time>
      </trkpt>
      <trkpt lat="48.07671" lon="-2.28287">
        <ele>58.3</ele>
        <time>2012-08-28T13:24:21Z</time>
      </trkpt>
      <trkpt lat="48.07711" lon="-2.2823">
        <ele>58.3</ele>
        <time>2012-08-28T13:24:30Z</time>
      </trkpt>
      <trkpt lat="48.07744" lon="-2.28185">
        <ele>58.3</ele>
        <time>2012-08-28T13:24:37Z</time>
      </trkpt>
      <trkpt lat="48.07778" lon="-2.28135">
        <ele>57.82</ele>
        <time>2012-08-28T13:24:45Z</time>
      </trkpt>
      <trkpt lat="48.07817" lon="-2.28075">
        <ele>58.3</ele>
        <time>2012-08-28T13:24:54Z</time>
      </trkpt>
      <trkpt lat="48.07863" lon="-2.28008">
        <ele>58.78</ele>
        <time>2012-08-28T13:25:04Z</time>
      </trkpt>
      <trkpt lat="48.07901" lon="-2.27953">
        <ele>59.26</ele>
        <time>2012-08-28T13:25:13Z</time>
      </trkpt>
      <trkpt lat="48.07938" lon="-2.27898">
        <ele>58.78</ele>
        <time>2012-08-28T13:25:22Z</time>
      </trkpt>
      <trkpt lat="48.07977" lon="-2.2784">
        <ele>59.26</ele>
        <time>2012-08-28T13:25:31Z</time>
      </trkpt>
      <trkpt lat="48.08026" lon="-2.27767">
        <ele>59.26</ele>
        <time>2012-08-28T13:25:42Z</time>
      </trkpt>
      <trkpt lat="48.08067" lon="-2.27708">
        <ele>59.26</ele>
        <time>2012-08-28T13:25:51Z</time>
      </trkpt>
      <trkpt lat="48.08115" lon="-2.27638">
        <ele>59.26</ele>
        <time>2012-08-28T13:26:02Z</time>
      </trkpt>
      <trkpt lat="48.08157" lon="-2.27578">
        <ele>58.78</ele>
        <time>2012-08-28T13:26:11Z</time>
      </trkpt>
      <trkpt lat="48.08189" lon="-2.2753">
        <ele>58.78</ele>
        <time>2012-08-28T13:26:19Z</time>
      </trkpt>
      <trkpt lat="48.08211" lon="-2.27495">
        <ele>59.26</ele>
        <time>2012-08-28T13:26:26Z</time>
      </trkpt>
      <trkpt lat="48.08213" lon="-2.27493">
        <ele>59.26</ele>
        <time>2012-08-28T13:26:27Z</time>
      </trkpt>
      <trkpt lat="48.08226" lon="-2.27487">
        <ele>59.74</ele>
        <time>2012-08-28T13:26:32Z</time>
      </trkpt>
      <trkpt lat="48.08228" lon="-2.27489">
        <ele>59.74</ele>
        <time>2012-08-28T13:26:33Z</time>
      </trkpt>
      <trkpt lat="48.0823" lon="-2.27492">
        <ele>59.74</ele>
        <time>2012-08-28T13:26:34Z</time>
      </trkpt>
      <trkpt lat="48.08244" lon="-2.27513">
        <ele>60.7</ele>
        <time>2012-08-28T13:26:41Z</time>
      </trkpt>
      <trkpt lat="48.0826" lon="-2.27502">
        <ele>61.18</ele>
        <time>2012-08-28T13:26:46Z</time>
      </trkpt>
      <trkpt lat="48.08285" lon="-2.27465">
        <ele>60.7</ele>
        <time>2012-08-28T13:26:53Z</time>
      </trkpt>
      <trkpt lat="48.08302" lon="-2.27443">
        <ele>61.18</ele>
        <time>2012-08-28T13:26:57Z</time>
      </trkpt>
      <trkpt lat="48.08307" lon="-2.2744">
        <ele>60.7</ele>
        <time>2012-08-28T13:26:58Z</time>
      </trkpt>
      <trkpt lat="48.08312" lon="-2.2744">
        <ele>60.7</ele>
        <time>2012-08-28T13:26:59Z</time>
      </trkpt>
      <trkpt lat="48.08316" lon="-2.27442">
        <ele>60.7</ele>
        <time>2012-08-28T13:27:00Z</time>
      </trkpt>
      <trkpt lat="48.08321" lon="-2.27444">
        <ele>60.7</ele>
        <time>2012-08-28T13:27:01Z</time>
      </trkpt>
      <trkpt lat="48.08325" lon="-2.27446">
        <ele>61.18</ele>
        <time>2012-08-28T13:27:02Z</time>
      </trkpt>
      <trkpt lat="48.0835" lon="-2.27459">
        <ele>62.14</ele>
        <time>2012-08-28T13:27:09Z</time>
      </trkpt>
      <trkpt lat="48.08379" lon="-2.27475">
        <ele>63.1</ele>
        <time>2012-08-28T13:27:17Z</time>
      </trkpt>
      <trkpt lat="48.08391" lon="-2.27482">
        <ele>63.1</ele>
        <time>2012-08-28T13:27:20Z</time>
      </trkpt>
      <trkpt lat="48.08395" lon="-2.27484">
        <ele>63.1</ele>
        <time>2012-08-28T13:27:21Z</time>
      </trkpt>
      <trkpt lat="48.08411" lon="-2.27492">
        <ele>64.55</ele>
        <time>2012-08-28T13:27:25Z</time>
      </trkpt>
      <trkpt lat="48.08415" lon="-2.27493">
        <ele>64.55</ele>
        <time>2012-08-28T13:27:26Z</time>
      </trkpt>
      <trkpt lat="48.0845" lon="-2.27511">
        <ele>67.43</ele>
        <time>2012-08-28T13:27:35Z</time>
      </trkpt>
      <trkpt lat="48.0846" lon="-2.27518">
        <ele>67.91</ele>
        <time>2012-08-28T13:27:38Z</time>
      </trkpt>
      <trkpt lat="48.08462" lon="-2.27524">
        <ele>67.91</ele>
        <time>2012-08-28T13:27:40Z</time>
      </trkpt>
      <trkpt lat="48.08458" lon="-2.27553">
        <ele>67.91</ele>
        <time>2012-08-28T13:27:47Z</time>
      </trkpt>
      <trkpt lat="48.08456" lon="-2.27562">
        <ele>67.91</ele>
        <time>2012-08-28T13:27:49Z</time>
      </trkpt>
      <trkpt lat="48.08463" lon="-2.27574">
        <ele>68.39</ele>
        <time>2012-08-28T13:27:53Z</time>
      </trkpt>
      <trkpt lat="48.08492" lon="-2.27586">
        <ele>69.35</ele>
        <time>2012-08-28T13:28:01Z</time>
      </trkpt>
      <trkpt lat="48.08515" lon="-2.27598">
        <ele>70.31</ele>
        <time>2012-08-28T13:28:08Z</time>
      </trkpt>
      <trkpt lat="48.08526" lon="-2.27574">
        <ele>70.79</ele>
        <time>2012-08-28T13:28:14Z</time>
      </trkpt>
      <trkpt lat="48.08539" lon="-2.27537">
        <ele>71.27</ele>
        <time>2012-08-28T13:28:22Z</time>
      </trkpt>
      <trkpt lat="48.08551" lon="-2.27498">
        <ele>70.79</ele>
        <time>2012-08-28T13:28:29Z</time>
      </trkpt>
      <trkpt lat="48.08555" lon="-2.27492">
        <ele>70.31</ele>
        <time>2012-08-28T13:28:30Z</time>
      </trkpt>
      <trkpt lat="48.0856" lon="-2.2749">
        <ele>69.83</ele>
        <time>2012-08-28T13:28:31Z</time>
      </trkpt>
      <trkpt lat="48.08564" lon="-2.27491">
        <ele>69.83</ele>
        <time>2012-08-28T13:28:32Z</time>
      </trkpt>
      <trkpt lat="48.08569" lon="-2.27494">
        <ele>69.83</ele>
        <time>2012-08-28T13:28:33Z</time>
      </trkpt>
      <trkpt lat="48.08597" lon="-2.2751">
        <ele>69.83</ele>
        <time>2012-08-28T13:28:40Z</time>
      </trkpt>
      <trkpt lat="48.08609" lon="-2.27514">
        <ele>69.83</ele>
        <time>2012-08-28T13:28:44Z</time>
      </trkpt>
      <trkpt lat="48.08611" lon="-2.27513">
        <ele>69.83</ele>
        <time>2012-08-28T13:28:45Z</time>
      </trkpt>
      <trkpt lat="48.08612" lon="-2.27511">
        <ele>69.35</ele>
        <time>2012-08-28T13:28:46Z</time>
      </trkpt>
      <trkpt lat="48.08615" lon="-2.27498">
        <ele>69.35</ele>
        <time>2012-08-28T13:28:51Z</time>
      </trkpt>
      <trkpt lat="48.08616" lon="-2.27495">
        <ele>68.87</ele>
        <time>2012-08-28T13:28:56Z</time>
      </trkpt>
      <trkpt lat="48.08616" lon="-2.27494">
        <ele>68.87</ele>
        <time>2012-08-28T13:29:04Z</time>
      </trkpt>
      <trkpt lat="48.08615" lon="-2.27495">
        <ele>68.87</ele>
        <time>2012-08-28T13:29:14Z</time>
      </trkpt>
      <trkpt lat="48.08615" lon="-2.27497">
        <ele>68.87</ele>
        <time>2012-08-28T13:29:24Z</time>
      </trkpt>
      <trkpt lat="48.08615" lon="-2.27497">
        <ele>68.39</ele>
        <time>2012-08-28T13:29:30Z</time>
      </trkpt>
      <trkpt lat="48.08612" lon="-2.27492">
        <ele>66.47</ele>
        <time>2012-08-28T13:29:38Z</time>
      </trkpt>
      <trkpt lat="48.08613" lon="-2.27486">
        <ele>64.07</ele>
        <time>2012-08-28T13:29:47Z</time>
      </trkpt>
      <trkpt lat="48.08613" lon="-2.27486">
        <ele>62.62</ele>
        <time>2012-08-28T13:29:59Z</time>
      </trkpt>
      <trkpt lat="48.08612" lon="-2.2749">
        <ele>62.62</ele>
        <time>2012-08-28T13:30:12Z</time>
      </trkpt>
      <trkpt lat="48.08612" lon="-2.27486">
        <ele>61.66</ele>
        <time>2012-08-28T13:30:23Z</time>
      </trkpt>
      <trkpt lat="48.08611" lon="-2.27489">
        <ele>61.66</ele>
        <time>2012-08-28T13:30:36Z</time>
      </trkpt>
      <trkpt lat="48.08612" lon="-2.27487">
        <ele>61.66</ele>
        <time>2012-08-28T13:30:49Z</time>
      </trkpt>
      <trkpt lat="48.08611" lon="-2.27488">
        <ele>62.14</ele>
        <time>2012-08-28T13:31:02Z</time>
      </trkpt>
    </trkseg>
  </trk>
</gpx>